<?xml version="1.0" encoding="UTF-8" standalone="no" ?>
<gpx xmlns="http://www.topografix.com/GPX/1/1" xmlns:xsi="http://www.w3.org/2001/XMLSchema-instance" xsi:schemaLocation="http://www.topografix.com/GPX/1/1 http://www.topografix.com/GPX/1/1/gpx.xsd" version="1.1" creator="VisuGPX - https://www.visugpx.com">
  <metadata>
    <name>Sortie du 18/03/2011</name>
    <desc><![CDATA[sortie cyclo emmenée par Gérard M]]></desc>
  </metadata>
  <wpt lat="47.08967" lon="5.48465">
    <ele>229</ele>
  </wpt>
  <trk>
    <name><![CDATA[Sortie du 18/03/2011_1]]></name>
    <trkseg>
      <trkpt lat="47.08967" lon="5.48465">
        <ele>229</ele>
        <time>2011-03-18T12:17:48Z</time>
      </trkpt>
      <trkpt lat="47.08971" lon="5.48478">
        <ele>229</ele>
        <time>2011-03-18T12:18:07Z</time>
      </trkpt>
      <trkpt lat="47.08973" lon="5.48491">
        <ele>229</ele>
        <time>2011-03-18T12:18:14Z</time>
      </trkpt>
      <trkpt lat="47.08971" lon="5.48478">
        <ele>234</ele>
        <time>2011-03-18T12:18:24Z</time>
      </trkpt>
      <trkpt lat="47.08964" lon="5.48468">
        <ele>234</ele>
        <time>2011-03-18T12:18:50Z</time>
      </trkpt>
      <trkpt lat="47.08957" lon="5.48477">
        <ele>239</ele>
        <time>2011-03-18T12:18:58Z</time>
      </trkpt>
      <trkpt lat="47.08953" lon="5.48492">
        <ele>239</ele>
        <time>2011-03-18T12:19:02Z</time>
      </trkpt>
      <trkpt lat="47.08944" lon="5.48492">
        <ele>239</ele>
        <time>2011-03-18T12:19:07Z</time>
      </trkpt>
      <trkpt lat="47.08935" lon="5.48483">
        <ele>239</ele>
        <time>2011-03-18T12:19:11Z</time>
      </trkpt>
      <trkpt lat="47.08927" lon="5.48475">
        <ele>239</ele>
        <time>2011-03-18T12:19:14Z</time>
      </trkpt>
      <trkpt lat="47.08919" lon="5.48466">
        <ele>239</ele>
        <time>2011-03-18T12:19:17Z</time>
      </trkpt>
      <trkpt lat="47.08909" lon="5.48456">
        <ele>239</ele>
        <time>2011-03-18T12:19:20Z</time>
      </trkpt>
      <trkpt lat="47.08902" lon="5.48442">
        <ele>239</ele>
        <time>2011-03-18T12:19:23Z</time>
      </trkpt>
      <trkpt lat="47.08896" lon="5.48431">
        <ele>239</ele>
        <time>2011-03-18T12:19:25Z</time>
      </trkpt>
      <trkpt lat="47.08888" lon="5.48416">
        <ele>239</ele>
        <time>2011-03-18T12:19:28Z</time>
      </trkpt>
      <trkpt lat="47.08882" lon="5.48406">
        <ele>239</ele>
        <time>2011-03-18T12:19:30Z</time>
      </trkpt>
      <trkpt lat="47.08873" lon="5.48391">
        <ele>233</ele>
        <time>2011-03-18T12:19:33Z</time>
      </trkpt>
      <trkpt lat="47.08867" lon="5.48381">
        <ele>233</ele>
        <time>2011-03-18T12:19:35Z</time>
      </trkpt>
      <trkpt lat="47.08859" lon="5.48367">
        <ele>233</ele>
        <time>2011-03-18T12:19:38Z</time>
      </trkpt>
      <trkpt lat="47.0885" lon="5.48352">
        <ele>233</ele>
        <time>2011-03-18T12:19:41Z</time>
      </trkpt>
      <trkpt lat="47.08843" lon="5.48343">
        <ele>233</ele>
        <time>2011-03-18T12:19:43Z</time>
      </trkpt>
      <trkpt lat="47.08837" lon="5.48333">
        <ele>233</ele>
        <time>2011-03-18T12:19:45Z</time>
      </trkpt>
      <trkpt lat="47.08829" lon="5.48322">
        <ele>233</ele>
        <time>2011-03-18T12:19:48Z</time>
      </trkpt>
      <trkpt lat="47.08823" lon="5.48307">
        <ele>233</ele>
        <time>2011-03-18T12:19:54Z</time>
      </trkpt>
      <trkpt lat="47.08816" lon="5.48293">
        <ele>233</ele>
        <time>2011-03-18T12:19:57Z</time>
      </trkpt>
      <trkpt lat="47.0881" lon="5.48282">
        <ele>233</ele>
        <time>2011-03-18T12:19:59Z</time>
      </trkpt>
      <trkpt lat="47.08803" lon="5.48272">
        <ele>233</ele>
        <time>2011-03-18T12:20:01Z</time>
      </trkpt>
      <trkpt lat="47.08796" lon="5.48262">
        <ele>233</ele>
        <time>2011-03-18T12:20:03Z</time>
      </trkpt>
      <trkpt lat="47.08786" lon="5.48259">
        <ele>233</ele>
        <time>2011-03-18T12:20:05Z</time>
      </trkpt>
      <trkpt lat="47.08776" lon="5.48266">
        <ele>233</ele>
        <time>2011-03-18T12:20:07Z</time>
      </trkpt>
      <trkpt lat="47.08767" lon="5.48278">
        <ele>233</ele>
        <time>2011-03-18T12:20:09Z</time>
      </trkpt>
      <trkpt lat="47.08756" lon="5.4829">
        <ele>233</ele>
        <time>2011-03-18T12:20:11Z</time>
      </trkpt>
      <trkpt lat="47.08746" lon="5.48305">
        <ele>233</ele>
        <time>2011-03-18T12:20:13Z</time>
      </trkpt>
      <trkpt lat="47.08734" lon="5.48319">
        <ele>233</ele>
        <time>2011-03-18T12:20:15Z</time>
      </trkpt>
      <trkpt lat="47.08722" lon="5.48333">
        <ele>233</ele>
        <time>2011-03-18T12:20:17Z</time>
      </trkpt>
      <trkpt lat="47.0871" lon="5.48348">
        <ele>233</ele>
        <time>2011-03-18T12:20:19Z</time>
      </trkpt>
      <trkpt lat="47.08698" lon="5.48362">
        <ele>233</ele>
        <time>2011-03-18T12:20:21Z</time>
      </trkpt>
      <trkpt lat="47.08686" lon="5.48376">
        <ele>233</ele>
        <time>2011-03-18T12:20:23Z</time>
      </trkpt>
      <trkpt lat="47.08676" lon="5.48387">
        <ele>233</ele>
        <time>2011-03-18T12:20:25Z</time>
      </trkpt>
      <trkpt lat="47.08668" lon="5.48397">
        <ele>233</ele>
        <time>2011-03-18T12:20:28Z</time>
      </trkpt>
      <trkpt lat="47.08662" lon="5.48409">
        <ele>225</ele>
        <time>2011-03-18T12:20:45Z</time>
      </trkpt>
      <trkpt lat="47.08667" lon="5.48422">
        <ele>225</ele>
        <time>2011-03-18T12:20:48Z</time>
      </trkpt>
      <trkpt lat="47.08668" lon="5.48439">
        <ele>225</ele>
        <time>2011-03-18T12:20:51Z</time>
      </trkpt>
      <trkpt lat="47.08666" lon="5.48454">
        <ele>225</ele>
        <time>2011-03-18T12:20:53Z</time>
      </trkpt>
      <trkpt lat="47.08661" lon="5.48473">
        <ele>225</ele>
        <time>2011-03-18T12:20:55Z</time>
      </trkpt>
      <trkpt lat="47.08656" lon="5.48494">
        <ele>225</ele>
        <time>2011-03-18T12:20:57Z</time>
      </trkpt>
      <trkpt lat="47.08649" lon="5.48517">
        <ele>225</ele>
        <time>2011-03-18T12:20:59Z</time>
      </trkpt>
      <trkpt lat="47.08645" lon="5.48528">
        <ele>225</ele>
        <time>2011-03-18T12:21:00Z</time>
      </trkpt>
      <trkpt lat="47.08641" lon="5.4854">
        <ele>225</ele>
        <time>2011-03-18T12:21:01Z</time>
      </trkpt>
      <trkpt lat="47.08634" lon="5.4855">
        <ele>225</ele>
        <time>2011-03-18T12:21:02Z</time>
      </trkpt>
      <trkpt lat="47.08626" lon="5.48558">
        <ele>218</ele>
        <time>2011-03-18T12:21:03Z</time>
      </trkpt>
      <trkpt lat="47.08618" lon="5.48564">
        <ele>218</ele>
        <time>2011-03-18T12:21:04Z</time>
      </trkpt>
      <trkpt lat="47.08608" lon="5.4857">
        <ele>218</ele>
        <time>2011-03-18T12:21:05Z</time>
      </trkpt>
      <trkpt lat="47.08591" lon="5.48576">
        <ele>218</ele>
        <time>2011-03-18T12:21:07Z</time>
      </trkpt>
      <trkpt lat="47.08581" lon="5.48579">
        <ele>212</ele>
        <time>2011-03-18T12:21:08Z</time>
      </trkpt>
      <trkpt lat="47.08572" lon="5.48582">
        <ele>212</ele>
        <time>2011-03-18T12:21:09Z</time>
      </trkpt>
      <trkpt lat="47.08564" lon="5.48586">
        <ele>212</ele>
        <time>2011-03-18T12:21:10Z</time>
      </trkpt>
      <trkpt lat="47.08549" lon="5.48597">
        <ele>212</ele>
        <time>2011-03-18T12:21:12Z</time>
      </trkpt>
      <trkpt lat="47.08538" lon="5.48607">
        <ele>206</ele>
        <time>2011-03-18T12:21:14Z</time>
      </trkpt>
      <trkpt lat="47.08529" lon="5.48615">
        <ele>206</ele>
        <time>2011-03-18T12:21:16Z</time>
      </trkpt>
      <trkpt lat="47.08522" lon="5.48623">
        <ele>206</ele>
        <time>2011-03-18T12:21:19Z</time>
      </trkpt>
      <trkpt lat="47.08525" lon="5.48637">
        <ele>206</ele>
        <time>2011-03-18T12:21:22Z</time>
      </trkpt>
      <trkpt lat="47.08532" lon="5.48647">
        <ele>206</ele>
        <time>2011-03-18T12:21:24Z</time>
      </trkpt>
      <trkpt lat="47.08539" lon="5.48658">
        <ele>206</ele>
        <time>2011-03-18T12:21:26Z</time>
      </trkpt>
      <trkpt lat="47.08546" lon="5.48669">
        <ele>206</ele>
        <time>2011-03-18T12:21:28Z</time>
      </trkpt>
      <trkpt lat="47.08554" lon="5.48683">
        <ele>206</ele>
        <time>2011-03-18T12:21:30Z</time>
      </trkpt>
      <trkpt lat="47.08562" lon="5.48696">
        <ele>206</ele>
        <time>2011-03-18T12:21:32Z</time>
      </trkpt>
      <trkpt lat="47.08569" lon="5.48709">
        <ele>206</ele>
        <time>2011-03-18T12:21:34Z</time>
      </trkpt>
      <trkpt lat="47.08576" lon="5.48722">
        <ele>206</ele>
        <time>2011-03-18T12:21:36Z</time>
      </trkpt>
      <trkpt lat="47.08583" lon="5.48736">
        <ele>206</ele>
        <time>2011-03-18T12:21:38Z</time>
      </trkpt>
      <trkpt lat="47.08589" lon="5.4875">
        <ele>206</ele>
        <time>2011-03-18T12:21:40Z</time>
      </trkpt>
      <trkpt lat="47.08596" lon="5.48764">
        <ele>206</ele>
        <time>2011-03-18T12:21:42Z</time>
      </trkpt>
      <trkpt lat="47.08602" lon="5.48777">
        <ele>206</ele>
        <time>2011-03-18T12:21:44Z</time>
      </trkpt>
      <trkpt lat="47.08608" lon="5.48792">
        <ele>206</ele>
        <time>2011-03-18T12:21:46Z</time>
      </trkpt>
      <trkpt lat="47.08614" lon="5.48805">
        <ele>206</ele>
        <time>2011-03-18T12:21:48Z</time>
      </trkpt>
      <trkpt lat="47.0862" lon="5.48817">
        <ele>206</ele>
        <time>2011-03-18T12:21:50Z</time>
      </trkpt>
      <trkpt lat="47.08626" lon="5.4883">
        <ele>206</ele>
        <time>2011-03-18T12:21:52Z</time>
      </trkpt>
      <trkpt lat="47.08631" lon="5.48842">
        <ele>206</ele>
        <time>2011-03-18T12:21:54Z</time>
      </trkpt>
      <trkpt lat="47.08637" lon="5.48855">
        <ele>206</ele>
        <time>2011-03-18T12:21:56Z</time>
      </trkpt>
      <trkpt lat="47.08643" lon="5.48869">
        <ele>206</ele>
        <time>2011-03-18T12:21:58Z</time>
      </trkpt>
      <trkpt lat="47.08649" lon="5.48883">
        <ele>206</ele>
        <time>2011-03-18T12:22:00Z</time>
      </trkpt>
      <trkpt lat="47.08655" lon="5.48898">
        <ele>206</ele>
        <time>2011-03-18T12:22:02Z</time>
      </trkpt>
      <trkpt lat="47.08662" lon="5.48912">
        <ele>206</ele>
        <time>2011-03-18T12:22:04Z</time>
      </trkpt>
      <trkpt lat="47.08668" lon="5.48926">
        <ele>206</ele>
        <time>2011-03-18T12:22:06Z</time>
      </trkpt>
      <trkpt lat="47.08675" lon="5.48941">
        <ele>206</ele>
        <time>2011-03-18T12:22:08Z</time>
      </trkpt>
      <trkpt lat="47.08681" lon="5.48955">
        <ele>206</ele>
        <time>2011-03-18T12:22:10Z</time>
      </trkpt>
      <trkpt lat="47.08687" lon="5.4897">
        <ele>206</ele>
        <time>2011-03-18T12:22:12Z</time>
      </trkpt>
      <trkpt lat="47.08694" lon="5.48984">
        <ele>206</ele>
        <time>2011-03-18T12:22:14Z</time>
      </trkpt>
      <trkpt lat="47.087" lon="5.48997">
        <ele>206</ele>
        <time>2011-03-18T12:22:16Z</time>
      </trkpt>
      <trkpt lat="47.08705" lon="5.49012">
        <ele>206</ele>
        <time>2011-03-18T12:22:18Z</time>
      </trkpt>
      <trkpt lat="47.08711" lon="5.49026">
        <ele>206</ele>
        <time>2011-03-18T12:22:20Z</time>
      </trkpt>
      <trkpt lat="47.08717" lon="5.4904">
        <ele>206</ele>
        <time>2011-03-18T12:22:22Z</time>
      </trkpt>
      <trkpt lat="47.08722" lon="5.49054">
        <ele>206</ele>
        <time>2011-03-18T12:22:24Z</time>
      </trkpt>
      <trkpt lat="47.08728" lon="5.49068">
        <ele>206</ele>
        <time>2011-03-18T12:22:26Z</time>
      </trkpt>
      <trkpt lat="47.08734" lon="5.49083">
        <ele>206</ele>
        <time>2011-03-18T12:22:28Z</time>
      </trkpt>
      <trkpt lat="47.0874" lon="5.49096">
        <ele>206</ele>
        <time>2011-03-18T12:22:30Z</time>
      </trkpt>
      <trkpt lat="47.08748" lon="5.49109">
        <ele>206</ele>
        <time>2011-03-18T12:22:32Z</time>
      </trkpt>
      <trkpt lat="47.08757" lon="5.4912">
        <ele>206</ele>
        <time>2011-03-18T12:22:34Z</time>
      </trkpt>
      <trkpt lat="47.08766" lon="5.4913">
        <ele>206</ele>
        <time>2011-03-18T12:22:36Z</time>
      </trkpt>
      <trkpt lat="47.08776" lon="5.4914">
        <ele>206</ele>
        <time>2011-03-18T12:22:38Z</time>
      </trkpt>
      <trkpt lat="47.08785" lon="5.49149">
        <ele>206</ele>
        <time>2011-03-18T12:22:40Z</time>
      </trkpt>
      <trkpt lat="47.08795" lon="5.49156">
        <ele>206</ele>
        <time>2011-03-18T12:22:42Z</time>
      </trkpt>
      <trkpt lat="47.08805" lon="5.49163">
        <ele>206</ele>
        <time>2011-03-18T12:22:44Z</time>
      </trkpt>
      <trkpt lat="47.08816" lon="5.49168">
        <ele>206</ele>
        <time>2011-03-18T12:22:46Z</time>
      </trkpt>
      <trkpt lat="47.08826" lon="5.49174">
        <ele>206</ele>
        <time>2011-03-18T12:22:48Z</time>
      </trkpt>
      <trkpt lat="47.08837" lon="5.49181">
        <ele>206</ele>
        <time>2011-03-18T12:22:50Z</time>
      </trkpt>
      <trkpt lat="47.08846" lon="5.49189">
        <ele>206</ele>
        <time>2011-03-18T12:22:52Z</time>
      </trkpt>
      <trkpt lat="47.08853" lon="5.49201">
        <ele>206</ele>
        <time>2011-03-18T12:22:54Z</time>
      </trkpt>
      <trkpt lat="47.08859" lon="5.49215">
        <ele>206</ele>
        <time>2011-03-18T12:22:56Z</time>
      </trkpt>
      <trkpt lat="47.08867" lon="5.49228">
        <ele>206</ele>
        <time>2011-03-18T12:22:58Z</time>
      </trkpt>
      <trkpt lat="47.08874" lon="5.49242">
        <ele>206</ele>
        <time>2011-03-18T12:23:00Z</time>
      </trkpt>
      <trkpt lat="47.08878" lon="5.49257">
        <ele>206</ele>
        <time>2011-03-18T12:23:02Z</time>
      </trkpt>
      <trkpt lat="47.08875" lon="5.49273">
        <ele>206</ele>
        <time>2011-03-18T12:23:05Z</time>
      </trkpt>
      <trkpt lat="47.08867" lon="5.49281">
        <ele>206</ele>
        <time>2011-03-18T12:23:08Z</time>
      </trkpt>
      <trkpt lat="47.0887" lon="5.493">
        <ele>206</ele>
        <time>2011-03-18T12:23:11Z</time>
      </trkpt>
      <trkpt lat="47.08875" lon="5.49315">
        <ele>206</ele>
        <time>2011-03-18T12:23:13Z</time>
      </trkpt>
      <trkpt lat="47.08881" lon="5.49332">
        <ele>206</ele>
        <time>2011-03-18T12:23:15Z</time>
      </trkpt>
      <trkpt lat="47.08883" lon="5.49347">
        <ele>206</ele>
        <time>2011-03-18T12:23:17Z</time>
      </trkpt>
      <trkpt lat="47.08886" lon="5.49364">
        <ele>206</ele>
        <time>2011-03-18T12:23:19Z</time>
      </trkpt>
      <trkpt lat="47.0889" lon="5.49379">
        <ele>206</ele>
        <time>2011-03-18T12:23:21Z</time>
      </trkpt>
      <trkpt lat="47.08894" lon="5.49396">
        <ele>206</ele>
        <time>2011-03-18T12:23:24Z</time>
      </trkpt>
      <trkpt lat="47.08897" lon="5.49411">
        <ele>206</ele>
        <time>2011-03-18T12:23:27Z</time>
      </trkpt>
      <trkpt lat="47.08892" lon="5.49424">
        <ele>206</ele>
        <time>2011-03-18T12:23:32Z</time>
      </trkpt>
      <trkpt lat="47.08883" lon="5.49429">
        <ele>206</ele>
        <time>2011-03-18T12:23:36Z</time>
      </trkpt>
      <trkpt lat="47.08872" lon="5.49439">
        <ele>206</ele>
        <time>2011-03-18T12:23:39Z</time>
      </trkpt>
      <trkpt lat="47.08864" lon="5.49446">
        <ele>206</ele>
        <time>2011-03-18T12:23:41Z</time>
      </trkpt>
      <trkpt lat="47.08855" lon="5.49451">
        <ele>206</ele>
        <time>2011-03-18T12:23:43Z</time>
      </trkpt>
      <trkpt lat="47.08846" lon="5.49457">
        <ele>206</ele>
        <time>2011-03-18T12:23:45Z</time>
      </trkpt>
      <trkpt lat="47.08837" lon="5.49463">
        <ele>206</ele>
        <time>2011-03-18T12:23:47Z</time>
      </trkpt>
      <trkpt lat="47.08827" lon="5.49468">
        <ele>206</ele>
        <time>2011-03-18T12:23:49Z</time>
      </trkpt>
      <trkpt lat="47.08818" lon="5.49474">
        <ele>206</ele>
        <time>2011-03-18T12:23:51Z</time>
      </trkpt>
      <trkpt lat="47.08808" lon="5.4948">
        <ele>206</ele>
        <time>2011-03-18T12:23:53Z</time>
      </trkpt>
      <trkpt lat="47.08799" lon="5.49486">
        <ele>206</ele>
        <time>2011-03-18T12:23:55Z</time>
      </trkpt>
      <trkpt lat="47.0879" lon="5.49491">
        <ele>206</ele>
        <time>2011-03-18T12:23:57Z</time>
      </trkpt>
      <trkpt lat="47.0878" lon="5.49499">
        <ele>206</ele>
        <time>2011-03-18T12:23:59Z</time>
      </trkpt>
      <trkpt lat="47.08769" lon="5.49505">
        <ele>206</ele>
        <time>2011-03-18T12:24:01Z</time>
      </trkpt>
      <trkpt lat="47.08759" lon="5.49512">
        <ele>206</ele>
        <time>2011-03-18T12:24:03Z</time>
      </trkpt>
      <trkpt lat="47.08748" lon="5.49519">
        <ele>206</ele>
        <time>2011-03-18T12:24:05Z</time>
      </trkpt>
      <trkpt lat="47.08736" lon="5.49525">
        <ele>206</ele>
        <time>2011-03-18T12:24:07Z</time>
      </trkpt>
      <trkpt lat="47.08724" lon="5.49525">
        <ele>206</ele>
        <time>2011-03-18T12:24:09Z</time>
      </trkpt>
      <trkpt lat="47.08714" lon="5.49518">
        <ele>206</ele>
        <time>2011-03-18T12:24:11Z</time>
      </trkpt>
      <trkpt lat="47.08707" lon="5.49506">
        <ele>206</ele>
        <time>2011-03-18T12:24:13Z</time>
      </trkpt>
      <trkpt lat="47.08702" lon="5.49488">
        <ele>206</ele>
        <time>2011-03-18T12:24:15Z</time>
      </trkpt>
      <trkpt lat="47.087" lon="5.49468">
        <ele>206</ele>
        <time>2011-03-18T12:24:17Z</time>
      </trkpt>
      <trkpt lat="47.087" lon="5.49447">
        <ele>206</ele>
        <time>2011-03-18T12:24:19Z</time>
      </trkpt>
      <trkpt lat="47.08699" lon="5.49426">
        <ele>206</ele>
        <time>2011-03-18T12:24:21Z</time>
      </trkpt>
      <trkpt lat="47.08695" lon="5.49406">
        <ele>206</ele>
        <time>2011-03-18T12:24:23Z</time>
      </trkpt>
      <trkpt lat="47.0869" lon="5.49387">
        <ele>206</ele>
        <time>2011-03-18T12:24:25Z</time>
      </trkpt>
      <trkpt lat="47.08685" lon="5.49369">
        <ele>206</ele>
        <time>2011-03-18T12:24:27Z</time>
      </trkpt>
      <trkpt lat="47.0868" lon="5.49351">
        <ele>206</ele>
        <time>2011-03-18T12:24:29Z</time>
      </trkpt>
      <trkpt lat="47.08676" lon="5.49334">
        <ele>206</ele>
        <time>2011-03-18T12:24:31Z</time>
      </trkpt>
      <trkpt lat="47.08671" lon="5.49317">
        <ele>206</ele>
        <time>2011-03-18T12:24:33Z</time>
      </trkpt>
      <trkpt lat="47.08666" lon="5.49301">
        <ele>206</ele>
        <time>2011-03-18T12:24:35Z</time>
      </trkpt>
      <trkpt lat="47.08661" lon="5.49284">
        <ele>206</ele>
        <time>2011-03-18T12:24:37Z</time>
      </trkpt>
      <trkpt lat="47.08656" lon="5.49268">
        <ele>206</ele>
        <time>2011-03-18T12:24:39Z</time>
      </trkpt>
      <trkpt lat="47.08651" lon="5.49252">
        <ele>206</ele>
        <time>2011-03-18T12:24:41Z</time>
      </trkpt>
      <trkpt lat="47.08646" lon="5.49236">
        <ele>206</ele>
        <time>2011-03-18T12:24:43Z</time>
      </trkpt>
      <trkpt lat="47.08641" lon="5.4922">
        <ele>206</ele>
        <time>2011-03-18T12:24:45Z</time>
      </trkpt>
      <trkpt lat="47.08636" lon="5.49207">
        <ele>206</ele>
        <time>2011-03-18T12:24:47Z</time>
      </trkpt>
      <trkpt lat="47.08629" lon="5.49192">
        <ele>206</ele>
        <time>2011-03-18T12:24:49Z</time>
      </trkpt>
      <trkpt lat="47.08622" lon="5.49179">
        <ele>206</ele>
        <time>2011-03-18T12:24:51Z</time>
      </trkpt>
      <trkpt lat="47.08614" lon="5.49167">
        <ele>206</ele>
        <time>2011-03-18T12:24:53Z</time>
      </trkpt>
      <trkpt lat="47.08606" lon="5.49155">
        <ele>206</ele>
        <time>2011-03-18T12:24:55Z</time>
      </trkpt>
      <trkpt lat="47.08597" lon="5.49145">
        <ele>206</ele>
        <time>2011-03-18T12:24:57Z</time>
      </trkpt>
      <trkpt lat="47.08587" lon="5.49135">
        <ele>206</ele>
        <time>2011-03-18T12:24:59Z</time>
      </trkpt>
      <trkpt lat="47.08578" lon="5.49126">
        <ele>206</ele>
        <time>2011-03-18T12:25:01Z</time>
      </trkpt>
      <trkpt lat="47.08568" lon="5.49115">
        <ele>206</ele>
        <time>2011-03-18T12:25:03Z</time>
      </trkpt>
      <trkpt lat="47.08559" lon="5.49105">
        <ele>206</ele>
        <time>2011-03-18T12:25:05Z</time>
      </trkpt>
      <trkpt lat="47.08549" lon="5.49095">
        <ele>206</ele>
        <time>2011-03-18T12:25:07Z</time>
      </trkpt>
      <trkpt lat="47.0854" lon="5.49085">
        <ele>206</ele>
        <time>2011-03-18T12:25:09Z</time>
      </trkpt>
      <trkpt lat="47.08531" lon="5.49075">
        <ele>206</ele>
        <time>2011-03-18T12:25:11Z</time>
      </trkpt>
      <trkpt lat="47.08523" lon="5.49064">
        <ele>206</ele>
        <time>2011-03-18T12:25:13Z</time>
      </trkpt>
      <trkpt lat="47.08516" lon="5.49051">
        <ele>206</ele>
        <time>2011-03-18T12:25:15Z</time>
      </trkpt>
      <trkpt lat="47.08508" lon="5.49039">
        <ele>206</ele>
        <time>2011-03-18T12:25:17Z</time>
      </trkpt>
      <trkpt lat="47.085" lon="5.49027">
        <ele>206</ele>
        <time>2011-03-18T12:25:19Z</time>
      </trkpt>
      <trkpt lat="47.08492" lon="5.49014">
        <ele>206</ele>
        <time>2011-03-18T12:25:21Z</time>
      </trkpt>
      <trkpt lat="47.08485" lon="5.49001">
        <ele>206</ele>
        <time>2011-03-18T12:25:23Z</time>
      </trkpt>
      <trkpt lat="47.08478" lon="5.48988">
        <ele>206</ele>
        <time>2011-03-18T12:25:25Z</time>
      </trkpt>
      <trkpt lat="47.08471" lon="5.48976">
        <ele>206</ele>
        <time>2011-03-18T12:25:27Z</time>
      </trkpt>
      <trkpt lat="47.08464" lon="5.48963">
        <ele>206</ele>
        <time>2011-03-18T12:25:29Z</time>
      </trkpt>
      <trkpt lat="47.08457" lon="5.48951">
        <ele>206</ele>
        <time>2011-03-18T12:25:31Z</time>
      </trkpt>
      <trkpt lat="47.08449" lon="5.48939">
        <ele>206</ele>
        <time>2011-03-18T12:25:33Z</time>
      </trkpt>
      <trkpt lat="47.08443" lon="5.48928">
        <ele>206</ele>
        <time>2011-03-18T12:25:35Z</time>
      </trkpt>
      <trkpt lat="47.08436" lon="5.48917">
        <ele>206</ele>
        <time>2011-03-18T12:25:37Z</time>
      </trkpt>
      <trkpt lat="47.08429" lon="5.48906">
        <ele>206</ele>
        <time>2011-03-18T12:25:39Z</time>
      </trkpt>
      <trkpt lat="47.08422" lon="5.48895">
        <ele>206</ele>
        <time>2011-03-18T12:25:41Z</time>
      </trkpt>
      <trkpt lat="47.08415" lon="5.48884">
        <ele>206</ele>
        <time>2011-03-18T12:25:43Z</time>
      </trkpt>
      <trkpt lat="47.08408" lon="5.48872">
        <ele>206</ele>
        <time>2011-03-18T12:25:45Z</time>
      </trkpt>
      <trkpt lat="47.08403" lon="5.4886">
        <ele>206</ele>
        <time>2011-03-18T12:25:47Z</time>
      </trkpt>
      <trkpt lat="47.08401" lon="5.48846">
        <ele>206</ele>
        <time>2011-03-18T12:25:49Z</time>
      </trkpt>
      <trkpt lat="47.08395" lon="5.48833">
        <ele>206</ele>
        <time>2011-03-18T12:25:51Z</time>
      </trkpt>
      <trkpt lat="47.08386" lon="5.48827">
        <ele>206</ele>
        <time>2011-03-18T12:25:53Z</time>
      </trkpt>
      <trkpt lat="47.08377" lon="5.4882">
        <ele>206</ele>
        <time>2011-03-18T12:25:55Z</time>
      </trkpt>
      <trkpt lat="47.08368" lon="5.4881">
        <ele>206</ele>
        <time>2011-03-18T12:25:57Z</time>
      </trkpt>
      <trkpt lat="47.08361" lon="5.48797">
        <ele>206</ele>
        <time>2011-03-18T12:25:59Z</time>
      </trkpt>
      <trkpt lat="47.08354" lon="5.48785">
        <ele>206</ele>
        <time>2011-03-18T12:26:01Z</time>
      </trkpt>
      <trkpt lat="47.08346" lon="5.48774">
        <ele>206</ele>
        <time>2011-03-18T12:26:03Z</time>
      </trkpt>
      <trkpt lat="47.08339" lon="5.48762">
        <ele>206</ele>
        <time>2011-03-18T12:26:05Z</time>
      </trkpt>
      <trkpt lat="47.08332" lon="5.48749">
        <ele>206</ele>
        <time>2011-03-18T12:26:07Z</time>
      </trkpt>
      <trkpt lat="47.08324" lon="5.48737">
        <ele>206</ele>
        <time>2011-03-18T12:26:09Z</time>
      </trkpt>
      <trkpt lat="47.08316" lon="5.48724">
        <ele>206</ele>
        <time>2011-03-18T12:26:11Z</time>
      </trkpt>
      <trkpt lat="47.08308" lon="5.48712">
        <ele>206</ele>
        <time>2011-03-18T12:26:13Z</time>
      </trkpt>
      <trkpt lat="47.08301" lon="5.487">
        <ele>206</ele>
        <time>2011-03-18T12:26:15Z</time>
      </trkpt>
      <trkpt lat="47.08293" lon="5.48688">
        <ele>206</ele>
        <time>2011-03-18T12:26:17Z</time>
      </trkpt>
      <trkpt lat="47.08286" lon="5.48676">
        <ele>206</ele>
        <time>2011-03-18T12:26:19Z</time>
      </trkpt>
      <trkpt lat="47.08278" lon="5.48663">
        <ele>206</ele>
        <time>2011-03-18T12:26:21Z</time>
      </trkpt>
      <trkpt lat="47.0827" lon="5.48651">
        <ele>206</ele>
        <time>2011-03-18T12:26:23Z</time>
      </trkpt>
      <trkpt lat="47.08262" lon="5.48639">
        <ele>206</ele>
        <time>2011-03-18T12:26:25Z</time>
      </trkpt>
      <trkpt lat="47.08254" lon="5.48627">
        <ele>206</ele>
        <time>2011-03-18T12:26:27Z</time>
      </trkpt>
      <trkpt lat="47.08246" lon="5.48616">
        <ele>206</ele>
        <time>2011-03-18T12:26:29Z</time>
      </trkpt>
      <trkpt lat="47.08238" lon="5.48606">
        <ele>206</ele>
        <time>2011-03-18T12:26:31Z</time>
      </trkpt>
      <trkpt lat="47.08229" lon="5.48596">
        <ele>206</ele>
        <time>2011-03-18T12:26:33Z</time>
      </trkpt>
      <trkpt lat="47.08221" lon="5.48587">
        <ele>206</ele>
        <time>2011-03-18T12:26:35Z</time>
      </trkpt>
      <trkpt lat="47.08211" lon="5.48577">
        <ele>206</ele>
        <time>2011-03-18T12:26:37Z</time>
      </trkpt>
      <trkpt lat="47.08202" lon="5.48568">
        <ele>206</ele>
        <time>2011-03-18T12:26:39Z</time>
      </trkpt>
      <trkpt lat="47.08192" lon="5.4856">
        <ele>206</ele>
        <time>2011-03-18T12:26:41Z</time>
      </trkpt>
      <trkpt lat="47.08183" lon="5.48551">
        <ele>206</ele>
        <time>2011-03-18T12:26:43Z</time>
      </trkpt>
      <trkpt lat="47.08173" lon="5.48543">
        <ele>206</ele>
        <time>2011-03-18T12:26:45Z</time>
      </trkpt>
      <trkpt lat="47.08163" lon="5.48536">
        <ele>206</ele>
        <time>2011-03-18T12:26:47Z</time>
      </trkpt>
      <trkpt lat="47.08153" lon="5.48528">
        <ele>206</ele>
        <time>2011-03-18T12:26:49Z</time>
      </trkpt>
      <trkpt lat="47.08143" lon="5.48521">
        <ele>206</ele>
        <time>2011-03-18T12:26:51Z</time>
      </trkpt>
      <trkpt lat="47.08132" lon="5.48514">
        <ele>206</ele>
        <time>2011-03-18T12:26:53Z</time>
      </trkpt>
      <trkpt lat="47.08122" lon="5.48507">
        <ele>206</ele>
        <time>2011-03-18T12:26:55Z</time>
      </trkpt>
      <trkpt lat="47.08112" lon="5.48499">
        <ele>206</ele>
        <time>2011-03-18T12:26:57Z</time>
      </trkpt>
      <trkpt lat="47.08102" lon="5.48492">
        <ele>206</ele>
        <time>2011-03-18T12:26:59Z</time>
      </trkpt>
      <trkpt lat="47.08092" lon="5.48484">
        <ele>206</ele>
        <time>2011-03-18T12:27:01Z</time>
      </trkpt>
      <trkpt lat="47.08081" lon="5.48477">
        <ele>206</ele>
        <time>2011-03-18T12:27:03Z</time>
      </trkpt>
      <trkpt lat="47.08071" lon="5.48475">
        <ele>206</ele>
        <time>2011-03-18T12:27:05Z</time>
      </trkpt>
      <trkpt lat="47.0806" lon="5.4848">
        <ele>206</ele>
        <time>2011-03-18T12:27:07Z</time>
      </trkpt>
      <trkpt lat="47.08052" lon="5.4849">
        <ele>206</ele>
        <time>2011-03-18T12:27:09Z</time>
      </trkpt>
      <trkpt lat="47.08046" lon="5.48503">
        <ele>206</ele>
        <time>2011-03-18T12:27:11Z</time>
      </trkpt>
      <trkpt lat="47.08041" lon="5.48518">
        <ele>206</ele>
        <time>2011-03-18T12:27:13Z</time>
      </trkpt>
      <trkpt lat="47.08036" lon="5.48532">
        <ele>206</ele>
        <time>2011-03-18T12:27:15Z</time>
      </trkpt>
      <trkpt lat="47.0803" lon="5.48546">
        <ele>206</ele>
        <time>2011-03-18T12:27:17Z</time>
      </trkpt>
      <trkpt lat="47.08025" lon="5.48561">
        <ele>206</ele>
        <time>2011-03-18T12:27:19Z</time>
      </trkpt>
      <trkpt lat="47.08021" lon="5.48575">
        <ele>206</ele>
        <time>2011-03-18T12:27:21Z</time>
      </trkpt>
      <trkpt lat="47.08016" lon="5.4859">
        <ele>206</ele>
        <time>2011-03-18T12:27:23Z</time>
      </trkpt>
      <trkpt lat="47.08012" lon="5.48604">
        <ele>206</ele>
        <time>2011-03-18T12:27:25Z</time>
      </trkpt>
      <trkpt lat="47.08007" lon="5.48617">
        <ele>206</ele>
        <time>2011-03-18T12:27:27Z</time>
      </trkpt>
      <trkpt lat="47.08003" lon="5.48632">
        <ele>206</ele>
        <time>2011-03-18T12:27:29Z</time>
      </trkpt>
      <trkpt lat="47.07998" lon="5.48646">
        <ele>206</ele>
        <time>2011-03-18T12:27:31Z</time>
      </trkpt>
      <trkpt lat="47.07994" lon="5.4866">
        <ele>206</ele>
        <time>2011-03-18T12:27:33Z</time>
      </trkpt>
      <trkpt lat="47.07988" lon="5.48674">
        <ele>206</ele>
        <time>2011-03-18T12:27:35Z</time>
      </trkpt>
      <trkpt lat="47.07984" lon="5.48689">
        <ele>206</ele>
        <time>2011-03-18T12:27:37Z</time>
      </trkpt>
      <trkpt lat="47.07978" lon="5.48705">
        <ele>206</ele>
        <time>2011-03-18T12:27:39Z</time>
      </trkpt>
      <trkpt lat="47.07973" lon="5.4872">
        <ele>206</ele>
        <time>2011-03-18T12:27:41Z</time>
      </trkpt>
      <trkpt lat="47.07968" lon="5.48734">
        <ele>206</ele>
        <time>2011-03-18T12:27:43Z</time>
      </trkpt>
      <trkpt lat="47.07963" lon="5.48749">
        <ele>206</ele>
        <time>2011-03-18T12:27:45Z</time>
      </trkpt>
      <trkpt lat="47.07959" lon="5.48765">
        <ele>206</ele>
        <time>2011-03-18T12:27:47Z</time>
      </trkpt>
      <trkpt lat="47.07954" lon="5.48779">
        <ele>206</ele>
        <time>2011-03-18T12:27:49Z</time>
      </trkpt>
      <trkpt lat="47.07948" lon="5.48794">
        <ele>206</ele>
        <time>2011-03-18T12:27:51Z</time>
      </trkpt>
      <trkpt lat="47.07943" lon="5.48808">
        <ele>206</ele>
        <time>2011-03-18T12:27:53Z</time>
      </trkpt>
      <trkpt lat="47.07938" lon="5.48822">
        <ele>206</ele>
        <time>2011-03-18T12:27:55Z</time>
      </trkpt>
      <trkpt lat="47.07933" lon="5.48837">
        <ele>206</ele>
        <time>2011-03-18T12:27:57Z</time>
      </trkpt>
      <trkpt lat="47.07928" lon="5.48851">
        <ele>206</ele>
        <time>2011-03-18T12:27:59Z</time>
      </trkpt>
      <trkpt lat="47.07924" lon="5.48866">
        <ele>206</ele>
        <time>2011-03-18T12:28:01Z</time>
      </trkpt>
      <trkpt lat="47.07919" lon="5.48881">
        <ele>206</ele>
        <time>2011-03-18T12:28:03Z</time>
      </trkpt>
      <trkpt lat="47.07914" lon="5.48896">
        <ele>206</ele>
        <time>2011-03-18T12:28:05Z</time>
      </trkpt>
      <trkpt lat="47.07909" lon="5.48909">
        <ele>206</ele>
        <time>2011-03-18T12:28:07Z</time>
      </trkpt>
      <trkpt lat="47.07903" lon="5.48923">
        <ele>206</ele>
        <time>2011-03-18T12:28:09Z</time>
      </trkpt>
      <trkpt lat="47.07896" lon="5.48935">
        <ele>206</ele>
        <time>2011-03-18T12:28:11Z</time>
      </trkpt>
      <trkpt lat="47.07887" lon="5.48945">
        <ele>206</ele>
        <time>2011-03-18T12:28:13Z</time>
      </trkpt>
      <trkpt lat="47.07876" lon="5.48953">
        <ele>206</ele>
        <time>2011-03-18T12:28:15Z</time>
      </trkpt>
      <trkpt lat="47.07865" lon="5.48959">
        <ele>206</ele>
        <time>2011-03-18T12:28:17Z</time>
      </trkpt>
      <trkpt lat="47.07854" lon="5.48961">
        <ele>206</ele>
        <time>2011-03-18T12:28:19Z</time>
      </trkpt>
      <trkpt lat="47.07843" lon="5.48961">
        <ele>206</ele>
        <time>2011-03-18T12:28:21Z</time>
      </trkpt>
      <trkpt lat="47.07831" lon="5.48958">
        <ele>206</ele>
        <time>2011-03-18T12:28:23Z</time>
      </trkpt>
      <trkpt lat="47.07822" lon="5.48952">
        <ele>206</ele>
        <time>2011-03-18T12:28:25Z</time>
      </trkpt>
      <trkpt lat="47.07813" lon="5.48941">
        <ele>206</ele>
        <time>2011-03-18T12:28:27Z</time>
      </trkpt>
      <trkpt lat="47.07809" lon="5.48925">
        <ele>206</ele>
        <time>2011-03-18T12:28:29Z</time>
      </trkpt>
      <trkpt lat="47.07807" lon="5.48909">
        <ele>206</ele>
        <time>2011-03-18T12:28:31Z</time>
      </trkpt>
      <trkpt lat="47.07803" lon="5.48896">
        <ele>206</ele>
        <time>2011-03-18T12:28:33Z</time>
      </trkpt>
      <trkpt lat="47.07795" lon="5.48886">
        <ele>206</ele>
        <time>2011-03-18T12:28:35Z</time>
      </trkpt>
      <trkpt lat="47.07787" lon="5.4888">
        <ele>206</ele>
        <time>2011-03-18T12:28:37Z</time>
      </trkpt>
      <trkpt lat="47.07776" lon="5.48877">
        <ele>206</ele>
        <time>2011-03-18T12:28:39Z</time>
      </trkpt>
      <trkpt lat="47.07766" lon="5.4888">
        <ele>206</ele>
        <time>2011-03-18T12:28:41Z</time>
      </trkpt>
      <trkpt lat="47.07757" lon="5.48888">
        <ele>206</ele>
        <time>2011-03-18T12:28:43Z</time>
      </trkpt>
      <trkpt lat="47.07749" lon="5.48899">
        <ele>206</ele>
        <time>2011-03-18T12:28:45Z</time>
      </trkpt>
      <trkpt lat="47.07745" lon="5.48914">
        <ele>206</ele>
        <time>2011-03-18T12:28:47Z</time>
      </trkpt>
      <trkpt lat="47.07743" lon="5.48929">
        <ele>206</ele>
        <time>2011-03-18T12:28:49Z</time>
      </trkpt>
      <trkpt lat="47.07736" lon="5.48943">
        <ele>206</ele>
        <time>2011-03-18T12:28:51Z</time>
      </trkpt>
      <trkpt lat="47.07727" lon="5.48955">
        <ele>206</ele>
        <time>2011-03-18T12:28:53Z</time>
      </trkpt>
      <trkpt lat="47.07717" lon="5.48963">
        <ele>206</ele>
        <time>2011-03-18T12:28:55Z</time>
      </trkpt>
      <trkpt lat="47.07708" lon="5.48972">
        <ele>206</ele>
        <time>2011-03-18T12:28:57Z</time>
      </trkpt>
      <trkpt lat="47.07699" lon="5.48981">
        <ele>206</ele>
        <time>2011-03-18T12:28:59Z</time>
      </trkpt>
      <trkpt lat="47.0769" lon="5.4899">
        <ele>206</ele>
        <time>2011-03-18T12:29:01Z</time>
      </trkpt>
      <trkpt lat="47.07681" lon="5.48999">
        <ele>206</ele>
        <time>2011-03-18T12:29:03Z</time>
      </trkpt>
      <trkpt lat="47.07672" lon="5.49008">
        <ele>206</ele>
        <time>2011-03-18T12:29:05Z</time>
      </trkpt>
      <trkpt lat="47.07663" lon="5.49017">
        <ele>206</ele>
        <time>2011-03-18T12:29:07Z</time>
      </trkpt>
      <trkpt lat="47.07655" lon="5.49027">
        <ele>206</ele>
        <time>2011-03-18T12:29:09Z</time>
      </trkpt>
      <trkpt lat="47.07647" lon="5.49038">
        <ele>206</ele>
        <time>2011-03-18T12:29:11Z</time>
      </trkpt>
      <trkpt lat="47.07639" lon="5.49049">
        <ele>206</ele>
        <time>2011-03-18T12:29:13Z</time>
      </trkpt>
      <trkpt lat="47.07631" lon="5.49058">
        <ele>206</ele>
        <time>2011-03-18T12:29:15Z</time>
      </trkpt>
      <trkpt lat="47.07623" lon="5.49069">
        <ele>206</ele>
        <time>2011-03-18T12:29:17Z</time>
      </trkpt>
      <trkpt lat="47.07615" lon="5.4908">
        <ele>206</ele>
        <time>2011-03-18T12:29:19Z</time>
      </trkpt>
      <trkpt lat="47.07608" lon="5.49091">
        <ele>206</ele>
        <time>2011-03-18T12:29:21Z</time>
      </trkpt>
      <trkpt lat="47.07601" lon="5.49102">
        <ele>206</ele>
        <time>2011-03-18T12:29:23Z</time>
      </trkpt>
      <trkpt lat="47.07595" lon="5.49114">
        <ele>206</ele>
        <time>2011-03-18T12:29:25Z</time>
      </trkpt>
      <trkpt lat="47.07588" lon="5.49126">
        <ele>206</ele>
        <time>2011-03-18T12:29:27Z</time>
      </trkpt>
      <trkpt lat="47.07581" lon="5.49137">
        <ele>206</ele>
        <time>2011-03-18T12:29:29Z</time>
      </trkpt>
      <trkpt lat="47.07575" lon="5.4915">
        <ele>206</ele>
        <time>2011-03-18T12:29:31Z</time>
      </trkpt>
      <trkpt lat="47.07569" lon="5.49163">
        <ele>206</ele>
        <time>2011-03-18T12:29:33Z</time>
      </trkpt>
      <trkpt lat="47.07563" lon="5.49175">
        <ele>206</ele>
        <time>2011-03-18T12:29:35Z</time>
      </trkpt>
      <trkpt lat="47.07557" lon="5.49188">
        <ele>206</ele>
        <time>2011-03-18T12:29:37Z</time>
      </trkpt>
      <trkpt lat="47.0755" lon="5.492">
        <ele>206</ele>
        <time>2011-03-18T12:29:39Z</time>
      </trkpt>
      <trkpt lat="47.07544" lon="5.49213">
        <ele>206</ele>
        <time>2011-03-18T12:29:41Z</time>
      </trkpt>
      <trkpt lat="47.07538" lon="5.49225">
        <ele>206</ele>
        <time>2011-03-18T12:29:43Z</time>
      </trkpt>
      <trkpt lat="47.07531" lon="5.49237">
        <ele>206</ele>
        <time>2011-03-18T12:29:45Z</time>
      </trkpt>
      <trkpt lat="47.07525" lon="5.4925">
        <ele>206</ele>
        <time>2011-03-18T12:29:47Z</time>
      </trkpt>
      <trkpt lat="47.07519" lon="5.49262">
        <ele>206</ele>
        <time>2011-03-18T12:29:49Z</time>
      </trkpt>
      <trkpt lat="47.07512" lon="5.49274">
        <ele>206</ele>
        <time>2011-03-18T12:29:51Z</time>
      </trkpt>
      <trkpt lat="47.07507" lon="5.49287">
        <ele>206</ele>
        <time>2011-03-18T12:29:53Z</time>
      </trkpt>
      <trkpt lat="47.07501" lon="5.49298">
        <ele>206</ele>
        <time>2011-03-18T12:29:55Z</time>
      </trkpt>
      <trkpt lat="47.07495" lon="5.4931">
        <ele>206</ele>
        <time>2011-03-18T12:29:57Z</time>
      </trkpt>
      <trkpt lat="47.07489" lon="5.49322">
        <ele>206</ele>
        <time>2011-03-18T12:29:59Z</time>
      </trkpt>
      <trkpt lat="47.07481" lon="5.49337">
        <ele>206</ele>
        <time>2011-03-18T12:30:02Z</time>
      </trkpt>
      <trkpt lat="47.07474" lon="5.4935">
        <ele>206</ele>
        <time>2011-03-18T12:30:05Z</time>
      </trkpt>
      <trkpt lat="47.07468" lon="5.49364">
        <ele>206</ele>
        <time>2011-03-18T12:30:08Z</time>
      </trkpt>
      <trkpt lat="47.07461" lon="5.49376">
        <ele>206</ele>
        <time>2011-03-18T12:30:11Z</time>
      </trkpt>
      <trkpt lat="47.07455" lon="5.4939">
        <ele>206</ele>
        <time>2011-03-18T12:30:14Z</time>
      </trkpt>
      <trkpt lat="47.07448" lon="5.49402">
        <ele>206</ele>
        <time>2011-03-18T12:30:17Z</time>
      </trkpt>
      <trkpt lat="47.0744" lon="5.4941">
        <ele>211</ele>
        <time>2011-03-18T12:30:20Z</time>
      </trkpt>
      <trkpt lat="47.0743" lon="5.49411">
        <ele>211</ele>
        <time>2011-03-18T12:30:23Z</time>
      </trkpt>
      <trkpt lat="47.07421" lon="5.49419">
        <ele>211</ele>
        <time>2011-03-18T12:30:26Z</time>
      </trkpt>
      <trkpt lat="47.07415" lon="5.49431">
        <ele>211</ele>
        <time>2011-03-18T12:30:29Z</time>
      </trkpt>
      <trkpt lat="47.07416" lon="5.49448">
        <ele>211</ele>
        <time>2011-03-18T12:30:32Z</time>
      </trkpt>
      <trkpt lat="47.07423" lon="5.49463">
        <ele>211</ele>
        <time>2011-03-18T12:30:35Z</time>
      </trkpt>
      <trkpt lat="47.07434" lon="5.49473">
        <ele>211</ele>
        <time>2011-03-18T12:30:38Z</time>
      </trkpt>
      <trkpt lat="47.07435" lon="5.49488">
        <ele>211</ele>
        <time>2011-03-18T12:30:41Z</time>
      </trkpt>
      <trkpt lat="47.07431" lon="5.49501">
        <ele>211</ele>
        <time>2011-03-18T12:30:45Z</time>
      </trkpt>
      <trkpt lat="47.07426" lon="5.49513">
        <ele>221</ele>
        <time>2011-03-18T12:38:52Z</time>
      </trkpt>
      <trkpt lat="47.07428" lon="5.495">
        <ele>215</ele>
        <time>2011-03-18T12:45:58Z</time>
      </trkpt>
      <trkpt lat="47.07435" lon="5.49488">
        <ele>215</ele>
        <time>2011-03-18T12:46:01Z</time>
      </trkpt>
      <trkpt lat="47.07437" lon="5.49473">
        <ele>215</ele>
        <time>2011-03-18T12:46:05Z</time>
      </trkpt>
      <trkpt lat="47.07446" lon="5.49462">
        <ele>215</ele>
        <time>2011-03-18T12:46:09Z</time>
      </trkpt>
      <trkpt lat="47.07453" lon="5.49448">
        <ele>215</ele>
        <time>2011-03-18T12:46:12Z</time>
      </trkpt>
      <trkpt lat="47.07452" lon="5.49435">
        <ele>215</ele>
        <time>2011-03-18T12:46:14Z</time>
      </trkpt>
      <trkpt lat="47.07447" lon="5.49421">
        <ele>215</ele>
        <time>2011-03-18T12:46:16Z</time>
      </trkpt>
      <trkpt lat="47.07438" lon="5.49413">
        <ele>215</ele>
        <time>2011-03-18T12:46:18Z</time>
      </trkpt>
      <trkpt lat="47.07428" lon="5.49414">
        <ele>215</ele>
        <time>2011-03-18T12:46:20Z</time>
      </trkpt>
      <trkpt lat="47.07418" lon="5.49425">
        <ele>215</ele>
        <time>2011-03-18T12:46:23Z</time>
      </trkpt>
      <trkpt lat="47.07416" lon="5.49444">
        <ele>215</ele>
        <time>2011-03-18T12:46:26Z</time>
      </trkpt>
      <trkpt lat="47.07416" lon="5.49457">
        <ele>215</ele>
        <time>2011-03-18T12:46:28Z</time>
      </trkpt>
      <trkpt lat="47.07412" lon="5.49476">
        <ele>215</ele>
        <time>2011-03-18T12:46:31Z</time>
      </trkpt>
      <trkpt lat="47.07405" lon="5.49491">
        <ele>215</ele>
        <time>2011-03-18T12:46:34Z</time>
      </trkpt>
      <trkpt lat="47.07398" lon="5.49506">
        <ele>215</ele>
        <time>2011-03-18T12:46:37Z</time>
      </trkpt>
      <trkpt lat="47.07393" lon="5.49519">
        <ele>215</ele>
        <time>2011-03-18T12:46:40Z</time>
      </trkpt>
      <trkpt lat="47.07387" lon="5.49533">
        <ele>215</ele>
        <time>2011-03-18T12:46:43Z</time>
      </trkpt>
      <trkpt lat="47.07381" lon="5.49546">
        <ele>215</ele>
        <time>2011-03-18T12:46:46Z</time>
      </trkpt>
      <trkpt lat="47.07376" lon="5.49561">
        <ele>215</ele>
        <time>2011-03-18T12:46:49Z</time>
      </trkpt>
      <trkpt lat="47.07371" lon="5.49574">
        <ele>215</ele>
        <time>2011-03-18T12:46:52Z</time>
      </trkpt>
      <trkpt lat="47.07365" lon="5.49588">
        <ele>215</ele>
        <time>2011-03-18T12:46:55Z</time>
      </trkpt>
      <trkpt lat="47.0736" lon="5.49603">
        <ele>221</ele>
        <time>2011-03-18T12:46:58Z</time>
      </trkpt>
      <trkpt lat="47.07355" lon="5.49617">
        <ele>221</ele>
        <time>2011-03-18T12:47:01Z</time>
      </trkpt>
      <trkpt lat="47.0735" lon="5.49632">
        <ele>221</ele>
        <time>2011-03-18T12:47:04Z</time>
      </trkpt>
      <trkpt lat="47.07345" lon="5.49648">
        <ele>221</ele>
        <time>2011-03-18T12:47:07Z</time>
      </trkpt>
      <trkpt lat="47.07341" lon="5.49664">
        <ele>221</ele>
        <time>2011-03-18T12:47:10Z</time>
      </trkpt>
      <trkpt lat="47.07336" lon="5.4968">
        <ele>221</ele>
        <time>2011-03-18T12:47:13Z</time>
      </trkpt>
      <trkpt lat="47.07332" lon="5.49697">
        <ele>221</ele>
        <time>2011-03-18T12:47:16Z</time>
      </trkpt>
      <trkpt lat="47.07326" lon="5.49712">
        <ele>221</ele>
        <time>2011-03-18T12:47:19Z</time>
      </trkpt>
      <trkpt lat="47.07315" lon="5.49722">
        <ele>221</ele>
        <time>2011-03-18T12:47:22Z</time>
      </trkpt>
      <trkpt lat="47.07305" lon="5.49732">
        <ele>221</ele>
        <time>2011-03-18T12:47:25Z</time>
      </trkpt>
      <trkpt lat="47.07299" lon="5.49749">
        <ele>221</ele>
        <time>2011-03-18T12:47:28Z</time>
      </trkpt>
      <trkpt lat="47.07301" lon="5.49767">
        <ele>221</ele>
        <time>2011-03-18T12:47:31Z</time>
      </trkpt>
      <trkpt lat="47.07309" lon="5.49782">
        <ele>221</ele>
        <time>2011-03-18T12:47:34Z</time>
      </trkpt>
      <trkpt lat="47.07322" lon="5.49787">
        <ele>221</ele>
        <time>2011-03-18T12:47:37Z</time>
      </trkpt>
      <trkpt lat="47.07332" lon="5.49787">
        <ele>221</ele>
        <time>2011-03-18T12:47:39Z</time>
      </trkpt>
      <trkpt lat="47.07341" lon="5.49791">
        <ele>221</ele>
        <time>2011-03-18T12:47:41Z</time>
      </trkpt>
      <trkpt lat="47.0735" lon="5.49798">
        <ele>221</ele>
        <time>2011-03-18T12:47:43Z</time>
      </trkpt>
      <trkpt lat="47.07361" lon="5.49802">
        <ele>221</ele>
        <time>2011-03-18T12:47:45Z</time>
      </trkpt>
      <trkpt lat="47.07371" lon="5.49806">
        <ele>221</ele>
        <time>2011-03-18T12:47:47Z</time>
      </trkpt>
      <trkpt lat="47.07382" lon="5.4981">
        <ele>221</ele>
        <time>2011-03-18T12:47:49Z</time>
      </trkpt>
      <trkpt lat="47.07391" lon="5.49814">
        <ele>221</ele>
        <time>2011-03-18T12:47:51Z</time>
      </trkpt>
      <trkpt lat="47.07401" lon="5.4982">
        <ele>221</ele>
        <time>2011-03-18T12:47:53Z</time>
      </trkpt>
      <trkpt lat="47.07411" lon="5.49824">
        <ele>226</ele>
        <time>2011-03-18T12:47:55Z</time>
      </trkpt>
      <trkpt lat="47.07421" lon="5.49824">
        <ele>226</ele>
        <time>2011-03-18T12:47:57Z</time>
      </trkpt>
      <trkpt lat="47.07431" lon="5.49826">
        <ele>226</ele>
        <time>2011-03-18T12:47:59Z</time>
      </trkpt>
      <trkpt lat="47.07442" lon="5.4983">
        <ele>226</ele>
        <time>2011-03-18T12:48:01Z</time>
      </trkpt>
      <trkpt lat="47.07453" lon="5.49834">
        <ele>226</ele>
        <time>2011-03-18T12:48:03Z</time>
      </trkpt>
      <trkpt lat="47.07465" lon="5.49837">
        <ele>226</ele>
        <time>2011-03-18T12:48:05Z</time>
      </trkpt>
      <trkpt lat="47.07477" lon="5.49842">
        <ele>226</ele>
        <time>2011-03-18T12:48:07Z</time>
      </trkpt>
      <trkpt lat="47.07489" lon="5.49845">
        <ele>226</ele>
        <time>2011-03-18T12:48:09Z</time>
      </trkpt>
      <trkpt lat="47.07501" lon="5.49849">
        <ele>226</ele>
        <time>2011-03-18T12:48:11Z</time>
      </trkpt>
      <trkpt lat="47.07514" lon="5.49853">
        <ele>226</ele>
        <time>2011-03-18T12:48:13Z</time>
      </trkpt>
      <trkpt lat="47.07526" lon="5.49858">
        <ele>226</ele>
        <time>2011-03-18T12:48:15Z</time>
      </trkpt>
      <trkpt lat="47.07538" lon="5.49867">
        <ele>226</ele>
        <time>2011-03-18T12:48:17Z</time>
      </trkpt>
      <trkpt lat="47.07541" lon="5.49882">
        <ele>226</ele>
        <time>2011-03-18T12:48:19Z</time>
      </trkpt>
      <trkpt lat="47.0754" lon="5.49898">
        <ele>226</ele>
        <time>2011-03-18T12:48:21Z</time>
      </trkpt>
      <trkpt lat="47.07538" lon="5.49914">
        <ele>226</ele>
        <time>2011-03-18T12:48:23Z</time>
      </trkpt>
      <trkpt lat="47.07538" lon="5.49928">
        <ele>226</ele>
        <time>2011-03-18T12:48:25Z</time>
      </trkpt>
      <trkpt lat="47.07536" lon="5.49942">
        <ele>226</ele>
        <time>2011-03-18T12:48:27Z</time>
      </trkpt>
      <trkpt lat="47.07535" lon="5.49956">
        <ele>226</ele>
        <time>2011-03-18T12:48:29Z</time>
      </trkpt>
      <trkpt lat="47.07534" lon="5.49969">
        <ele>226</ele>
        <time>2011-03-18T12:48:31Z</time>
      </trkpt>
      <trkpt lat="47.07533" lon="5.49987">
        <ele>226</ele>
        <time>2011-03-18T12:48:34Z</time>
      </trkpt>
      <trkpt lat="47.07532" lon="5.50005">
        <ele>226</ele>
        <time>2011-03-18T12:48:37Z</time>
      </trkpt>
      <trkpt lat="47.0753" lon="5.50023">
        <ele>226</ele>
        <time>2011-03-18T12:48:40Z</time>
      </trkpt>
      <trkpt lat="47.07528" lon="5.50039">
        <ele>226</ele>
        <time>2011-03-18T12:48:43Z</time>
      </trkpt>
      <trkpt lat="47.07527" lon="5.50055">
        <ele>226</ele>
        <time>2011-03-18T12:48:46Z</time>
      </trkpt>
      <trkpt lat="47.07528" lon="5.50069">
        <ele>226</ele>
        <time>2011-03-18T12:48:49Z</time>
      </trkpt>
      <trkpt lat="47.07528" lon="5.50083">
        <ele>226</ele>
        <time>2011-03-18T12:48:52Z</time>
      </trkpt>
      <trkpt lat="47.07529" lon="5.50097">
        <ele>231</ele>
        <time>2011-03-18T12:48:55Z</time>
      </trkpt>
      <trkpt lat="47.07531" lon="5.50113">
        <ele>231</ele>
        <time>2011-03-18T12:48:59Z</time>
      </trkpt>
      <trkpt lat="47.07533" lon="5.5013">
        <ele>231</ele>
        <time>2011-03-18T12:49:03Z</time>
      </trkpt>
      <trkpt lat="47.07534" lon="5.50146">
        <ele>231</ele>
        <time>2011-03-18T12:49:07Z</time>
      </trkpt>
      <trkpt lat="47.07535" lon="5.50162">
        <ele>231</ele>
        <time>2011-03-18T12:49:11Z</time>
      </trkpt>
      <trkpt lat="47.07535" lon="5.50178">
        <ele>231</ele>
        <time>2011-03-18T12:49:16Z</time>
      </trkpt>
      <trkpt lat="47.07534" lon="5.50192">
        <ele>231</ele>
        <time>2011-03-18T12:49:56Z</time>
      </trkpt>
      <trkpt lat="47.0754" lon="5.50203">
        <ele>231</ele>
        <time>2011-03-18T12:50:00Z</time>
      </trkpt>
      <trkpt lat="47.07546" lon="5.50215">
        <ele>231</ele>
        <time>2011-03-18T12:50:03Z</time>
      </trkpt>
      <trkpt lat="47.0755" lon="5.5023">
        <ele>231</ele>
        <time>2011-03-18T12:50:06Z</time>
      </trkpt>
      <trkpt lat="47.07555" lon="5.50245">
        <ele>231</ele>
        <time>2011-03-18T12:50:09Z</time>
      </trkpt>
      <trkpt lat="47.0756" lon="5.50259">
        <ele>231</ele>
        <time>2011-03-18T12:50:12Z</time>
      </trkpt>
      <trkpt lat="47.07565" lon="5.50275">
        <ele>231</ele>
        <time>2011-03-18T12:50:15Z</time>
      </trkpt>
      <trkpt lat="47.07571" lon="5.5029">
        <ele>231</ele>
        <time>2011-03-18T12:50:18Z</time>
      </trkpt>
      <trkpt lat="47.07576" lon="5.50305">
        <ele>231</ele>
        <time>2011-03-18T12:50:21Z</time>
      </trkpt>
      <trkpt lat="47.07581" lon="5.5032">
        <ele>231</ele>
        <time>2011-03-18T12:50:24Z</time>
      </trkpt>
      <trkpt lat="47.07585" lon="5.50335">
        <ele>231</ele>
        <time>2011-03-18T12:50:27Z</time>
      </trkpt>
      <trkpt lat="47.0759" lon="5.50349">
        <ele>231</ele>
        <time>2011-03-18T12:50:30Z</time>
      </trkpt>
      <trkpt lat="47.07595" lon="5.50365">
        <ele>231</ele>
        <time>2011-03-18T12:50:33Z</time>
      </trkpt>
      <trkpt lat="47.076" lon="5.5038">
        <ele>231</ele>
        <time>2011-03-18T12:50:36Z</time>
      </trkpt>
      <trkpt lat="47.07604" lon="5.50395">
        <ele>231</ele>
        <time>2011-03-18T12:50:39Z</time>
      </trkpt>
      <trkpt lat="47.07609" lon="5.5041">
        <ele>231</ele>
        <time>2011-03-18T12:50:42Z</time>
      </trkpt>
      <trkpt lat="47.07614" lon="5.50426">
        <ele>231</ele>
        <time>2011-03-18T12:50:45Z</time>
      </trkpt>
      <trkpt lat="47.07619" lon="5.50441">
        <ele>231</ele>
        <time>2011-03-18T12:50:48Z</time>
      </trkpt>
      <trkpt lat="47.07625" lon="5.50457">
        <ele>231</ele>
        <time>2011-03-18T12:50:51Z</time>
      </trkpt>
      <trkpt lat="47.0763" lon="5.50473">
        <ele>231</ele>
        <time>2011-03-18T12:50:54Z</time>
      </trkpt>
      <trkpt lat="47.07636" lon="5.50491">
        <ele>231</ele>
        <time>2011-03-18T12:50:57Z</time>
      </trkpt>
      <trkpt lat="47.07642" lon="5.50509">
        <ele>236</ele>
        <time>2011-03-18T12:51:00Z</time>
      </trkpt>
      <trkpt lat="47.07648" lon="5.50521">
        <ele>236</ele>
        <time>2011-03-18T12:51:02Z</time>
      </trkpt>
      <trkpt lat="47.07654" lon="5.50534">
        <ele>236</ele>
        <time>2011-03-18T12:51:04Z</time>
      </trkpt>
      <trkpt lat="47.0766" lon="5.50547">
        <ele>236</ele>
        <time>2011-03-18T12:51:06Z</time>
      </trkpt>
      <trkpt lat="47.07666" lon="5.5056">
        <ele>236</ele>
        <time>2011-03-18T12:51:08Z</time>
      </trkpt>
      <trkpt lat="47.07672" lon="5.50572">
        <ele>236</ele>
        <time>2011-03-18T12:51:10Z</time>
      </trkpt>
      <trkpt lat="47.07677" lon="5.50585">
        <ele>236</ele>
        <time>2011-03-18T12:51:12Z</time>
      </trkpt>
      <trkpt lat="47.07683" lon="5.50598">
        <ele>236</ele>
        <time>2011-03-18T12:51:14Z</time>
      </trkpt>
      <trkpt lat="47.07689" lon="5.50611">
        <ele>236</ele>
        <time>2011-03-18T12:51:16Z</time>
      </trkpt>
      <trkpt lat="47.07694" lon="5.50623">
        <ele>236</ele>
        <time>2011-03-18T12:51:18Z</time>
      </trkpt>
      <trkpt lat="47.077" lon="5.50636">
        <ele>236</ele>
        <time>2011-03-18T12:51:20Z</time>
      </trkpt>
      <trkpt lat="47.07704" lon="5.50648">
        <ele>236</ele>
        <time>2011-03-18T12:51:22Z</time>
      </trkpt>
      <trkpt lat="47.07709" lon="5.5066">
        <ele>236</ele>
        <time>2011-03-18T12:51:24Z</time>
      </trkpt>
      <trkpt lat="47.07715" lon="5.50672">
        <ele>236</ele>
        <time>2011-03-18T12:51:26Z</time>
      </trkpt>
      <trkpt lat="47.0772" lon="5.50684">
        <ele>236</ele>
        <time>2011-03-18T12:51:28Z</time>
      </trkpt>
      <trkpt lat="47.07725" lon="5.50696">
        <ele>236</ele>
        <time>2011-03-18T12:51:30Z</time>
      </trkpt>
      <trkpt lat="47.0773" lon="5.50709">
        <ele>236</ele>
        <time>2011-03-18T12:51:32Z</time>
      </trkpt>
      <trkpt lat="47.07736" lon="5.5072">
        <ele>236</ele>
        <time>2011-03-18T12:51:34Z</time>
      </trkpt>
      <trkpt lat="47.07741" lon="5.50732">
        <ele>236</ele>
        <time>2011-03-18T12:51:36Z</time>
      </trkpt>
      <trkpt lat="47.07748" lon="5.50747">
        <ele>236</ele>
        <time>2011-03-18T12:51:39Z</time>
      </trkpt>
      <trkpt lat="47.07755" lon="5.50763">
        <ele>236</ele>
        <time>2011-03-18T12:51:42Z</time>
      </trkpt>
      <trkpt lat="47.07762" lon="5.50779">
        <ele>236</ele>
        <time>2011-03-18T12:51:45Z</time>
      </trkpt>
      <trkpt lat="47.0777" lon="5.50796">
        <ele>236</ele>
        <time>2011-03-18T12:51:48Z</time>
      </trkpt>
      <trkpt lat="47.07777" lon="5.50812">
        <ele>236</ele>
        <time>2011-03-18T12:51:51Z</time>
      </trkpt>
      <trkpt lat="47.07784" lon="5.50828">
        <ele>236</ele>
        <time>2011-03-18T12:51:54Z</time>
      </trkpt>
      <trkpt lat="47.07791" lon="5.50841">
        <ele>236</ele>
        <time>2011-03-18T12:51:57Z</time>
      </trkpt>
      <trkpt lat="47.07797" lon="5.50854">
        <ele>236</ele>
        <time>2011-03-18T12:52:00Z</time>
      </trkpt>
      <trkpt lat="47.07803" lon="5.50867">
        <ele>236</ele>
        <time>2011-03-18T12:52:03Z</time>
      </trkpt>
      <trkpt lat="47.07809" lon="5.50878">
        <ele>236</ele>
        <time>2011-03-18T12:52:08Z</time>
      </trkpt>
      <trkpt lat="47.07817" lon="5.50884">
        <ele>236</ele>
        <time>2011-03-18T12:52:15Z</time>
      </trkpt>
      <trkpt lat="47.07825" lon="5.50875">
        <ele>236</ele>
        <time>2011-03-18T12:52:19Z</time>
      </trkpt>
      <trkpt lat="47.07834" lon="5.50865">
        <ele>236</ele>
        <time>2011-03-18T12:52:23Z</time>
      </trkpt>
      <trkpt lat="47.07841" lon="5.50857">
        <ele>236</ele>
        <time>2011-03-18T12:52:26Z</time>
      </trkpt>
      <trkpt lat="47.07849" lon="5.50847">
        <ele>236</ele>
        <time>2011-03-18T12:52:29Z</time>
      </trkpt>
      <trkpt lat="47.07858" lon="5.50837">
        <ele>236</ele>
        <time>2011-03-18T12:52:32Z</time>
      </trkpt>
      <trkpt lat="47.07868" lon="5.50827">
        <ele>236</ele>
        <time>2011-03-18T12:52:35Z</time>
      </trkpt>
      <trkpt lat="47.07878" lon="5.50818">
        <ele>236</ele>
        <time>2011-03-18T12:52:38Z</time>
      </trkpt>
      <trkpt lat="47.07888" lon="5.50808">
        <ele>242</ele>
        <time>2011-03-18T12:52:41Z</time>
      </trkpt>
      <trkpt lat="47.07899" lon="5.50798">
        <ele>242</ele>
        <time>2011-03-18T12:52:44Z</time>
      </trkpt>
      <trkpt lat="47.07909" lon="5.50789">
        <ele>242</ele>
        <time>2011-03-18T12:52:47Z</time>
      </trkpt>
      <trkpt lat="47.0792" lon="5.50781">
        <ele>242</ele>
        <time>2011-03-18T12:52:50Z</time>
      </trkpt>
      <trkpt lat="47.07931" lon="5.50772">
        <ele>242</ele>
        <time>2011-03-18T12:52:53Z</time>
      </trkpt>
      <trkpt lat="47.07942" lon="5.50763">
        <ele>242</ele>
        <time>2011-03-18T12:52:56Z</time>
      </trkpt>
      <trkpt lat="47.07953" lon="5.50754">
        <ele>242</ele>
        <time>2011-03-18T12:52:59Z</time>
      </trkpt>
      <trkpt lat="47.07964" lon="5.50745">
        <ele>242</ele>
        <time>2011-03-18T12:53:02Z</time>
      </trkpt>
      <trkpt lat="47.07974" lon="5.50737">
        <ele>242</ele>
        <time>2011-03-18T12:53:05Z</time>
      </trkpt>
      <trkpt lat="47.07985" lon="5.50728">
        <ele>242</ele>
        <time>2011-03-18T12:53:08Z</time>
      </trkpt>
      <trkpt lat="47.07995" lon="5.50719">
        <ele>242</ele>
        <time>2011-03-18T12:53:11Z</time>
      </trkpt>
      <trkpt lat="47.08003" lon="5.50712">
        <ele>242</ele>
        <time>2011-03-18T12:53:13Z</time>
      </trkpt>
      <trkpt lat="47.08014" lon="5.50703">
        <ele>242</ele>
        <time>2011-03-18T12:53:16Z</time>
      </trkpt>
      <trkpt lat="47.08022" lon="5.50696">
        <ele>242</ele>
        <time>2011-03-18T12:53:18Z</time>
      </trkpt>
      <trkpt lat="47.08031" lon="5.50688">
        <ele>242</ele>
        <time>2011-03-18T12:53:20Z</time>
      </trkpt>
      <trkpt lat="47.0804" lon="5.5068">
        <ele>242</ele>
        <time>2011-03-18T12:53:22Z</time>
      </trkpt>
      <trkpt lat="47.08049" lon="5.50671">
        <ele>242</ele>
        <time>2011-03-18T12:53:24Z</time>
      </trkpt>
      <trkpt lat="47.08058" lon="5.50661">
        <ele>242</ele>
        <time>2011-03-18T12:53:26Z</time>
      </trkpt>
      <trkpt lat="47.08067" lon="5.50651">
        <ele>242</ele>
        <time>2011-03-18T12:53:28Z</time>
      </trkpt>
      <trkpt lat="47.08076" lon="5.5064">
        <ele>242</ele>
        <time>2011-03-18T12:53:30Z</time>
      </trkpt>
      <trkpt lat="47.08085" lon="5.5063">
        <ele>242</ele>
        <time>2011-03-18T12:53:32Z</time>
      </trkpt>
      <trkpt lat="47.08094" lon="5.5062">
        <ele>242</ele>
        <time>2011-03-18T12:53:34Z</time>
      </trkpt>
      <trkpt lat="47.08102" lon="5.50609">
        <ele>242</ele>
        <time>2011-03-18T12:53:36Z</time>
      </trkpt>
      <trkpt lat="47.08109" lon="5.50599">
        <ele>242</ele>
        <time>2011-03-18T12:53:38Z</time>
      </trkpt>
      <trkpt lat="47.08118" lon="5.50589">
        <ele>242</ele>
        <time>2011-03-18T12:53:40Z</time>
      </trkpt>
      <trkpt lat="47.08126" lon="5.50579">
        <ele>242</ele>
        <time>2011-03-18T12:53:42Z</time>
      </trkpt>
      <trkpt lat="47.08135" lon="5.5057">
        <ele>242</ele>
        <time>2011-03-18T12:53:44Z</time>
      </trkpt>
      <trkpt lat="47.08143" lon="5.5056">
        <ele>242</ele>
        <time>2011-03-18T12:53:46Z</time>
      </trkpt>
      <trkpt lat="47.08151" lon="5.50551">
        <ele>242</ele>
        <time>2011-03-18T12:53:48Z</time>
      </trkpt>
      <trkpt lat="47.08159" lon="5.5054">
        <ele>242</ele>
        <time>2011-03-18T12:53:50Z</time>
      </trkpt>
      <trkpt lat="47.08167" lon="5.5053">
        <ele>242</ele>
        <time>2011-03-18T12:53:52Z</time>
      </trkpt>
      <trkpt lat="47.08174" lon="5.5052">
        <ele>242</ele>
        <time>2011-03-18T12:53:54Z</time>
      </trkpt>
      <trkpt lat="47.08186" lon="5.50517">
        <ele>242</ele>
        <time>2011-03-18T12:53:57Z</time>
      </trkpt>
      <trkpt lat="47.08192" lon="5.50533">
        <ele>242</ele>
        <time>2011-03-18T12:54:00Z</time>
      </trkpt>
      <trkpt lat="47.08195" lon="5.50545">
        <ele>242</ele>
        <time>2011-03-18T12:54:02Z</time>
      </trkpt>
      <trkpt lat="47.08198" lon="5.50564">
        <ele>242</ele>
        <time>2011-03-18T12:54:05Z</time>
      </trkpt>
      <trkpt lat="47.082" lon="5.50577">
        <ele>242</ele>
        <time>2011-03-18T12:54:07Z</time>
      </trkpt>
      <trkpt lat="47.08203" lon="5.50596">
        <ele>242</ele>
        <time>2011-03-18T12:54:10Z</time>
      </trkpt>
      <trkpt lat="47.08205" lon="5.5061">
        <ele>242</ele>
        <time>2011-03-18T12:54:12Z</time>
      </trkpt>
      <trkpt lat="47.08208" lon="5.50623">
        <ele>242</ele>
        <time>2011-03-18T12:54:14Z</time>
      </trkpt>
      <trkpt lat="47.08209" lon="5.50637">
        <ele>242</ele>
        <time>2011-03-18T12:54:16Z</time>
      </trkpt>
      <trkpt lat="47.0821" lon="5.5065">
        <ele>242</ele>
        <time>2011-03-18T12:54:18Z</time>
      </trkpt>
      <trkpt lat="47.08213" lon="5.50666">
        <ele>242</ele>
        <time>2011-03-18T12:54:21Z</time>
      </trkpt>
      <trkpt lat="47.08219" lon="5.50676">
        <ele>242</ele>
        <time>2011-03-18T12:54:25Z</time>
      </trkpt>
      <trkpt lat="47.0823" lon="5.50666">
        <ele>242</ele>
        <time>2011-03-18T12:54:29Z</time>
      </trkpt>
      <trkpt lat="47.08236" lon="5.50657">
        <ele>242</ele>
        <time>2011-03-18T12:54:31Z</time>
      </trkpt>
      <trkpt lat="47.08241" lon="5.50644">
        <ele>242</ele>
        <time>2011-03-18T12:54:33Z</time>
      </trkpt>
      <trkpt lat="47.08249" lon="5.5063">
        <ele>242</ele>
        <time>2011-03-18T12:54:35Z</time>
      </trkpt>
      <trkpt lat="47.08256" lon="5.50615">
        <ele>242</ele>
        <time>2011-03-18T12:54:37Z</time>
      </trkpt>
      <trkpt lat="47.08262" lon="5.50601">
        <ele>236</ele>
        <time>2011-03-18T12:54:39Z</time>
      </trkpt>
      <trkpt lat="47.08269" lon="5.50586">
        <ele>236</ele>
        <time>2011-03-18T12:54:41Z</time>
      </trkpt>
      <trkpt lat="47.08275" lon="5.50577">
        <ele>236</ele>
        <time>2011-03-18T12:54:43Z</time>
      </trkpt>
      <trkpt lat="47.08285" lon="5.50574">
        <ele>236</ele>
        <time>2011-03-18T12:54:45Z</time>
      </trkpt>
      <trkpt lat="47.08297" lon="5.50583">
        <ele>236</ele>
        <time>2011-03-18T12:54:48Z</time>
      </trkpt>
      <trkpt lat="47.08306" lon="5.50594">
        <ele>236</ele>
        <time>2011-03-18T12:54:51Z</time>
      </trkpt>
      <trkpt lat="47.08317" lon="5.50605">
        <ele>236</ele>
        <time>2011-03-18T12:54:54Z</time>
      </trkpt>
      <trkpt lat="47.08329" lon="5.50617">
        <ele>236</ele>
        <time>2011-03-18T12:54:57Z</time>
      </trkpt>
      <trkpt lat="47.08337" lon="5.50625">
        <ele>236</ele>
        <time>2011-03-18T12:54:59Z</time>
      </trkpt>
      <trkpt lat="47.08346" lon="5.50633">
        <ele>236</ele>
        <time>2011-03-18T12:55:01Z</time>
      </trkpt>
      <trkpt lat="47.08354" lon="5.50642">
        <ele>236</ele>
        <time>2011-03-18T12:55:03Z</time>
      </trkpt>
      <trkpt lat="47.08364" lon="5.50651">
        <ele>236</ele>
        <time>2011-03-18T12:55:05Z</time>
      </trkpt>
      <trkpt lat="47.08373" lon="5.50661">
        <ele>236</ele>
        <time>2011-03-18T12:55:07Z</time>
      </trkpt>
      <trkpt lat="47.08383" lon="5.50671">
        <ele>236</ele>
        <time>2011-03-18T12:55:09Z</time>
      </trkpt>
      <trkpt lat="47.08394" lon="5.50681">
        <ele>236</ele>
        <time>2011-03-18T12:55:11Z</time>
      </trkpt>
      <trkpt lat="47.08403" lon="5.50694">
        <ele>236</ele>
        <time>2011-03-18T12:55:13Z</time>
      </trkpt>
      <trkpt lat="47.08415" lon="5.50704">
        <ele>231</ele>
        <time>2011-03-18T12:55:15Z</time>
      </trkpt>
      <trkpt lat="47.08427" lon="5.50714">
        <ele>231</ele>
        <time>2011-03-18T12:55:17Z</time>
      </trkpt>
      <trkpt lat="47.0844" lon="5.50723">
        <ele>231</ele>
        <time>2011-03-18T12:55:19Z</time>
      </trkpt>
      <trkpt lat="47.08451" lon="5.50732">
        <ele>231</ele>
        <time>2011-03-18T12:55:21Z</time>
      </trkpt>
      <trkpt lat="47.08464" lon="5.5074">
        <ele>231</ele>
        <time>2011-03-18T12:55:23Z</time>
      </trkpt>
      <trkpt lat="47.08475" lon="5.50747">
        <ele>231</ele>
        <time>2011-03-18T12:55:25Z</time>
      </trkpt>
      <trkpt lat="47.08486" lon="5.50754">
        <ele>231</ele>
        <time>2011-03-18T12:55:27Z</time>
      </trkpt>
      <trkpt lat="47.08495" lon="5.50761">
        <ele>231</ele>
        <time>2011-03-18T12:55:29Z</time>
      </trkpt>
      <trkpt lat="47.08502" lon="5.5077">
        <ele>231</ele>
        <time>2011-03-18T12:55:31Z</time>
      </trkpt>
      <trkpt lat="47.08505" lon="5.50786">
        <ele>231</ele>
        <time>2011-03-18T12:55:33Z</time>
      </trkpt>
      <trkpt lat="47.08503" lon="5.508">
        <ele>231</ele>
        <time>2011-03-18T12:55:35Z</time>
      </trkpt>
      <trkpt lat="47.08498" lon="5.50816">
        <ele>225</ele>
        <time>2011-03-18T12:55:37Z</time>
      </trkpt>
      <trkpt lat="47.08492" lon="5.50834">
        <ele>225</ele>
        <time>2011-03-18T12:55:39Z</time>
      </trkpt>
      <trkpt lat="47.08485" lon="5.50851">
        <ele>225</ele>
        <time>2011-03-18T12:55:41Z</time>
      </trkpt>
      <trkpt lat="47.08476" lon="5.50868">
        <ele>225</ele>
        <time>2011-03-18T12:55:43Z</time>
      </trkpt>
      <trkpt lat="47.08465" lon="5.50883">
        <ele>225</ele>
        <time>2011-03-18T12:55:45Z</time>
      </trkpt>
      <trkpt lat="47.08454" lon="5.50897">
        <ele>225</ele>
        <time>2011-03-18T12:55:47Z</time>
      </trkpt>
      <trkpt lat="47.08444" lon="5.50915">
        <ele>219</ele>
        <time>2011-03-18T12:55:49Z</time>
      </trkpt>
      <trkpt lat="47.08435" lon="5.50937">
        <ele>219</ele>
        <time>2011-03-18T12:55:51Z</time>
      </trkpt>
      <trkpt lat="47.08426" lon="5.50957">
        <ele>219</ele>
        <time>2011-03-18T12:55:53Z</time>
      </trkpt>
      <trkpt lat="47.08418" lon="5.50978">
        <ele>214</ele>
        <time>2011-03-18T12:55:55Z</time>
      </trkpt>
      <trkpt lat="47.08411" lon="5.50999">
        <ele>214</ele>
        <time>2011-03-18T12:55:57Z</time>
      </trkpt>
      <trkpt lat="47.08409" lon="5.51021">
        <ele>214</ele>
        <time>2011-03-18T12:55:59Z</time>
      </trkpt>
      <trkpt lat="47.0841" lon="5.51044">
        <ele>214</ele>
        <time>2011-03-18T12:56:01Z</time>
      </trkpt>
      <trkpt lat="47.08406" lon="5.51066">
        <ele>214</ele>
        <time>2011-03-18T12:56:03Z</time>
      </trkpt>
      <trkpt lat="47.08399" lon="5.51086">
        <ele>214</ele>
        <time>2011-03-18T12:56:05Z</time>
      </trkpt>
      <trkpt lat="47.08389" lon="5.51102">
        <ele>209</ele>
        <time>2011-03-18T12:56:07Z</time>
      </trkpt>
      <trkpt lat="47.08378" lon="5.51116">
        <ele>209</ele>
        <time>2011-03-18T12:56:09Z</time>
      </trkpt>
      <trkpt lat="47.08365" lon="5.51126">
        <ele>209</ele>
        <time>2011-03-18T12:56:11Z</time>
      </trkpt>
      <trkpt lat="47.08351" lon="5.51134">
        <ele>209</ele>
        <time>2011-03-18T12:56:13Z</time>
      </trkpt>
      <trkpt lat="47.08338" lon="5.51144">
        <ele>209</ele>
        <time>2011-03-18T12:56:15Z</time>
      </trkpt>
      <trkpt lat="47.08326" lon="5.51153">
        <ele>209</ele>
        <time>2011-03-18T12:56:17Z</time>
      </trkpt>
      <trkpt lat="47.08316" lon="5.51167">
        <ele>209</ele>
        <time>2011-03-18T12:56:19Z</time>
      </trkpt>
      <trkpt lat="47.08306" lon="5.51182">
        <ele>209</ele>
        <time>2011-03-18T12:56:21Z</time>
      </trkpt>
      <trkpt lat="47.08299" lon="5.51199">
        <ele>209</ele>
        <time>2011-03-18T12:56:23Z</time>
      </trkpt>
      <trkpt lat="47.08292" lon="5.51215">
        <ele>209</ele>
        <time>2011-03-18T12:56:25Z</time>
      </trkpt>
      <trkpt lat="47.08286" lon="5.51232">
        <ele>209</ele>
        <time>2011-03-18T12:56:27Z</time>
      </trkpt>
      <trkpt lat="47.08279" lon="5.51249">
        <ele>209</ele>
        <time>2011-03-18T12:56:29Z</time>
      </trkpt>
      <trkpt lat="47.08273" lon="5.51266">
        <ele>209</ele>
        <time>2011-03-18T12:56:31Z</time>
      </trkpt>
      <trkpt lat="47.08268" lon="5.51283">
        <ele>209</ele>
        <time>2011-03-18T12:56:33Z</time>
      </trkpt>
      <trkpt lat="47.08262" lon="5.51298">
        <ele>209</ele>
        <time>2011-03-18T12:56:35Z</time>
      </trkpt>
      <trkpt lat="47.08256" lon="5.51314">
        <ele>209</ele>
        <time>2011-03-18T12:56:37Z</time>
      </trkpt>
      <trkpt lat="47.08249" lon="5.51328">
        <ele>209</ele>
        <time>2011-03-18T12:56:39Z</time>
      </trkpt>
      <trkpt lat="47.08242" lon="5.51341">
        <ele>209</ele>
        <time>2011-03-18T12:56:41Z</time>
      </trkpt>
      <trkpt lat="47.08234" lon="5.51353">
        <ele>209</ele>
        <time>2011-03-18T12:56:43Z</time>
      </trkpt>
      <trkpt lat="47.08226" lon="5.51363">
        <ele>209</ele>
        <time>2011-03-18T12:56:45Z</time>
      </trkpt>
      <trkpt lat="47.08219" lon="5.51372">
        <ele>209</ele>
        <time>2011-03-18T12:56:47Z</time>
      </trkpt>
      <trkpt lat="47.08209" lon="5.51385">
        <ele>209</ele>
        <time>2011-03-18T12:56:50Z</time>
      </trkpt>
      <trkpt lat="47.082" lon="5.51398">
        <ele>209</ele>
        <time>2011-03-18T12:56:53Z</time>
      </trkpt>
      <trkpt lat="47.08191" lon="5.51408">
        <ele>209</ele>
        <time>2011-03-18T12:56:56Z</time>
      </trkpt>
      <trkpt lat="47.08183" lon="5.51419">
        <ele>209</ele>
        <time>2011-03-18T12:56:59Z</time>
      </trkpt>
      <trkpt lat="47.08177" lon="5.5143">
        <ele>214</ele>
        <time>2011-03-18T12:57:02Z</time>
      </trkpt>
      <trkpt lat="47.08171" lon="5.5144">
        <ele>214</ele>
        <time>2011-03-18T12:57:05Z</time>
      </trkpt>
      <trkpt lat="47.08164" lon="5.51452">
        <ele>214</ele>
        <time>2011-03-18T12:57:08Z</time>
      </trkpt>
      <trkpt lat="47.08156" lon="5.51462">
        <ele>214</ele>
        <time>2011-03-18T12:57:11Z</time>
      </trkpt>
      <trkpt lat="47.08148" lon="5.51471">
        <ele>214</ele>
        <time>2011-03-18T12:57:14Z</time>
      </trkpt>
      <trkpt lat="47.0814" lon="5.51483">
        <ele>214</ele>
        <time>2011-03-18T12:57:18Z</time>
      </trkpt>
      <trkpt lat="47.0813" lon="5.51494">
        <ele>221</ele>
        <time>2011-03-18T12:57:22Z</time>
      </trkpt>
      <trkpt lat="47.08122" lon="5.51502">
        <ele>221</ele>
        <time>2011-03-18T12:57:25Z</time>
      </trkpt>
      <trkpt lat="47.08115" lon="5.51513">
        <ele>221</ele>
        <time>2011-03-18T12:57:28Z</time>
      </trkpt>
      <trkpt lat="47.08105" lon="5.51524">
        <ele>221</ele>
        <time>2011-03-18T12:57:31Z</time>
      </trkpt>
      <trkpt lat="47.08096" lon="5.51532">
        <ele>221</ele>
        <time>2011-03-18T12:57:33Z</time>
      </trkpt>
      <trkpt lat="47.08086" lon="5.51541">
        <ele>221</ele>
        <time>2011-03-18T12:57:35Z</time>
      </trkpt>
      <trkpt lat="47.08075" lon="5.51548">
        <ele>221</ele>
        <time>2011-03-18T12:57:37Z</time>
      </trkpt>
      <trkpt lat="47.08062" lon="5.51552">
        <ele>221</ele>
        <time>2011-03-18T12:57:39Z</time>
      </trkpt>
      <trkpt lat="47.08047" lon="5.51555">
        <ele>216</ele>
        <time>2011-03-18T12:57:41Z</time>
      </trkpt>
      <trkpt lat="47.08032" lon="5.51558">
        <ele>216</ele>
        <time>2011-03-18T12:57:43Z</time>
      </trkpt>
      <trkpt lat="47.08017" lon="5.51561">
        <ele>216</ele>
        <time>2011-03-18T12:57:45Z</time>
      </trkpt>
      <trkpt lat="47.08003" lon="5.51567">
        <ele>216</ele>
        <time>2011-03-18T12:57:47Z</time>
      </trkpt>
      <trkpt lat="47.0799" lon="5.51575">
        <ele>216</ele>
        <time>2011-03-18T12:57:49Z</time>
      </trkpt>
      <trkpt lat="47.07978" lon="5.51588">
        <ele>216</ele>
        <time>2011-03-18T12:57:51Z</time>
      </trkpt>
      <trkpt lat="47.07968" lon="5.51604">
        <ele>216</ele>
        <time>2011-03-18T12:57:53Z</time>
      </trkpt>
      <trkpt lat="47.07961" lon="5.51626">
        <ele>210</ele>
        <time>2011-03-18T12:57:55Z</time>
      </trkpt>
      <trkpt lat="47.07953" lon="5.51646">
        <ele>210</ele>
        <time>2011-03-18T12:57:57Z</time>
      </trkpt>
      <trkpt lat="47.07945" lon="5.51668">
        <ele>210</ele>
        <time>2011-03-18T12:57:59Z</time>
      </trkpt>
      <trkpt lat="47.07937" lon="5.5169">
        <ele>210</ele>
        <time>2011-03-18T12:58:01Z</time>
      </trkpt>
      <trkpt lat="47.0793" lon="5.51711">
        <ele>210</ele>
        <time>2011-03-18T12:58:03Z</time>
      </trkpt>
      <trkpt lat="47.07924" lon="5.51731">
        <ele>210</ele>
        <time>2011-03-18T12:58:05Z</time>
      </trkpt>
      <trkpt lat="47.0792" lon="5.51748">
        <ele>210</ele>
        <time>2011-03-18T12:58:07Z</time>
      </trkpt>
      <trkpt lat="47.07917" lon="5.51762">
        <ele>210</ele>
        <time>2011-03-18T12:58:09Z</time>
      </trkpt>
      <trkpt lat="47.07914" lon="5.5178">
        <ele>210</ele>
        <time>2011-03-18T12:58:12Z</time>
      </trkpt>
      <trkpt lat="47.07913" lon="5.51795">
        <ele>210</ele>
        <time>2011-03-18T12:58:16Z</time>
      </trkpt>
      <trkpt lat="47.07909" lon="5.51806">
        <ele>210</ele>
        <time>2011-03-18T12:58:21Z</time>
      </trkpt>
      <trkpt lat="47.07908" lon="5.51823">
        <ele>210</ele>
        <time>2011-03-18T12:58:27Z</time>
      </trkpt>
      <trkpt lat="47.0791" lon="5.51841">
        <ele>210</ele>
        <time>2011-03-18T12:58:31Z</time>
      </trkpt>
      <trkpt lat="47.07911" lon="5.51858">
        <ele>210</ele>
        <time>2011-03-18T12:58:34Z</time>
      </trkpt>
      <trkpt lat="47.07914" lon="5.51873">
        <ele>210</ele>
        <time>2011-03-18T12:58:37Z</time>
      </trkpt>
      <trkpt lat="47.07914" lon="5.51888">
        <ele>210</ele>
        <time>2011-03-18T12:58:40Z</time>
      </trkpt>
      <trkpt lat="47.07916" lon="5.51905">
        <ele>210</ele>
        <time>2011-03-18T12:58:43Z</time>
      </trkpt>
      <trkpt lat="47.07917" lon="5.51925">
        <ele>210</ele>
        <time>2011-03-18T12:58:46Z</time>
      </trkpt>
      <trkpt lat="47.07918" lon="5.51939">
        <ele>210</ele>
        <time>2011-03-18T12:58:48Z</time>
      </trkpt>
      <trkpt lat="47.07919" lon="5.51955">
        <ele>210</ele>
        <time>2011-03-18T12:58:50Z</time>
      </trkpt>
      <trkpt lat="47.0792" lon="5.51971">
        <ele>210</ele>
        <time>2011-03-18T12:58:52Z</time>
      </trkpt>
      <trkpt lat="47.07922" lon="5.51987">
        <ele>210</ele>
        <time>2011-03-18T12:58:54Z</time>
      </trkpt>
      <trkpt lat="47.07922" lon="5.52003">
        <ele>210</ele>
        <time>2011-03-18T12:58:56Z</time>
      </trkpt>
      <trkpt lat="47.07923" lon="5.52017">
        <ele>210</ele>
        <time>2011-03-18T12:58:58Z</time>
      </trkpt>
      <trkpt lat="47.07919" lon="5.52032">
        <ele>210</ele>
        <time>2011-03-18T12:59:00Z</time>
      </trkpt>
      <trkpt lat="47.07917" lon="5.52046">
        <ele>210</ele>
        <time>2011-03-18T12:59:02Z</time>
      </trkpt>
      <trkpt lat="47.07917" lon="5.52061">
        <ele>210</ele>
        <time>2011-03-18T12:59:04Z</time>
      </trkpt>
      <trkpt lat="47.07916" lon="5.52075">
        <ele>210</ele>
        <time>2011-03-18T12:59:06Z</time>
      </trkpt>
      <trkpt lat="47.07916" lon="5.52088">
        <ele>210</ele>
        <time>2011-03-18T12:59:08Z</time>
      </trkpt>
      <trkpt lat="47.07916" lon="5.52102">
        <ele>210</ele>
        <time>2011-03-18T12:59:10Z</time>
      </trkpt>
      <trkpt lat="47.07916" lon="5.52122">
        <ele>210</ele>
        <time>2011-03-18T12:59:13Z</time>
      </trkpt>
      <trkpt lat="47.07916" lon="5.52135">
        <ele>210</ele>
        <time>2011-03-18T12:59:15Z</time>
      </trkpt>
      <trkpt lat="47.07917" lon="5.52149">
        <ele>210</ele>
        <time>2011-03-18T12:59:17Z</time>
      </trkpt>
      <trkpt lat="47.07918" lon="5.52168">
        <ele>210</ele>
        <time>2011-03-18T12:59:20Z</time>
      </trkpt>
      <trkpt lat="47.0792" lon="5.52181">
        <ele>210</ele>
        <time>2011-03-18T12:59:22Z</time>
      </trkpt>
      <trkpt lat="47.07924" lon="5.52195">
        <ele>210</ele>
        <time>2011-03-18T12:59:24Z</time>
      </trkpt>
      <trkpt lat="47.07928" lon="5.52209">
        <ele>210</ele>
        <time>2011-03-18T12:59:26Z</time>
      </trkpt>
      <trkpt lat="47.07935" lon="5.52221">
        <ele>210</ele>
        <time>2011-03-18T12:59:28Z</time>
      </trkpt>
      <trkpt lat="47.07943" lon="5.52234">
        <ele>210</ele>
        <time>2011-03-18T12:59:30Z</time>
      </trkpt>
      <trkpt lat="47.07951" lon="5.52246">
        <ele>210</ele>
        <time>2011-03-18T12:59:32Z</time>
      </trkpt>
      <trkpt lat="47.07957" lon="5.52257">
        <ele>210</ele>
        <time>2011-03-18T12:59:34Z</time>
      </trkpt>
      <trkpt lat="47.07963" lon="5.52269">
        <ele>210</ele>
        <time>2011-03-18T12:59:36Z</time>
      </trkpt>
      <trkpt lat="47.0797" lon="5.5228">
        <ele>210</ele>
        <time>2011-03-18T12:59:38Z</time>
      </trkpt>
      <trkpt lat="47.07976" lon="5.52291">
        <ele>210</ele>
        <time>2011-03-18T12:59:40Z</time>
      </trkpt>
      <trkpt lat="47.07983" lon="5.523">
        <ele>210</ele>
        <time>2011-03-18T12:59:42Z</time>
      </trkpt>
      <trkpt lat="47.0799" lon="5.5231">
        <ele>215</ele>
        <time>2011-03-18T12:59:44Z</time>
      </trkpt>
      <trkpt lat="47.07998" lon="5.5232">
        <ele>215</ele>
        <time>2011-03-18T12:59:46Z</time>
      </trkpt>
      <trkpt lat="47.08005" lon="5.52329">
        <ele>215</ele>
        <time>2011-03-18T12:59:48Z</time>
      </trkpt>
      <trkpt lat="47.08013" lon="5.5234">
        <ele>215</ele>
        <time>2011-03-18T12:59:50Z</time>
      </trkpt>
      <trkpt lat="47.0802" lon="5.52353">
        <ele>215</ele>
        <time>2011-03-18T12:59:52Z</time>
      </trkpt>
      <trkpt lat="47.08026" lon="5.52368">
        <ele>215</ele>
        <time>2011-03-18T12:59:54Z</time>
      </trkpt>
      <trkpt lat="47.08032" lon="5.52381">
        <ele>215</ele>
        <time>2011-03-18T12:59:56Z</time>
      </trkpt>
      <trkpt lat="47.08038" lon="5.52396">
        <ele>215</ele>
        <time>2011-03-18T12:59:58Z</time>
      </trkpt>
      <trkpt lat="47.08043" lon="5.52409">
        <ele>209</ele>
        <time>2011-03-18T13:00:00Z</time>
      </trkpt>
      <trkpt lat="47.08048" lon="5.52423">
        <ele>209</ele>
        <time>2011-03-18T13:00:02Z</time>
      </trkpt>
      <trkpt lat="47.08054" lon="5.52436">
        <ele>209</ele>
        <time>2011-03-18T13:00:04Z</time>
      </trkpt>
      <trkpt lat="47.08059" lon="5.5245">
        <ele>209</ele>
        <time>2011-03-18T13:00:06Z</time>
      </trkpt>
      <trkpt lat="47.08065" lon="5.52463">
        <ele>209</ele>
        <time>2011-03-18T13:00:08Z</time>
      </trkpt>
      <trkpt lat="47.08071" lon="5.52476">
        <ele>209</ele>
        <time>2011-03-18T13:00:10Z</time>
      </trkpt>
      <trkpt lat="47.08076" lon="5.52489">
        <ele>209</ele>
        <time>2011-03-18T13:00:12Z</time>
      </trkpt>
      <trkpt lat="47.08082" lon="5.52503">
        <ele>209</ele>
        <time>2011-03-18T13:00:14Z</time>
      </trkpt>
      <trkpt lat="47.08089" lon="5.52515">
        <ele>209</ele>
        <time>2011-03-18T13:00:16Z</time>
      </trkpt>
      <trkpt lat="47.08094" lon="5.52529">
        <ele>209</ele>
        <time>2011-03-18T13:00:18Z</time>
      </trkpt>
      <trkpt lat="47.081" lon="5.52542">
        <ele>209</ele>
        <time>2011-03-18T13:00:20Z</time>
      </trkpt>
      <trkpt lat="47.08106" lon="5.52556">
        <ele>204</ele>
        <time>2011-03-18T13:00:22Z</time>
      </trkpt>
      <trkpt lat="47.08113" lon="5.52569">
        <ele>204</ele>
        <time>2011-03-18T13:00:24Z</time>
      </trkpt>
      <trkpt lat="47.08119" lon="5.52583">
        <ele>204</ele>
        <time>2011-03-18T13:00:26Z</time>
      </trkpt>
      <trkpt lat="47.08125" lon="5.52596">
        <ele>204</ele>
        <time>2011-03-18T13:00:28Z</time>
      </trkpt>
      <trkpt lat="47.0813" lon="5.52609">
        <ele>204</ele>
        <time>2011-03-18T13:00:30Z</time>
      </trkpt>
      <trkpt lat="47.08136" lon="5.52621">
        <ele>204</ele>
        <time>2011-03-18T13:00:32Z</time>
      </trkpt>
      <trkpt lat="47.08143" lon="5.52635">
        <ele>204</ele>
        <time>2011-03-18T13:00:34Z</time>
      </trkpt>
      <trkpt lat="47.08149" lon="5.52647">
        <ele>204</ele>
        <time>2011-03-18T13:00:36Z</time>
      </trkpt>
      <trkpt lat="47.08155" lon="5.5266">
        <ele>204</ele>
        <time>2011-03-18T13:00:38Z</time>
      </trkpt>
      <trkpt lat="47.0816" lon="5.52672">
        <ele>204</ele>
        <time>2011-03-18T13:00:40Z</time>
      </trkpt>
      <trkpt lat="47.08166" lon="5.52685">
        <ele>204</ele>
        <time>2011-03-18T13:00:42Z</time>
      </trkpt>
      <trkpt lat="47.08172" lon="5.52698">
        <ele>204</ele>
        <time>2011-03-18T13:00:44Z</time>
      </trkpt>
      <trkpt lat="47.08178" lon="5.5271">
        <ele>204</ele>
        <time>2011-03-18T13:00:46Z</time>
      </trkpt>
      <trkpt lat="47.08183" lon="5.52723">
        <ele>204</ele>
        <time>2011-03-18T13:00:48Z</time>
      </trkpt>
      <trkpt lat="47.0819" lon="5.52735">
        <ele>204</ele>
        <time>2011-03-18T13:00:50Z</time>
      </trkpt>
      <trkpt lat="47.08197" lon="5.52748">
        <ele>204</ele>
        <time>2011-03-18T13:00:52Z</time>
      </trkpt>
      <trkpt lat="47.08203" lon="5.52761">
        <ele>204</ele>
        <time>2011-03-18T13:00:54Z</time>
      </trkpt>
      <trkpt lat="47.08209" lon="5.52775">
        <ele>204</ele>
        <time>2011-03-18T13:00:56Z</time>
      </trkpt>
      <trkpt lat="47.08215" lon="5.52788">
        <ele>204</ele>
        <time>2011-03-18T13:00:58Z</time>
      </trkpt>
      <trkpt lat="47.08221" lon="5.52802">
        <ele>204</ele>
        <time>2011-03-18T13:01:00Z</time>
      </trkpt>
      <trkpt lat="47.08227" lon="5.52816">
        <ele>204</ele>
        <time>2011-03-18T13:01:02Z</time>
      </trkpt>
      <trkpt lat="47.08233" lon="5.52831">
        <ele>204</ele>
        <time>2011-03-18T13:01:04Z</time>
      </trkpt>
      <trkpt lat="47.08238" lon="5.52847">
        <ele>204</ele>
        <time>2011-03-18T13:01:06Z</time>
      </trkpt>
      <trkpt lat="47.08241" lon="5.52863">
        <ele>204</ele>
        <time>2011-03-18T13:01:08Z</time>
      </trkpt>
      <trkpt lat="47.08244" lon="5.52879">
        <ele>204</ele>
        <time>2011-03-18T13:01:10Z</time>
      </trkpt>
      <trkpt lat="47.08248" lon="5.52894">
        <ele>204</ele>
        <time>2011-03-18T13:01:12Z</time>
      </trkpt>
      <trkpt lat="47.0825" lon="5.52909">
        <ele>204</ele>
        <time>2011-03-18T13:01:14Z</time>
      </trkpt>
      <trkpt lat="47.08252" lon="5.52924">
        <ele>204</ele>
        <time>2011-03-18T13:01:16Z</time>
      </trkpt>
      <trkpt lat="47.08254" lon="5.52939">
        <ele>204</ele>
        <time>2011-03-18T13:01:18Z</time>
      </trkpt>
      <trkpt lat="47.08257" lon="5.52954">
        <ele>204</ele>
        <time>2011-03-18T13:01:20Z</time>
      </trkpt>
      <trkpt lat="47.08258" lon="5.5297">
        <ele>204</ele>
        <time>2011-03-18T13:01:22Z</time>
      </trkpt>
      <trkpt lat="47.0826" lon="5.52985">
        <ele>204</ele>
        <time>2011-03-18T13:01:24Z</time>
      </trkpt>
      <trkpt lat="47.08263" lon="5.52999">
        <ele>204</ele>
        <time>2011-03-18T13:01:26Z</time>
      </trkpt>
      <trkpt lat="47.08266" lon="5.53014">
        <ele>204</ele>
        <time>2011-03-18T13:01:28Z</time>
      </trkpt>
      <trkpt lat="47.0827" lon="5.53028">
        <ele>204</ele>
        <time>2011-03-18T13:01:30Z</time>
      </trkpt>
      <trkpt lat="47.08275" lon="5.53042">
        <ele>204</ele>
        <time>2011-03-18T13:01:32Z</time>
      </trkpt>
      <trkpt lat="47.0828" lon="5.53055">
        <ele>204</ele>
        <time>2011-03-18T13:01:34Z</time>
      </trkpt>
      <trkpt lat="47.08285" lon="5.53069">
        <ele>204</ele>
        <time>2011-03-18T13:01:36Z</time>
      </trkpt>
      <trkpt lat="47.08289" lon="5.53082">
        <ele>204</ele>
        <time>2011-03-18T13:01:38Z</time>
      </trkpt>
      <trkpt lat="47.08294" lon="5.53096">
        <ele>204</ele>
        <time>2011-03-18T13:01:40Z</time>
      </trkpt>
      <trkpt lat="47.08299" lon="5.53111">
        <ele>204</ele>
        <time>2011-03-18T13:01:42Z</time>
      </trkpt>
      <trkpt lat="47.08303" lon="5.53125">
        <ele>204</ele>
        <time>2011-03-18T13:01:44Z</time>
      </trkpt>
      <trkpt lat="47.08308" lon="5.5314">
        <ele>204</ele>
        <time>2011-03-18T13:01:46Z</time>
      </trkpt>
      <trkpt lat="47.08313" lon="5.53156">
        <ele>204</ele>
        <time>2011-03-18T13:01:48Z</time>
      </trkpt>
      <trkpt lat="47.08316" lon="5.5317">
        <ele>204</ele>
        <time>2011-03-18T13:01:50Z</time>
      </trkpt>
      <trkpt lat="47.0832" lon="5.53185">
        <ele>204</ele>
        <time>2011-03-18T13:01:52Z</time>
      </trkpt>
      <trkpt lat="47.08323" lon="5.532">
        <ele>204</ele>
        <time>2011-03-18T13:01:54Z</time>
      </trkpt>
      <trkpt lat="47.08325" lon="5.53215">
        <ele>204</ele>
        <time>2011-03-18T13:01:56Z</time>
      </trkpt>
      <trkpt lat="47.08326" lon="5.53231">
        <ele>204</ele>
        <time>2011-03-18T13:01:58Z</time>
      </trkpt>
      <trkpt lat="47.0833" lon="5.53246">
        <ele>204</ele>
        <time>2011-03-18T13:02:00Z</time>
      </trkpt>
      <trkpt lat="47.08333" lon="5.53262">
        <ele>204</ele>
        <time>2011-03-18T13:02:02Z</time>
      </trkpt>
      <trkpt lat="47.08335" lon="5.53279">
        <ele>204</ele>
        <time>2011-03-18T13:02:04Z</time>
      </trkpt>
      <trkpt lat="47.08336" lon="5.53294">
        <ele>204</ele>
        <time>2011-03-18T13:02:06Z</time>
      </trkpt>
      <trkpt lat="47.08335" lon="5.53309">
        <ele>204</ele>
        <time>2011-03-18T13:02:08Z</time>
      </trkpt>
      <trkpt lat="47.08335" lon="5.53325">
        <ele>204</ele>
        <time>2011-03-18T13:02:10Z</time>
      </trkpt>
      <trkpt lat="47.08333" lon="5.53341">
        <ele>210</ele>
        <time>2011-03-18T13:02:12Z</time>
      </trkpt>
      <trkpt lat="47.08334" lon="5.53357">
        <ele>210</ele>
        <time>2011-03-18T13:02:14Z</time>
      </trkpt>
      <trkpt lat="47.08334" lon="5.53373">
        <ele>210</ele>
        <time>2011-03-18T13:02:16Z</time>
      </trkpt>
      <trkpt lat="47.08335" lon="5.53388">
        <ele>210</ele>
        <time>2011-03-18T13:02:18Z</time>
      </trkpt>
      <trkpt lat="47.08337" lon="5.53404">
        <ele>210</ele>
        <time>2011-03-18T13:02:20Z</time>
      </trkpt>
      <trkpt lat="47.08338" lon="5.5342">
        <ele>210</ele>
        <time>2011-03-18T13:02:22Z</time>
      </trkpt>
      <trkpt lat="47.0834" lon="5.53436">
        <ele>210</ele>
        <time>2011-03-18T13:02:24Z</time>
      </trkpt>
      <trkpt lat="47.08338" lon="5.53453">
        <ele>210</ele>
        <time>2011-03-18T13:02:26Z</time>
      </trkpt>
      <trkpt lat="47.0834" lon="5.53468">
        <ele>210</ele>
        <time>2011-03-18T13:02:28Z</time>
      </trkpt>
      <trkpt lat="47.08344" lon="5.53484">
        <ele>210</ele>
        <time>2011-03-18T13:02:30Z</time>
      </trkpt>
      <trkpt lat="47.08346" lon="5.535">
        <ele>210</ele>
        <time>2011-03-18T13:02:32Z</time>
      </trkpt>
      <trkpt lat="47.0835" lon="5.53514">
        <ele>210</ele>
        <time>2011-03-18T13:02:34Z</time>
      </trkpt>
      <trkpt lat="47.08353" lon="5.5353">
        <ele>210</ele>
        <time>2011-03-18T13:02:36Z</time>
      </trkpt>
      <trkpt lat="47.08357" lon="5.53545">
        <ele>204</ele>
        <time>2011-03-18T13:02:38Z</time>
      </trkpt>
      <trkpt lat="47.08361" lon="5.5356">
        <ele>204</ele>
        <time>2011-03-18T13:02:40Z</time>
      </trkpt>
      <trkpt lat="47.08365" lon="5.53574">
        <ele>204</ele>
        <time>2011-03-18T13:02:42Z</time>
      </trkpt>
      <trkpt lat="47.0837" lon="5.5359">
        <ele>204</ele>
        <time>2011-03-18T13:02:44Z</time>
      </trkpt>
      <trkpt lat="47.08376" lon="5.53606">
        <ele>204</ele>
        <time>2011-03-18T13:02:46Z</time>
      </trkpt>
      <trkpt lat="47.0838" lon="5.53623">
        <ele>204</ele>
        <time>2011-03-18T13:02:48Z</time>
      </trkpt>
      <trkpt lat="47.0838" lon="5.5364">
        <ele>204</ele>
        <time>2011-03-18T13:02:50Z</time>
      </trkpt>
      <trkpt lat="47.08381" lon="5.53657">
        <ele>204</ele>
        <time>2011-03-18T13:02:52Z</time>
      </trkpt>
      <trkpt lat="47.08385" lon="5.53674">
        <ele>204</ele>
        <time>2011-03-18T13:02:54Z</time>
      </trkpt>
      <trkpt lat="47.08388" lon="5.5369">
        <ele>204</ele>
        <time>2011-03-18T13:02:56Z</time>
      </trkpt>
      <trkpt lat="47.08391" lon="5.53706">
        <ele>204</ele>
        <time>2011-03-18T13:02:58Z</time>
      </trkpt>
      <trkpt lat="47.08393" lon="5.53722">
        <ele>204</ele>
        <time>2011-03-18T13:03:00Z</time>
      </trkpt>
      <trkpt lat="47.08394" lon="5.53739">
        <ele>204</ele>
        <time>2011-03-18T13:03:02Z</time>
      </trkpt>
      <trkpt lat="47.08395" lon="5.53755">
        <ele>204</ele>
        <time>2011-03-18T13:03:04Z</time>
      </trkpt>
      <trkpt lat="47.08395" lon="5.5377">
        <ele>204</ele>
        <time>2011-03-18T13:03:06Z</time>
      </trkpt>
      <trkpt lat="47.08397" lon="5.53784">
        <ele>204</ele>
        <time>2011-03-18T13:03:08Z</time>
      </trkpt>
      <trkpt lat="47.08398" lon="5.53797">
        <ele>204</ele>
        <time>2011-03-18T13:03:10Z</time>
      </trkpt>
      <trkpt lat="47.08395" lon="5.53811">
        <ele>204</ele>
        <time>2011-03-18T13:03:12Z</time>
      </trkpt>
      <trkpt lat="47.08391" lon="5.53825">
        <ele>210</ele>
        <time>2011-03-18T13:03:14Z</time>
      </trkpt>
      <trkpt lat="47.08383" lon="5.53838">
        <ele>210</ele>
        <time>2011-03-18T13:03:16Z</time>
      </trkpt>
      <trkpt lat="47.08377" lon="5.53851">
        <ele>210</ele>
        <time>2011-03-18T13:03:18Z</time>
      </trkpt>
      <trkpt lat="47.08372" lon="5.53866">
        <ele>210</ele>
        <time>2011-03-18T13:03:20Z</time>
      </trkpt>
      <trkpt lat="47.08368" lon="5.53881">
        <ele>216</ele>
        <time>2011-03-18T13:03:22Z</time>
      </trkpt>
      <trkpt lat="47.08362" lon="5.53897">
        <ele>216</ele>
        <time>2011-03-18T13:03:24Z</time>
      </trkpt>
      <trkpt lat="47.08358" lon="5.53913">
        <ele>216</ele>
        <time>2011-03-18T13:03:26Z</time>
      </trkpt>
      <trkpt lat="47.08356" lon="5.53929">
        <ele>216</ele>
        <time>2011-03-18T13:03:28Z</time>
      </trkpt>
      <trkpt lat="47.08354" lon="5.53946">
        <ele>216</ele>
        <time>2011-03-18T13:03:30Z</time>
      </trkpt>
      <trkpt lat="47.0835" lon="5.53962">
        <ele>216</ele>
        <time>2011-03-18T13:03:32Z</time>
      </trkpt>
      <trkpt lat="47.08348" lon="5.53978">
        <ele>216</ele>
        <time>2011-03-18T13:03:34Z</time>
      </trkpt>
      <trkpt lat="47.08346" lon="5.53994">
        <ele>210</ele>
        <time>2011-03-18T13:03:36Z</time>
      </trkpt>
      <trkpt lat="47.08344" lon="5.54011">
        <ele>210</ele>
        <time>2011-03-18T13:03:38Z</time>
      </trkpt>
      <trkpt lat="47.08345" lon="5.54027">
        <ele>210</ele>
        <time>2011-03-18T13:03:40Z</time>
      </trkpt>
      <trkpt lat="47.08348" lon="5.54042">
        <ele>210</ele>
        <time>2011-03-18T13:03:42Z</time>
      </trkpt>
      <trkpt lat="47.0835" lon="5.54057">
        <ele>210</ele>
        <time>2011-03-18T13:03:44Z</time>
      </trkpt>
      <trkpt lat="47.08353" lon="5.54071">
        <ele>210</ele>
        <time>2011-03-18T13:03:46Z</time>
      </trkpt>
      <trkpt lat="47.08356" lon="5.54086">
        <ele>210</ele>
        <time>2011-03-18T13:03:48Z</time>
      </trkpt>
      <trkpt lat="47.08362" lon="5.54101">
        <ele>210</ele>
        <time>2011-03-18T13:03:50Z</time>
      </trkpt>
      <trkpt lat="47.08365" lon="5.54117">
        <ele>210</ele>
        <time>2011-03-18T13:03:52Z</time>
      </trkpt>
      <trkpt lat="47.0837" lon="5.54134">
        <ele>210</ele>
        <time>2011-03-18T13:03:54Z</time>
      </trkpt>
      <trkpt lat="47.08373" lon="5.54151">
        <ele>204</ele>
        <time>2011-03-18T13:03:56Z</time>
      </trkpt>
      <trkpt lat="47.08376" lon="5.54168">
        <ele>204</ele>
        <time>2011-03-18T13:03:58Z</time>
      </trkpt>
      <trkpt lat="47.08381" lon="5.54183">
        <ele>204</ele>
        <time>2011-03-18T13:04:00Z</time>
      </trkpt>
      <trkpt lat="47.08385" lon="5.54199">
        <ele>204</ele>
        <time>2011-03-18T13:04:02Z</time>
      </trkpt>
      <trkpt lat="47.08388" lon="5.54213">
        <ele>204</ele>
        <time>2011-03-18T13:04:04Z</time>
      </trkpt>
      <trkpt lat="47.08391" lon="5.54228">
        <ele>204</ele>
        <time>2011-03-18T13:04:06Z</time>
      </trkpt>
      <trkpt lat="47.08397" lon="5.54243">
        <ele>204</ele>
        <time>2011-03-18T13:04:08Z</time>
      </trkpt>
      <trkpt lat="47.08401" lon="5.54256">
        <ele>204</ele>
        <time>2011-03-18T13:04:10Z</time>
      </trkpt>
      <trkpt lat="47.08405" lon="5.5427">
        <ele>204</ele>
        <time>2011-03-18T13:04:12Z</time>
      </trkpt>
      <trkpt lat="47.08411" lon="5.54284">
        <ele>204</ele>
        <time>2011-03-18T13:04:14Z</time>
      </trkpt>
      <trkpt lat="47.08419" lon="5.54297">
        <ele>204</ele>
        <time>2011-03-18T13:04:16Z</time>
      </trkpt>
      <trkpt lat="47.08427" lon="5.54306">
        <ele>204</ele>
        <time>2011-03-18T13:04:18Z</time>
      </trkpt>
      <trkpt lat="47.08437" lon="5.54314">
        <ele>204</ele>
        <time>2011-03-18T13:04:20Z</time>
      </trkpt>
      <trkpt lat="47.08447" lon="5.54321">
        <ele>204</ele>
        <time>2011-03-18T13:04:22Z</time>
      </trkpt>
      <trkpt lat="47.08456" lon="5.54326">
        <ele>204</ele>
        <time>2011-03-18T13:04:24Z</time>
      </trkpt>
      <trkpt lat="47.08467" lon="5.54331">
        <ele>204</ele>
        <time>2011-03-18T13:04:26Z</time>
      </trkpt>
      <trkpt lat="47.08477" lon="5.54338">
        <ele>204</ele>
        <time>2011-03-18T13:04:28Z</time>
      </trkpt>
      <trkpt lat="47.08487" lon="5.54346">
        <ele>204</ele>
        <time>2011-03-18T13:04:30Z</time>
      </trkpt>
      <trkpt lat="47.08497" lon="5.54353">
        <ele>204</ele>
        <time>2011-03-18T13:04:32Z</time>
      </trkpt>
      <trkpt lat="47.08506" lon="5.5436">
        <ele>204</ele>
        <time>2011-03-18T13:04:34Z</time>
      </trkpt>
      <trkpt lat="47.08516" lon="5.54367">
        <ele>204</ele>
        <time>2011-03-18T13:04:36Z</time>
      </trkpt>
      <trkpt lat="47.08526" lon="5.54375">
        <ele>204</ele>
        <time>2011-03-18T13:04:38Z</time>
      </trkpt>
      <trkpt lat="47.08535" lon="5.5438">
        <ele>210</ele>
        <time>2011-03-18T13:04:40Z</time>
      </trkpt>
      <trkpt lat="47.08545" lon="5.54386">
        <ele>210</ele>
        <time>2011-03-18T13:04:42Z</time>
      </trkpt>
      <trkpt lat="47.08555" lon="5.54393">
        <ele>210</ele>
        <time>2011-03-18T13:04:44Z</time>
      </trkpt>
      <trkpt lat="47.08566" lon="5.54397">
        <ele>210</ele>
        <time>2011-03-18T13:04:46Z</time>
      </trkpt>
      <trkpt lat="47.08577" lon="5.54402">
        <ele>210</ele>
        <time>2011-03-18T13:04:48Z</time>
      </trkpt>
      <trkpt lat="47.08587" lon="5.54404">
        <ele>210</ele>
        <time>2011-03-18T13:04:50Z</time>
      </trkpt>
      <trkpt lat="47.08597" lon="5.54404">
        <ele>210</ele>
        <time>2011-03-18T13:04:52Z</time>
      </trkpt>
      <trkpt lat="47.08608" lon="5.54403">
        <ele>210</ele>
        <time>2011-03-18T13:04:54Z</time>
      </trkpt>
      <trkpt lat="47.0862" lon="5.54407">
        <ele>210</ele>
        <time>2011-03-18T13:04:56Z</time>
      </trkpt>
      <trkpt lat="47.0863" lon="5.54409">
        <ele>210</ele>
        <time>2011-03-18T13:04:58Z</time>
      </trkpt>
      <trkpt lat="47.08641" lon="5.5441">
        <ele>210</ele>
        <time>2011-03-18T13:05:00Z</time>
      </trkpt>
      <trkpt lat="47.08653" lon="5.54411">
        <ele>210</ele>
        <time>2011-03-18T13:05:02Z</time>
      </trkpt>
      <trkpt lat="47.08663" lon="5.54415">
        <ele>215</ele>
        <time>2011-03-18T13:05:04Z</time>
      </trkpt>
      <trkpt lat="47.08673" lon="5.54418">
        <ele>215</ele>
        <time>2011-03-18T13:05:06Z</time>
      </trkpt>
      <trkpt lat="47.08684" lon="5.54427">
        <ele>215</ele>
        <time>2011-03-18T13:05:08Z</time>
      </trkpt>
      <trkpt lat="47.08694" lon="5.54435">
        <ele>215</ele>
        <time>2011-03-18T13:05:10Z</time>
      </trkpt>
      <trkpt lat="47.08704" lon="5.54443">
        <ele>215</ele>
        <time>2011-03-18T13:05:12Z</time>
      </trkpt>
      <trkpt lat="47.08714" lon="5.54451">
        <ele>215</ele>
        <time>2011-03-18T13:05:14Z</time>
      </trkpt>
      <trkpt lat="47.08722" lon="5.54461">
        <ele>215</ele>
        <time>2011-03-18T13:05:16Z</time>
      </trkpt>
      <trkpt lat="47.08731" lon="5.54468">
        <ele>215</ele>
        <time>2011-03-18T13:05:18Z</time>
      </trkpt>
      <trkpt lat="47.08738" lon="5.54476">
        <ele>215</ele>
        <time>2011-03-18T13:05:21Z</time>
      </trkpt>
      <trkpt lat="47.08748" lon="5.5449">
        <ele>220</ele>
        <time>2011-03-18T13:05:23Z</time>
      </trkpt>
      <trkpt lat="47.08759" lon="5.54497">
        <ele>220</ele>
        <time>2011-03-18T13:05:25Z</time>
      </trkpt>
      <trkpt lat="47.08769" lon="5.545">
        <ele>220</ele>
        <time>2011-03-18T13:05:27Z</time>
      </trkpt>
      <trkpt lat="47.0878" lon="5.54506">
        <ele>220</ele>
        <time>2011-03-18T13:05:29Z</time>
      </trkpt>
      <trkpt lat="47.08791" lon="5.54508">
        <ele>220</ele>
        <time>2011-03-18T13:05:31Z</time>
      </trkpt>
      <trkpt lat="47.08802" lon="5.54509">
        <ele>220</ele>
        <time>2011-03-18T13:05:33Z</time>
      </trkpt>
      <trkpt lat="47.08813" lon="5.54511">
        <ele>220</ele>
        <time>2011-03-18T13:05:35Z</time>
      </trkpt>
      <trkpt lat="47.08824" lon="5.54515">
        <ele>220</ele>
        <time>2011-03-18T13:05:37Z</time>
      </trkpt>
      <trkpt lat="47.08834" lon="5.5452">
        <ele>220</ele>
        <time>2011-03-18T13:05:39Z</time>
      </trkpt>
      <trkpt lat="47.08845" lon="5.54526">
        <ele>220</ele>
        <time>2011-03-18T13:05:41Z</time>
      </trkpt>
      <trkpt lat="47.08856" lon="5.54533">
        <ele>220</ele>
        <time>2011-03-18T13:05:43Z</time>
      </trkpt>
      <trkpt lat="47.08867" lon="5.5454">
        <ele>220</ele>
        <time>2011-03-18T13:05:45Z</time>
      </trkpt>
      <trkpt lat="47.08878" lon="5.54546">
        <ele>220</ele>
        <time>2011-03-18T13:05:47Z</time>
      </trkpt>
      <trkpt lat="47.08889" lon="5.54553">
        <ele>220</ele>
        <time>2011-03-18T13:05:49Z</time>
      </trkpt>
      <trkpt lat="47.08899" lon="5.54562">
        <ele>220</ele>
        <time>2011-03-18T13:05:51Z</time>
      </trkpt>
      <trkpt lat="47.08909" lon="5.54569">
        <ele>220</ele>
        <time>2011-03-18T13:05:53Z</time>
      </trkpt>
      <trkpt lat="47.08919" lon="5.54577">
        <ele>220</ele>
        <time>2011-03-18T13:05:55Z</time>
      </trkpt>
      <trkpt lat="47.0893" lon="5.54585">
        <ele>220</ele>
        <time>2011-03-18T13:05:57Z</time>
      </trkpt>
      <trkpt lat="47.0894" lon="5.54594">
        <ele>220</ele>
        <time>2011-03-18T13:05:59Z</time>
      </trkpt>
      <trkpt lat="47.08949" lon="5.54604">
        <ele>220</ele>
        <time>2011-03-18T13:06:01Z</time>
      </trkpt>
      <trkpt lat="47.08959" lon="5.54614">
        <ele>220</ele>
        <time>2011-03-18T13:06:03Z</time>
      </trkpt>
      <trkpt lat="47.08968" lon="5.54623">
        <ele>220</ele>
        <time>2011-03-18T13:06:05Z</time>
      </trkpt>
      <trkpt lat="47.08977" lon="5.54633">
        <ele>220</ele>
        <time>2011-03-18T13:06:07Z</time>
      </trkpt>
      <trkpt lat="47.08986" lon="5.54643">
        <ele>220</ele>
        <time>2011-03-18T13:06:09Z</time>
      </trkpt>
      <trkpt lat="47.08994" lon="5.54652">
        <ele>220</ele>
        <time>2011-03-18T13:06:11Z</time>
      </trkpt>
      <trkpt lat="47.09003" lon="5.54662">
        <ele>220</ele>
        <time>2011-03-18T13:06:13Z</time>
      </trkpt>
      <trkpt lat="47.09013" lon="5.54671">
        <ele>220</ele>
        <time>2011-03-18T13:06:15Z</time>
      </trkpt>
      <trkpt lat="47.09022" lon="5.5468">
        <ele>220</ele>
        <time>2011-03-18T13:06:17Z</time>
      </trkpt>
      <trkpt lat="47.09032" lon="5.54687">
        <ele>220</ele>
        <time>2011-03-18T13:06:19Z</time>
      </trkpt>
      <trkpt lat="47.09043" lon="5.54694">
        <ele>220</ele>
        <time>2011-03-18T13:06:21Z</time>
      </trkpt>
      <trkpt lat="47.09053" lon="5.54699">
        <ele>220</ele>
        <time>2011-03-18T13:06:23Z</time>
      </trkpt>
      <trkpt lat="47.09064" lon="5.54704">
        <ele>220</ele>
        <time>2011-03-18T13:06:25Z</time>
      </trkpt>
      <trkpt lat="47.09075" lon="5.5471">
        <ele>220</ele>
        <time>2011-03-18T13:06:27Z</time>
      </trkpt>
      <trkpt lat="47.09085" lon="5.54716">
        <ele>215</ele>
        <time>2011-03-18T13:06:29Z</time>
      </trkpt>
      <trkpt lat="47.09095" lon="5.54724">
        <ele>215</ele>
        <time>2011-03-18T13:06:31Z</time>
      </trkpt>
      <trkpt lat="47.09105" lon="5.54732">
        <ele>215</ele>
        <time>2011-03-18T13:06:33Z</time>
      </trkpt>
      <trkpt lat="47.09115" lon="5.5474">
        <ele>215</ele>
        <time>2011-03-18T13:06:35Z</time>
      </trkpt>
      <trkpt lat="47.09124" lon="5.54749">
        <ele>215</ele>
        <time>2011-03-18T13:06:37Z</time>
      </trkpt>
      <trkpt lat="47.09133" lon="5.54757">
        <ele>215</ele>
        <time>2011-03-18T13:06:39Z</time>
      </trkpt>
      <trkpt lat="47.09142" lon="5.54766">
        <ele>215</ele>
        <time>2011-03-18T13:06:41Z</time>
      </trkpt>
      <trkpt lat="47.09152" lon="5.54775">
        <ele>215</ele>
        <time>2011-03-18T13:06:43Z</time>
      </trkpt>
      <trkpt lat="47.09162" lon="5.54784">
        <ele>215</ele>
        <time>2011-03-18T13:06:45Z</time>
      </trkpt>
      <trkpt lat="47.09172" lon="5.54794">
        <ele>215</ele>
        <time>2011-03-18T13:06:47Z</time>
      </trkpt>
      <trkpt lat="47.0918" lon="5.54805">
        <ele>210</ele>
        <time>2011-03-18T13:06:49Z</time>
      </trkpt>
      <trkpt lat="47.09189" lon="5.54817">
        <ele>210</ele>
        <time>2011-03-18T13:06:51Z</time>
      </trkpt>
      <trkpt lat="47.09197" lon="5.54828">
        <ele>210</ele>
        <time>2011-03-18T13:06:53Z</time>
      </trkpt>
      <trkpt lat="47.09205" lon="5.54842">
        <ele>210</ele>
        <time>2011-03-18T13:06:55Z</time>
      </trkpt>
      <trkpt lat="47.09211" lon="5.54856">
        <ele>210</ele>
        <time>2011-03-18T13:06:57Z</time>
      </trkpt>
      <trkpt lat="47.09218" lon="5.54871">
        <ele>210</ele>
        <time>2011-03-18T13:06:59Z</time>
      </trkpt>
      <trkpt lat="47.09223" lon="5.54886">
        <ele>210</ele>
        <time>2011-03-18T13:07:01Z</time>
      </trkpt>
      <trkpt lat="47.09227" lon="5.54902">
        <ele>210</ele>
        <time>2011-03-18T13:07:03Z</time>
      </trkpt>
      <trkpt lat="47.09229" lon="5.5492">
        <ele>210</ele>
        <time>2011-03-18T13:07:05Z</time>
      </trkpt>
      <trkpt lat="47.0923" lon="5.54937">
        <ele>210</ele>
        <time>2011-03-18T13:07:07Z</time>
      </trkpt>
      <trkpt lat="47.09229" lon="5.54954">
        <ele>210</ele>
        <time>2011-03-18T13:07:09Z</time>
      </trkpt>
      <trkpt lat="47.09226" lon="5.5497">
        <ele>210</ele>
        <time>2011-03-18T13:07:11Z</time>
      </trkpt>
      <trkpt lat="47.09222" lon="5.54986">
        <ele>210</ele>
        <time>2011-03-18T13:07:13Z</time>
      </trkpt>
      <trkpt lat="47.09219" lon="5.55003">
        <ele>210</ele>
        <time>2011-03-18T13:07:15Z</time>
      </trkpt>
      <trkpt lat="47.09215" lon="5.5502">
        <ele>210</ele>
        <time>2011-03-18T13:07:17Z</time>
      </trkpt>
      <trkpt lat="47.09214" lon="5.55036">
        <ele>210</ele>
        <time>2011-03-18T13:07:19Z</time>
      </trkpt>
      <trkpt lat="47.09213" lon="5.55053">
        <ele>210</ele>
        <time>2011-03-18T13:07:21Z</time>
      </trkpt>
      <trkpt lat="47.09215" lon="5.5507">
        <ele>210</ele>
        <time>2011-03-18T13:07:23Z</time>
      </trkpt>
      <trkpt lat="47.09218" lon="5.55086">
        <ele>210</ele>
        <time>2011-03-18T13:07:25Z</time>
      </trkpt>
      <trkpt lat="47.09222" lon="5.55102">
        <ele>210</ele>
        <time>2011-03-18T13:07:27Z</time>
      </trkpt>
      <trkpt lat="47.09228" lon="5.55117">
        <ele>210</ele>
        <time>2011-03-18T13:07:29Z</time>
      </trkpt>
      <trkpt lat="47.09234" lon="5.55131">
        <ele>210</ele>
        <time>2011-03-18T13:07:31Z</time>
      </trkpt>
      <trkpt lat="47.0924" lon="5.55145">
        <ele>210</ele>
        <time>2011-03-18T13:07:33Z</time>
      </trkpt>
      <trkpt lat="47.09246" lon="5.5516">
        <ele>210</ele>
        <time>2011-03-18T13:07:35Z</time>
      </trkpt>
      <trkpt lat="47.09252" lon="5.55173">
        <ele>210</ele>
        <time>2011-03-18T13:07:37Z</time>
      </trkpt>
      <trkpt lat="47.09259" lon="5.55188">
        <ele>210</ele>
        <time>2011-03-18T13:07:39Z</time>
      </trkpt>
      <trkpt lat="47.09265" lon="5.55201">
        <ele>210</ele>
        <time>2011-03-18T13:07:41Z</time>
      </trkpt>
      <trkpt lat="47.09272" lon="5.55215">
        <ele>210</ele>
        <time>2011-03-18T13:07:43Z</time>
      </trkpt>
      <trkpt lat="47.09278" lon="5.55227">
        <ele>210</ele>
        <time>2011-03-18T13:07:45Z</time>
      </trkpt>
      <trkpt lat="47.09286" lon="5.55241">
        <ele>210</ele>
        <time>2011-03-18T13:07:47Z</time>
      </trkpt>
      <trkpt lat="47.09292" lon="5.55252">
        <ele>210</ele>
        <time>2011-03-18T13:07:49Z</time>
      </trkpt>
      <trkpt lat="47.093" lon="5.55265">
        <ele>210</ele>
        <time>2011-03-18T13:07:51Z</time>
      </trkpt>
      <trkpt lat="47.09308" lon="5.55277">
        <ele>210</ele>
        <time>2011-03-18T13:07:53Z</time>
      </trkpt>
      <trkpt lat="47.09316" lon="5.55289">
        <ele>210</ele>
        <time>2011-03-18T13:07:55Z</time>
      </trkpt>
      <trkpt lat="47.09324" lon="5.55302">
        <ele>210</ele>
        <time>2011-03-18T13:07:57Z</time>
      </trkpt>
      <trkpt lat="47.09332" lon="5.55314">
        <ele>210</ele>
        <time>2011-03-18T13:07:59Z</time>
      </trkpt>
      <trkpt lat="47.0934" lon="5.55327">
        <ele>210</ele>
        <time>2011-03-18T13:08:01Z</time>
      </trkpt>
      <trkpt lat="47.09348" lon="5.55339">
        <ele>210</ele>
        <time>2011-03-18T13:08:03Z</time>
      </trkpt>
      <trkpt lat="47.09357" lon="5.55351">
        <ele>210</ele>
        <time>2011-03-18T13:08:05Z</time>
      </trkpt>
      <trkpt lat="47.09365" lon="5.55364">
        <ele>210</ele>
        <time>2011-03-18T13:08:07Z</time>
      </trkpt>
      <trkpt lat="47.09372" lon="5.55376">
        <ele>210</ele>
        <time>2011-03-18T13:08:09Z</time>
      </trkpt>
      <trkpt lat="47.0938" lon="5.55389">
        <ele>210</ele>
        <time>2011-03-18T13:08:11Z</time>
      </trkpt>
      <trkpt lat="47.09388" lon="5.55401">
        <ele>210</ele>
        <time>2011-03-18T13:08:13Z</time>
      </trkpt>
      <trkpt lat="47.09395" lon="5.55414">
        <ele>210</ele>
        <time>2011-03-18T13:08:15Z</time>
      </trkpt>
      <trkpt lat="47.09402" lon="5.55427">
        <ele>210</ele>
        <time>2011-03-18T13:08:17Z</time>
      </trkpt>
      <trkpt lat="47.09408" lon="5.55442">
        <ele>210</ele>
        <time>2011-03-18T13:08:19Z</time>
      </trkpt>
      <trkpt lat="47.09415" lon="5.55455">
        <ele>210</ele>
        <time>2011-03-18T13:08:21Z</time>
      </trkpt>
      <trkpt lat="47.09421" lon="5.55469">
        <ele>210</ele>
        <time>2011-03-18T13:08:23Z</time>
      </trkpt>
      <trkpt lat="47.09427" lon="5.55483">
        <ele>210</ele>
        <time>2011-03-18T13:08:25Z</time>
      </trkpt>
      <trkpt lat="47.09433" lon="5.55497">
        <ele>210</ele>
        <time>2011-03-18T13:08:27Z</time>
      </trkpt>
      <trkpt lat="47.09438" lon="5.5551">
        <ele>210</ele>
        <time>2011-03-18T13:08:29Z</time>
      </trkpt>
      <trkpt lat="47.09445" lon="5.55525">
        <ele>210</ele>
        <time>2011-03-18T13:08:31Z</time>
      </trkpt>
      <trkpt lat="47.0945" lon="5.5554">
        <ele>210</ele>
        <time>2011-03-18T13:08:33Z</time>
      </trkpt>
      <trkpt lat="47.09455" lon="5.55555">
        <ele>210</ele>
        <time>2011-03-18T13:08:35Z</time>
      </trkpt>
      <trkpt lat="47.09461" lon="5.55569">
        <ele>210</ele>
        <time>2011-03-18T13:08:37Z</time>
      </trkpt>
      <trkpt lat="47.09465" lon="5.55585">
        <ele>210</ele>
        <time>2011-03-18T13:08:39Z</time>
      </trkpt>
      <trkpt lat="47.0947" lon="5.556">
        <ele>210</ele>
        <time>2011-03-18T13:08:41Z</time>
      </trkpt>
      <trkpt lat="47.09475" lon="5.55615">
        <ele>210</ele>
        <time>2011-03-18T13:08:43Z</time>
      </trkpt>
      <trkpt lat="47.0948" lon="5.55631">
        <ele>210</ele>
        <time>2011-03-18T13:08:45Z</time>
      </trkpt>
      <trkpt lat="47.09485" lon="5.55646">
        <ele>210</ele>
        <time>2011-03-18T13:08:47Z</time>
      </trkpt>
      <trkpt lat="47.09491" lon="5.5566">
        <ele>210</ele>
        <time>2011-03-18T13:08:49Z</time>
      </trkpt>
      <trkpt lat="47.09497" lon="5.55674">
        <ele>210</ele>
        <time>2011-03-18T13:08:51Z</time>
      </trkpt>
      <trkpt lat="47.09504" lon="5.55687">
        <ele>210</ele>
        <time>2011-03-18T13:08:53Z</time>
      </trkpt>
      <trkpt lat="47.09512" lon="5.55699">
        <ele>210</ele>
        <time>2011-03-18T13:08:55Z</time>
      </trkpt>
      <trkpt lat="47.09521" lon="5.5571">
        <ele>210</ele>
        <time>2011-03-18T13:08:57Z</time>
      </trkpt>
      <trkpt lat="47.09529" lon="5.55719">
        <ele>210</ele>
        <time>2011-03-18T13:08:59Z</time>
      </trkpt>
      <trkpt lat="47.09538" lon="5.55729">
        <ele>210</ele>
        <time>2011-03-18T13:09:01Z</time>
      </trkpt>
      <trkpt lat="47.09546" lon="5.55738">
        <ele>210</ele>
        <time>2011-03-18T13:09:03Z</time>
      </trkpt>
      <trkpt lat="47.09555" lon="5.55747">
        <ele>210</ele>
        <time>2011-03-18T13:09:05Z</time>
      </trkpt>
      <trkpt lat="47.09564" lon="5.55755">
        <ele>210</ele>
        <time>2011-03-18T13:09:07Z</time>
      </trkpt>
      <trkpt lat="47.09571" lon="5.55763">
        <ele>210</ele>
        <time>2011-03-18T13:09:09Z</time>
      </trkpt>
      <trkpt lat="47.09579" lon="5.55772">
        <ele>210</ele>
        <time>2011-03-18T13:09:11Z</time>
      </trkpt>
      <trkpt lat="47.09591" lon="5.55782">
        <ele>210</ele>
        <time>2011-03-18T13:09:14Z</time>
      </trkpt>
      <trkpt lat="47.09601" lon="5.55794">
        <ele>210</ele>
        <time>2011-03-18T13:09:17Z</time>
      </trkpt>
      <trkpt lat="47.09611" lon="5.55805">
        <ele>210</ele>
        <time>2011-03-18T13:09:20Z</time>
      </trkpt>
      <trkpt lat="47.09619" lon="5.55813">
        <ele>210</ele>
        <time>2011-03-18T13:09:22Z</time>
      </trkpt>
      <trkpt lat="47.09629" lon="5.55825">
        <ele>210</ele>
        <time>2011-03-18T13:09:25Z</time>
      </trkpt>
      <trkpt lat="47.09638" lon="5.55836">
        <ele>210</ele>
        <time>2011-03-18T13:09:28Z</time>
      </trkpt>
      <trkpt lat="47.09648" lon="5.55849">
        <ele>216</ele>
        <time>2011-03-18T13:09:31Z</time>
      </trkpt>
      <trkpt lat="47.09656" lon="5.55861">
        <ele>216</ele>
        <time>2011-03-18T13:09:34Z</time>
      </trkpt>
      <trkpt lat="47.09664" lon="5.55875">
        <ele>216</ele>
        <time>2011-03-18T13:09:37Z</time>
      </trkpt>
      <trkpt lat="47.09672" lon="5.55887">
        <ele>216</ele>
        <time>2011-03-18T13:09:40Z</time>
      </trkpt>
      <trkpt lat="47.09679" lon="5.559">
        <ele>216</ele>
        <time>2011-03-18T13:09:43Z</time>
      </trkpt>
      <trkpt lat="47.09686" lon="5.55913">
        <ele>216</ele>
        <time>2011-03-18T13:09:46Z</time>
      </trkpt>
      <trkpt lat="47.09694" lon="5.55925">
        <ele>216</ele>
        <time>2011-03-18T13:09:49Z</time>
      </trkpt>
      <trkpt lat="47.09701" lon="5.55938">
        <ele>221</ele>
        <time>2011-03-18T13:09:52Z</time>
      </trkpt>
      <trkpt lat="47.09708" lon="5.55949">
        <ele>221</ele>
        <time>2011-03-18T13:09:55Z</time>
      </trkpt>
      <trkpt lat="47.09715" lon="5.55961">
        <ele>221</ele>
        <time>2011-03-18T13:09:58Z</time>
      </trkpt>
      <trkpt lat="47.09722" lon="5.55972">
        <ele>221</ele>
        <time>2011-03-18T13:10:01Z</time>
      </trkpt>
      <trkpt lat="47.09729" lon="5.55984">
        <ele>221</ele>
        <time>2011-03-18T13:10:04Z</time>
      </trkpt>
      <trkpt lat="47.09735" lon="5.55994">
        <ele>221</ele>
        <time>2011-03-18T13:10:07Z</time>
      </trkpt>
      <trkpt lat="47.09742" lon="5.56005">
        <ele>221</ele>
        <time>2011-03-18T13:10:10Z</time>
      </trkpt>
      <trkpt lat="47.09749" lon="5.56017">
        <ele>221</ele>
        <time>2011-03-18T13:10:13Z</time>
      </trkpt>
      <trkpt lat="47.09755" lon="5.56028">
        <ele>226</ele>
        <time>2011-03-18T13:10:16Z</time>
      </trkpt>
      <trkpt lat="47.09762" lon="5.56038">
        <ele>226</ele>
        <time>2011-03-18T13:10:19Z</time>
      </trkpt>
      <trkpt lat="47.09768" lon="5.56049">
        <ele>226</ele>
        <time>2011-03-18T13:10:22Z</time>
      </trkpt>
      <trkpt lat="47.09775" lon="5.5606">
        <ele>226</ele>
        <time>2011-03-18T13:10:25Z</time>
      </trkpt>
      <trkpt lat="47.09781" lon="5.56072">
        <ele>226</ele>
        <time>2011-03-18T13:10:28Z</time>
      </trkpt>
      <trkpt lat="47.09787" lon="5.56082">
        <ele>226</ele>
        <time>2011-03-18T13:10:31Z</time>
      </trkpt>
      <trkpt lat="47.09794" lon="5.56094">
        <ele>226</ele>
        <time>2011-03-18T13:10:34Z</time>
      </trkpt>
      <trkpt lat="47.098" lon="5.56105">
        <ele>232</ele>
        <time>2011-03-18T13:10:37Z</time>
      </trkpt>
      <trkpt lat="47.09807" lon="5.56115">
        <ele>232</ele>
        <time>2011-03-18T13:10:40Z</time>
      </trkpt>
      <trkpt lat="47.09813" lon="5.56124">
        <ele>232</ele>
        <time>2011-03-18T13:10:43Z</time>
      </trkpt>
      <trkpt lat="47.09821" lon="5.56133">
        <ele>232</ele>
        <time>2011-03-18T13:10:46Z</time>
      </trkpt>
      <trkpt lat="47.09829" lon="5.56142">
        <ele>232</ele>
        <time>2011-03-18T13:10:49Z</time>
      </trkpt>
      <trkpt lat="47.09838" lon="5.56148">
        <ele>232</ele>
        <time>2011-03-18T13:10:52Z</time>
      </trkpt>
      <trkpt lat="47.09848" lon="5.56154">
        <ele>232</ele>
        <time>2011-03-18T13:10:56Z</time>
      </trkpt>
      <trkpt lat="47.09859" lon="5.56161">
        <ele>232</ele>
        <time>2011-03-18T13:11:00Z</time>
      </trkpt>
      <trkpt lat="47.09868" lon="5.56168">
        <ele>232</ele>
        <time>2011-03-18T13:11:04Z</time>
      </trkpt>
      <trkpt lat="47.09878" lon="5.56177">
        <ele>232</ele>
        <time>2011-03-18T13:11:08Z</time>
      </trkpt>
      <trkpt lat="47.09888" lon="5.56186">
        <ele>232</ele>
        <time>2011-03-18T13:11:12Z</time>
      </trkpt>
      <trkpt lat="47.09897" lon="5.56192">
        <ele>232</ele>
        <time>2011-03-18T13:11:15Z</time>
      </trkpt>
      <trkpt lat="47.09907" lon="5.56198">
        <ele>232</ele>
        <time>2011-03-18T13:11:18Z</time>
      </trkpt>
      <trkpt lat="47.09916" lon="5.56202">
        <ele>232</ele>
        <time>2011-03-18T13:11:20Z</time>
      </trkpt>
      <trkpt lat="47.09925" lon="5.56207">
        <ele>232</ele>
        <time>2011-03-18T13:11:22Z</time>
      </trkpt>
      <trkpt lat="47.09934" lon="5.56212">
        <ele>232</ele>
        <time>2011-03-18T13:11:24Z</time>
      </trkpt>
      <trkpt lat="47.09943" lon="5.56215">
        <ele>232</ele>
        <time>2011-03-18T13:11:26Z</time>
      </trkpt>
      <trkpt lat="47.09954" lon="5.5622">
        <ele>232</ele>
        <time>2011-03-18T13:11:28Z</time>
      </trkpt>
      <trkpt lat="47.09965" lon="5.56223">
        <ele>232</ele>
        <time>2011-03-18T13:11:30Z</time>
      </trkpt>
      <trkpt lat="47.09975" lon="5.56226">
        <ele>232</ele>
        <time>2011-03-18T13:11:32Z</time>
      </trkpt>
      <trkpt lat="47.09986" lon="5.56226">
        <ele>232</ele>
        <time>2011-03-18T13:11:34Z</time>
      </trkpt>
      <trkpt lat="47.09997" lon="5.56223">
        <ele>232</ele>
        <time>2011-03-18T13:11:36Z</time>
      </trkpt>
      <trkpt lat="47.10008" lon="5.56219">
        <ele>232</ele>
        <time>2011-03-18T13:11:38Z</time>
      </trkpt>
      <trkpt lat="47.10021" lon="5.56216">
        <ele>232</ele>
        <time>2011-03-18T13:11:40Z</time>
      </trkpt>
      <trkpt lat="47.10033" lon="5.56216">
        <ele>226</ele>
        <time>2011-03-18T13:11:42Z</time>
      </trkpt>
      <trkpt lat="47.10048" lon="5.56218">
        <ele>226</ele>
        <time>2011-03-18T13:11:44Z</time>
      </trkpt>
      <trkpt lat="47.10062" lon="5.5622">
        <ele>226</ele>
        <time>2011-03-18T13:11:46Z</time>
      </trkpt>
      <trkpt lat="47.10078" lon="5.56223">
        <ele>226</ele>
        <time>2011-03-18T13:11:48Z</time>
      </trkpt>
      <trkpt lat="47.10095" lon="5.56226">
        <ele>221</ele>
        <time>2011-03-18T13:11:50Z</time>
      </trkpt>
      <trkpt lat="47.10112" lon="5.56229">
        <ele>221</ele>
        <time>2011-03-18T13:11:52Z</time>
      </trkpt>
      <trkpt lat="47.10129" lon="5.56231">
        <ele>221</ele>
        <time>2011-03-18T13:11:54Z</time>
      </trkpt>
      <trkpt lat="47.10145" lon="5.56233">
        <ele>221</ele>
        <time>2011-03-18T13:11:56Z</time>
      </trkpt>
      <trkpt lat="47.10162" lon="5.56235">
        <ele>215</ele>
        <time>2011-03-18T13:11:58Z</time>
      </trkpt>
      <trkpt lat="47.10179" lon="5.56237">
        <ele>215</ele>
        <time>2011-03-18T13:12:00Z</time>
      </trkpt>
      <trkpt lat="47.10194" lon="5.56239">
        <ele>215</ele>
        <time>2011-03-18T13:12:02Z</time>
      </trkpt>
      <trkpt lat="47.10208" lon="5.56242">
        <ele>215</ele>
        <time>2011-03-18T13:12:04Z</time>
      </trkpt>
      <trkpt lat="47.10221" lon="5.56248">
        <ele>215</ele>
        <time>2011-03-18T13:12:06Z</time>
      </trkpt>
      <trkpt lat="47.10232" lon="5.56255">
        <ele>215</ele>
        <time>2011-03-18T13:12:08Z</time>
      </trkpt>
      <trkpt lat="47.10241" lon="5.56262">
        <ele>215</ele>
        <time>2011-03-18T13:12:10Z</time>
      </trkpt>
      <trkpt lat="47.10251" lon="5.56274">
        <ele>215</ele>
        <time>2011-03-18T13:12:13Z</time>
      </trkpt>
      <trkpt lat="47.10254" lon="5.56286">
        <ele>215</ele>
        <time>2011-03-18T13:12:15Z</time>
      </trkpt>
      <trkpt lat="47.10252" lon="5.563">
        <ele>215</ele>
        <time>2011-03-18T13:12:17Z</time>
      </trkpt>
      <trkpt lat="47.10252" lon="5.56313">
        <ele>210</ele>
        <time>2011-03-18T13:12:19Z</time>
      </trkpt>
      <trkpt lat="47.10256" lon="5.56326">
        <ele>210</ele>
        <time>2011-03-18T13:12:21Z</time>
      </trkpt>
      <trkpt lat="47.1026" lon="5.56338">
        <ele>210</ele>
        <time>2011-03-18T13:12:23Z</time>
      </trkpt>
      <trkpt lat="47.10264" lon="5.56352">
        <ele>210</ele>
        <time>2011-03-18T13:12:25Z</time>
      </trkpt>
      <trkpt lat="47.10266" lon="5.56365">
        <ele>210</ele>
        <time>2011-03-18T13:12:27Z</time>
      </trkpt>
      <trkpt lat="47.10267" lon="5.56379">
        <ele>210</ele>
        <time>2011-03-18T13:12:29Z</time>
      </trkpt>
      <trkpt lat="47.10265" lon="5.56398">
        <ele>210</ele>
        <time>2011-03-18T13:12:32Z</time>
      </trkpt>
      <trkpt lat="47.10262" lon="5.56415">
        <ele>210</ele>
        <time>2011-03-18T13:12:35Z</time>
      </trkpt>
      <trkpt lat="47.10257" lon="5.56432">
        <ele>210</ele>
        <time>2011-03-18T13:12:38Z</time>
      </trkpt>
      <trkpt lat="47.10253" lon="5.56446">
        <ele>210</ele>
        <time>2011-03-18T13:12:41Z</time>
      </trkpt>
      <trkpt lat="47.10249" lon="5.5646">
        <ele>216</ele>
        <time>2011-03-18T13:12:44Z</time>
      </trkpt>
      <trkpt lat="47.10243" lon="5.56473">
        <ele>216</ele>
        <time>2011-03-18T13:12:47Z</time>
      </trkpt>
      <trkpt lat="47.10237" lon="5.56486">
        <ele>216</ele>
        <time>2011-03-18T13:12:50Z</time>
      </trkpt>
      <trkpt lat="47.10231" lon="5.56498">
        <ele>216</ele>
        <time>2011-03-18T13:12:53Z</time>
      </trkpt>
      <trkpt lat="47.10225" lon="5.56513">
        <ele>216</ele>
        <time>2011-03-18T13:12:56Z</time>
      </trkpt>
      <trkpt lat="47.1022" lon="5.56526">
        <ele>216</ele>
        <time>2011-03-18T13:12:59Z</time>
      </trkpt>
      <trkpt lat="47.10214" lon="5.5654">
        <ele>216</ele>
        <time>2011-03-18T13:13:02Z</time>
      </trkpt>
      <trkpt lat="47.1021" lon="5.56554">
        <ele>221</ele>
        <time>2011-03-18T13:13:05Z</time>
      </trkpt>
      <trkpt lat="47.10205" lon="5.56567">
        <ele>221</ele>
        <time>2011-03-18T13:13:08Z</time>
      </trkpt>
      <trkpt lat="47.102" lon="5.56581">
        <ele>221</ele>
        <time>2011-03-18T13:13:11Z</time>
      </trkpt>
      <trkpt lat="47.10196" lon="5.56594">
        <ele>221</ele>
        <time>2011-03-18T13:13:14Z</time>
      </trkpt>
      <trkpt lat="47.10194" lon="5.56609">
        <ele>221</ele>
        <time>2011-03-18T13:13:17Z</time>
      </trkpt>
      <trkpt lat="47.10197" lon="5.56622">
        <ele>221</ele>
        <time>2011-03-18T13:13:20Z</time>
      </trkpt>
      <trkpt lat="47.10208" lon="5.56628">
        <ele>221</ele>
        <time>2011-03-18T13:13:24Z</time>
      </trkpt>
      <trkpt lat="47.10216" lon="5.56621">
        <ele>221</ele>
        <time>2011-03-18T13:13:27Z</time>
      </trkpt>
      <trkpt lat="47.10225" lon="5.56614">
        <ele>221</ele>
        <time>2011-03-18T13:13:30Z</time>
      </trkpt>
      <trkpt lat="47.10234" lon="5.56609">
        <ele>221</ele>
        <time>2011-03-18T13:13:33Z</time>
      </trkpt>
      <trkpt lat="47.10243" lon="5.56602">
        <ele>226</ele>
        <time>2011-03-18T13:13:36Z</time>
      </trkpt>
      <trkpt lat="47.10252" lon="5.56595">
        <ele>226</ele>
        <time>2011-03-18T13:13:39Z</time>
      </trkpt>
      <trkpt lat="47.10259" lon="5.56587">
        <ele>226</ele>
        <time>2011-03-18T13:13:42Z</time>
      </trkpt>
      <trkpt lat="47.10267" lon="5.56579">
        <ele>226</ele>
        <time>2011-03-18T13:13:45Z</time>
      </trkpt>
      <trkpt lat="47.10275" lon="5.56571">
        <ele>226</ele>
        <time>2011-03-18T13:13:48Z</time>
      </trkpt>
      <trkpt lat="47.10284" lon="5.56563">
        <ele>226</ele>
        <time>2011-03-18T13:13:51Z</time>
      </trkpt>
      <trkpt lat="47.10292" lon="5.56554">
        <ele>226</ele>
        <time>2011-03-18T13:13:54Z</time>
      </trkpt>
      <trkpt lat="47.103" lon="5.56546">
        <ele>226</ele>
        <time>2011-03-18T13:13:57Z</time>
      </trkpt>
      <trkpt lat="47.10309" lon="5.56539">
        <ele>226</ele>
        <time>2011-03-18T13:14:00Z</time>
      </trkpt>
      <trkpt lat="47.10318" lon="5.56532">
        <ele>226</ele>
        <time>2011-03-18T13:14:03Z</time>
      </trkpt>
      <trkpt lat="47.10327" lon="5.56526">
        <ele>226</ele>
        <time>2011-03-18T13:14:06Z</time>
      </trkpt>
      <trkpt lat="47.10335" lon="5.56523">
        <ele>226</ele>
        <time>2011-03-18T13:14:09Z</time>
      </trkpt>
      <trkpt lat="47.10344" lon="5.56519">
        <ele>226</ele>
        <time>2011-03-18T13:14:12Z</time>
      </trkpt>
      <trkpt lat="47.10354" lon="5.56514">
        <ele>232</ele>
        <time>2011-03-18T13:14:16Z</time>
      </trkpt>
      <trkpt lat="47.10363" lon="5.56508">
        <ele>232</ele>
        <time>2011-03-18T13:14:20Z</time>
      </trkpt>
      <trkpt lat="47.10373" lon="5.56501">
        <ele>232</ele>
        <time>2011-03-18T13:14:25Z</time>
      </trkpt>
      <trkpt lat="47.10381" lon="5.56494">
        <ele>232</ele>
        <time>2011-03-18T13:14:30Z</time>
      </trkpt>
      <trkpt lat="47.10389" lon="5.56485">
        <ele>232</ele>
        <time>2011-03-18T13:14:35Z</time>
      </trkpt>
      <trkpt lat="47.10396" lon="5.56473">
        <ele>232</ele>
        <time>2011-03-18T13:14:39Z</time>
      </trkpt>
      <trkpt lat="47.10402" lon="5.56462">
        <ele>232</ele>
        <time>2011-03-18T13:14:42Z</time>
      </trkpt>
      <trkpt lat="47.10411" lon="5.56452">
        <ele>232</ele>
        <time>2011-03-18T13:14:45Z</time>
      </trkpt>
      <trkpt lat="47.10419" lon="5.56447">
        <ele>232</ele>
        <time>2011-03-18T13:14:48Z</time>
      </trkpt>
      <trkpt lat="47.1043" lon="5.56443">
        <ele>232</ele>
        <time>2011-03-18T13:14:51Z</time>
      </trkpt>
      <trkpt lat="47.10442" lon="5.56443">
        <ele>232</ele>
        <time>2011-03-18T13:14:54Z</time>
      </trkpt>
      <trkpt lat="47.10453" lon="5.56442">
        <ele>232</ele>
        <time>2011-03-18T13:14:57Z</time>
      </trkpt>
      <trkpt lat="47.10463" lon="5.56441">
        <ele>232</ele>
        <time>2011-03-18T13:15:00Z</time>
      </trkpt>
      <trkpt lat="47.10475" lon="5.5644">
        <ele>232</ele>
        <time>2011-03-18T13:15:04Z</time>
      </trkpt>
      <trkpt lat="47.10485" lon="5.56439">
        <ele>232</ele>
        <time>2011-03-18T13:15:07Z</time>
      </trkpt>
      <trkpt lat="47.10495" lon="5.56436">
        <ele>232</ele>
        <time>2011-03-18T13:15:10Z</time>
      </trkpt>
      <trkpt lat="47.10504" lon="5.56435">
        <ele>232</ele>
        <time>2011-03-18T13:15:13Z</time>
      </trkpt>
      <trkpt lat="47.10514" lon="5.5643">
        <ele>232</ele>
        <time>2011-03-18T13:15:16Z</time>
      </trkpt>
      <trkpt lat="47.10524" lon="5.56423">
        <ele>232</ele>
        <time>2011-03-18T13:15:19Z</time>
      </trkpt>
      <trkpt lat="47.10536" lon="5.56415">
        <ele>232</ele>
        <time>2011-03-18T13:15:22Z</time>
      </trkpt>
      <trkpt lat="47.10545" lon="5.56408">
        <ele>232</ele>
        <time>2011-03-18T13:15:24Z</time>
      </trkpt>
      <trkpt lat="47.10557" lon="5.56404">
        <ele>232</ele>
        <time>2011-03-18T13:15:26Z</time>
      </trkpt>
      <trkpt lat="47.10571" lon="5.56407">
        <ele>232</ele>
        <time>2011-03-18T13:15:28Z</time>
      </trkpt>
      <trkpt lat="47.10582" lon="5.56413">
        <ele>232</ele>
        <time>2011-03-18T13:15:30Z</time>
      </trkpt>
      <trkpt lat="47.10591" lon="5.56419">
        <ele>232</ele>
        <time>2011-03-18T13:15:32Z</time>
      </trkpt>
      <trkpt lat="47.106" lon="5.56425">
        <ele>232</ele>
        <time>2011-03-18T13:15:34Z</time>
      </trkpt>
      <trkpt lat="47.10611" lon="5.5643">
        <ele>232</ele>
        <time>2011-03-18T13:15:37Z</time>
      </trkpt>
      <trkpt lat="47.10622" lon="5.56436">
        <ele>232</ele>
        <time>2011-03-18T13:15:40Z</time>
      </trkpt>
      <trkpt lat="47.10633" lon="5.56442">
        <ele>232</ele>
        <time>2011-03-18T13:15:43Z</time>
      </trkpt>
      <trkpt lat="47.10644" lon="5.56448">
        <ele>232</ele>
        <time>2011-03-18T13:15:46Z</time>
      </trkpt>
      <trkpt lat="47.10655" lon="5.56456">
        <ele>232</ele>
        <time>2011-03-18T13:15:49Z</time>
      </trkpt>
      <trkpt lat="47.10667" lon="5.56465">
        <ele>232</ele>
        <time>2011-03-18T13:15:52Z</time>
      </trkpt>
      <trkpt lat="47.10679" lon="5.56473">
        <ele>232</ele>
        <time>2011-03-18T13:15:55Z</time>
      </trkpt>
      <trkpt lat="47.10691" lon="5.56481">
        <ele>232</ele>
        <time>2011-03-18T13:15:58Z</time>
      </trkpt>
      <trkpt lat="47.10703" lon="5.56489">
        <ele>232</ele>
        <time>2011-03-18T13:16:01Z</time>
      </trkpt>
      <trkpt lat="47.10711" lon="5.56495">
        <ele>232</ele>
        <time>2011-03-18T13:16:03Z</time>
      </trkpt>
      <trkpt lat="47.10724" lon="5.56503">
        <ele>232</ele>
        <time>2011-03-18T13:16:06Z</time>
      </trkpt>
      <trkpt lat="47.10736" lon="5.5651">
        <ele>232</ele>
        <time>2011-03-18T13:16:09Z</time>
      </trkpt>
      <trkpt lat="47.10748" lon="5.56518">
        <ele>232</ele>
        <time>2011-03-18T13:16:12Z</time>
      </trkpt>
      <trkpt lat="47.10757" lon="5.56523">
        <ele>232</ele>
        <time>2011-03-18T13:16:14Z</time>
      </trkpt>
      <trkpt lat="47.10765" lon="5.56528">
        <ele>232</ele>
        <time>2011-03-18T13:16:16Z</time>
      </trkpt>
      <trkpt lat="47.10774" lon="5.56533">
        <ele>232</ele>
        <time>2011-03-18T13:16:18Z</time>
      </trkpt>
      <trkpt lat="47.10782" lon="5.56539">
        <ele>232</ele>
        <time>2011-03-18T13:16:20Z</time>
      </trkpt>
      <trkpt lat="47.10794" lon="5.56547">
        <ele>232</ele>
        <time>2011-03-18T13:16:23Z</time>
      </trkpt>
      <trkpt lat="47.10802" lon="5.56554">
        <ele>232</ele>
        <time>2011-03-18T13:16:25Z</time>
      </trkpt>
      <trkpt lat="47.10811" lon="5.56561">
        <ele>232</ele>
        <time>2011-03-18T13:16:27Z</time>
      </trkpt>
      <trkpt lat="47.10819" lon="5.56569">
        <ele>232</ele>
        <time>2011-03-18T13:16:29Z</time>
      </trkpt>
      <trkpt lat="47.10826" lon="5.56578">
        <ele>232</ele>
        <time>2011-03-18T13:16:31Z</time>
      </trkpt>
      <trkpt lat="47.10833" lon="5.56587">
        <ele>232</ele>
        <time>2011-03-18T13:16:33Z</time>
      </trkpt>
      <trkpt lat="47.10841" lon="5.56596">
        <ele>232</ele>
        <time>2011-03-18T13:16:35Z</time>
      </trkpt>
      <trkpt lat="47.10849" lon="5.56606">
        <ele>232</ele>
        <time>2011-03-18T13:16:37Z</time>
      </trkpt>
      <trkpt lat="47.10856" lon="5.56615">
        <ele>232</ele>
        <time>2011-03-18T13:16:39Z</time>
      </trkpt>
      <trkpt lat="47.10863" lon="5.56623">
        <ele>232</ele>
        <time>2011-03-18T13:16:41Z</time>
      </trkpt>
      <trkpt lat="47.10871" lon="5.56631">
        <ele>232</ele>
        <time>2011-03-18T13:16:43Z</time>
      </trkpt>
      <trkpt lat="47.10879" lon="5.56639">
        <ele>232</ele>
        <time>2011-03-18T13:16:45Z</time>
      </trkpt>
      <trkpt lat="47.10889" lon="5.56651">
        <ele>232</ele>
        <time>2011-03-18T13:16:48Z</time>
      </trkpt>
      <trkpt lat="47.109" lon="5.56662">
        <ele>232</ele>
        <time>2011-03-18T13:16:51Z</time>
      </trkpt>
      <trkpt lat="47.10911" lon="5.56673">
        <ele>232</ele>
        <time>2011-03-18T13:16:54Z</time>
      </trkpt>
      <trkpt lat="47.10922" lon="5.56683">
        <ele>232</ele>
        <time>2011-03-18T13:16:57Z</time>
      </trkpt>
      <trkpt lat="47.1093" lon="5.56691">
        <ele>232</ele>
        <time>2011-03-18T13:16:59Z</time>
      </trkpt>
      <trkpt lat="47.10938" lon="5.567">
        <ele>232</ele>
        <time>2011-03-18T13:17:01Z</time>
      </trkpt>
      <trkpt lat="47.10947" lon="5.56708">
        <ele>232</ele>
        <time>2011-03-18T13:17:03Z</time>
      </trkpt>
      <trkpt lat="47.10957" lon="5.56717">
        <ele>232</ele>
        <time>2011-03-18T13:17:05Z</time>
      </trkpt>
      <trkpt lat="47.10968" lon="5.56726">
        <ele>232</ele>
        <time>2011-03-18T13:17:07Z</time>
      </trkpt>
      <trkpt lat="47.10979" lon="5.56737">
        <ele>232</ele>
        <time>2011-03-18T13:17:09Z</time>
      </trkpt>
      <trkpt lat="47.1099" lon="5.56749">
        <ele>232</ele>
        <time>2011-03-18T13:17:11Z</time>
      </trkpt>
      <trkpt lat="47.11001" lon="5.56762">
        <ele>232</ele>
        <time>2011-03-18T13:17:13Z</time>
      </trkpt>
      <trkpt lat="47.11012" lon="5.56778">
        <ele>232</ele>
        <time>2011-03-18T13:17:15Z</time>
      </trkpt>
      <trkpt lat="47.11022" lon="5.56794">
        <ele>232</ele>
        <time>2011-03-18T13:17:17Z</time>
      </trkpt>
      <trkpt lat="47.11031" lon="5.56809">
        <ele>232</ele>
        <time>2011-03-18T13:17:19Z</time>
      </trkpt>
      <trkpt lat="47.1104" lon="5.56824">
        <ele>232</ele>
        <time>2011-03-18T13:17:21Z</time>
      </trkpt>
      <trkpt lat="47.11049" lon="5.5684">
        <ele>232</ele>
        <time>2011-03-18T13:17:23Z</time>
      </trkpt>
      <trkpt lat="47.11057" lon="5.56855">
        <ele>232</ele>
        <time>2011-03-18T13:17:25Z</time>
      </trkpt>
      <trkpt lat="47.11065" lon="5.56868">
        <ele>232</ele>
        <time>2011-03-18T13:17:27Z</time>
      </trkpt>
      <trkpt lat="47.11072" lon="5.56882">
        <ele>232</ele>
        <time>2011-03-18T13:17:29Z</time>
      </trkpt>
      <trkpt lat="47.1108" lon="5.56894">
        <ele>232</ele>
        <time>2011-03-18T13:17:31Z</time>
      </trkpt>
      <trkpt lat="47.11087" lon="5.56907">
        <ele>232</ele>
        <time>2011-03-18T13:17:33Z</time>
      </trkpt>
      <trkpt lat="47.11095" lon="5.5692">
        <ele>232</ele>
        <time>2011-03-18T13:17:35Z</time>
      </trkpt>
      <trkpt lat="47.11102" lon="5.56933">
        <ele>232</ele>
        <time>2011-03-18T13:17:37Z</time>
      </trkpt>
      <trkpt lat="47.11109" lon="5.56945">
        <ele>232</ele>
        <time>2011-03-18T13:17:39Z</time>
      </trkpt>
      <trkpt lat="47.11117" lon="5.56957">
        <ele>232</ele>
        <time>2011-03-18T13:17:41Z</time>
      </trkpt>
      <trkpt lat="47.11123" lon="5.5697">
        <ele>232</ele>
        <time>2011-03-18T13:17:43Z</time>
      </trkpt>
      <trkpt lat="47.1113" lon="5.56982">
        <ele>232</ele>
        <time>2011-03-18T13:17:45Z</time>
      </trkpt>
      <trkpt lat="47.11137" lon="5.56994">
        <ele>232</ele>
        <time>2011-03-18T13:17:47Z</time>
      </trkpt>
      <trkpt lat="47.11144" lon="5.57006">
        <ele>232</ele>
        <time>2011-03-18T13:17:49Z</time>
      </trkpt>
      <trkpt lat="47.11151" lon="5.57018">
        <ele>232</ele>
        <time>2011-03-18T13:17:51Z</time>
      </trkpt>
      <trkpt lat="47.11157" lon="5.57028">
        <ele>232</ele>
        <time>2011-03-18T13:17:53Z</time>
      </trkpt>
      <trkpt lat="47.11164" lon="5.57039">
        <ele>232</ele>
        <time>2011-03-18T13:17:55Z</time>
      </trkpt>
      <trkpt lat="47.1117" lon="5.5705">
        <ele>232</ele>
        <time>2011-03-18T13:17:57Z</time>
      </trkpt>
      <trkpt lat="47.11177" lon="5.57061">
        <ele>232</ele>
        <time>2011-03-18T13:17:59Z</time>
      </trkpt>
      <trkpt lat="47.11183" lon="5.57072">
        <ele>232</ele>
        <time>2011-03-18T13:18:01Z</time>
      </trkpt>
      <trkpt lat="47.1119" lon="5.57083">
        <ele>232</ele>
        <time>2011-03-18T13:18:03Z</time>
      </trkpt>
      <trkpt lat="47.11196" lon="5.57095">
        <ele>232</ele>
        <time>2011-03-18T13:18:05Z</time>
      </trkpt>
      <trkpt lat="47.11203" lon="5.57106">
        <ele>232</ele>
        <time>2011-03-18T13:18:07Z</time>
      </trkpt>
      <trkpt lat="47.11209" lon="5.57116">
        <ele>232</ele>
        <time>2011-03-18T13:18:09Z</time>
      </trkpt>
      <trkpt lat="47.11215" lon="5.57127">
        <ele>232</ele>
        <time>2011-03-18T13:18:11Z</time>
      </trkpt>
      <trkpt lat="47.11221" lon="5.57137">
        <ele>232</ele>
        <time>2011-03-18T13:18:13Z</time>
      </trkpt>
      <trkpt lat="47.11227" lon="5.57149">
        <ele>232</ele>
        <time>2011-03-18T13:18:15Z</time>
      </trkpt>
      <trkpt lat="47.11234" lon="5.57159">
        <ele>232</ele>
        <time>2011-03-18T13:18:17Z</time>
      </trkpt>
      <trkpt lat="47.11241" lon="5.57171">
        <ele>232</ele>
        <time>2011-03-18T13:18:19Z</time>
      </trkpt>
      <trkpt lat="47.11248" lon="5.57183">
        <ele>232</ele>
        <time>2011-03-18T13:18:21Z</time>
      </trkpt>
      <trkpt lat="47.11256" lon="5.57196">
        <ele>232</ele>
        <time>2011-03-18T13:18:23Z</time>
      </trkpt>
      <trkpt lat="47.11264" lon="5.5721">
        <ele>232</ele>
        <time>2011-03-18T13:18:25Z</time>
      </trkpt>
      <trkpt lat="47.11272" lon="5.57223">
        <ele>232</ele>
        <time>2011-03-18T13:18:27Z</time>
      </trkpt>
      <trkpt lat="47.1128" lon="5.57235">
        <ele>232</ele>
        <time>2011-03-18T13:18:29Z</time>
      </trkpt>
      <trkpt lat="47.11288" lon="5.57247">
        <ele>232</ele>
        <time>2011-03-18T13:18:31Z</time>
      </trkpt>
      <trkpt lat="47.11295" lon="5.57258">
        <ele>232</ele>
        <time>2011-03-18T13:18:33Z</time>
      </trkpt>
      <trkpt lat="47.11303" lon="5.57269">
        <ele>232</ele>
        <time>2011-03-18T13:18:35Z</time>
      </trkpt>
      <trkpt lat="47.1131" lon="5.57279">
        <ele>232</ele>
        <time>2011-03-18T13:18:37Z</time>
      </trkpt>
      <trkpt lat="47.11318" lon="5.5729">
        <ele>232</ele>
        <time>2011-03-18T13:18:39Z</time>
      </trkpt>
      <trkpt lat="47.11325" lon="5.57299">
        <ele>232</ele>
        <time>2011-03-18T13:18:41Z</time>
      </trkpt>
      <trkpt lat="47.11331" lon="5.57309">
        <ele>232</ele>
        <time>2011-03-18T13:18:43Z</time>
      </trkpt>
      <trkpt lat="47.11338" lon="5.57318">
        <ele>232</ele>
        <time>2011-03-18T13:18:45Z</time>
      </trkpt>
      <trkpt lat="47.11345" lon="5.57328">
        <ele>232</ele>
        <time>2011-03-18T13:18:47Z</time>
      </trkpt>
      <trkpt lat="47.11352" lon="5.57338">
        <ele>232</ele>
        <time>2011-03-18T13:18:49Z</time>
      </trkpt>
      <trkpt lat="47.11358" lon="5.57348">
        <ele>232</ele>
        <time>2011-03-18T13:18:51Z</time>
      </trkpt>
      <trkpt lat="47.11366" lon="5.57358">
        <ele>232</ele>
        <time>2011-03-18T13:18:53Z</time>
      </trkpt>
      <trkpt lat="47.11372" lon="5.57368">
        <ele>232</ele>
        <time>2011-03-18T13:18:55Z</time>
      </trkpt>
      <trkpt lat="47.11379" lon="5.57378">
        <ele>232</ele>
        <time>2011-03-18T13:18:57Z</time>
      </trkpt>
      <trkpt lat="47.11386" lon="5.57388">
        <ele>232</ele>
        <time>2011-03-18T13:18:59Z</time>
      </trkpt>
      <trkpt lat="47.11393" lon="5.57399">
        <ele>232</ele>
        <time>2011-03-18T13:19:01Z</time>
      </trkpt>
      <trkpt lat="47.11399" lon="5.57411">
        <ele>232</ele>
        <time>2011-03-18T13:19:03Z</time>
      </trkpt>
      <trkpt lat="47.11405" lon="5.57423">
        <ele>232</ele>
        <time>2011-03-18T13:19:05Z</time>
      </trkpt>
      <trkpt lat="47.11412" lon="5.57433">
        <ele>232</ele>
        <time>2011-03-18T13:19:07Z</time>
      </trkpt>
      <trkpt lat="47.11418" lon="5.57445">
        <ele>232</ele>
        <time>2011-03-18T13:19:09Z</time>
      </trkpt>
      <trkpt lat="47.11424" lon="5.57457">
        <ele>232</ele>
        <time>2011-03-18T13:19:11Z</time>
      </trkpt>
      <trkpt lat="47.1143" lon="5.57468">
        <ele>232</ele>
        <time>2011-03-18T13:19:13Z</time>
      </trkpt>
      <trkpt lat="47.11436" lon="5.57479">
        <ele>232</ele>
        <time>2011-03-18T13:19:15Z</time>
      </trkpt>
      <trkpt lat="47.11442" lon="5.5749">
        <ele>232</ele>
        <time>2011-03-18T13:19:17Z</time>
      </trkpt>
      <trkpt lat="47.11448" lon="5.57501">
        <ele>237</ele>
        <time>2011-03-18T13:19:19Z</time>
      </trkpt>
      <trkpt lat="47.11454" lon="5.57512">
        <ele>237</ele>
        <time>2011-03-18T13:19:21Z</time>
      </trkpt>
      <trkpt lat="47.1146" lon="5.57522">
        <ele>237</ele>
        <time>2011-03-18T13:19:23Z</time>
      </trkpt>
      <trkpt lat="47.11467" lon="5.57533">
        <ele>237</ele>
        <time>2011-03-18T13:19:25Z</time>
      </trkpt>
      <trkpt lat="47.11473" lon="5.57545">
        <ele>237</ele>
        <time>2011-03-18T13:19:27Z</time>
      </trkpt>
      <trkpt lat="47.1148" lon="5.57556">
        <ele>237</ele>
        <time>2011-03-18T13:19:29Z</time>
      </trkpt>
      <trkpt lat="47.11486" lon="5.57566">
        <ele>237</ele>
        <time>2011-03-18T13:19:31Z</time>
      </trkpt>
      <trkpt lat="47.11494" lon="5.57576">
        <ele>237</ele>
        <time>2011-03-18T13:19:33Z</time>
      </trkpt>
      <trkpt lat="47.11502" lon="5.57586">
        <ele>237</ele>
        <time>2011-03-18T13:19:35Z</time>
      </trkpt>
      <trkpt lat="47.1151" lon="5.57596">
        <ele>237</ele>
        <time>2011-03-18T13:19:37Z</time>
      </trkpt>
      <trkpt lat="47.11518" lon="5.57606">
        <ele>237</ele>
        <time>2011-03-18T13:19:39Z</time>
      </trkpt>
      <trkpt lat="47.11526" lon="5.57615">
        <ele>237</ele>
        <time>2011-03-18T13:19:41Z</time>
      </trkpt>
      <trkpt lat="47.11534" lon="5.57625">
        <ele>237</ele>
        <time>2011-03-18T13:19:43Z</time>
      </trkpt>
      <trkpt lat="47.11541" lon="5.57634">
        <ele>237</ele>
        <time>2011-03-18T13:19:45Z</time>
      </trkpt>
      <trkpt lat="47.11548" lon="5.57644">
        <ele>237</ele>
        <time>2011-03-18T13:19:47Z</time>
      </trkpt>
      <trkpt lat="47.11556" lon="5.57653">
        <ele>237</ele>
        <time>2011-03-18T13:19:49Z</time>
      </trkpt>
      <trkpt lat="47.11562" lon="5.57663">
        <ele>237</ele>
        <time>2011-03-18T13:19:51Z</time>
      </trkpt>
      <trkpt lat="47.11569" lon="5.57672">
        <ele>237</ele>
        <time>2011-03-18T13:19:53Z</time>
      </trkpt>
      <trkpt lat="47.11575" lon="5.57683">
        <ele>237</ele>
        <time>2011-03-18T13:19:55Z</time>
      </trkpt>
      <trkpt lat="47.11582" lon="5.57694">
        <ele>237</ele>
        <time>2011-03-18T13:19:57Z</time>
      </trkpt>
      <trkpt lat="47.11588" lon="5.57705">
        <ele>237</ele>
        <time>2011-03-18T13:19:59Z</time>
      </trkpt>
      <trkpt lat="47.11594" lon="5.57716">
        <ele>237</ele>
        <time>2011-03-18T13:20:01Z</time>
      </trkpt>
      <trkpt lat="47.11601" lon="5.57726">
        <ele>242</ele>
        <time>2011-03-18T13:20:03Z</time>
      </trkpt>
      <trkpt lat="47.11607" lon="5.57737">
        <ele>242</ele>
        <time>2011-03-18T13:20:05Z</time>
      </trkpt>
      <trkpt lat="47.11613" lon="5.57747">
        <ele>242</ele>
        <time>2011-03-18T13:20:07Z</time>
      </trkpt>
      <trkpt lat="47.11619" lon="5.57757">
        <ele>242</ele>
        <time>2011-03-18T13:20:09Z</time>
      </trkpt>
      <trkpt lat="47.11627" lon="5.57772">
        <ele>242</ele>
        <time>2011-03-18T13:20:12Z</time>
      </trkpt>
      <trkpt lat="47.11637" lon="5.57787">
        <ele>242</ele>
        <time>2011-03-18T13:20:15Z</time>
      </trkpt>
      <trkpt lat="47.11643" lon="5.57798">
        <ele>242</ele>
        <time>2011-03-18T13:20:17Z</time>
      </trkpt>
      <trkpt lat="47.11649" lon="5.5781">
        <ele>242</ele>
        <time>2011-03-18T13:20:19Z</time>
      </trkpt>
      <trkpt lat="47.11656" lon="5.57821">
        <ele>242</ele>
        <time>2011-03-18T13:20:21Z</time>
      </trkpt>
      <trkpt lat="47.11662" lon="5.57831">
        <ele>242</ele>
        <time>2011-03-18T13:20:23Z</time>
      </trkpt>
      <trkpt lat="47.11669" lon="5.57843">
        <ele>242</ele>
        <time>2011-03-18T13:20:25Z</time>
      </trkpt>
      <trkpt lat="47.11676" lon="5.57855">
        <ele>242</ele>
        <time>2011-03-18T13:20:27Z</time>
      </trkpt>
      <trkpt lat="47.11683" lon="5.57867">
        <ele>242</ele>
        <time>2011-03-18T13:20:29Z</time>
      </trkpt>
      <trkpt lat="47.11691" lon="5.5788">
        <ele>242</ele>
        <time>2011-03-18T13:20:31Z</time>
      </trkpt>
      <trkpt lat="47.11699" lon="5.57892">
        <ele>242</ele>
        <time>2011-03-18T13:20:33Z</time>
      </trkpt>
      <trkpt lat="47.11706" lon="5.57905">
        <ele>242</ele>
        <time>2011-03-18T13:20:35Z</time>
      </trkpt>
      <trkpt lat="47.11713" lon="5.57918">
        <ele>242</ele>
        <time>2011-03-18T13:20:37Z</time>
      </trkpt>
      <trkpt lat="47.11719" lon="5.57929">
        <ele>242</ele>
        <time>2011-03-18T13:20:39Z</time>
      </trkpt>
      <trkpt lat="47.11726" lon="5.57941">
        <ele>242</ele>
        <time>2011-03-18T13:20:41Z</time>
      </trkpt>
      <trkpt lat="47.11733" lon="5.57953">
        <ele>242</ele>
        <time>2011-03-18T13:20:43Z</time>
      </trkpt>
      <trkpt lat="47.1174" lon="5.57963">
        <ele>242</ele>
        <time>2011-03-18T13:20:45Z</time>
      </trkpt>
      <trkpt lat="47.11748" lon="5.57975">
        <ele>242</ele>
        <time>2011-03-18T13:20:47Z</time>
      </trkpt>
      <trkpt lat="47.11754" lon="5.57985">
        <ele>242</ele>
        <time>2011-03-18T13:20:49Z</time>
      </trkpt>
      <trkpt lat="47.11761" lon="5.57996">
        <ele>242</ele>
        <time>2011-03-18T13:20:51Z</time>
      </trkpt>
      <trkpt lat="47.1177" lon="5.58009">
        <ele>242</ele>
        <time>2011-03-18T13:20:54Z</time>
      </trkpt>
      <trkpt lat="47.11777" lon="5.58019">
        <ele>242</ele>
        <time>2011-03-18T13:20:56Z</time>
      </trkpt>
      <trkpt lat="47.11784" lon="5.58028">
        <ele>242</ele>
        <time>2011-03-18T13:20:58Z</time>
      </trkpt>
      <trkpt lat="47.11793" lon="5.58038">
        <ele>247</ele>
        <time>2011-03-18T13:21:00Z</time>
      </trkpt>
      <trkpt lat="47.11801" lon="5.58051">
        <ele>247</ele>
        <time>2011-03-18T13:21:02Z</time>
      </trkpt>
      <trkpt lat="47.1181" lon="5.58063">
        <ele>247</ele>
        <time>2011-03-18T13:21:04Z</time>
      </trkpt>
      <trkpt lat="47.1182" lon="5.58077">
        <ele>247</ele>
        <time>2011-03-18T13:21:06Z</time>
      </trkpt>
      <trkpt lat="47.11829" lon="5.5809">
        <ele>247</ele>
        <time>2011-03-18T13:21:08Z</time>
      </trkpt>
      <trkpt lat="47.11839" lon="5.58104">
        <ele>247</ele>
        <time>2011-03-18T13:21:10Z</time>
      </trkpt>
      <trkpt lat="47.11849" lon="5.58118">
        <ele>247</ele>
        <time>2011-03-18T13:21:12Z</time>
      </trkpt>
      <trkpt lat="47.11859" lon="5.5813">
        <ele>247</ele>
        <time>2011-03-18T13:21:14Z</time>
      </trkpt>
      <trkpt lat="47.11869" lon="5.5814">
        <ele>247</ele>
        <time>2011-03-18T13:21:16Z</time>
      </trkpt>
      <trkpt lat="47.11879" lon="5.5815">
        <ele>247</ele>
        <time>2011-03-18T13:21:18Z</time>
      </trkpt>
      <trkpt lat="47.11889" lon="5.5816">
        <ele>247</ele>
        <time>2011-03-18T13:21:20Z</time>
      </trkpt>
      <trkpt lat="47.11898" lon="5.58169">
        <ele>247</ele>
        <time>2011-03-18T13:21:22Z</time>
      </trkpt>
      <trkpt lat="47.11907" lon="5.58177">
        <ele>247</ele>
        <time>2011-03-18T13:21:24Z</time>
      </trkpt>
      <trkpt lat="47.11916" lon="5.58185">
        <ele>247</ele>
        <time>2011-03-18T13:21:26Z</time>
      </trkpt>
      <trkpt lat="47.11926" lon="5.58194">
        <ele>247</ele>
        <time>2011-03-18T13:21:28Z</time>
      </trkpt>
      <trkpt lat="47.11935" lon="5.58202">
        <ele>247</ele>
        <time>2011-03-18T13:21:30Z</time>
      </trkpt>
      <trkpt lat="47.11943" lon="5.58211">
        <ele>247</ele>
        <time>2011-03-18T13:21:32Z</time>
      </trkpt>
      <trkpt lat="47.11952" lon="5.58219">
        <ele>247</ele>
        <time>2011-03-18T13:21:34Z</time>
      </trkpt>
      <trkpt lat="47.1196" lon="5.58228">
        <ele>247</ele>
        <time>2011-03-18T13:21:36Z</time>
      </trkpt>
      <trkpt lat="47.11968" lon="5.58238">
        <ele>247</ele>
        <time>2011-03-18T13:21:38Z</time>
      </trkpt>
      <trkpt lat="47.11977" lon="5.58248">
        <ele>247</ele>
        <time>2011-03-18T13:21:40Z</time>
      </trkpt>
      <trkpt lat="47.11986" lon="5.58258">
        <ele>247</ele>
        <time>2011-03-18T13:21:42Z</time>
      </trkpt>
      <trkpt lat="47.11994" lon="5.58268">
        <ele>247</ele>
        <time>2011-03-18T13:21:44Z</time>
      </trkpt>
      <trkpt lat="47.12003" lon="5.58279">
        <ele>247</ele>
        <time>2011-03-18T13:21:46Z</time>
      </trkpt>
      <trkpt lat="47.12011" lon="5.58289">
        <ele>247</ele>
        <time>2011-03-18T13:21:48Z</time>
      </trkpt>
      <trkpt lat="47.12019" lon="5.58299">
        <ele>247</ele>
        <time>2011-03-18T13:21:50Z</time>
      </trkpt>
      <trkpt lat="47.12027" lon="5.5831">
        <ele>247</ele>
        <time>2011-03-18T13:21:52Z</time>
      </trkpt>
      <trkpt lat="47.12035" lon="5.58322">
        <ele>247</ele>
        <time>2011-03-18T13:21:54Z</time>
      </trkpt>
      <trkpt lat="47.12044" lon="5.58334">
        <ele>247</ele>
        <time>2011-03-18T13:21:56Z</time>
      </trkpt>
      <trkpt lat="47.12052" lon="5.58346">
        <ele>247</ele>
        <time>2011-03-18T13:21:58Z</time>
      </trkpt>
      <trkpt lat="47.12061" lon="5.5836">
        <ele>247</ele>
        <time>2011-03-18T13:22:00Z</time>
      </trkpt>
      <trkpt lat="47.1207" lon="5.58374">
        <ele>247</ele>
        <time>2011-03-18T13:22:02Z</time>
      </trkpt>
      <trkpt lat="47.1208" lon="5.5839">
        <ele>247</ele>
        <time>2011-03-18T13:22:04Z</time>
      </trkpt>
      <trkpt lat="47.12092" lon="5.58407">
        <ele>242</ele>
        <time>2011-03-18T13:22:06Z</time>
      </trkpt>
      <trkpt lat="47.12098" lon="5.58417">
        <ele>242</ele>
        <time>2011-03-18T13:22:07Z</time>
      </trkpt>
      <trkpt lat="47.12104" lon="5.58427">
        <ele>242</ele>
        <time>2011-03-18T13:22:08Z</time>
      </trkpt>
      <trkpt lat="47.12111" lon="5.58437">
        <ele>242</ele>
        <time>2011-03-18T13:22:09Z</time>
      </trkpt>
      <trkpt lat="47.12117" lon="5.58447">
        <ele>242</ele>
        <time>2011-03-18T13:22:10Z</time>
      </trkpt>
      <trkpt lat="47.12124" lon="5.58457">
        <ele>242</ele>
        <time>2011-03-18T13:22:11Z</time>
      </trkpt>
      <trkpt lat="47.12137" lon="5.58475">
        <ele>242</ele>
        <time>2011-03-18T13:22:13Z</time>
      </trkpt>
      <trkpt lat="47.12144" lon="5.58484">
        <ele>242</ele>
        <time>2011-03-18T13:22:14Z</time>
      </trkpt>
      <trkpt lat="47.12155" lon="5.58503">
        <ele>242</ele>
        <time>2011-03-18T13:22:16Z</time>
      </trkpt>
      <trkpt lat="47.12168" lon="5.58521">
        <ele>242</ele>
        <time>2011-03-18T13:22:18Z</time>
      </trkpt>
      <trkpt lat="47.12178" lon="5.58539">
        <ele>242</ele>
        <time>2011-03-18T13:22:20Z</time>
      </trkpt>
      <trkpt lat="47.12185" lon="5.58561">
        <ele>237</ele>
        <time>2011-03-18T13:22:22Z</time>
      </trkpt>
      <trkpt lat="47.12192" lon="5.58581">
        <ele>237</ele>
        <time>2011-03-18T13:22:24Z</time>
      </trkpt>
      <trkpt lat="47.12201" lon="5.58603">
        <ele>237</ele>
        <time>2011-03-18T13:22:26Z</time>
      </trkpt>
      <trkpt lat="47.12211" lon="5.58625">
        <ele>237</ele>
        <time>2011-03-18T13:22:28Z</time>
      </trkpt>
      <trkpt lat="47.1222" lon="5.58645">
        <ele>231</ele>
        <time>2011-03-18T13:22:30Z</time>
      </trkpt>
      <trkpt lat="47.12228" lon="5.58663">
        <ele>231</ele>
        <time>2011-03-18T13:22:32Z</time>
      </trkpt>
      <trkpt lat="47.12236" lon="5.58676">
        <ele>231</ele>
        <time>2011-03-18T13:22:34Z</time>
      </trkpt>
      <trkpt lat="47.12247" lon="5.58678">
        <ele>225</ele>
        <time>2011-03-18T13:22:36Z</time>
      </trkpt>
      <trkpt lat="47.12258" lon="5.5867">
        <ele>225</ele>
        <time>2011-03-18T13:22:38Z</time>
      </trkpt>
      <trkpt lat="47.12269" lon="5.58661">
        <ele>225</ele>
        <time>2011-03-18T13:22:40Z</time>
      </trkpt>
      <trkpt lat="47.12281" lon="5.58652">
        <ele>225</ele>
        <time>2011-03-18T13:22:42Z</time>
      </trkpt>
      <trkpt lat="47.12295" lon="5.58646">
        <ele>220</ele>
        <time>2011-03-18T13:22:44Z</time>
      </trkpt>
      <trkpt lat="47.1231" lon="5.58646">
        <ele>220</ele>
        <time>2011-03-18T13:22:46Z</time>
      </trkpt>
      <trkpt lat="47.12326" lon="5.58648">
        <ele>220</ele>
        <time>2011-03-18T13:22:48Z</time>
      </trkpt>
      <trkpt lat="47.12342" lon="5.5865">
        <ele>220</ele>
        <time>2011-03-18T13:22:50Z</time>
      </trkpt>
      <trkpt lat="47.12358" lon="5.58652">
        <ele>220</ele>
        <time>2011-03-18T13:22:52Z</time>
      </trkpt>
      <trkpt lat="47.12374" lon="5.58653">
        <ele>220</ele>
        <time>2011-03-18T13:22:54Z</time>
      </trkpt>
      <trkpt lat="47.12388" lon="5.58656">
        <ele>214</ele>
        <time>2011-03-18T13:22:56Z</time>
      </trkpt>
      <trkpt lat="47.12399" lon="5.58659">
        <ele>214</ele>
        <time>2011-03-18T13:22:58Z</time>
      </trkpt>
      <trkpt lat="47.12411" lon="5.58661">
        <ele>214</ele>
        <time>2011-03-18T13:23:00Z</time>
      </trkpt>
      <trkpt lat="47.12423" lon="5.58669">
        <ele>214</ele>
        <time>2011-03-18T13:23:02Z</time>
      </trkpt>
      <trkpt lat="47.12434" lon="5.58679">
        <ele>214</ele>
        <time>2011-03-18T13:23:04Z</time>
      </trkpt>
      <trkpt lat="47.12444" lon="5.58694">
        <ele>214</ele>
        <time>2011-03-18T13:23:06Z</time>
      </trkpt>
      <trkpt lat="47.12452" lon="5.58705">
        <ele>214</ele>
        <time>2011-03-18T13:23:08Z</time>
      </trkpt>
      <trkpt lat="47.12462" lon="5.5871">
        <ele>214</ele>
        <time>2011-03-18T13:23:10Z</time>
      </trkpt>
      <trkpt lat="47.12472" lon="5.58705">
        <ele>214</ele>
        <time>2011-03-18T13:23:12Z</time>
      </trkpt>
      <trkpt lat="47.1248" lon="5.58695">
        <ele>214</ele>
        <time>2011-03-18T13:23:14Z</time>
      </trkpt>
      <trkpt lat="47.12488" lon="5.58684">
        <ele>214</ele>
        <time>2011-03-18T13:23:16Z</time>
      </trkpt>
      <trkpt lat="47.12495" lon="5.58671">
        <ele>214</ele>
        <time>2011-03-18T13:23:18Z</time>
      </trkpt>
      <trkpt lat="47.12502" lon="5.58661">
        <ele>214</ele>
        <time>2011-03-18T13:23:20Z</time>
      </trkpt>
      <trkpt lat="47.12509" lon="5.58649">
        <ele>214</ele>
        <time>2011-03-18T13:23:22Z</time>
      </trkpt>
      <trkpt lat="47.12516" lon="5.58637">
        <ele>209</ele>
        <time>2011-03-18T13:23:24Z</time>
      </trkpt>
      <trkpt lat="47.12523" lon="5.58628">
        <ele>209</ele>
        <time>2011-03-18T13:23:26Z</time>
      </trkpt>
      <trkpt lat="47.12531" lon="5.5862">
        <ele>209</ele>
        <time>2011-03-18T13:23:28Z</time>
      </trkpt>
      <trkpt lat="47.12542" lon="5.58625">
        <ele>209</ele>
        <time>2011-03-18T13:23:31Z</time>
      </trkpt>
      <trkpt lat="47.12544" lon="5.58639">
        <ele>209</ele>
        <time>2011-03-18T13:23:33Z</time>
      </trkpt>
      <trkpt lat="47.12547" lon="5.58657">
        <ele>209</ele>
        <time>2011-03-18T13:23:36Z</time>
      </trkpt>
      <trkpt lat="47.12549" lon="5.58675">
        <ele>209</ele>
        <time>2011-03-18T13:23:39Z</time>
      </trkpt>
      <trkpt lat="47.12551" lon="5.58688">
        <ele>209</ele>
        <time>2011-03-18T13:23:41Z</time>
      </trkpt>
      <trkpt lat="47.12552" lon="5.58702">
        <ele>209</ele>
        <time>2011-03-18T13:23:43Z</time>
      </trkpt>
      <trkpt lat="47.12555" lon="5.58716">
        <ele>209</ele>
        <time>2011-03-18T13:23:45Z</time>
      </trkpt>
      <trkpt lat="47.12556" lon="5.58731">
        <ele>209</ele>
        <time>2011-03-18T13:23:47Z</time>
      </trkpt>
      <trkpt lat="47.12559" lon="5.58746">
        <ele>209</ele>
        <time>2011-03-18T13:23:49Z</time>
      </trkpt>
      <trkpt lat="47.12561" lon="5.5876">
        <ele>209</ele>
        <time>2011-03-18T13:23:51Z</time>
      </trkpt>
      <trkpt lat="47.12563" lon="5.58776">
        <ele>209</ele>
        <time>2011-03-18T13:23:53Z</time>
      </trkpt>
      <trkpt lat="47.12564" lon="5.5879">
        <ele>209</ele>
        <time>2011-03-18T13:23:55Z</time>
      </trkpt>
      <trkpt lat="47.12566" lon="5.58805">
        <ele>209</ele>
        <time>2011-03-18T13:23:57Z</time>
      </trkpt>
      <trkpt lat="47.12567" lon="5.5882">
        <ele>209</ele>
        <time>2011-03-18T13:23:59Z</time>
      </trkpt>
      <trkpt lat="47.1257" lon="5.58837">
        <ele>209</ele>
        <time>2011-03-18T13:24:01Z</time>
      </trkpt>
      <trkpt lat="47.12574" lon="5.58851">
        <ele>209</ele>
        <time>2011-03-18T13:24:03Z</time>
      </trkpt>
      <trkpt lat="47.12579" lon="5.58866">
        <ele>209</ele>
        <time>2011-03-18T13:24:05Z</time>
      </trkpt>
      <trkpt lat="47.12583" lon="5.58881">
        <ele>209</ele>
        <time>2011-03-18T13:24:07Z</time>
      </trkpt>
      <trkpt lat="47.12589" lon="5.58893">
        <ele>209</ele>
        <time>2011-03-18T13:24:09Z</time>
      </trkpt>
      <trkpt lat="47.12594" lon="5.58907">
        <ele>209</ele>
        <time>2011-03-18T13:24:11Z</time>
      </trkpt>
      <trkpt lat="47.12601" lon="5.58919">
        <ele>209</ele>
        <time>2011-03-18T13:24:13Z</time>
      </trkpt>
      <trkpt lat="47.12607" lon="5.58932">
        <ele>209</ele>
        <time>2011-03-18T13:24:15Z</time>
      </trkpt>
      <trkpt lat="47.12615" lon="5.58944">
        <ele>209</ele>
        <time>2011-03-18T13:24:17Z</time>
      </trkpt>
      <trkpt lat="47.12622" lon="5.58956">
        <ele>209</ele>
        <time>2011-03-18T13:24:19Z</time>
      </trkpt>
      <trkpt lat="47.1263" lon="5.58968">
        <ele>209</ele>
        <time>2011-03-18T13:24:21Z</time>
      </trkpt>
      <trkpt lat="47.12639" lon="5.58979">
        <ele>209</ele>
        <time>2011-03-18T13:24:23Z</time>
      </trkpt>
      <trkpt lat="47.12648" lon="5.58989">
        <ele>209</ele>
        <time>2011-03-18T13:24:25Z</time>
      </trkpt>
      <trkpt lat="47.12657" lon="5.58999">
        <ele>209</ele>
        <time>2011-03-18T13:24:27Z</time>
      </trkpt>
      <trkpt lat="47.12666" lon="5.5901">
        <ele>209</ele>
        <time>2011-03-18T13:24:29Z</time>
      </trkpt>
      <trkpt lat="47.12674" lon="5.59021">
        <ele>209</ele>
        <time>2011-03-18T13:24:31Z</time>
      </trkpt>
      <trkpt lat="47.12682" lon="5.59032">
        <ele>209</ele>
        <time>2011-03-18T13:24:33Z</time>
      </trkpt>
      <trkpt lat="47.12689" lon="5.59045">
        <ele>209</ele>
        <time>2011-03-18T13:24:35Z</time>
      </trkpt>
      <trkpt lat="47.12696" lon="5.59058">
        <ele>209</ele>
        <time>2011-03-18T13:24:37Z</time>
      </trkpt>
      <trkpt lat="47.12701" lon="5.59072">
        <ele>209</ele>
        <time>2011-03-18T13:24:39Z</time>
      </trkpt>
      <trkpt lat="47.12706" lon="5.59087">
        <ele>209</ele>
        <time>2011-03-18T13:24:41Z</time>
      </trkpt>
      <trkpt lat="47.1271" lon="5.59103">
        <ele>209</ele>
        <time>2011-03-18T13:24:43Z</time>
      </trkpt>
      <trkpt lat="47.12713" lon="5.5912">
        <ele>209</ele>
        <time>2011-03-18T13:24:45Z</time>
      </trkpt>
      <trkpt lat="47.12715" lon="5.59138">
        <ele>209</ele>
        <time>2011-03-18T13:24:47Z</time>
      </trkpt>
      <trkpt lat="47.12716" lon="5.59155">
        <ele>209</ele>
        <time>2011-03-18T13:24:49Z</time>
      </trkpt>
      <trkpt lat="47.12716" lon="5.59173">
        <ele>209</ele>
        <time>2011-03-18T13:24:51Z</time>
      </trkpt>
      <trkpt lat="47.12716" lon="5.5919">
        <ele>209</ele>
        <time>2011-03-18T13:24:53Z</time>
      </trkpt>
      <trkpt lat="47.12716" lon="5.59207">
        <ele>209</ele>
        <time>2011-03-18T13:24:55Z</time>
      </trkpt>
      <trkpt lat="47.12717" lon="5.59225">
        <ele>209</ele>
        <time>2011-03-18T13:24:57Z</time>
      </trkpt>
      <trkpt lat="47.12717" lon="5.59242">
        <ele>209</ele>
        <time>2011-03-18T13:24:59Z</time>
      </trkpt>
      <trkpt lat="47.12717" lon="5.59259">
        <ele>209</ele>
        <time>2011-03-18T13:25:01Z</time>
      </trkpt>
      <trkpt lat="47.12717" lon="5.59276">
        <ele>209</ele>
        <time>2011-03-18T13:25:03Z</time>
      </trkpt>
      <trkpt lat="47.12717" lon="5.59293">
        <ele>209</ele>
        <time>2011-03-18T13:25:05Z</time>
      </trkpt>
      <trkpt lat="47.12718" lon="5.59311">
        <ele>209</ele>
        <time>2011-03-18T13:25:07Z</time>
      </trkpt>
      <trkpt lat="47.12718" lon="5.59328">
        <ele>209</ele>
        <time>2011-03-18T13:25:09Z</time>
      </trkpt>
      <trkpt lat="47.12718" lon="5.59345">
        <ele>209</ele>
        <time>2011-03-18T13:25:11Z</time>
      </trkpt>
      <trkpt lat="47.12718" lon="5.59363">
        <ele>209</ele>
        <time>2011-03-18T13:25:13Z</time>
      </trkpt>
      <trkpt lat="47.12718" lon="5.59381">
        <ele>209</ele>
        <time>2011-03-18T13:25:15Z</time>
      </trkpt>
      <trkpt lat="47.12718" lon="5.59398">
        <ele>209</ele>
        <time>2011-03-18T13:25:17Z</time>
      </trkpt>
      <trkpt lat="47.12718" lon="5.59416">
        <ele>209</ele>
        <time>2011-03-18T13:25:19Z</time>
      </trkpt>
      <trkpt lat="47.12718" lon="5.59434">
        <ele>209</ele>
        <time>2011-03-18T13:25:21Z</time>
      </trkpt>
      <trkpt lat="47.12718" lon="5.59451">
        <ele>209</ele>
        <time>2011-03-18T13:25:23Z</time>
      </trkpt>
      <trkpt lat="47.12719" lon="5.59468">
        <ele>209</ele>
        <time>2011-03-18T13:25:25Z</time>
      </trkpt>
      <trkpt lat="47.12719" lon="5.59485">
        <ele>209</ele>
        <time>2011-03-18T13:25:27Z</time>
      </trkpt>
      <trkpt lat="47.12719" lon="5.59502">
        <ele>209</ele>
        <time>2011-03-18T13:25:29Z</time>
      </trkpt>
      <trkpt lat="47.12719" lon="5.59519">
        <ele>209</ele>
        <time>2011-03-18T13:25:31Z</time>
      </trkpt>
      <trkpt lat="47.12719" lon="5.59537">
        <ele>209</ele>
        <time>2011-03-18T13:25:33Z</time>
      </trkpt>
      <trkpt lat="47.1272" lon="5.59554">
        <ele>209</ele>
        <time>2011-03-18T13:25:35Z</time>
      </trkpt>
      <trkpt lat="47.1272" lon="5.59571">
        <ele>209</ele>
        <time>2011-03-18T13:25:37Z</time>
      </trkpt>
      <trkpt lat="47.1272" lon="5.59588">
        <ele>209</ele>
        <time>2011-03-18T13:25:39Z</time>
      </trkpt>
      <trkpt lat="47.1272" lon="5.59606">
        <ele>209</ele>
        <time>2011-03-18T13:25:41Z</time>
      </trkpt>
      <trkpt lat="47.1272" lon="5.59623">
        <ele>209</ele>
        <time>2011-03-18T13:25:43Z</time>
      </trkpt>
      <trkpt lat="47.1272" lon="5.5964">
        <ele>209</ele>
        <time>2011-03-18T13:25:45Z</time>
      </trkpt>
      <trkpt lat="47.12721" lon="5.59658">
        <ele>209</ele>
        <time>2011-03-18T13:25:47Z</time>
      </trkpt>
      <trkpt lat="47.12721" lon="5.59675">
        <ele>209</ele>
        <time>2011-03-18T13:25:49Z</time>
      </trkpt>
      <trkpt lat="47.12721" lon="5.59693">
        <ele>209</ele>
        <time>2011-03-18T13:25:51Z</time>
      </trkpt>
      <trkpt lat="47.1272" lon="5.59711">
        <ele>209</ele>
        <time>2011-03-18T13:25:53Z</time>
      </trkpt>
      <trkpt lat="47.1272" lon="5.59727">
        <ele>209</ele>
        <time>2011-03-18T13:25:55Z</time>
      </trkpt>
      <trkpt lat="47.1272" lon="5.59743">
        <ele>209</ele>
        <time>2011-03-18T13:25:57Z</time>
      </trkpt>
      <trkpt lat="47.12718" lon="5.59759">
        <ele>209</ele>
        <time>2011-03-18T13:25:59Z</time>
      </trkpt>
      <trkpt lat="47.12717" lon="5.59776">
        <ele>209</ele>
        <time>2011-03-18T13:26:01Z</time>
      </trkpt>
      <trkpt lat="47.12715" lon="5.59792">
        <ele>209</ele>
        <time>2011-03-18T13:26:03Z</time>
      </trkpt>
      <trkpt lat="47.12713" lon="5.59809">
        <ele>209</ele>
        <time>2011-03-18T13:26:05Z</time>
      </trkpt>
      <trkpt lat="47.12711" lon="5.59827">
        <ele>209</ele>
        <time>2011-03-18T13:26:07Z</time>
      </trkpt>
      <trkpt lat="47.12708" lon="5.59843">
        <ele>209</ele>
        <time>2011-03-18T13:26:09Z</time>
      </trkpt>
      <trkpt lat="47.12706" lon="5.5986">
        <ele>209</ele>
        <time>2011-03-18T13:26:11Z</time>
      </trkpt>
      <trkpt lat="47.12703" lon="5.59876">
        <ele>209</ele>
        <time>2011-03-18T13:26:13Z</time>
      </trkpt>
      <trkpt lat="47.127" lon="5.59892">
        <ele>209</ele>
        <time>2011-03-18T13:26:15Z</time>
      </trkpt>
      <trkpt lat="47.12697" lon="5.59908">
        <ele>209</ele>
        <time>2011-03-18T13:26:17Z</time>
      </trkpt>
      <trkpt lat="47.12694" lon="5.59925">
        <ele>209</ele>
        <time>2011-03-18T13:26:19Z</time>
      </trkpt>
      <trkpt lat="47.1269" lon="5.59942">
        <ele>209</ele>
        <time>2011-03-18T13:26:21Z</time>
      </trkpt>
      <trkpt lat="47.12688" lon="5.59959">
        <ele>209</ele>
        <time>2011-03-18T13:26:23Z</time>
      </trkpt>
      <trkpt lat="47.12685" lon="5.59975">
        <ele>209</ele>
        <time>2011-03-18T13:26:25Z</time>
      </trkpt>
      <trkpt lat="47.12682" lon="5.59992">
        <ele>209</ele>
        <time>2011-03-18T13:26:27Z</time>
      </trkpt>
      <trkpt lat="47.12681" lon="5.60009">
        <ele>209</ele>
        <time>2011-03-18T13:26:29Z</time>
      </trkpt>
      <trkpt lat="47.1268" lon="5.60026">
        <ele>209</ele>
        <time>2011-03-18T13:26:31Z</time>
      </trkpt>
      <trkpt lat="47.1268" lon="5.60043">
        <ele>209</ele>
        <time>2011-03-18T13:26:33Z</time>
      </trkpt>
      <trkpt lat="47.1268" lon="5.60059">
        <ele>209</ele>
        <time>2011-03-18T13:26:35Z</time>
      </trkpt>
      <trkpt lat="47.12682" lon="5.60076">
        <ele>209</ele>
        <time>2011-03-18T13:26:37Z</time>
      </trkpt>
      <trkpt lat="47.12682" lon="5.60093">
        <ele>209</ele>
        <time>2011-03-18T13:26:39Z</time>
      </trkpt>
      <trkpt lat="47.12683" lon="5.6011">
        <ele>209</ele>
        <time>2011-03-18T13:26:41Z</time>
      </trkpt>
      <trkpt lat="47.12685" lon="5.60126">
        <ele>209</ele>
        <time>2011-03-18T13:26:43Z</time>
      </trkpt>
      <trkpt lat="47.12687" lon="5.60142">
        <ele>209</ele>
        <time>2011-03-18T13:26:45Z</time>
      </trkpt>
      <trkpt lat="47.12689" lon="5.60157">
        <ele>209</ele>
        <time>2011-03-18T13:26:47Z</time>
      </trkpt>
      <trkpt lat="47.12691" lon="5.60173">
        <ele>209</ele>
        <time>2011-03-18T13:26:49Z</time>
      </trkpt>
      <trkpt lat="47.12694" lon="5.60189">
        <ele>209</ele>
        <time>2011-03-18T13:26:51Z</time>
      </trkpt>
      <trkpt lat="47.12696" lon="5.60204">
        <ele>209</ele>
        <time>2011-03-18T13:26:53Z</time>
      </trkpt>
      <trkpt lat="47.12697" lon="5.60219">
        <ele>209</ele>
        <time>2011-03-18T13:26:55Z</time>
      </trkpt>
      <trkpt lat="47.12699" lon="5.60233">
        <ele>209</ele>
        <time>2011-03-18T13:26:57Z</time>
      </trkpt>
      <trkpt lat="47.12702" lon="5.60248">
        <ele>209</ele>
        <time>2011-03-18T13:26:59Z</time>
      </trkpt>
      <trkpt lat="47.12704" lon="5.60262">
        <ele>209</ele>
        <time>2011-03-18T13:27:01Z</time>
      </trkpt>
      <trkpt lat="47.12706" lon="5.60276">
        <ele>209</ele>
        <time>2011-03-18T13:27:03Z</time>
      </trkpt>
      <trkpt lat="47.12707" lon="5.60289">
        <ele>209</ele>
        <time>2011-03-18T13:27:05Z</time>
      </trkpt>
      <trkpt lat="47.1271" lon="5.60308">
        <ele>209</ele>
        <time>2011-03-18T13:27:08Z</time>
      </trkpt>
      <trkpt lat="47.12715" lon="5.6032">
        <ele>209</ele>
        <time>2011-03-18T13:27:10Z</time>
      </trkpt>
      <trkpt lat="47.12726" lon="5.6033">
        <ele>209</ele>
        <time>2011-03-18T13:27:13Z</time>
      </trkpt>
      <trkpt lat="47.12735" lon="5.60329">
        <ele>209</ele>
        <time>2011-03-18T13:27:15Z</time>
      </trkpt>
      <trkpt lat="47.12745" lon="5.60327">
        <ele>209</ele>
        <time>2011-03-18T13:27:17Z</time>
      </trkpt>
      <trkpt lat="47.12755" lon="5.60325">
        <ele>209</ele>
        <time>2011-03-18T13:27:19Z</time>
      </trkpt>
      <trkpt lat="47.12766" lon="5.60323">
        <ele>209</ele>
        <time>2011-03-18T13:27:21Z</time>
      </trkpt>
      <trkpt lat="47.12777" lon="5.60322">
        <ele>209</ele>
        <time>2011-03-18T13:27:23Z</time>
      </trkpt>
      <trkpt lat="47.12789" lon="5.60327">
        <ele>209</ele>
        <time>2011-03-18T13:27:25Z</time>
      </trkpt>
      <trkpt lat="47.128" lon="5.60335">
        <ele>209</ele>
        <time>2011-03-18T13:27:27Z</time>
      </trkpt>
      <trkpt lat="47.12809" lon="5.60344">
        <ele>209</ele>
        <time>2011-03-18T13:27:29Z</time>
      </trkpt>
      <trkpt lat="47.12819" lon="5.60354">
        <ele>209</ele>
        <time>2011-03-18T13:27:31Z</time>
      </trkpt>
      <trkpt lat="47.12827" lon="5.60365">
        <ele>209</ele>
        <time>2011-03-18T13:27:33Z</time>
      </trkpt>
      <trkpt lat="47.12835" lon="5.60376">
        <ele>209</ele>
        <time>2011-03-18T13:27:35Z</time>
      </trkpt>
      <trkpt lat="47.12842" lon="5.60387">
        <ele>209</ele>
        <time>2011-03-18T13:27:37Z</time>
      </trkpt>
      <trkpt lat="47.12849" lon="5.60397">
        <ele>209</ele>
        <time>2011-03-18T13:27:39Z</time>
      </trkpt>
      <trkpt lat="47.12857" lon="5.60407">
        <ele>209</ele>
        <time>2011-03-18T13:27:41Z</time>
      </trkpt>
      <trkpt lat="47.12864" lon="5.60416">
        <ele>209</ele>
        <time>2011-03-18T13:27:43Z</time>
      </trkpt>
      <trkpt lat="47.12871" lon="5.60426">
        <ele>209</ele>
        <time>2011-03-18T13:27:45Z</time>
      </trkpt>
      <trkpt lat="47.12877" lon="5.60436">
        <ele>209</ele>
        <time>2011-03-18T13:27:47Z</time>
      </trkpt>
      <trkpt lat="47.12884" lon="5.60446">
        <ele>209</ele>
        <time>2011-03-18T13:27:49Z</time>
      </trkpt>
      <trkpt lat="47.1289" lon="5.60458">
        <ele>209</ele>
        <time>2011-03-18T13:27:51Z</time>
      </trkpt>
      <trkpt lat="47.12896" lon="5.60471">
        <ele>209</ele>
        <time>2011-03-18T13:27:53Z</time>
      </trkpt>
      <trkpt lat="47.12902" lon="5.60482">
        <ele>209</ele>
        <time>2011-03-18T13:27:55Z</time>
      </trkpt>
      <trkpt lat="47.12909" lon="5.60495">
        <ele>209</ele>
        <time>2011-03-18T13:27:57Z</time>
      </trkpt>
      <trkpt lat="47.12915" lon="5.60507">
        <ele>209</ele>
        <time>2011-03-18T13:27:59Z</time>
      </trkpt>
      <trkpt lat="47.12922" lon="5.60521">
        <ele>209</ele>
        <time>2011-03-18T13:28:01Z</time>
      </trkpt>
      <trkpt lat="47.12928" lon="5.60534">
        <ele>209</ele>
        <time>2011-03-18T13:28:03Z</time>
      </trkpt>
      <trkpt lat="47.12935" lon="5.60549">
        <ele>209</ele>
        <time>2011-03-18T13:28:05Z</time>
      </trkpt>
      <trkpt lat="47.12941" lon="5.60562">
        <ele>209</ele>
        <time>2011-03-18T13:28:07Z</time>
      </trkpt>
      <trkpt lat="47.12947" lon="5.60576">
        <ele>209</ele>
        <time>2011-03-18T13:28:09Z</time>
      </trkpt>
      <trkpt lat="47.12952" lon="5.60589">
        <ele>209</ele>
        <time>2011-03-18T13:28:11Z</time>
      </trkpt>
      <trkpt lat="47.12959" lon="5.60604">
        <ele>209</ele>
        <time>2011-03-18T13:28:13Z</time>
      </trkpt>
      <trkpt lat="47.12965" lon="5.60618">
        <ele>209</ele>
        <time>2011-03-18T13:28:15Z</time>
      </trkpt>
      <trkpt lat="47.1297" lon="5.60632">
        <ele>209</ele>
        <time>2011-03-18T13:28:17Z</time>
      </trkpt>
      <trkpt lat="47.12976" lon="5.60646">
        <ele>209</ele>
        <time>2011-03-18T13:28:19Z</time>
      </trkpt>
      <trkpt lat="47.12982" lon="5.6066">
        <ele>209</ele>
        <time>2011-03-18T13:28:21Z</time>
      </trkpt>
      <trkpt lat="47.12988" lon="5.60675">
        <ele>209</ele>
        <time>2011-03-18T13:28:23Z</time>
      </trkpt>
      <trkpt lat="47.12994" lon="5.6069">
        <ele>209</ele>
        <time>2011-03-18T13:28:25Z</time>
      </trkpt>
      <trkpt lat="47.13" lon="5.60705">
        <ele>209</ele>
        <time>2011-03-18T13:28:27Z</time>
      </trkpt>
      <trkpt lat="47.13005" lon="5.6072">
        <ele>209</ele>
        <time>2011-03-18T13:28:29Z</time>
      </trkpt>
      <trkpt lat="47.13012" lon="5.60735">
        <ele>209</ele>
        <time>2011-03-18T13:28:31Z</time>
      </trkpt>
      <trkpt lat="47.13018" lon="5.60749">
        <ele>209</ele>
        <time>2011-03-18T13:28:33Z</time>
      </trkpt>
      <trkpt lat="47.13024" lon="5.60762">
        <ele>209</ele>
        <time>2011-03-18T13:28:35Z</time>
      </trkpt>
      <trkpt lat="47.13029" lon="5.60775">
        <ele>209</ele>
        <time>2011-03-18T13:28:37Z</time>
      </trkpt>
      <trkpt lat="47.13035" lon="5.60789">
        <ele>209</ele>
        <time>2011-03-18T13:28:39Z</time>
      </trkpt>
      <trkpt lat="47.13041" lon="5.60801">
        <ele>209</ele>
        <time>2011-03-18T13:28:41Z</time>
      </trkpt>
      <trkpt lat="47.13047" lon="5.60814">
        <ele>209</ele>
        <time>2011-03-18T13:28:43Z</time>
      </trkpt>
      <trkpt lat="47.13052" lon="5.60826">
        <ele>209</ele>
        <time>2011-03-18T13:28:45Z</time>
      </trkpt>
      <trkpt lat="47.1306" lon="5.60839">
        <ele>209</ele>
        <time>2011-03-18T13:28:47Z</time>
      </trkpt>
      <trkpt lat="47.13066" lon="5.60852">
        <ele>209</ele>
        <time>2011-03-18T13:28:49Z</time>
      </trkpt>
      <trkpt lat="47.13073" lon="5.60865">
        <ele>209</ele>
        <time>2011-03-18T13:28:51Z</time>
      </trkpt>
      <trkpt lat="47.13081" lon="5.60878">
        <ele>209</ele>
        <time>2011-03-18T13:28:53Z</time>
      </trkpt>
      <trkpt lat="47.13088" lon="5.60893">
        <ele>209</ele>
        <time>2011-03-18T13:28:55Z</time>
      </trkpt>
      <trkpt lat="47.13096" lon="5.60906">
        <ele>209</ele>
        <time>2011-03-18T13:28:57Z</time>
      </trkpt>
      <trkpt lat="47.13103" lon="5.6092">
        <ele>209</ele>
        <time>2011-03-18T13:28:59Z</time>
      </trkpt>
      <trkpt lat="47.1311" lon="5.60934">
        <ele>209</ele>
        <time>2011-03-18T13:29:01Z</time>
      </trkpt>
      <trkpt lat="47.13117" lon="5.60949">
        <ele>209</ele>
        <time>2011-03-18T13:29:03Z</time>
      </trkpt>
      <trkpt lat="47.13124" lon="5.60964">
        <ele>209</ele>
        <time>2011-03-18T13:29:05Z</time>
      </trkpt>
      <trkpt lat="47.13132" lon="5.6098">
        <ele>209</ele>
        <time>2011-03-18T13:29:07Z</time>
      </trkpt>
      <trkpt lat="47.13139" lon="5.60995">
        <ele>209</ele>
        <time>2011-03-18T13:29:09Z</time>
      </trkpt>
      <trkpt lat="47.13147" lon="5.61011">
        <ele>209</ele>
        <time>2011-03-18T13:29:11Z</time>
      </trkpt>
      <trkpt lat="47.13154" lon="5.61028">
        <ele>209</ele>
        <time>2011-03-18T13:29:13Z</time>
      </trkpt>
      <trkpt lat="47.13161" lon="5.61043">
        <ele>209</ele>
        <time>2011-03-18T13:29:15Z</time>
      </trkpt>
      <trkpt lat="47.13168" lon="5.61059">
        <ele>209</ele>
        <time>2011-03-18T13:29:17Z</time>
      </trkpt>
      <trkpt lat="47.13174" lon="5.61074">
        <ele>209</ele>
        <time>2011-03-18T13:29:19Z</time>
      </trkpt>
      <trkpt lat="47.13181" lon="5.6109">
        <ele>209</ele>
        <time>2011-03-18T13:29:21Z</time>
      </trkpt>
      <trkpt lat="47.13188" lon="5.61104">
        <ele>209</ele>
        <time>2011-03-18T13:29:23Z</time>
      </trkpt>
      <trkpt lat="47.13194" lon="5.61118">
        <ele>209</ele>
        <time>2011-03-18T13:29:25Z</time>
      </trkpt>
      <trkpt lat="47.132" lon="5.61133">
        <ele>209</ele>
        <time>2011-03-18T13:29:27Z</time>
      </trkpt>
      <trkpt lat="47.13207" lon="5.61147">
        <ele>209</ele>
        <time>2011-03-18T13:29:29Z</time>
      </trkpt>
      <trkpt lat="47.13213" lon="5.61161">
        <ele>209</ele>
        <time>2011-03-18T13:29:31Z</time>
      </trkpt>
      <trkpt lat="47.1322" lon="5.61174">
        <ele>209</ele>
        <time>2011-03-18T13:29:33Z</time>
      </trkpt>
      <trkpt lat="47.13226" lon="5.61187">
        <ele>209</ele>
        <time>2011-03-18T13:29:35Z</time>
      </trkpt>
      <trkpt lat="47.13233" lon="5.61201">
        <ele>209</ele>
        <time>2011-03-18T13:29:37Z</time>
      </trkpt>
      <trkpt lat="47.13239" lon="5.61214">
        <ele>209</ele>
        <time>2011-03-18T13:29:39Z</time>
      </trkpt>
      <trkpt lat="47.13247" lon="5.61229">
        <ele>209</ele>
        <time>2011-03-18T13:29:41Z</time>
      </trkpt>
      <trkpt lat="47.13255" lon="5.61242">
        <ele>209</ele>
        <time>2011-03-18T13:29:43Z</time>
      </trkpt>
      <trkpt lat="47.13263" lon="5.61257">
        <ele>209</ele>
        <time>2011-03-18T13:29:45Z</time>
      </trkpt>
      <trkpt lat="47.1327" lon="5.6127">
        <ele>209</ele>
        <time>2011-03-18T13:29:47Z</time>
      </trkpt>
      <trkpt lat="47.13277" lon="5.61285">
        <ele>209</ele>
        <time>2011-03-18T13:29:49Z</time>
      </trkpt>
      <trkpt lat="47.13284" lon="5.61299">
        <ele>209</ele>
        <time>2011-03-18T13:29:51Z</time>
      </trkpt>
      <trkpt lat="47.13291" lon="5.61314">
        <ele>209</ele>
        <time>2011-03-18T13:29:53Z</time>
      </trkpt>
      <trkpt lat="47.13297" lon="5.61329">
        <ele>209</ele>
        <time>2011-03-18T13:29:55Z</time>
      </trkpt>
      <trkpt lat="47.13303" lon="5.61344">
        <ele>209</ele>
        <time>2011-03-18T13:29:57Z</time>
      </trkpt>
      <trkpt lat="47.13309" lon="5.61359">
        <ele>209</ele>
        <time>2011-03-18T13:29:59Z</time>
      </trkpt>
      <trkpt lat="47.13314" lon="5.61375">
        <ele>209</ele>
        <time>2011-03-18T13:30:01Z</time>
      </trkpt>
      <trkpt lat="47.13319" lon="5.61391">
        <ele>209</ele>
        <time>2011-03-18T13:30:03Z</time>
      </trkpt>
      <trkpt lat="47.13325" lon="5.61406">
        <ele>209</ele>
        <time>2011-03-18T13:30:05Z</time>
      </trkpt>
      <trkpt lat="47.1333" lon="5.61422">
        <ele>209</ele>
        <time>2011-03-18T13:30:07Z</time>
      </trkpt>
      <trkpt lat="47.13336" lon="5.61438">
        <ele>209</ele>
        <time>2011-03-18T13:30:09Z</time>
      </trkpt>
      <trkpt lat="47.13341" lon="5.61453">
        <ele>209</ele>
        <time>2011-03-18T13:30:11Z</time>
      </trkpt>
      <trkpt lat="47.13347" lon="5.6147">
        <ele>209</ele>
        <time>2011-03-18T13:30:13Z</time>
      </trkpt>
      <trkpt lat="47.13352" lon="5.61486">
        <ele>209</ele>
        <time>2011-03-18T13:30:15Z</time>
      </trkpt>
      <trkpt lat="47.13358" lon="5.61502">
        <ele>209</ele>
        <time>2011-03-18T13:30:17Z</time>
      </trkpt>
      <trkpt lat="47.13363" lon="5.61518">
        <ele>209</ele>
        <time>2011-03-18T13:30:19Z</time>
      </trkpt>
      <trkpt lat="47.13368" lon="5.61535">
        <ele>209</ele>
        <time>2011-03-18T13:30:21Z</time>
      </trkpt>
      <trkpt lat="47.13372" lon="5.61551">
        <ele>209</ele>
        <time>2011-03-18T13:30:23Z</time>
      </trkpt>
      <trkpt lat="47.13377" lon="5.61568">
        <ele>209</ele>
        <time>2011-03-18T13:30:25Z</time>
      </trkpt>
      <trkpt lat="47.1338" lon="5.61585">
        <ele>209</ele>
        <time>2011-03-18T13:30:27Z</time>
      </trkpt>
      <trkpt lat="47.13384" lon="5.61603">
        <ele>209</ele>
        <time>2011-03-18T13:30:29Z</time>
      </trkpt>
      <trkpt lat="47.13388" lon="5.6162">
        <ele>209</ele>
        <time>2011-03-18T13:30:31Z</time>
      </trkpt>
      <trkpt lat="47.13391" lon="5.61636">
        <ele>209</ele>
        <time>2011-03-18T13:30:33Z</time>
      </trkpt>
      <trkpt lat="47.13395" lon="5.61652">
        <ele>209</ele>
        <time>2011-03-18T13:30:35Z</time>
      </trkpt>
      <trkpt lat="47.13398" lon="5.61668">
        <ele>209</ele>
        <time>2011-03-18T13:30:37Z</time>
      </trkpt>
      <trkpt lat="47.13401" lon="5.61684">
        <ele>209</ele>
        <time>2011-03-18T13:30:39Z</time>
      </trkpt>
      <trkpt lat="47.13404" lon="5.61701">
        <ele>209</ele>
        <time>2011-03-18T13:30:41Z</time>
      </trkpt>
      <trkpt lat="47.13407" lon="5.61718">
        <ele>209</ele>
        <time>2011-03-18T13:30:43Z</time>
      </trkpt>
      <trkpt lat="47.13412" lon="5.61735">
        <ele>209</ele>
        <time>2011-03-18T13:30:45Z</time>
      </trkpt>
      <trkpt lat="47.13418" lon="5.61753">
        <ele>209</ele>
        <time>2011-03-18T13:30:47Z</time>
      </trkpt>
      <trkpt lat="47.13426" lon="5.61768">
        <ele>209</ele>
        <time>2011-03-18T13:30:49Z</time>
      </trkpt>
      <trkpt lat="47.13434" lon="5.61781">
        <ele>209</ele>
        <time>2011-03-18T13:30:51Z</time>
      </trkpt>
      <trkpt lat="47.13442" lon="5.61795">
        <ele>209</ele>
        <time>2011-03-18T13:30:53Z</time>
      </trkpt>
      <trkpt lat="47.1345" lon="5.61808">
        <ele>209</ele>
        <time>2011-03-18T13:30:55Z</time>
      </trkpt>
      <trkpt lat="47.13458" lon="5.61822">
        <ele>209</ele>
        <time>2011-03-18T13:30:57Z</time>
      </trkpt>
      <trkpt lat="47.13466" lon="5.61836">
        <ele>209</ele>
        <time>2011-03-18T13:30:59Z</time>
      </trkpt>
      <trkpt lat="47.13475" lon="5.6185">
        <ele>209</ele>
        <time>2011-03-18T13:31:01Z</time>
      </trkpt>
      <trkpt lat="47.13483" lon="5.61862">
        <ele>209</ele>
        <time>2011-03-18T13:31:03Z</time>
      </trkpt>
      <trkpt lat="47.13491" lon="5.61875">
        <ele>209</ele>
        <time>2011-03-18T13:31:05Z</time>
      </trkpt>
      <trkpt lat="47.13499" lon="5.61888">
        <ele>209</ele>
        <time>2011-03-18T13:31:07Z</time>
      </trkpt>
      <trkpt lat="47.13505" lon="5.61902">
        <ele>209</ele>
        <time>2011-03-18T13:31:09Z</time>
      </trkpt>
      <trkpt lat="47.13513" lon="5.61916">
        <ele>209</ele>
        <time>2011-03-18T13:31:11Z</time>
      </trkpt>
      <trkpt lat="47.13519" lon="5.61931">
        <ele>209</ele>
        <time>2011-03-18T13:31:13Z</time>
      </trkpt>
      <trkpt lat="47.13524" lon="5.61947">
        <ele>209</ele>
        <time>2011-03-18T13:31:15Z</time>
      </trkpt>
      <trkpt lat="47.13529" lon="5.61963">
        <ele>209</ele>
        <time>2011-03-18T13:31:17Z</time>
      </trkpt>
      <trkpt lat="47.13534" lon="5.61979">
        <ele>209</ele>
        <time>2011-03-18T13:31:19Z</time>
      </trkpt>
      <trkpt lat="47.13539" lon="5.61996">
        <ele>209</ele>
        <time>2011-03-18T13:31:21Z</time>
      </trkpt>
      <trkpt lat="47.13542" lon="5.62012">
        <ele>209</ele>
        <time>2011-03-18T13:31:23Z</time>
      </trkpt>
      <trkpt lat="47.13546" lon="5.62029">
        <ele>209</ele>
        <time>2011-03-18T13:31:25Z</time>
      </trkpt>
      <trkpt lat="47.1355" lon="5.62045">
        <ele>209</ele>
        <time>2011-03-18T13:31:27Z</time>
      </trkpt>
      <trkpt lat="47.13553" lon="5.62062">
        <ele>209</ele>
        <time>2011-03-18T13:31:29Z</time>
      </trkpt>
      <trkpt lat="47.13557" lon="5.62078">
        <ele>209</ele>
        <time>2011-03-18T13:31:31Z</time>
      </trkpt>
      <trkpt lat="47.13561" lon="5.62095">
        <ele>209</ele>
        <time>2011-03-18T13:31:33Z</time>
      </trkpt>
      <trkpt lat="47.13564" lon="5.62112">
        <ele>209</ele>
        <time>2011-03-18T13:31:35Z</time>
      </trkpt>
      <trkpt lat="47.13568" lon="5.62129">
        <ele>209</ele>
        <time>2011-03-18T13:31:37Z</time>
      </trkpt>
      <trkpt lat="47.13572" lon="5.62145">
        <ele>209</ele>
        <time>2011-03-18T13:31:39Z</time>
      </trkpt>
      <trkpt lat="47.13576" lon="5.62162">
        <ele>209</ele>
        <time>2011-03-18T13:31:41Z</time>
      </trkpt>
      <trkpt lat="47.13579" lon="5.6218">
        <ele>209</ele>
        <time>2011-03-18T13:31:43Z</time>
      </trkpt>
      <trkpt lat="47.13583" lon="5.62197">
        <ele>209</ele>
        <time>2011-03-18T13:31:45Z</time>
      </trkpt>
      <trkpt lat="47.13586" lon="5.62215">
        <ele>209</ele>
        <time>2011-03-18T13:31:47Z</time>
      </trkpt>
      <trkpt lat="47.13589" lon="5.62234">
        <ele>209</ele>
        <time>2011-03-18T13:31:49Z</time>
      </trkpt>
      <trkpt lat="47.13591" lon="5.62252">
        <ele>209</ele>
        <time>2011-03-18T13:31:51Z</time>
      </trkpt>
      <trkpt lat="47.13592" lon="5.62271">
        <ele>209</ele>
        <time>2011-03-18T13:31:53Z</time>
      </trkpt>
      <trkpt lat="47.13593" lon="5.62289">
        <ele>209</ele>
        <time>2011-03-18T13:31:55Z</time>
      </trkpt>
      <trkpt lat="47.13594" lon="5.62307">
        <ele>209</ele>
        <time>2011-03-18T13:31:57Z</time>
      </trkpt>
      <trkpt lat="47.13596" lon="5.62326">
        <ele>209</ele>
        <time>2011-03-18T13:31:59Z</time>
      </trkpt>
      <trkpt lat="47.13599" lon="5.62345">
        <ele>209</ele>
        <time>2011-03-18T13:32:01Z</time>
      </trkpt>
      <trkpt lat="47.136" lon="5.62362">
        <ele>209</ele>
        <time>2011-03-18T13:32:03Z</time>
      </trkpt>
      <trkpt lat="47.13603" lon="5.6238">
        <ele>209</ele>
        <time>2011-03-18T13:32:05Z</time>
      </trkpt>
      <trkpt lat="47.13605" lon="5.62398">
        <ele>209</ele>
        <time>2011-03-18T13:32:07Z</time>
      </trkpt>
      <trkpt lat="47.13607" lon="5.62415">
        <ele>209</ele>
        <time>2011-03-18T13:32:09Z</time>
      </trkpt>
      <trkpt lat="47.13608" lon="5.62433">
        <ele>209</ele>
        <time>2011-03-18T13:32:11Z</time>
      </trkpt>
      <trkpt lat="47.13609" lon="5.62451">
        <ele>209</ele>
        <time>2011-03-18T13:32:13Z</time>
      </trkpt>
      <trkpt lat="47.13611" lon="5.62468">
        <ele>209</ele>
        <time>2011-03-18T13:32:15Z</time>
      </trkpt>
      <trkpt lat="47.13613" lon="5.62483">
        <ele>209</ele>
        <time>2011-03-18T13:32:17Z</time>
      </trkpt>
      <trkpt lat="47.13614" lon="5.625">
        <ele>209</ele>
        <time>2011-03-18T13:32:19Z</time>
      </trkpt>
      <trkpt lat="47.13616" lon="5.62515">
        <ele>209</ele>
        <time>2011-03-18T13:32:21Z</time>
      </trkpt>
      <trkpt lat="47.13618" lon="5.62532">
        <ele>209</ele>
        <time>2011-03-18T13:32:23Z</time>
      </trkpt>
      <trkpt lat="47.13619" lon="5.62549">
        <ele>209</ele>
        <time>2011-03-18T13:32:25Z</time>
      </trkpt>
      <trkpt lat="47.13621" lon="5.62566">
        <ele>209</ele>
        <time>2011-03-18T13:32:27Z</time>
      </trkpt>
      <trkpt lat="47.13621" lon="5.62583">
        <ele>209</ele>
        <time>2011-03-18T13:32:29Z</time>
      </trkpt>
      <trkpt lat="47.13623" lon="5.62601">
        <ele>209</ele>
        <time>2011-03-18T13:32:31Z</time>
      </trkpt>
      <trkpt lat="47.13623" lon="5.62619">
        <ele>209</ele>
        <time>2011-03-18T13:32:33Z</time>
      </trkpt>
      <trkpt lat="47.13625" lon="5.62636">
        <ele>209</ele>
        <time>2011-03-18T13:32:35Z</time>
      </trkpt>
      <trkpt lat="47.13626" lon="5.62653">
        <ele>209</ele>
        <time>2011-03-18T13:32:37Z</time>
      </trkpt>
      <trkpt lat="47.13626" lon="5.62671">
        <ele>209</ele>
        <time>2011-03-18T13:32:39Z</time>
      </trkpt>
      <trkpt lat="47.13627" lon="5.62689">
        <ele>209</ele>
        <time>2011-03-18T13:32:41Z</time>
      </trkpt>
      <trkpt lat="47.13627" lon="5.62707">
        <ele>209</ele>
        <time>2011-03-18T13:32:43Z</time>
      </trkpt>
      <trkpt lat="47.13628" lon="5.62725">
        <ele>209</ele>
        <time>2011-03-18T13:32:45Z</time>
      </trkpt>
      <trkpt lat="47.13629" lon="5.62743">
        <ele>209</ele>
        <time>2011-03-18T13:32:47Z</time>
      </trkpt>
      <trkpt lat="47.1363" lon="5.62761">
        <ele>209</ele>
        <time>2011-03-18T13:32:49Z</time>
      </trkpt>
      <trkpt lat="47.13631" lon="5.6278">
        <ele>209</ele>
        <time>2011-03-18T13:32:51Z</time>
      </trkpt>
      <trkpt lat="47.13632" lon="5.62799">
        <ele>209</ele>
        <time>2011-03-18T13:32:53Z</time>
      </trkpt>
      <trkpt lat="47.13633" lon="5.62817">
        <ele>209</ele>
        <time>2011-03-18T13:32:55Z</time>
      </trkpt>
      <trkpt lat="47.13634" lon="5.62836">
        <ele>209</ele>
        <time>2011-03-18T13:32:57Z</time>
      </trkpt>
      <trkpt lat="47.13635" lon="5.62855">
        <ele>209</ele>
        <time>2011-03-18T13:32:59Z</time>
      </trkpt>
      <trkpt lat="47.13635" lon="5.62874">
        <ele>209</ele>
        <time>2011-03-18T13:33:01Z</time>
      </trkpt>
      <trkpt lat="47.13634" lon="5.62892">
        <ele>209</ele>
        <time>2011-03-18T13:33:03Z</time>
      </trkpt>
      <trkpt lat="47.13634" lon="5.62911">
        <ele>209</ele>
        <time>2011-03-18T13:33:05Z</time>
      </trkpt>
      <trkpt lat="47.13634" lon="5.6293">
        <ele>209</ele>
        <time>2011-03-18T13:33:07Z</time>
      </trkpt>
      <trkpt lat="47.13634" lon="5.62948">
        <ele>209</ele>
        <time>2011-03-18T13:33:09Z</time>
      </trkpt>
      <trkpt lat="47.13633" lon="5.62966">
        <ele>209</ele>
        <time>2011-03-18T13:33:11Z</time>
      </trkpt>
      <trkpt lat="47.13632" lon="5.62982">
        <ele>209</ele>
        <time>2011-03-18T13:33:13Z</time>
      </trkpt>
      <trkpt lat="47.13631" lon="5.62999">
        <ele>209</ele>
        <time>2011-03-18T13:33:15Z</time>
      </trkpt>
      <trkpt lat="47.13629" lon="5.63016">
        <ele>209</ele>
        <time>2011-03-18T13:33:17Z</time>
      </trkpt>
      <trkpt lat="47.13627" lon="5.63031">
        <ele>214</ele>
        <time>2011-03-18T13:33:19Z</time>
      </trkpt>
      <trkpt lat="47.13626" lon="5.63045">
        <ele>214</ele>
        <time>2011-03-18T13:33:21Z</time>
      </trkpt>
      <trkpt lat="47.13625" lon="5.6306">
        <ele>214</ele>
        <time>2011-03-18T13:33:23Z</time>
      </trkpt>
      <trkpt lat="47.13624" lon="5.63075">
        <ele>214</ele>
        <time>2011-03-18T13:33:25Z</time>
      </trkpt>
      <trkpt lat="47.13624" lon="5.63089">
        <ele>214</ele>
        <time>2011-03-18T13:33:27Z</time>
      </trkpt>
      <trkpt lat="47.13623" lon="5.63105">
        <ele>214</ele>
        <time>2011-03-18T13:33:29Z</time>
      </trkpt>
      <trkpt lat="47.13621" lon="5.63122">
        <ele>214</ele>
        <time>2011-03-18T13:33:31Z</time>
      </trkpt>
      <trkpt lat="47.13619" lon="5.63139">
        <ele>214</ele>
        <time>2011-03-18T13:33:33Z</time>
      </trkpt>
      <trkpt lat="47.13618" lon="5.63156">
        <ele>214</ele>
        <time>2011-03-18T13:33:35Z</time>
      </trkpt>
      <trkpt lat="47.13615" lon="5.63174">
        <ele>214</ele>
        <time>2011-03-18T13:33:37Z</time>
      </trkpt>
      <trkpt lat="47.13613" lon="5.63191">
        <ele>214</ele>
        <time>2011-03-18T13:33:39Z</time>
      </trkpt>
      <trkpt lat="47.13611" lon="5.63207">
        <ele>214</ele>
        <time>2011-03-18T13:33:41Z</time>
      </trkpt>
      <trkpt lat="47.13609" lon="5.63224">
        <ele>214</ele>
        <time>2011-03-18T13:33:43Z</time>
      </trkpt>
      <trkpt lat="47.13607" lon="5.63241">
        <ele>214</ele>
        <time>2011-03-18T13:33:45Z</time>
      </trkpt>
      <trkpt lat="47.13605" lon="5.63259">
        <ele>214</ele>
        <time>2011-03-18T13:33:47Z</time>
      </trkpt>
      <trkpt lat="47.13602" lon="5.63276">
        <ele>214</ele>
        <time>2011-03-18T13:33:49Z</time>
      </trkpt>
      <trkpt lat="47.136" lon="5.63293">
        <ele>214</ele>
        <time>2011-03-18T13:33:51Z</time>
      </trkpt>
      <trkpt lat="47.13596" lon="5.63311">
        <ele>214</ele>
        <time>2011-03-18T13:33:53Z</time>
      </trkpt>
      <trkpt lat="47.13592" lon="5.63328">
        <ele>214</ele>
        <time>2011-03-18T13:33:55Z</time>
      </trkpt>
      <trkpt lat="47.13589" lon="5.63345">
        <ele>214</ele>
        <time>2011-03-18T13:33:57Z</time>
      </trkpt>
      <trkpt lat="47.13586" lon="5.63362">
        <ele>214</ele>
        <time>2011-03-18T13:33:59Z</time>
      </trkpt>
      <trkpt lat="47.13581" lon="5.63378">
        <ele>214</ele>
        <time>2011-03-18T13:34:01Z</time>
      </trkpt>
      <trkpt lat="47.13578" lon="5.63396">
        <ele>214</ele>
        <time>2011-03-18T13:34:03Z</time>
      </trkpt>
      <trkpt lat="47.13574" lon="5.63412">
        <ele>214</ele>
        <time>2011-03-18T13:34:05Z</time>
      </trkpt>
      <trkpt lat="47.1357" lon="5.63428">
        <ele>214</ele>
        <time>2011-03-18T13:34:07Z</time>
      </trkpt>
      <trkpt lat="47.13566" lon="5.63444">
        <ele>214</ele>
        <time>2011-03-18T13:34:09Z</time>
      </trkpt>
      <trkpt lat="47.1356" lon="5.6346">
        <ele>214</ele>
        <time>2011-03-18T13:34:11Z</time>
      </trkpt>
      <trkpt lat="47.13554" lon="5.63476">
        <ele>214</ele>
        <time>2011-03-18T13:34:13Z</time>
      </trkpt>
      <trkpt lat="47.1355" lon="5.63493">
        <ele>214</ele>
        <time>2011-03-18T13:34:15Z</time>
      </trkpt>
      <trkpt lat="47.13547" lon="5.63509">
        <ele>214</ele>
        <time>2011-03-18T13:34:17Z</time>
      </trkpt>
      <trkpt lat="47.13543" lon="5.63525">
        <ele>214</ele>
        <time>2011-03-18T13:34:19Z</time>
      </trkpt>
      <trkpt lat="47.1354" lon="5.63542">
        <ele>214</ele>
        <time>2011-03-18T13:34:21Z</time>
      </trkpt>
      <trkpt lat="47.13537" lon="5.63558">
        <ele>214</ele>
        <time>2011-03-18T13:34:23Z</time>
      </trkpt>
      <trkpt lat="47.13534" lon="5.63574">
        <ele>214</ele>
        <time>2011-03-18T13:34:25Z</time>
      </trkpt>
      <trkpt lat="47.13532" lon="5.6359">
        <ele>214</ele>
        <time>2011-03-18T13:34:27Z</time>
      </trkpt>
      <trkpt lat="47.13529" lon="5.63607">
        <ele>214</ele>
        <time>2011-03-18T13:34:29Z</time>
      </trkpt>
      <trkpt lat="47.13528" lon="5.63623">
        <ele>214</ele>
        <time>2011-03-18T13:34:31Z</time>
      </trkpt>
      <trkpt lat="47.13526" lon="5.63638">
        <ele>214</ele>
        <time>2011-03-18T13:34:33Z</time>
      </trkpt>
      <trkpt lat="47.13524" lon="5.63654">
        <ele>214</ele>
        <time>2011-03-18T13:34:35Z</time>
      </trkpt>
      <trkpt lat="47.13522" lon="5.63671">
        <ele>214</ele>
        <time>2011-03-18T13:34:37Z</time>
      </trkpt>
      <trkpt lat="47.13521" lon="5.63688">
        <ele>214</ele>
        <time>2011-03-18T13:34:39Z</time>
      </trkpt>
      <trkpt lat="47.1352" lon="5.63704">
        <ele>214</ele>
        <time>2011-03-18T13:34:41Z</time>
      </trkpt>
      <trkpt lat="47.1352" lon="5.63721">
        <ele>214</ele>
        <time>2011-03-18T13:34:43Z</time>
      </trkpt>
      <trkpt lat="47.13521" lon="5.63738">
        <ele>214</ele>
        <time>2011-03-18T13:34:45Z</time>
      </trkpt>
      <trkpt lat="47.13524" lon="5.63755">
        <ele>214</ele>
        <time>2011-03-18T13:34:47Z</time>
      </trkpt>
      <trkpt lat="47.13529" lon="5.63771">
        <ele>214</ele>
        <time>2011-03-18T13:34:49Z</time>
      </trkpt>
      <trkpt lat="47.13536" lon="5.63786">
        <ele>214</ele>
        <time>2011-03-18T13:34:51Z</time>
      </trkpt>
      <trkpt lat="47.13542" lon="5.63802">
        <ele>214</ele>
        <time>2011-03-18T13:34:53Z</time>
      </trkpt>
      <trkpt lat="47.13548" lon="5.63816">
        <ele>214</ele>
        <time>2011-03-18T13:34:55Z</time>
      </trkpt>
      <trkpt lat="47.13554" lon="5.63831">
        <ele>214</ele>
        <time>2011-03-18T13:34:57Z</time>
      </trkpt>
      <trkpt lat="47.13558" lon="5.63848">
        <ele>214</ele>
        <time>2011-03-18T13:34:59Z</time>
      </trkpt>
      <trkpt lat="47.1356" lon="5.63866">
        <ele>214</ele>
        <time>2011-03-18T13:35:01Z</time>
      </trkpt>
      <trkpt lat="47.13561" lon="5.63883">
        <ele>214</ele>
        <time>2011-03-18T13:35:03Z</time>
      </trkpt>
      <trkpt lat="47.1356" lon="5.639">
        <ele>214</ele>
        <time>2011-03-18T13:35:05Z</time>
      </trkpt>
      <trkpt lat="47.13559" lon="5.63918">
        <ele>214</ele>
        <time>2011-03-18T13:35:07Z</time>
      </trkpt>
      <trkpt lat="47.13559" lon="5.63935">
        <ele>214</ele>
        <time>2011-03-18T13:35:09Z</time>
      </trkpt>
      <trkpt lat="47.13558" lon="5.63953">
        <ele>214</ele>
        <time>2011-03-18T13:35:11Z</time>
      </trkpt>
      <trkpt lat="47.13554" lon="5.63969">
        <ele>214</ele>
        <time>2011-03-18T13:35:13Z</time>
      </trkpt>
      <trkpt lat="47.13552" lon="5.63987">
        <ele>214</ele>
        <time>2011-03-18T13:35:15Z</time>
      </trkpt>
      <trkpt lat="47.1355" lon="5.64003">
        <ele>214</ele>
        <time>2011-03-18T13:35:17Z</time>
      </trkpt>
      <trkpt lat="47.13545" lon="5.6402">
        <ele>214</ele>
        <time>2011-03-18T13:35:19Z</time>
      </trkpt>
      <trkpt lat="47.1354" lon="5.64036">
        <ele>214</ele>
        <time>2011-03-18T13:35:21Z</time>
      </trkpt>
      <trkpt lat="47.13537" lon="5.64052">
        <ele>214</ele>
        <time>2011-03-18T13:35:23Z</time>
      </trkpt>
      <trkpt lat="47.13534" lon="5.64068">
        <ele>214</ele>
        <time>2011-03-18T13:35:25Z</time>
      </trkpt>
      <trkpt lat="47.13529" lon="5.64084">
        <ele>214</ele>
        <time>2011-03-18T13:35:27Z</time>
      </trkpt>
      <trkpt lat="47.13523" lon="5.641">
        <ele>214</ele>
        <time>2011-03-18T13:35:29Z</time>
      </trkpt>
      <trkpt lat="47.13516" lon="5.64115">
        <ele>214</ele>
        <time>2011-03-18T13:35:31Z</time>
      </trkpt>
      <trkpt lat="47.13509" lon="5.64129">
        <ele>214</ele>
        <time>2011-03-18T13:35:33Z</time>
      </trkpt>
      <trkpt lat="47.13501" lon="5.64145">
        <ele>214</ele>
        <time>2011-03-18T13:35:35Z</time>
      </trkpt>
      <trkpt lat="47.13493" lon="5.64158">
        <ele>214</ele>
        <time>2011-03-18T13:35:37Z</time>
      </trkpt>
      <trkpt lat="47.13485" lon="5.64173">
        <ele>214</ele>
        <time>2011-03-18T13:35:39Z</time>
      </trkpt>
      <trkpt lat="47.13477" lon="5.64187">
        <ele>214</ele>
        <time>2011-03-18T13:35:41Z</time>
      </trkpt>
      <trkpt lat="47.1347" lon="5.642">
        <ele>214</ele>
        <time>2011-03-18T13:35:43Z</time>
      </trkpt>
      <trkpt lat="47.13463" lon="5.64215">
        <ele>214</ele>
        <time>2011-03-18T13:35:45Z</time>
      </trkpt>
      <trkpt lat="47.13457" lon="5.64229">
        <ele>214</ele>
        <time>2011-03-18T13:35:47Z</time>
      </trkpt>
      <trkpt lat="47.1345" lon="5.64243">
        <ele>214</ele>
        <time>2011-03-18T13:35:49Z</time>
      </trkpt>
      <trkpt lat="47.13442" lon="5.64254">
        <ele>214</ele>
        <time>2011-03-18T13:35:51Z</time>
      </trkpt>
      <trkpt lat="47.13435" lon="5.64266">
        <ele>214</ele>
        <time>2011-03-18T13:35:53Z</time>
      </trkpt>
      <trkpt lat="47.13426" lon="5.64278">
        <ele>214</ele>
        <time>2011-03-18T13:35:55Z</time>
      </trkpt>
      <trkpt lat="47.13417" lon="5.64288">
        <ele>214</ele>
        <time>2011-03-18T13:35:57Z</time>
      </trkpt>
      <trkpt lat="47.13407" lon="5.643">
        <ele>214</ele>
        <time>2011-03-18T13:35:59Z</time>
      </trkpt>
      <trkpt lat="47.13398" lon="5.64311">
        <ele>214</ele>
        <time>2011-03-18T13:36:01Z</time>
      </trkpt>
      <trkpt lat="47.13388" lon="5.64321">
        <ele>214</ele>
        <time>2011-03-18T13:36:03Z</time>
      </trkpt>
      <trkpt lat="47.13378" lon="5.64332">
        <ele>214</ele>
        <time>2011-03-18T13:36:05Z</time>
      </trkpt>
      <trkpt lat="47.13368" lon="5.6434">
        <ele>214</ele>
        <time>2011-03-18T13:36:07Z</time>
      </trkpt>
      <trkpt lat="47.13359" lon="5.64349">
        <ele>214</ele>
        <time>2011-03-18T13:36:09Z</time>
      </trkpt>
      <trkpt lat="47.1335" lon="5.64358">
        <ele>214</ele>
        <time>2011-03-18T13:36:11Z</time>
      </trkpt>
      <trkpt lat="47.13342" lon="5.64368">
        <ele>214</ele>
        <time>2011-03-18T13:36:13Z</time>
      </trkpt>
      <trkpt lat="47.13336" lon="5.64378">
        <ele>214</ele>
        <time>2011-03-18T13:36:15Z</time>
      </trkpt>
      <trkpt lat="47.1333" lon="5.64391">
        <ele>214</ele>
        <time>2011-03-18T13:36:17Z</time>
      </trkpt>
      <trkpt lat="47.13325" lon="5.64403">
        <ele>214</ele>
        <time>2011-03-18T13:36:19Z</time>
      </trkpt>
      <trkpt lat="47.1332" lon="5.64418">
        <ele>214</ele>
        <time>2011-03-18T13:36:21Z</time>
      </trkpt>
      <trkpt lat="47.13317" lon="5.64432">
        <ele>214</ele>
        <time>2011-03-18T13:36:23Z</time>
      </trkpt>
      <trkpt lat="47.13313" lon="5.64448">
        <ele>214</ele>
        <time>2011-03-18T13:36:25Z</time>
      </trkpt>
      <trkpt lat="47.1331" lon="5.64464">
        <ele>214</ele>
        <time>2011-03-18T13:36:27Z</time>
      </trkpt>
      <trkpt lat="47.13307" lon="5.6448">
        <ele>214</ele>
        <time>2011-03-18T13:36:29Z</time>
      </trkpt>
      <trkpt lat="47.13301" lon="5.64496">
        <ele>214</ele>
        <time>2011-03-18T13:36:31Z</time>
      </trkpt>
      <trkpt lat="47.13295" lon="5.64511">
        <ele>214</ele>
        <time>2011-03-18T13:36:33Z</time>
      </trkpt>
      <trkpt lat="47.13287" lon="5.64524">
        <ele>214</ele>
        <time>2011-03-18T13:36:35Z</time>
      </trkpt>
      <trkpt lat="47.13277" lon="5.64534">
        <ele>214</ele>
        <time>2011-03-18T13:36:37Z</time>
      </trkpt>
      <trkpt lat="47.13268" lon="5.64542">
        <ele>214</ele>
        <time>2011-03-18T13:36:39Z</time>
      </trkpt>
      <trkpt lat="47.13258" lon="5.64549">
        <ele>214</ele>
        <time>2011-03-18T13:36:41Z</time>
      </trkpt>
      <trkpt lat="47.1325" lon="5.64557">
        <ele>214</ele>
        <time>2011-03-18T13:36:43Z</time>
      </trkpt>
      <trkpt lat="47.1324" lon="5.64564">
        <ele>214</ele>
        <time>2011-03-18T13:36:45Z</time>
      </trkpt>
      <trkpt lat="47.13231" lon="5.64573">
        <ele>214</ele>
        <time>2011-03-18T13:36:47Z</time>
      </trkpt>
      <trkpt lat="47.13222" lon="5.64583">
        <ele>214</ele>
        <time>2011-03-18T13:36:49Z</time>
      </trkpt>
      <trkpt lat="47.13213" lon="5.64595">
        <ele>214</ele>
        <time>2011-03-18T13:36:51Z</time>
      </trkpt>
      <trkpt lat="47.13207" lon="5.64611">
        <ele>214</ele>
        <time>2011-03-18T13:36:53Z</time>
      </trkpt>
      <trkpt lat="47.13204" lon="5.64629">
        <ele>214</ele>
        <time>2011-03-18T13:36:55Z</time>
      </trkpt>
      <trkpt lat="47.13203" lon="5.64647">
        <ele>214</ele>
        <time>2011-03-18T13:36:57Z</time>
      </trkpt>
      <trkpt lat="47.13203" lon="5.64665">
        <ele>214</ele>
        <time>2011-03-18T13:36:59Z</time>
      </trkpt>
      <trkpt lat="47.13203" lon="5.64682">
        <ele>214</ele>
        <time>2011-03-18T13:37:01Z</time>
      </trkpt>
      <trkpt lat="47.13203" lon="5.64698">
        <ele>214</ele>
        <time>2011-03-18T13:37:03Z</time>
      </trkpt>
      <trkpt lat="47.13203" lon="5.64712">
        <ele>214</ele>
        <time>2011-03-18T13:37:05Z</time>
      </trkpt>
      <trkpt lat="47.13203" lon="5.64727">
        <ele>214</ele>
        <time>2011-03-18T13:37:07Z</time>
      </trkpt>
      <trkpt lat="47.13204" lon="5.6474">
        <ele>214</ele>
        <time>2011-03-18T13:37:09Z</time>
      </trkpt>
      <trkpt lat="47.13205" lon="5.64758">
        <ele>214</ele>
        <time>2011-03-18T13:37:12Z</time>
      </trkpt>
      <trkpt lat="47.13206" lon="5.64776">
        <ele>214</ele>
        <time>2011-03-18T13:37:15Z</time>
      </trkpt>
      <trkpt lat="47.13206" lon="5.64794">
        <ele>214</ele>
        <time>2011-03-18T13:37:18Z</time>
      </trkpt>
      <trkpt lat="47.13205" lon="5.64812">
        <ele>214</ele>
        <time>2011-03-18T13:37:21Z</time>
      </trkpt>
      <trkpt lat="47.13203" lon="5.64829">
        <ele>214</ele>
        <time>2011-03-18T13:37:24Z</time>
      </trkpt>
      <trkpt lat="47.13199" lon="5.64845">
        <ele>214</ele>
        <time>2011-03-18T13:37:27Z</time>
      </trkpt>
      <trkpt lat="47.13196" lon="5.64858">
        <ele>214</ele>
        <time>2011-03-18T13:37:30Z</time>
      </trkpt>
      <trkpt lat="47.13193" lon="5.64871">
        <ele>220</ele>
        <time>2011-03-18T13:37:33Z</time>
      </trkpt>
      <trkpt lat="47.1319" lon="5.64883">
        <ele>220</ele>
        <time>2011-03-18T13:37:36Z</time>
      </trkpt>
      <trkpt lat="47.13186" lon="5.64898">
        <ele>220</ele>
        <time>2011-03-18T13:37:40Z</time>
      </trkpt>
      <trkpt lat="47.13181" lon="5.64913">
        <ele>220</ele>
        <time>2011-03-18T13:37:44Z</time>
      </trkpt>
      <trkpt lat="47.13178" lon="5.64927">
        <ele>220</ele>
        <time>2011-03-18T13:37:48Z</time>
      </trkpt>
      <trkpt lat="47.13174" lon="5.64939">
        <ele>220</ele>
        <time>2011-03-18T13:37:51Z</time>
      </trkpt>
      <trkpt lat="47.1317" lon="5.64954">
        <ele>226</ele>
        <time>2011-03-18T13:37:55Z</time>
      </trkpt>
      <trkpt lat="47.13165" lon="5.64968">
        <ele>226</ele>
        <time>2011-03-18T13:37:59Z</time>
      </trkpt>
      <trkpt lat="47.13159" lon="5.64983">
        <ele>226</ele>
        <time>2011-03-18T13:38:03Z</time>
      </trkpt>
      <trkpt lat="47.13154" lon="5.64996">
        <ele>226</ele>
        <time>2011-03-18T13:38:07Z</time>
      </trkpt>
      <trkpt lat="47.13149" lon="5.65011">
        <ele>226</ele>
        <time>2011-03-18T13:38:11Z</time>
      </trkpt>
      <trkpt lat="47.13144" lon="5.65023">
        <ele>231</ele>
        <time>2011-03-18T13:38:15Z</time>
      </trkpt>
      <trkpt lat="47.13136" lon="5.65035">
        <ele>231</ele>
        <time>2011-03-18T13:38:19Z</time>
      </trkpt>
      <trkpt lat="47.13127" lon="5.65041">
        <ele>231</ele>
        <time>2011-03-18T13:38:23Z</time>
      </trkpt>
      <trkpt lat="47.13116" lon="5.65043">
        <ele>231</ele>
        <time>2011-03-18T13:38:27Z</time>
      </trkpt>
      <trkpt lat="47.13105" lon="5.65045">
        <ele>231</ele>
        <time>2011-03-18T13:38:31Z</time>
      </trkpt>
      <trkpt lat="47.13095" lon="5.65044">
        <ele>231</ele>
        <time>2011-03-18T13:38:34Z</time>
      </trkpt>
      <trkpt lat="47.13085" lon="5.65045">
        <ele>231</ele>
        <time>2011-03-18T13:38:37Z</time>
      </trkpt>
      <trkpt lat="47.13075" lon="5.65046">
        <ele>231</ele>
        <time>2011-03-18T13:38:40Z</time>
      </trkpt>
      <trkpt lat="47.13064" lon="5.65045">
        <ele>231</ele>
        <time>2011-03-18T13:38:43Z</time>
      </trkpt>
      <trkpt lat="47.13053" lon="5.65044">
        <ele>231</ele>
        <time>2011-03-18T13:38:46Z</time>
      </trkpt>
      <trkpt lat="47.13041" lon="5.65045">
        <ele>231</ele>
        <time>2011-03-18T13:38:49Z</time>
      </trkpt>
      <trkpt lat="47.13029" lon="5.65045">
        <ele>231</ele>
        <time>2011-03-18T13:38:52Z</time>
      </trkpt>
      <trkpt lat="47.13017" lon="5.65048">
        <ele>231</ele>
        <time>2011-03-18T13:38:55Z</time>
      </trkpt>
      <trkpt lat="47.13006" lon="5.65051">
        <ele>231</ele>
        <time>2011-03-18T13:38:58Z</time>
      </trkpt>
      <trkpt lat="47.12997" lon="5.65061">
        <ele>231</ele>
        <time>2011-03-18T13:39:01Z</time>
      </trkpt>
      <trkpt lat="47.12997" lon="5.65074">
        <ele>231</ele>
        <time>2011-03-18T13:39:04Z</time>
      </trkpt>
      <trkpt lat="47.13001" lon="5.65089">
        <ele>237</ele>
        <time>2011-03-18T13:39:08Z</time>
      </trkpt>
      <trkpt lat="47.13004" lon="5.65102">
        <ele>237</ele>
        <time>2011-03-18T13:39:11Z</time>
      </trkpt>
      <trkpt lat="47.13007" lon="5.65119">
        <ele>237</ele>
        <time>2011-03-18T13:39:14Z</time>
      </trkpt>
      <trkpt lat="47.13011" lon="5.65138">
        <ele>237</ele>
        <time>2011-03-18T13:39:17Z</time>
      </trkpt>
      <trkpt lat="47.13014" lon="5.65154">
        <ele>237</ele>
        <time>2011-03-18T13:39:19Z</time>
      </trkpt>
      <trkpt lat="47.13017" lon="5.65171">
        <ele>237</ele>
        <time>2011-03-18T13:39:21Z</time>
      </trkpt>
      <trkpt lat="47.13021" lon="5.6519">
        <ele>237</ele>
        <time>2011-03-18T13:39:23Z</time>
      </trkpt>
      <trkpt lat="47.13023" lon="5.6521">
        <ele>237</ele>
        <time>2011-03-18T13:39:25Z</time>
      </trkpt>
      <trkpt lat="47.13022" lon="5.65228">
        <ele>237</ele>
        <time>2011-03-18T13:39:27Z</time>
      </trkpt>
      <trkpt lat="47.13019" lon="5.65245">
        <ele>237</ele>
        <time>2011-03-18T13:39:29Z</time>
      </trkpt>
      <trkpt lat="47.13014" lon="5.65259">
        <ele>237</ele>
        <time>2011-03-18T13:39:31Z</time>
      </trkpt>
      <trkpt lat="47.13008" lon="5.65269">
        <ele>237</ele>
        <time>2011-03-18T13:39:33Z</time>
      </trkpt>
      <trkpt lat="47.12998" lon="5.65281">
        <ele>237</ele>
        <time>2011-03-18T13:39:36Z</time>
      </trkpt>
      <trkpt lat="47.12989" lon="5.65293">
        <ele>237</ele>
        <time>2011-03-18T13:39:39Z</time>
      </trkpt>
      <trkpt lat="47.1298" lon="5.65304">
        <ele>237</ele>
        <time>2011-03-18T13:39:42Z</time>
      </trkpt>
      <trkpt lat="47.12971" lon="5.65314">
        <ele>237</ele>
        <time>2011-03-18T13:39:45Z</time>
      </trkpt>
      <trkpt lat="47.12964" lon="5.65326">
        <ele>237</ele>
        <time>2011-03-18T13:39:48Z</time>
      </trkpt>
      <trkpt lat="47.12956" lon="5.65337">
        <ele>237</ele>
        <time>2011-03-18T13:39:51Z</time>
      </trkpt>
      <trkpt lat="47.12948" lon="5.65349">
        <ele>237</ele>
        <time>2011-03-18T13:39:54Z</time>
      </trkpt>
      <trkpt lat="47.12941" lon="5.65364">
        <ele>237</ele>
        <time>2011-03-18T13:39:57Z</time>
      </trkpt>
      <trkpt lat="47.12933" lon="5.65378">
        <ele>242</ele>
        <time>2011-03-18T13:40:00Z</time>
      </trkpt>
      <trkpt lat="47.12926" lon="5.65393">
        <ele>242</ele>
        <time>2011-03-18T13:40:03Z</time>
      </trkpt>
      <trkpt lat="47.12919" lon="5.65406">
        <ele>242</ele>
        <time>2011-03-18T13:40:06Z</time>
      </trkpt>
      <trkpt lat="47.12912" lon="5.65419">
        <ele>242</ele>
        <time>2011-03-18T13:40:09Z</time>
      </trkpt>
      <trkpt lat="47.12905" lon="5.65433">
        <ele>242</ele>
        <time>2011-03-18T13:40:12Z</time>
      </trkpt>
      <trkpt lat="47.12899" lon="5.65445">
        <ele>242</ele>
        <time>2011-03-18T13:40:15Z</time>
      </trkpt>
      <trkpt lat="47.12893" lon="5.65456">
        <ele>242</ele>
        <time>2011-03-18T13:40:18Z</time>
      </trkpt>
      <trkpt lat="47.12888" lon="5.65467">
        <ele>242</ele>
        <time>2011-03-18T13:40:21Z</time>
      </trkpt>
      <trkpt lat="47.12881" lon="5.65478">
        <ele>242</ele>
        <time>2011-03-18T13:40:24Z</time>
      </trkpt>
      <trkpt lat="47.12875" lon="5.6549">
        <ele>242</ele>
        <time>2011-03-18T13:40:27Z</time>
      </trkpt>
      <trkpt lat="47.12869" lon="5.655">
        <ele>242</ele>
        <time>2011-03-18T13:40:30Z</time>
      </trkpt>
      <trkpt lat="47.12863" lon="5.65511">
        <ele>242</ele>
        <time>2011-03-18T13:40:33Z</time>
      </trkpt>
      <trkpt lat="47.12857" lon="5.65522">
        <ele>242</ele>
        <time>2011-03-18T13:40:36Z</time>
      </trkpt>
      <trkpt lat="47.1285" lon="5.65533">
        <ele>247</ele>
        <time>2011-03-18T13:40:39Z</time>
      </trkpt>
      <trkpt lat="47.12843" lon="5.65543">
        <ele>247</ele>
        <time>2011-03-18T13:40:42Z</time>
      </trkpt>
      <trkpt lat="47.12835" lon="5.65552">
        <ele>247</ele>
        <time>2011-03-18T13:40:45Z</time>
      </trkpt>
      <trkpt lat="47.12826" lon="5.65562">
        <ele>247</ele>
        <time>2011-03-18T13:40:48Z</time>
      </trkpt>
      <trkpt lat="47.12818" lon="5.65571">
        <ele>247</ele>
        <time>2011-03-18T13:40:51Z</time>
      </trkpt>
      <trkpt lat="47.12809" lon="5.65578">
        <ele>247</ele>
        <time>2011-03-18T13:40:54Z</time>
      </trkpt>
      <trkpt lat="47.12799" lon="5.65584">
        <ele>247</ele>
        <time>2011-03-18T13:40:57Z</time>
      </trkpt>
      <trkpt lat="47.12789" lon="5.65587">
        <ele>247</ele>
        <time>2011-03-18T13:41:00Z</time>
      </trkpt>
      <trkpt lat="47.12778" lon="5.65588">
        <ele>247</ele>
        <time>2011-03-18T13:41:03Z</time>
      </trkpt>
      <trkpt lat="47.12767" lon="5.65587">
        <ele>247</ele>
        <time>2011-03-18T13:41:06Z</time>
      </trkpt>
      <trkpt lat="47.12756" lon="5.65587">
        <ele>247</ele>
        <time>2011-03-18T13:41:09Z</time>
      </trkpt>
      <trkpt lat="47.12746" lon="5.65585">
        <ele>247</ele>
        <time>2011-03-18T13:41:12Z</time>
      </trkpt>
      <trkpt lat="47.12735" lon="5.65582">
        <ele>247</ele>
        <time>2011-03-18T13:41:15Z</time>
      </trkpt>
      <trkpt lat="47.12723" lon="5.65578">
        <ele>247</ele>
        <time>2011-03-18T13:41:18Z</time>
      </trkpt>
      <trkpt lat="47.12714" lon="5.65574">
        <ele>247</ele>
        <time>2011-03-18T13:41:20Z</time>
      </trkpt>
      <trkpt lat="47.12705" lon="5.65569">
        <ele>247</ele>
        <time>2011-03-18T13:41:22Z</time>
      </trkpt>
      <trkpt lat="47.12693" lon="5.65566">
        <ele>247</ele>
        <time>2011-03-18T13:41:25Z</time>
      </trkpt>
      <trkpt lat="47.12683" lon="5.65564">
        <ele>247</ele>
        <time>2011-03-18T13:41:27Z</time>
      </trkpt>
      <trkpt lat="47.12671" lon="5.65566">
        <ele>247</ele>
        <time>2011-03-18T13:41:30Z</time>
      </trkpt>
      <trkpt lat="47.12661" lon="5.6557">
        <ele>253</ele>
        <time>2011-03-18T13:41:34Z</time>
      </trkpt>
      <trkpt lat="47.12651" lon="5.65577">
        <ele>253</ele>
        <time>2011-03-18T13:41:40Z</time>
      </trkpt>
      <trkpt lat="47.12642" lon="5.65584">
        <ele>253</ele>
        <time>2011-03-18T13:42:01Z</time>
      </trkpt>
      <trkpt lat="47.12633" lon="5.65594">
        <ele>253</ele>
        <time>2011-03-18T13:42:04Z</time>
      </trkpt>
      <trkpt lat="47.12623" lon="5.65605">
        <ele>253</ele>
        <time>2011-03-18T13:42:07Z</time>
      </trkpt>
      <trkpt lat="47.12615" lon="5.65613">
        <ele>253</ele>
        <time>2011-03-18T13:42:09Z</time>
      </trkpt>
      <trkpt lat="47.12605" lon="5.65626">
        <ele>253</ele>
        <time>2011-03-18T13:42:12Z</time>
      </trkpt>
      <trkpt lat="47.12598" lon="5.65634">
        <ele>253</ele>
        <time>2011-03-18T13:42:14Z</time>
      </trkpt>
      <trkpt lat="47.1259" lon="5.65644">
        <ele>253</ele>
        <time>2011-03-18T13:42:16Z</time>
      </trkpt>
      <trkpt lat="47.12582" lon="5.65654">
        <ele>253</ele>
        <time>2011-03-18T13:42:18Z</time>
      </trkpt>
      <trkpt lat="47.12574" lon="5.65665">
        <ele>253</ele>
        <time>2011-03-18T13:42:20Z</time>
      </trkpt>
      <trkpt lat="47.12565" lon="5.65675">
        <ele>253</ele>
        <time>2011-03-18T13:42:22Z</time>
      </trkpt>
      <trkpt lat="47.12557" lon="5.65685">
        <ele>248</ele>
        <time>2011-03-18T13:42:24Z</time>
      </trkpt>
      <trkpt lat="47.1255" lon="5.65701">
        <ele>248</ele>
        <time>2011-03-18T13:42:26Z</time>
      </trkpt>
      <trkpt lat="47.12542" lon="5.65719">
        <ele>248</ele>
        <time>2011-03-18T13:42:28Z</time>
      </trkpt>
      <trkpt lat="47.12532" lon="5.6574">
        <ele>248</ele>
        <time>2011-03-18T13:42:30Z</time>
      </trkpt>
      <trkpt lat="47.12525" lon="5.65749">
        <ele>243</ele>
        <time>2011-03-18T13:42:31Z</time>
      </trkpt>
      <trkpt lat="47.12517" lon="5.65755">
        <ele>243</ele>
        <time>2011-03-18T13:42:32Z</time>
      </trkpt>
      <trkpt lat="47.12501" lon="5.65758">
        <ele>243</ele>
        <time>2011-03-18T13:42:34Z</time>
      </trkpt>
      <trkpt lat="47.12488" lon="5.65763">
        <ele>243</ele>
        <time>2011-03-18T13:42:36Z</time>
      </trkpt>
      <trkpt lat="47.12478" lon="5.65769">
        <ele>243</ele>
        <time>2011-03-18T13:42:38Z</time>
      </trkpt>
      <trkpt lat="47.12472" lon="5.6578">
        <ele>243</ele>
        <time>2011-03-18T13:42:42Z</time>
      </trkpt>
      <trkpt lat="47.12479" lon="5.6579">
        <ele>243</ele>
        <time>2011-03-18T13:42:47Z</time>
      </trkpt>
      <trkpt lat="47.12486" lon="5.658">
        <ele>243</ele>
        <time>2011-03-18T13:42:51Z</time>
      </trkpt>
      <trkpt lat="47.12494" lon="5.65809">
        <ele>243</ele>
        <time>2011-03-18T13:42:54Z</time>
      </trkpt>
      <trkpt lat="47.12503" lon="5.65819">
        <ele>243</ele>
        <time>2011-03-18T13:42:57Z</time>
      </trkpt>
      <trkpt lat="47.12514" lon="5.65832">
        <ele>243</ele>
        <time>2011-03-18T13:43:00Z</time>
      </trkpt>
      <trkpt lat="47.12521" lon="5.65842">
        <ele>243</ele>
        <time>2011-03-18T13:43:02Z</time>
      </trkpt>
      <trkpt lat="47.12529" lon="5.65853">
        <ele>243</ele>
        <time>2011-03-18T13:43:04Z</time>
      </trkpt>
      <trkpt lat="47.12538" lon="5.65868">
        <ele>243</ele>
        <time>2011-03-18T13:43:06Z</time>
      </trkpt>
      <trkpt lat="47.12547" lon="5.65878">
        <ele>243</ele>
        <time>2011-03-18T13:43:08Z</time>
      </trkpt>
      <trkpt lat="47.12556" lon="5.65887">
        <ele>243</ele>
        <time>2011-03-18T13:43:10Z</time>
      </trkpt>
      <trkpt lat="47.12567" lon="5.65896">
        <ele>243</ele>
        <time>2011-03-18T13:43:12Z</time>
      </trkpt>
      <trkpt lat="47.1258" lon="5.65905">
        <ele>243</ele>
        <time>2011-03-18T13:43:14Z</time>
      </trkpt>
      <trkpt lat="47.12593" lon="5.65915">
        <ele>243</ele>
        <time>2011-03-18T13:43:16Z</time>
      </trkpt>
      <trkpt lat="47.12606" lon="5.65924">
        <ele>237</ele>
        <time>2011-03-18T13:43:18Z</time>
      </trkpt>
      <trkpt lat="47.12618" lon="5.65932">
        <ele>237</ele>
        <time>2011-03-18T13:43:20Z</time>
      </trkpt>
      <trkpt lat="47.12631" lon="5.65939">
        <ele>237</ele>
        <time>2011-03-18T13:43:22Z</time>
      </trkpt>
      <trkpt lat="47.12643" lon="5.65944">
        <ele>237</ele>
        <time>2011-03-18T13:43:24Z</time>
      </trkpt>
      <trkpt lat="47.12656" lon="5.65949">
        <ele>237</ele>
        <time>2011-03-18T13:43:26Z</time>
      </trkpt>
      <trkpt lat="47.1267" lon="5.65954">
        <ele>237</ele>
        <time>2011-03-18T13:43:28Z</time>
      </trkpt>
      <trkpt lat="47.12686" lon="5.65958">
        <ele>237</ele>
        <time>2011-03-18T13:43:30Z</time>
      </trkpt>
      <trkpt lat="47.12703" lon="5.6596">
        <ele>232</ele>
        <time>2011-03-18T13:43:32Z</time>
      </trkpt>
      <trkpt lat="47.12719" lon="5.65962">
        <ele>232</ele>
        <time>2011-03-18T13:43:34Z</time>
      </trkpt>
      <trkpt lat="47.12734" lon="5.65964">
        <ele>232</ele>
        <time>2011-03-18T13:43:36Z</time>
      </trkpt>
      <trkpt lat="47.12751" lon="5.65967">
        <ele>232</ele>
        <time>2011-03-18T13:43:38Z</time>
      </trkpt>
      <trkpt lat="47.12768" lon="5.65969">
        <ele>232</ele>
        <time>2011-03-18T13:43:40Z</time>
      </trkpt>
      <trkpt lat="47.12785" lon="5.65972">
        <ele>232</ele>
        <time>2011-03-18T13:43:42Z</time>
      </trkpt>
      <trkpt lat="47.12802" lon="5.65975">
        <ele>232</ele>
        <time>2011-03-18T13:43:44Z</time>
      </trkpt>
      <trkpt lat="47.12819" lon="5.65977">
        <ele>226</ele>
        <time>2011-03-18T13:43:46Z</time>
      </trkpt>
      <trkpt lat="47.12828" lon="5.65979">
        <ele>226</ele>
        <time>2011-03-18T13:43:47Z</time>
      </trkpt>
      <trkpt lat="47.12837" lon="5.65981">
        <ele>226</ele>
        <time>2011-03-18T13:43:48Z</time>
      </trkpt>
      <trkpt lat="47.12855" lon="5.65983">
        <ele>226</ele>
        <time>2011-03-18T13:43:50Z</time>
      </trkpt>
      <trkpt lat="47.12873" lon="5.65984">
        <ele>226</ele>
        <time>2011-03-18T13:43:52Z</time>
      </trkpt>
      <trkpt lat="47.1289" lon="5.65989">
        <ele>226</ele>
        <time>2011-03-18T13:43:54Z</time>
      </trkpt>
      <trkpt lat="47.12899" lon="5.65993">
        <ele>226</ele>
        <time>2011-03-18T13:43:55Z</time>
      </trkpt>
      <trkpt lat="47.12906" lon="5.66002">
        <ele>221</ele>
        <time>2011-03-18T13:43:56Z</time>
      </trkpt>
      <trkpt lat="47.12917" lon="5.66021">
        <ele>221</ele>
        <time>2011-03-18T13:43:58Z</time>
      </trkpt>
      <trkpt lat="47.12922" lon="5.66045">
        <ele>221</ele>
        <time>2011-03-18T13:44:00Z</time>
      </trkpt>
      <trkpt lat="47.12922" lon="5.6607">
        <ele>221</ele>
        <time>2011-03-18T13:44:02Z</time>
      </trkpt>
      <trkpt lat="47.12922" lon="5.66083">
        <ele>221</ele>
        <time>2011-03-18T13:44:03Z</time>
      </trkpt>
      <trkpt lat="47.12919" lon="5.66108">
        <ele>221</ele>
        <time>2011-03-18T13:44:05Z</time>
      </trkpt>
      <trkpt lat="47.12913" lon="5.6613">
        <ele>221</ele>
        <time>2011-03-18T13:44:07Z</time>
      </trkpt>
      <trkpt lat="47.12909" lon="5.66152">
        <ele>221</ele>
        <time>2011-03-18T13:44:09Z</time>
      </trkpt>
      <trkpt lat="47.12906" lon="5.66173">
        <ele>216</ele>
        <time>2011-03-18T13:44:11Z</time>
      </trkpt>
      <trkpt lat="47.12902" lon="5.66194">
        <ele>216</ele>
        <time>2011-03-18T13:44:13Z</time>
      </trkpt>
      <trkpt lat="47.12898" lon="5.66214">
        <ele>216</ele>
        <time>2011-03-18T13:44:15Z</time>
      </trkpt>
      <trkpt lat="47.12892" lon="5.66235">
        <ele>216</ele>
        <time>2011-03-18T13:44:17Z</time>
      </trkpt>
      <trkpt lat="47.12886" lon="5.66254">
        <ele>216</ele>
        <time>2011-03-18T13:44:19Z</time>
      </trkpt>
      <trkpt lat="47.12879" lon="5.66273">
        <ele>216</ele>
        <time>2011-03-18T13:44:21Z</time>
      </trkpt>
      <trkpt lat="47.12872" lon="5.6629">
        <ele>216</ele>
        <time>2011-03-18T13:44:23Z</time>
      </trkpt>
      <trkpt lat="47.12867" lon="5.66306">
        <ele>216</ele>
        <time>2011-03-18T13:44:25Z</time>
      </trkpt>
      <trkpt lat="47.12862" lon="5.6632">
        <ele>216</ele>
        <time>2011-03-18T13:44:27Z</time>
      </trkpt>
      <trkpt lat="47.12857" lon="5.66335">
        <ele>216</ele>
        <time>2011-03-18T13:44:29Z</time>
      </trkpt>
      <trkpt lat="47.12854" lon="5.66348">
        <ele>216</ele>
        <time>2011-03-18T13:44:31Z</time>
      </trkpt>
      <trkpt lat="47.1285" lon="5.66362">
        <ele>216</ele>
        <time>2011-03-18T13:44:33Z</time>
      </trkpt>
      <trkpt lat="47.12846" lon="5.66375">
        <ele>216</ele>
        <time>2011-03-18T13:44:35Z</time>
      </trkpt>
      <trkpt lat="47.12843" lon="5.66388">
        <ele>216</ele>
        <time>2011-03-18T13:44:37Z</time>
      </trkpt>
      <trkpt lat="47.12839" lon="5.664">
        <ele>216</ele>
        <time>2011-03-18T13:44:39Z</time>
      </trkpt>
      <trkpt lat="47.12835" lon="5.66412">
        <ele>216</ele>
        <time>2011-03-18T13:44:41Z</time>
      </trkpt>
      <trkpt lat="47.1283" lon="5.66424">
        <ele>216</ele>
        <time>2011-03-18T13:44:43Z</time>
      </trkpt>
      <trkpt lat="47.12826" lon="5.66435">
        <ele>216</ele>
        <time>2011-03-18T13:44:45Z</time>
      </trkpt>
      <trkpt lat="47.12821" lon="5.66449">
        <ele>216</ele>
        <time>2011-03-18T13:44:47Z</time>
      </trkpt>
      <trkpt lat="47.12816" lon="5.66461">
        <ele>216</ele>
        <time>2011-03-18T13:44:49Z</time>
      </trkpt>
      <trkpt lat="47.12811" lon="5.66474">
        <ele>216</ele>
        <time>2011-03-18T13:44:51Z</time>
      </trkpt>
      <trkpt lat="47.12807" lon="5.66488">
        <ele>216</ele>
        <time>2011-03-18T13:44:53Z</time>
      </trkpt>
      <trkpt lat="47.12804" lon="5.66503">
        <ele>216</ele>
        <time>2011-03-18T13:44:55Z</time>
      </trkpt>
      <trkpt lat="47.12805" lon="5.66519">
        <ele>216</ele>
        <time>2011-03-18T13:44:57Z</time>
      </trkpt>
      <trkpt lat="47.12807" lon="5.66535">
        <ele>216</ele>
        <time>2011-03-18T13:44:59Z</time>
      </trkpt>
      <trkpt lat="47.1281" lon="5.66552">
        <ele>216</ele>
        <time>2011-03-18T13:45:01Z</time>
      </trkpt>
      <trkpt lat="47.12811" lon="5.66569">
        <ele>216</ele>
        <time>2011-03-18T13:45:03Z</time>
      </trkpt>
      <trkpt lat="47.12809" lon="5.66585">
        <ele>216</ele>
        <time>2011-03-18T13:45:05Z</time>
      </trkpt>
      <trkpt lat="47.12804" lon="5.66599">
        <ele>216</ele>
        <time>2011-03-18T13:45:07Z</time>
      </trkpt>
      <trkpt lat="47.12795" lon="5.66609">
        <ele>216</ele>
        <time>2011-03-18T13:45:09Z</time>
      </trkpt>
      <trkpt lat="47.12786" lon="5.66617">
        <ele>216</ele>
        <time>2011-03-18T13:45:11Z</time>
      </trkpt>
      <trkpt lat="47.12777" lon="5.66623">
        <ele>216</ele>
        <time>2011-03-18T13:45:13Z</time>
      </trkpt>
      <trkpt lat="47.12768" lon="5.66629">
        <ele>216</ele>
        <time>2011-03-18T13:45:15Z</time>
      </trkpt>
      <trkpt lat="47.12759" lon="5.66633">
        <ele>221</ele>
        <time>2011-03-18T13:45:17Z</time>
      </trkpt>
      <trkpt lat="47.12751" lon="5.66637">
        <ele>221</ele>
        <time>2011-03-18T13:45:19Z</time>
      </trkpt>
      <trkpt lat="47.12739" lon="5.66642">
        <ele>221</ele>
        <time>2011-03-18T13:45:22Z</time>
      </trkpt>
      <trkpt lat="47.12727" lon="5.66647">
        <ele>221</ele>
        <time>2011-03-18T13:45:25Z</time>
      </trkpt>
      <trkpt lat="47.12716" lon="5.66653">
        <ele>221</ele>
        <time>2011-03-18T13:45:28Z</time>
      </trkpt>
      <trkpt lat="47.12708" lon="5.66664">
        <ele>221</ele>
        <time>2011-03-18T13:45:31Z</time>
      </trkpt>
      <trkpt lat="47.12702" lon="5.66678">
        <ele>226</ele>
        <time>2011-03-18T13:45:35Z</time>
      </trkpt>
      <trkpt lat="47.12695" lon="5.66691">
        <ele>226</ele>
        <time>2011-03-18T13:45:39Z</time>
      </trkpt>
      <trkpt lat="47.12689" lon="5.66702">
        <ele>226</ele>
        <time>2011-03-18T13:45:43Z</time>
      </trkpt>
      <trkpt lat="47.12682" lon="5.66716">
        <ele>226</ele>
        <time>2011-03-18T13:45:47Z</time>
      </trkpt>
      <trkpt lat="47.12676" lon="5.66729">
        <ele>231</ele>
        <time>2011-03-18T13:45:51Z</time>
      </trkpt>
      <trkpt lat="47.12675" lon="5.66744">
        <ele>231</ele>
        <time>2011-03-18T13:45:55Z</time>
      </trkpt>
      <trkpt lat="47.12682" lon="5.66755">
        <ele>231</ele>
        <time>2011-03-18T13:45:59Z</time>
      </trkpt>
      <trkpt lat="47.12692" lon="5.66758">
        <ele>231</ele>
        <time>2011-03-18T13:46:03Z</time>
      </trkpt>
      <trkpt lat="47.12703" lon="5.66755">
        <ele>238</ele>
        <time>2011-03-18T13:46:07Z</time>
      </trkpt>
      <trkpt lat="47.12713" lon="5.66753">
        <ele>238</ele>
        <time>2011-03-18T13:46:11Z</time>
      </trkpt>
      <trkpt lat="47.12724" lon="5.66753">
        <ele>238</ele>
        <time>2011-03-18T13:46:15Z</time>
      </trkpt>
      <trkpt lat="47.12735" lon="5.66754">
        <ele>238</ele>
        <time>2011-03-18T13:46:19Z</time>
      </trkpt>
      <trkpt lat="47.12747" lon="5.66756">
        <ele>238</ele>
        <time>2011-03-18T13:46:23Z</time>
      </trkpt>
      <trkpt lat="47.12759" lon="5.66756">
        <ele>238</ele>
        <time>2011-03-18T13:46:27Z</time>
      </trkpt>
      <trkpt lat="47.1277" lon="5.66757">
        <ele>243</ele>
        <time>2011-03-18T13:46:31Z</time>
      </trkpt>
      <trkpt lat="47.12779" lon="5.66758">
        <ele>243</ele>
        <time>2011-03-18T13:46:35Z</time>
      </trkpt>
      <trkpt lat="47.12789" lon="5.66759">
        <ele>243</ele>
        <time>2011-03-18T13:46:39Z</time>
      </trkpt>
      <trkpt lat="47.12801" lon="5.66761">
        <ele>243</ele>
        <time>2011-03-18T13:46:43Z</time>
      </trkpt>
      <trkpt lat="47.1281" lon="5.66761">
        <ele>243</ele>
        <time>2011-03-18T13:46:46Z</time>
      </trkpt>
      <trkpt lat="47.12819" lon="5.66762">
        <ele>243</ele>
        <time>2011-03-18T13:46:49Z</time>
      </trkpt>
      <trkpt lat="47.12829" lon="5.66762">
        <ele>248</ele>
        <time>2011-03-18T13:46:52Z</time>
      </trkpt>
      <trkpt lat="47.12839" lon="5.66763">
        <ele>248</ele>
        <time>2011-03-18T13:46:55Z</time>
      </trkpt>
      <trkpt lat="47.12848" lon="5.66764">
        <ele>248</ele>
        <time>2011-03-18T13:46:58Z</time>
      </trkpt>
      <trkpt lat="47.12857" lon="5.66771">
        <ele>248</ele>
        <time>2011-03-18T13:47:01Z</time>
      </trkpt>
      <trkpt lat="47.12859" lon="5.66785">
        <ele>248</ele>
        <time>2011-03-18T13:47:04Z</time>
      </trkpt>
      <trkpt lat="47.12857" lon="5.66801">
        <ele>248</ele>
        <time>2011-03-18T13:47:08Z</time>
      </trkpt>
      <trkpt lat="47.12854" lon="5.66816">
        <ele>248</ele>
        <time>2011-03-18T13:47:12Z</time>
      </trkpt>
      <trkpt lat="47.12852" lon="5.66832">
        <ele>248</ele>
        <time>2011-03-18T13:47:16Z</time>
      </trkpt>
      <trkpt lat="47.12849" lon="5.66846">
        <ele>248</ele>
        <time>2011-03-18T13:47:20Z</time>
      </trkpt>
      <trkpt lat="47.12846" lon="5.66859">
        <ele>248</ele>
        <time>2011-03-18T13:47:24Z</time>
      </trkpt>
      <trkpt lat="47.12843" lon="5.66873">
        <ele>248</ele>
        <time>2011-03-18T13:47:28Z</time>
      </trkpt>
      <trkpt lat="47.1284" lon="5.66886">
        <ele>248</ele>
        <time>2011-03-18T13:47:31Z</time>
      </trkpt>
      <trkpt lat="47.12836" lon="5.66899">
        <ele>248</ele>
        <time>2011-03-18T13:47:34Z</time>
      </trkpt>
      <trkpt lat="47.12833" lon="5.66912">
        <ele>248</ele>
        <time>2011-03-18T13:47:37Z</time>
      </trkpt>
      <trkpt lat="47.12831" lon="5.66926">
        <ele>248</ele>
        <time>2011-03-18T13:47:40Z</time>
      </trkpt>
      <trkpt lat="47.12832" lon="5.6694">
        <ele>248</ele>
        <time>2011-03-18T13:47:43Z</time>
      </trkpt>
      <trkpt lat="47.12836" lon="5.66954">
        <ele>248</ele>
        <time>2011-03-18T13:47:46Z</time>
      </trkpt>
      <trkpt lat="47.1284" lon="5.66965">
        <ele>248</ele>
        <time>2011-03-18T13:47:49Z</time>
      </trkpt>
      <trkpt lat="47.12846" lon="5.66977">
        <ele>254</ele>
        <time>2011-03-18T13:47:52Z</time>
      </trkpt>
      <trkpt lat="47.1285" lon="5.6699">
        <ele>254</ele>
        <time>2011-03-18T13:47:55Z</time>
      </trkpt>
      <trkpt lat="47.12853" lon="5.67004">
        <ele>254</ele>
        <time>2011-03-18T13:47:58Z</time>
      </trkpt>
      <trkpt lat="47.12851" lon="5.67021">
        <ele>254</ele>
        <time>2011-03-18T13:48:02Z</time>
      </trkpt>
      <trkpt lat="47.12849" lon="5.67035">
        <ele>254</ele>
        <time>2011-03-18T13:48:06Z</time>
      </trkpt>
      <trkpt lat="47.12846" lon="5.67048">
        <ele>254</ele>
        <time>2011-03-18T13:49:41Z</time>
      </trkpt>
      <trkpt lat="47.12843" lon="5.67062">
        <ele>254</ele>
        <time>2011-03-18T13:49:45Z</time>
      </trkpt>
      <trkpt lat="47.1284" lon="5.67075">
        <ele>254</ele>
        <time>2011-03-18T13:49:48Z</time>
      </trkpt>
      <trkpt lat="47.12837" lon="5.67089">
        <ele>254</ele>
        <time>2011-03-18T13:49:51Z</time>
      </trkpt>
      <trkpt lat="47.12834" lon="5.67106">
        <ele>254</ele>
        <time>2011-03-18T13:49:54Z</time>
      </trkpt>
      <trkpt lat="47.1283" lon="5.67123">
        <ele>254</ele>
        <time>2011-03-18T13:49:57Z</time>
      </trkpt>
      <trkpt lat="47.12829" lon="5.67136">
        <ele>254</ele>
        <time>2011-03-18T13:49:59Z</time>
      </trkpt>
      <trkpt lat="47.12827" lon="5.67152">
        <ele>254</ele>
        <time>2011-03-18T13:50:01Z</time>
      </trkpt>
      <trkpt lat="47.12826" lon="5.67169">
        <ele>254</ele>
        <time>2011-03-18T13:50:03Z</time>
      </trkpt>
      <trkpt lat="47.12826" lon="5.6719">
        <ele>254</ele>
        <time>2011-03-18T13:50:05Z</time>
      </trkpt>
      <trkpt lat="47.12827" lon="5.67213">
        <ele>254</ele>
        <time>2011-03-18T13:50:07Z</time>
      </trkpt>
      <trkpt lat="47.12828" lon="5.67239">
        <ele>248</ele>
        <time>2011-03-18T13:50:09Z</time>
      </trkpt>
      <trkpt lat="47.12828" lon="5.67254">
        <ele>248</ele>
        <time>2011-03-18T13:50:10Z</time>
      </trkpt>
      <trkpt lat="47.12827" lon="5.67269">
        <ele>248</ele>
        <time>2011-03-18T13:50:11Z</time>
      </trkpt>
      <trkpt lat="47.12827" lon="5.67283">
        <ele>248</ele>
        <time>2011-03-18T13:50:12Z</time>
      </trkpt>
      <trkpt lat="47.12826" lon="5.67299">
        <ele>248</ele>
        <time>2011-03-18T13:50:13Z</time>
      </trkpt>
      <trkpt lat="47.12825" lon="5.67313">
        <ele>248</ele>
        <time>2011-03-18T13:50:14Z</time>
      </trkpt>
      <trkpt lat="47.12824" lon="5.67327">
        <ele>248</ele>
        <time>2011-03-18T13:50:15Z</time>
      </trkpt>
      <trkpt lat="47.12823" lon="5.67351">
        <ele>248</ele>
        <time>2011-03-18T13:50:17Z</time>
      </trkpt>
      <trkpt lat="47.12821" lon="5.67371">
        <ele>248</ele>
        <time>2011-03-18T13:50:19Z</time>
      </trkpt>
      <trkpt lat="47.12819" lon="5.67389">
        <ele>248</ele>
        <time>2011-03-18T13:50:21Z</time>
      </trkpt>
      <trkpt lat="47.12818" lon="5.67407">
        <ele>248</ele>
        <time>2011-03-18T13:50:23Z</time>
      </trkpt>
      <trkpt lat="47.12817" lon="5.67422">
        <ele>248</ele>
        <time>2011-03-18T13:50:25Z</time>
      </trkpt>
      <trkpt lat="47.12816" lon="5.67437">
        <ele>248</ele>
        <time>2011-03-18T13:50:27Z</time>
      </trkpt>
      <trkpt lat="47.12815" lon="5.67451">
        <ele>248</ele>
        <time>2011-03-18T13:50:29Z</time>
      </trkpt>
      <trkpt lat="47.12815" lon="5.67465">
        <ele>248</ele>
        <time>2011-03-18T13:50:31Z</time>
      </trkpt>
      <trkpt lat="47.12813" lon="5.67484">
        <ele>248</ele>
        <time>2011-03-18T13:50:34Z</time>
      </trkpt>
      <trkpt lat="47.12812" lon="5.67497">
        <ele>248</ele>
        <time>2011-03-18T13:50:36Z</time>
      </trkpt>
      <trkpt lat="47.12813" lon="5.67513">
        <ele>248</ele>
        <time>2011-03-18T13:50:38Z</time>
      </trkpt>
      <trkpt lat="47.12818" lon="5.67525">
        <ele>248</ele>
        <time>2011-03-18T13:50:40Z</time>
      </trkpt>
      <trkpt lat="47.12828" lon="5.67533">
        <ele>248</ele>
        <time>2011-03-18T13:50:42Z</time>
      </trkpt>
      <trkpt lat="47.1284" lon="5.67535">
        <ele>248</ele>
        <time>2011-03-18T13:50:44Z</time>
      </trkpt>
      <trkpt lat="47.12852" lon="5.67536">
        <ele>248</ele>
        <time>2011-03-18T13:50:46Z</time>
      </trkpt>
      <trkpt lat="47.12864" lon="5.67537">
        <ele>248</ele>
        <time>2011-03-18T13:50:48Z</time>
      </trkpt>
      <trkpt lat="47.12875" lon="5.67536">
        <ele>248</ele>
        <time>2011-03-18T13:50:50Z</time>
      </trkpt>
      <trkpt lat="47.12887" lon="5.67535">
        <ele>248</ele>
        <time>2011-03-18T13:50:52Z</time>
      </trkpt>
      <trkpt lat="47.12899" lon="5.67534">
        <ele>248</ele>
        <time>2011-03-18T13:50:54Z</time>
      </trkpt>
      <trkpt lat="47.1291" lon="5.67533">
        <ele>248</ele>
        <time>2011-03-18T13:50:56Z</time>
      </trkpt>
      <trkpt lat="47.12921" lon="5.67532">
        <ele>248</ele>
        <time>2011-03-18T13:50:58Z</time>
      </trkpt>
      <trkpt lat="47.12932" lon="5.67531">
        <ele>248</ele>
        <time>2011-03-18T13:51:00Z</time>
      </trkpt>
      <trkpt lat="47.12945" lon="5.67529">
        <ele>248</ele>
        <time>2011-03-18T13:51:02Z</time>
      </trkpt>
      <trkpt lat="47.12958" lon="5.67528">
        <ele>248</ele>
        <time>2011-03-18T13:51:04Z</time>
      </trkpt>
      <trkpt lat="47.12972" lon="5.67526">
        <ele>248</ele>
        <time>2011-03-18T13:51:06Z</time>
      </trkpt>
      <trkpt lat="47.12987" lon="5.67527">
        <ele>248</ele>
        <time>2011-03-18T13:51:08Z</time>
      </trkpt>
      <trkpt lat="47.13002" lon="5.67529">
        <ele>248</ele>
        <time>2011-03-18T13:51:10Z</time>
      </trkpt>
      <trkpt lat="47.13018" lon="5.6753">
        <ele>248</ele>
        <time>2011-03-18T13:51:12Z</time>
      </trkpt>
      <trkpt lat="47.13035" lon="5.67533">
        <ele>248</ele>
        <time>2011-03-18T13:51:14Z</time>
      </trkpt>
      <trkpt lat="47.13052" lon="5.67536">
        <ele>242</ele>
        <time>2011-03-18T13:51:16Z</time>
      </trkpt>
      <trkpt lat="47.13068" lon="5.67539">
        <ele>242</ele>
        <time>2011-03-18T13:51:18Z</time>
      </trkpt>
      <trkpt lat="47.13084" lon="5.67545">
        <ele>242</ele>
        <time>2011-03-18T13:51:20Z</time>
      </trkpt>
      <trkpt lat="47.13099" lon="5.67554">
        <ele>237</ele>
        <time>2011-03-18T13:51:22Z</time>
      </trkpt>
      <trkpt lat="47.13114" lon="5.67564">
        <ele>237</ele>
        <time>2011-03-18T13:51:24Z</time>
      </trkpt>
      <trkpt lat="47.13128" lon="5.67573">
        <ele>237</ele>
        <time>2011-03-18T13:51:26Z</time>
      </trkpt>
      <trkpt lat="47.13143" lon="5.67582">
        <ele>237</ele>
        <time>2011-03-18T13:51:28Z</time>
      </trkpt>
      <trkpt lat="47.13155" lon="5.67589">
        <ele>237</ele>
        <time>2011-03-18T13:51:30Z</time>
      </trkpt>
      <trkpt lat="47.13168" lon="5.67595">
        <ele>237</ele>
        <time>2011-03-18T13:51:32Z</time>
      </trkpt>
      <trkpt lat="47.13179" lon="5.67601">
        <ele>237</ele>
        <time>2011-03-18T13:51:34Z</time>
      </trkpt>
      <trkpt lat="47.13192" lon="5.67609">
        <ele>237</ele>
        <time>2011-03-18T13:51:36Z</time>
      </trkpt>
      <trkpt lat="47.13204" lon="5.67615">
        <ele>232</ele>
        <time>2011-03-18T13:51:38Z</time>
      </trkpt>
      <trkpt lat="47.13215" lon="5.67617">
        <ele>232</ele>
        <time>2011-03-18T13:51:40Z</time>
      </trkpt>
      <trkpt lat="47.13225" lon="5.6761">
        <ele>232</ele>
        <time>2011-03-18T13:51:42Z</time>
      </trkpt>
      <trkpt lat="47.13235" lon="5.676">
        <ele>232</ele>
        <time>2011-03-18T13:51:44Z</time>
      </trkpt>
      <trkpt lat="47.13245" lon="5.67587">
        <ele>232</ele>
        <time>2011-03-18T13:51:46Z</time>
      </trkpt>
      <trkpt lat="47.13257" lon="5.67576">
        <ele>232</ele>
        <time>2011-03-18T13:51:48Z</time>
      </trkpt>
      <trkpt lat="47.13267" lon="5.67568">
        <ele>232</ele>
        <time>2011-03-18T13:51:50Z</time>
      </trkpt>
      <trkpt lat="47.13277" lon="5.67558">
        <ele>226</ele>
        <time>2011-03-18T13:51:52Z</time>
      </trkpt>
      <trkpt lat="47.13286" lon="5.67547">
        <ele>226</ele>
        <time>2011-03-18T13:51:54Z</time>
      </trkpt>
      <trkpt lat="47.13293" lon="5.67531">
        <ele>226</ele>
        <time>2011-03-18T13:51:56Z</time>
      </trkpt>
      <trkpt lat="47.13299" lon="5.67515">
        <ele>226</ele>
        <time>2011-03-18T13:51:58Z</time>
      </trkpt>
      <trkpt lat="47.13306" lon="5.675">
        <ele>226</ele>
        <time>2011-03-18T13:52:00Z</time>
      </trkpt>
      <trkpt lat="47.13314" lon="5.67486">
        <ele>226</ele>
        <time>2011-03-18T13:52:02Z</time>
      </trkpt>
      <trkpt lat="47.13322" lon="5.67471">
        <ele>226</ele>
        <time>2011-03-18T13:52:04Z</time>
      </trkpt>
      <trkpt lat="47.1333" lon="5.67457">
        <ele>226</ele>
        <time>2011-03-18T13:52:06Z</time>
      </trkpt>
      <trkpt lat="47.1334" lon="5.67442">
        <ele>221</ele>
        <time>2011-03-18T13:52:08Z</time>
      </trkpt>
      <trkpt lat="47.13353" lon="5.67433">
        <ele>221</ele>
        <time>2011-03-18T13:52:10Z</time>
      </trkpt>
      <trkpt lat="47.13368" lon="5.67427">
        <ele>221</ele>
        <time>2011-03-18T13:52:12Z</time>
      </trkpt>
      <trkpt lat="47.13383" lon="5.67424">
        <ele>221</ele>
        <time>2011-03-18T13:52:14Z</time>
      </trkpt>
      <trkpt lat="47.134" lon="5.67418">
        <ele>221</ele>
        <time>2011-03-18T13:52:16Z</time>
      </trkpt>
      <trkpt lat="47.13409" lon="5.67415">
        <ele>221</ele>
        <time>2011-03-18T13:52:17Z</time>
      </trkpt>
      <trkpt lat="47.13417" lon="5.6741">
        <ele>216</ele>
        <time>2011-03-18T13:52:18Z</time>
      </trkpt>
      <trkpt lat="47.13433" lon="5.67398">
        <ele>216</ele>
        <time>2011-03-18T13:52:20Z</time>
      </trkpt>
      <trkpt lat="47.13446" lon="5.67387">
        <ele>216</ele>
        <time>2011-03-18T13:52:22Z</time>
      </trkpt>
      <trkpt lat="47.13458" lon="5.67376">
        <ele>216</ele>
        <time>2011-03-18T13:52:24Z</time>
      </trkpt>
      <trkpt lat="47.13469" lon="5.67365">
        <ele>216</ele>
        <time>2011-03-18T13:52:26Z</time>
      </trkpt>
      <trkpt lat="47.13477" lon="5.67351">
        <ele>210</ele>
        <time>2011-03-18T13:52:28Z</time>
      </trkpt>
      <trkpt lat="47.13483" lon="5.67334">
        <ele>210</ele>
        <time>2011-03-18T13:52:30Z</time>
      </trkpt>
      <trkpt lat="47.13488" lon="5.67316">
        <ele>210</ele>
        <time>2011-03-18T13:52:32Z</time>
      </trkpt>
      <trkpt lat="47.13494" lon="5.67299">
        <ele>210</ele>
        <time>2011-03-18T13:52:34Z</time>
      </trkpt>
      <trkpt lat="47.13499" lon="5.67281">
        <ele>210</ele>
        <time>2011-03-18T13:52:36Z</time>
      </trkpt>
      <trkpt lat="47.13504" lon="5.67263">
        <ele>210</ele>
        <time>2011-03-18T13:52:38Z</time>
      </trkpt>
      <trkpt lat="47.13509" lon="5.67245">
        <ele>210</ele>
        <time>2011-03-18T13:52:40Z</time>
      </trkpt>
      <trkpt lat="47.13515" lon="5.67226">
        <ele>210</ele>
        <time>2011-03-18T13:52:42Z</time>
      </trkpt>
      <trkpt lat="47.1352" lon="5.67206">
        <ele>210</ele>
        <time>2011-03-18T13:52:44Z</time>
      </trkpt>
      <trkpt lat="47.13525" lon="5.67187">
        <ele>210</ele>
        <time>2011-03-18T13:52:46Z</time>
      </trkpt>
      <trkpt lat="47.1353" lon="5.67168">
        <ele>210</ele>
        <time>2011-03-18T13:52:48Z</time>
      </trkpt>
      <trkpt lat="47.13535" lon="5.67149">
        <ele>210</ele>
        <time>2011-03-18T13:52:50Z</time>
      </trkpt>
      <trkpt lat="47.13541" lon="5.67129">
        <ele>210</ele>
        <time>2011-03-18T13:52:52Z</time>
      </trkpt>
      <trkpt lat="47.13546" lon="5.6711">
        <ele>210</ele>
        <time>2011-03-18T13:52:54Z</time>
      </trkpt>
      <trkpt lat="47.13551" lon="5.6709">
        <ele>210</ele>
        <time>2011-03-18T13:52:56Z</time>
      </trkpt>
      <trkpt lat="47.13556" lon="5.67071">
        <ele>210</ele>
        <time>2011-03-18T13:52:58Z</time>
      </trkpt>
      <trkpt lat="47.13561" lon="5.67052">
        <ele>210</ele>
        <time>2011-03-18T13:53:00Z</time>
      </trkpt>
      <trkpt lat="47.13566" lon="5.67032">
        <ele>210</ele>
        <time>2011-03-18T13:53:02Z</time>
      </trkpt>
      <trkpt lat="47.1357" lon="5.67013">
        <ele>210</ele>
        <time>2011-03-18T13:53:04Z</time>
      </trkpt>
      <trkpt lat="47.13575" lon="5.66994">
        <ele>210</ele>
        <time>2011-03-18T13:53:06Z</time>
      </trkpt>
      <trkpt lat="47.1358" lon="5.66974">
        <ele>210</ele>
        <time>2011-03-18T13:53:08Z</time>
      </trkpt>
      <trkpt lat="47.13585" lon="5.66956">
        <ele>210</ele>
        <time>2011-03-18T13:53:10Z</time>
      </trkpt>
      <trkpt lat="47.13591" lon="5.66937">
        <ele>210</ele>
        <time>2011-03-18T13:53:12Z</time>
      </trkpt>
      <trkpt lat="47.13596" lon="5.66918">
        <ele>210</ele>
        <time>2011-03-18T13:53:14Z</time>
      </trkpt>
      <trkpt lat="47.136" lon="5.669">
        <ele>210</ele>
        <time>2011-03-18T13:53:16Z</time>
      </trkpt>
      <trkpt lat="47.13606" lon="5.66881">
        <ele>210</ele>
        <time>2011-03-18T13:53:18Z</time>
      </trkpt>
      <trkpt lat="47.13611" lon="5.66863">
        <ele>210</ele>
        <time>2011-03-18T13:53:20Z</time>
      </trkpt>
      <trkpt lat="47.13616" lon="5.66845">
        <ele>210</ele>
        <time>2011-03-18T13:53:22Z</time>
      </trkpt>
      <trkpt lat="47.13621" lon="5.66827">
        <ele>210</ele>
        <time>2011-03-18T13:53:24Z</time>
      </trkpt>
      <trkpt lat="47.13626" lon="5.66809">
        <ele>210</ele>
        <time>2011-03-18T13:53:26Z</time>
      </trkpt>
      <trkpt lat="47.13631" lon="5.66792">
        <ele>210</ele>
        <time>2011-03-18T13:53:28Z</time>
      </trkpt>
      <trkpt lat="47.13636" lon="5.66774">
        <ele>210</ele>
        <time>2011-03-18T13:53:30Z</time>
      </trkpt>
      <trkpt lat="47.1364" lon="5.66757">
        <ele>210</ele>
        <time>2011-03-18T13:53:32Z</time>
      </trkpt>
      <trkpt lat="47.13645" lon="5.6674">
        <ele>210</ele>
        <time>2011-03-18T13:53:34Z</time>
      </trkpt>
      <trkpt lat="47.13649" lon="5.66722">
        <ele>210</ele>
        <time>2011-03-18T13:53:36Z</time>
      </trkpt>
      <trkpt lat="47.13653" lon="5.66705">
        <ele>210</ele>
        <time>2011-03-18T13:53:38Z</time>
      </trkpt>
      <trkpt lat="47.13657" lon="5.66688">
        <ele>210</ele>
        <time>2011-03-18T13:53:40Z</time>
      </trkpt>
      <trkpt lat="47.13662" lon="5.6667">
        <ele>210</ele>
        <time>2011-03-18T13:53:42Z</time>
      </trkpt>
      <trkpt lat="47.13666" lon="5.66652">
        <ele>210</ele>
        <time>2011-03-18T13:53:44Z</time>
      </trkpt>
      <trkpt lat="47.13671" lon="5.66634">
        <ele>210</ele>
        <time>2011-03-18T13:53:46Z</time>
      </trkpt>
      <trkpt lat="47.13675" lon="5.66617">
        <ele>210</ele>
        <time>2011-03-18T13:53:48Z</time>
      </trkpt>
      <trkpt lat="47.1368" lon="5.66599">
        <ele>210</ele>
        <time>2011-03-18T13:53:50Z</time>
      </trkpt>
      <trkpt lat="47.13684" lon="5.66582">
        <ele>210</ele>
        <time>2011-03-18T13:53:52Z</time>
      </trkpt>
      <trkpt lat="47.13688" lon="5.66565">
        <ele>210</ele>
        <time>2011-03-18T13:53:54Z</time>
      </trkpt>
      <trkpt lat="47.13692" lon="5.66547">
        <ele>210</ele>
        <time>2011-03-18T13:53:56Z</time>
      </trkpt>
      <trkpt lat="47.13696" lon="5.66529">
        <ele>210</ele>
        <time>2011-03-18T13:53:58Z</time>
      </trkpt>
      <trkpt lat="47.13699" lon="5.66511">
        <ele>210</ele>
        <time>2011-03-18T13:54:00Z</time>
      </trkpt>
      <trkpt lat="47.13702" lon="5.66493">
        <ele>210</ele>
        <time>2011-03-18T13:54:02Z</time>
      </trkpt>
      <trkpt lat="47.13703" lon="5.66475">
        <ele>210</ele>
        <time>2011-03-18T13:54:04Z</time>
      </trkpt>
      <trkpt lat="47.13705" lon="5.66456">
        <ele>210</ele>
        <time>2011-03-18T13:54:06Z</time>
      </trkpt>
      <trkpt lat="47.13707" lon="5.66437">
        <ele>210</ele>
        <time>2011-03-18T13:54:08Z</time>
      </trkpt>
      <trkpt lat="47.13709" lon="5.66418">
        <ele>205</ele>
        <time>2011-03-18T13:54:10Z</time>
      </trkpt>
      <trkpt lat="47.1371" lon="5.664">
        <ele>205</ele>
        <time>2011-03-18T13:54:12Z</time>
      </trkpt>
      <trkpt lat="47.13711" lon="5.66382">
        <ele>205</ele>
        <time>2011-03-18T13:54:14Z</time>
      </trkpt>
      <trkpt lat="47.13713" lon="5.66364">
        <ele>205</ele>
        <time>2011-03-18T13:54:16Z</time>
      </trkpt>
      <trkpt lat="47.13715" lon="5.66345">
        <ele>205</ele>
        <time>2011-03-18T13:54:18Z</time>
      </trkpt>
      <trkpt lat="47.13717" lon="5.66327">
        <ele>205</ele>
        <time>2011-03-18T13:54:20Z</time>
      </trkpt>
      <trkpt lat="47.13718" lon="5.66309">
        <ele>205</ele>
        <time>2011-03-18T13:54:22Z</time>
      </trkpt>
      <trkpt lat="47.1372" lon="5.66291">
        <ele>205</ele>
        <time>2011-03-18T13:54:24Z</time>
      </trkpt>
      <trkpt lat="47.13722" lon="5.66273">
        <ele>205</ele>
        <time>2011-03-18T13:54:26Z</time>
      </trkpt>
      <trkpt lat="47.13723" lon="5.66255">
        <ele>205</ele>
        <time>2011-03-18T13:54:28Z</time>
      </trkpt>
      <trkpt lat="47.13725" lon="5.66236">
        <ele>205</ele>
        <time>2011-03-18T13:54:30Z</time>
      </trkpt>
      <trkpt lat="47.13727" lon="5.66218">
        <ele>205</ele>
        <time>2011-03-18T13:54:32Z</time>
      </trkpt>
      <trkpt lat="47.13728" lon="5.662">
        <ele>205</ele>
        <time>2011-03-18T13:54:34Z</time>
      </trkpt>
      <trkpt lat="47.1373" lon="5.66182">
        <ele>205</ele>
        <time>2011-03-18T13:54:36Z</time>
      </trkpt>
      <trkpt lat="47.13731" lon="5.66164">
        <ele>205</ele>
        <time>2011-03-18T13:54:38Z</time>
      </trkpt>
      <trkpt lat="47.13732" lon="5.66145">
        <ele>205</ele>
        <time>2011-03-18T13:54:40Z</time>
      </trkpt>
      <trkpt lat="47.13734" lon="5.66127">
        <ele>205</ele>
        <time>2011-03-18T13:54:42Z</time>
      </trkpt>
      <trkpt lat="47.13735" lon="5.66108">
        <ele>205</ele>
        <time>2011-03-18T13:54:44Z</time>
      </trkpt>
      <trkpt lat="47.13737" lon="5.6609">
        <ele>205</ele>
        <time>2011-03-18T13:54:46Z</time>
      </trkpt>
      <trkpt lat="47.13738" lon="5.66072">
        <ele>205</ele>
        <time>2011-03-18T13:54:48Z</time>
      </trkpt>
      <trkpt lat="47.1374" lon="5.66053">
        <ele>205</ele>
        <time>2011-03-18T13:54:50Z</time>
      </trkpt>
      <trkpt lat="47.13742" lon="5.66035">
        <ele>205</ele>
        <time>2011-03-18T13:54:52Z</time>
      </trkpt>
      <trkpt lat="47.13744" lon="5.66016">
        <ele>205</ele>
        <time>2011-03-18T13:54:54Z</time>
      </trkpt>
      <trkpt lat="47.13746" lon="5.65998">
        <ele>205</ele>
        <time>2011-03-18T13:54:56Z</time>
      </trkpt>
      <trkpt lat="47.13749" lon="5.65979">
        <ele>205</ele>
        <time>2011-03-18T13:54:58Z</time>
      </trkpt>
      <trkpt lat="47.13752" lon="5.6596">
        <ele>205</ele>
        <time>2011-03-18T13:55:00Z</time>
      </trkpt>
      <trkpt lat="47.13756" lon="5.65941">
        <ele>205</ele>
        <time>2011-03-18T13:55:02Z</time>
      </trkpt>
      <trkpt lat="47.13759" lon="5.65923">
        <ele>205</ele>
        <time>2011-03-18T13:55:04Z</time>
      </trkpt>
      <trkpt lat="47.13762" lon="5.65904">
        <ele>205</ele>
        <time>2011-03-18T13:55:06Z</time>
      </trkpt>
      <trkpt lat="47.13765" lon="5.65885">
        <ele>205</ele>
        <time>2011-03-18T13:55:08Z</time>
      </trkpt>
      <trkpt lat="47.13767" lon="5.65865">
        <ele>205</ele>
        <time>2011-03-18T13:55:10Z</time>
      </trkpt>
      <trkpt lat="47.13768" lon="5.65846">
        <ele>205</ele>
        <time>2011-03-18T13:55:12Z</time>
      </trkpt>
      <trkpt lat="47.13768" lon="5.65826">
        <ele>205</ele>
        <time>2011-03-18T13:55:14Z</time>
      </trkpt>
      <trkpt lat="47.13767" lon="5.65808">
        <ele>205</ele>
        <time>2011-03-18T13:55:16Z</time>
      </trkpt>
      <trkpt lat="47.13764" lon="5.6579">
        <ele>205</ele>
        <time>2011-03-18T13:55:18Z</time>
      </trkpt>
      <trkpt lat="47.1376" lon="5.65772">
        <ele>205</ele>
        <time>2011-03-18T13:55:20Z</time>
      </trkpt>
      <trkpt lat="47.13757" lon="5.65755">
        <ele>205</ele>
        <time>2011-03-18T13:55:22Z</time>
      </trkpt>
      <trkpt lat="47.13757" lon="5.65737">
        <ele>205</ele>
        <time>2011-03-18T13:55:24Z</time>
      </trkpt>
      <trkpt lat="47.13759" lon="5.65719">
        <ele>205</ele>
        <time>2011-03-18T13:55:26Z</time>
      </trkpt>
      <trkpt lat="47.13765" lon="5.65704">
        <ele>205</ele>
        <time>2011-03-18T13:55:28Z</time>
      </trkpt>
      <trkpt lat="47.13774" lon="5.65691">
        <ele>205</ele>
        <time>2011-03-18T13:55:30Z</time>
      </trkpt>
      <trkpt lat="47.13783" lon="5.65679">
        <ele>205</ele>
        <time>2011-03-18T13:55:32Z</time>
      </trkpt>
      <trkpt lat="47.13793" lon="5.65666">
        <ele>205</ele>
        <time>2011-03-18T13:55:34Z</time>
      </trkpt>
      <trkpt lat="47.13802" lon="5.65654">
        <ele>205</ele>
        <time>2011-03-18T13:55:36Z</time>
      </trkpt>
      <trkpt lat="47.13811" lon="5.6564">
        <ele>205</ele>
        <time>2011-03-18T13:55:38Z</time>
      </trkpt>
      <trkpt lat="47.13821" lon="5.65628">
        <ele>205</ele>
        <time>2011-03-18T13:55:40Z</time>
      </trkpt>
      <trkpt lat="47.1383" lon="5.65616">
        <ele>205</ele>
        <time>2011-03-18T13:55:42Z</time>
      </trkpt>
      <trkpt lat="47.1384" lon="5.65604">
        <ele>205</ele>
        <time>2011-03-18T13:55:44Z</time>
      </trkpt>
      <trkpt lat="47.13849" lon="5.65591">
        <ele>205</ele>
        <time>2011-03-18T13:55:46Z</time>
      </trkpt>
      <trkpt lat="47.13858" lon="5.65578">
        <ele>205</ele>
        <time>2011-03-18T13:55:48Z</time>
      </trkpt>
      <trkpt lat="47.13867" lon="5.65566">
        <ele>205</ele>
        <time>2011-03-18T13:55:50Z</time>
      </trkpt>
      <trkpt lat="47.13877" lon="5.65553">
        <ele>205</ele>
        <time>2011-03-18T13:55:52Z</time>
      </trkpt>
      <trkpt lat="47.13886" lon="5.65542">
        <ele>205</ele>
        <time>2011-03-18T13:55:54Z</time>
      </trkpt>
      <trkpt lat="47.13897" lon="5.6553">
        <ele>205</ele>
        <time>2011-03-18T13:55:56Z</time>
      </trkpt>
      <trkpt lat="47.13908" lon="5.65522">
        <ele>205</ele>
        <time>2011-03-18T13:55:58Z</time>
      </trkpt>
      <trkpt lat="47.13919" lon="5.65516">
        <ele>205</ele>
        <time>2011-03-18T13:56:00Z</time>
      </trkpt>
      <trkpt lat="47.13931" lon="5.65513">
        <ele>205</ele>
        <time>2011-03-18T13:56:02Z</time>
      </trkpt>
      <trkpt lat="47.13944" lon="5.65511">
        <ele>205</ele>
        <time>2011-03-18T13:56:04Z</time>
      </trkpt>
      <trkpt lat="47.13957" lon="5.65509">
        <ele>205</ele>
        <time>2011-03-18T13:56:06Z</time>
      </trkpt>
      <trkpt lat="47.13969" lon="5.65508">
        <ele>205</ele>
        <time>2011-03-18T13:56:08Z</time>
      </trkpt>
      <trkpt lat="47.13982" lon="5.65507">
        <ele>205</ele>
        <time>2011-03-18T13:56:10Z</time>
      </trkpt>
      <trkpt lat="47.13995" lon="5.65507">
        <ele>205</ele>
        <time>2011-03-18T13:56:12Z</time>
      </trkpt>
      <trkpt lat="47.14008" lon="5.65507">
        <ele>205</ele>
        <time>2011-03-18T13:56:14Z</time>
      </trkpt>
      <trkpt lat="47.14022" lon="5.65507">
        <ele>205</ele>
        <time>2011-03-18T13:56:16Z</time>
      </trkpt>
      <trkpt lat="47.14034" lon="5.65509">
        <ele>205</ele>
        <time>2011-03-18T13:56:18Z</time>
      </trkpt>
      <trkpt lat="47.14047" lon="5.65512">
        <ele>205</ele>
        <time>2011-03-18T13:56:20Z</time>
      </trkpt>
      <trkpt lat="47.1406" lon="5.65515">
        <ele>205</ele>
        <time>2011-03-18T13:56:22Z</time>
      </trkpt>
      <trkpt lat="47.14073" lon="5.65518">
        <ele>205</ele>
        <time>2011-03-18T13:56:24Z</time>
      </trkpt>
      <trkpt lat="47.14086" lon="5.65522">
        <ele>205</ele>
        <time>2011-03-18T13:56:26Z</time>
      </trkpt>
      <trkpt lat="47.14099" lon="5.65525">
        <ele>205</ele>
        <time>2011-03-18T13:56:28Z</time>
      </trkpt>
      <trkpt lat="47.14112" lon="5.6553">
        <ele>205</ele>
        <time>2011-03-18T13:56:30Z</time>
      </trkpt>
      <trkpt lat="47.14124" lon="5.65534">
        <ele>205</ele>
        <time>2011-03-18T13:56:32Z</time>
      </trkpt>
      <trkpt lat="47.14137" lon="5.65539">
        <ele>205</ele>
        <time>2011-03-18T13:56:34Z</time>
      </trkpt>
      <trkpt lat="47.14149" lon="5.65543">
        <ele>205</ele>
        <time>2011-03-18T13:56:36Z</time>
      </trkpt>
      <trkpt lat="47.14162" lon="5.65546">
        <ele>205</ele>
        <time>2011-03-18T13:56:38Z</time>
      </trkpt>
      <trkpt lat="47.14174" lon="5.65549">
        <ele>205</ele>
        <time>2011-03-18T13:56:40Z</time>
      </trkpt>
      <trkpt lat="47.14187" lon="5.65552">
        <ele>205</ele>
        <time>2011-03-18T13:56:42Z</time>
      </trkpt>
      <trkpt lat="47.142" lon="5.65554">
        <ele>205</ele>
        <time>2011-03-18T13:56:44Z</time>
      </trkpt>
      <trkpt lat="47.14212" lon="5.65557">
        <ele>205</ele>
        <time>2011-03-18T13:56:46Z</time>
      </trkpt>
      <trkpt lat="47.14225" lon="5.6556">
        <ele>205</ele>
        <time>2011-03-18T13:56:48Z</time>
      </trkpt>
      <trkpt lat="47.14237" lon="5.65562">
        <ele>205</ele>
        <time>2011-03-18T13:56:50Z</time>
      </trkpt>
      <trkpt lat="47.14251" lon="5.65565">
        <ele>205</ele>
        <time>2011-03-18T13:56:52Z</time>
      </trkpt>
      <trkpt lat="47.14264" lon="5.65567">
        <ele>205</ele>
        <time>2011-03-18T13:56:54Z</time>
      </trkpt>
      <trkpt lat="47.14277" lon="5.65569">
        <ele>205</ele>
        <time>2011-03-18T13:56:56Z</time>
      </trkpt>
      <trkpt lat="47.14289" lon="5.65572">
        <ele>205</ele>
        <time>2011-03-18T13:56:58Z</time>
      </trkpt>
      <trkpt lat="47.14302" lon="5.65575">
        <ele>205</ele>
        <time>2011-03-18T13:57:00Z</time>
      </trkpt>
      <trkpt lat="47.14315" lon="5.65577">
        <ele>205</ele>
        <time>2011-03-18T13:57:02Z</time>
      </trkpt>
      <trkpt lat="47.14328" lon="5.65579">
        <ele>205</ele>
        <time>2011-03-18T13:57:04Z</time>
      </trkpt>
      <trkpt lat="47.14341" lon="5.65581">
        <ele>205</ele>
        <time>2011-03-18T13:57:06Z</time>
      </trkpt>
      <trkpt lat="47.14353" lon="5.65583">
        <ele>210</ele>
        <time>2011-03-18T13:57:08Z</time>
      </trkpt>
      <trkpt lat="47.14365" lon="5.65584">
        <ele>210</ele>
        <time>2011-03-18T13:57:10Z</time>
      </trkpt>
      <trkpt lat="47.14376" lon="5.65586">
        <ele>210</ele>
        <time>2011-03-18T13:57:12Z</time>
      </trkpt>
      <trkpt lat="47.14388" lon="5.65587">
        <ele>210</ele>
        <time>2011-03-18T13:57:14Z</time>
      </trkpt>
      <trkpt lat="47.14399" lon="5.65588">
        <ele>210</ele>
        <time>2011-03-18T13:57:16Z</time>
      </trkpt>
      <trkpt lat="47.1441" lon="5.6559">
        <ele>210</ele>
        <time>2011-03-18T13:57:18Z</time>
      </trkpt>
      <trkpt lat="47.14421" lon="5.65592">
        <ele>210</ele>
        <time>2011-03-18T13:57:20Z</time>
      </trkpt>
      <trkpt lat="47.14432" lon="5.65594">
        <ele>210</ele>
        <time>2011-03-18T13:57:22Z</time>
      </trkpt>
      <trkpt lat="47.14442" lon="5.65595">
        <ele>210</ele>
        <time>2011-03-18T13:57:24Z</time>
      </trkpt>
      <trkpt lat="47.14453" lon="5.65596">
        <ele>210</ele>
        <time>2011-03-18T13:57:26Z</time>
      </trkpt>
      <trkpt lat="47.14463" lon="5.65598">
        <ele>210</ele>
        <time>2011-03-18T13:57:28Z</time>
      </trkpt>
      <trkpt lat="47.14475" lon="5.65599">
        <ele>210</ele>
        <time>2011-03-18T13:57:30Z</time>
      </trkpt>
      <trkpt lat="47.14485" lon="5.65601">
        <ele>210</ele>
        <time>2011-03-18T13:57:32Z</time>
      </trkpt>
      <trkpt lat="47.14496" lon="5.65603">
        <ele>210</ele>
        <time>2011-03-18T13:57:34Z</time>
      </trkpt>
      <trkpt lat="47.14507" lon="5.65605">
        <ele>210</ele>
        <time>2011-03-18T13:57:36Z</time>
      </trkpt>
      <trkpt lat="47.14518" lon="5.65606">
        <ele>210</ele>
        <time>2011-03-18T13:57:38Z</time>
      </trkpt>
      <trkpt lat="47.14529" lon="5.65607">
        <ele>210</ele>
        <time>2011-03-18T13:57:40Z</time>
      </trkpt>
      <trkpt lat="47.1454" lon="5.65609">
        <ele>210</ele>
        <time>2011-03-18T13:57:42Z</time>
      </trkpt>
      <trkpt lat="47.14552" lon="5.65611">
        <ele>210</ele>
        <time>2011-03-18T13:57:44Z</time>
      </trkpt>
      <trkpt lat="47.14563" lon="5.65612">
        <ele>210</ele>
        <time>2011-03-18T13:57:46Z</time>
      </trkpt>
      <trkpt lat="47.14575" lon="5.65613">
        <ele>210</ele>
        <time>2011-03-18T13:57:48Z</time>
      </trkpt>
      <trkpt lat="47.14587" lon="5.65615">
        <ele>210</ele>
        <time>2011-03-18T13:57:50Z</time>
      </trkpt>
      <trkpt lat="47.14598" lon="5.65618">
        <ele>210</ele>
        <time>2011-03-18T13:57:52Z</time>
      </trkpt>
      <trkpt lat="47.1461" lon="5.6562">
        <ele>210</ele>
        <time>2011-03-18T13:57:54Z</time>
      </trkpt>
      <trkpt lat="47.14621" lon="5.65622">
        <ele>210</ele>
        <time>2011-03-18T13:57:56Z</time>
      </trkpt>
      <trkpt lat="47.14631" lon="5.6563">
        <ele>210</ele>
        <time>2011-03-18T13:57:58Z</time>
      </trkpt>
      <trkpt lat="47.1464" lon="5.6564">
        <ele>210</ele>
        <time>2011-03-18T13:58:00Z</time>
      </trkpt>
      <trkpt lat="47.14646" lon="5.65655">
        <ele>210</ele>
        <time>2011-03-18T13:58:02Z</time>
      </trkpt>
      <trkpt lat="47.14651" lon="5.65669">
        <ele>210</ele>
        <time>2011-03-18T13:58:04Z</time>
      </trkpt>
      <trkpt lat="47.14654" lon="5.65684">
        <ele>210</ele>
        <time>2011-03-18T13:58:06Z</time>
      </trkpt>
      <trkpt lat="47.14657" lon="5.657">
        <ele>210</ele>
        <time>2011-03-18T13:58:08Z</time>
      </trkpt>
      <trkpt lat="47.14658" lon="5.65715">
        <ele>210</ele>
        <time>2011-03-18T13:58:10Z</time>
      </trkpt>
      <trkpt lat="47.1466" lon="5.6573">
        <ele>210</ele>
        <time>2011-03-18T13:58:12Z</time>
      </trkpt>
      <trkpt lat="47.1466" lon="5.65744">
        <ele>210</ele>
        <time>2011-03-18T13:58:14Z</time>
      </trkpt>
      <trkpt lat="47.1466" lon="5.65757">
        <ele>215</ele>
        <time>2011-03-18T13:58:16Z</time>
      </trkpt>
      <trkpt lat="47.1466" lon="5.65777">
        <ele>215</ele>
        <time>2011-03-18T13:58:19Z</time>
      </trkpt>
      <trkpt lat="47.1466" lon="5.65795">
        <ele>215</ele>
        <time>2011-03-18T13:58:22Z</time>
      </trkpt>
      <trkpt lat="47.1466" lon="5.65813">
        <ele>215</ele>
        <time>2011-03-18T13:58:25Z</time>
      </trkpt>
      <trkpt lat="47.14661" lon="5.65831">
        <ele>215</ele>
        <time>2011-03-18T13:58:28Z</time>
      </trkpt>
      <trkpt lat="47.14661" lon="5.65849">
        <ele>215</ele>
        <time>2011-03-18T13:58:31Z</time>
      </trkpt>
      <trkpt lat="47.14663" lon="5.65866">
        <ele>215</ele>
        <time>2011-03-18T13:58:34Z</time>
      </trkpt>
      <trkpt lat="47.14667" lon="5.65883">
        <ele>215</ele>
        <time>2011-03-18T13:58:37Z</time>
      </trkpt>
      <trkpt lat="47.14675" lon="5.65896">
        <ele>215</ele>
        <time>2011-03-18T13:58:40Z</time>
      </trkpt>
      <trkpt lat="47.14686" lon="5.65904">
        <ele>215</ele>
        <time>2011-03-18T13:58:43Z</time>
      </trkpt>
      <trkpt lat="47.14698" lon="5.65906">
        <ele>215</ele>
        <time>2011-03-18T13:58:46Z</time>
      </trkpt>
      <trkpt lat="47.1471" lon="5.65906">
        <ele>220</ele>
        <time>2011-03-18T13:58:49Z</time>
      </trkpt>
      <trkpt lat="47.14722" lon="5.65905">
        <ele>220</ele>
        <time>2011-03-18T13:58:52Z</time>
      </trkpt>
      <trkpt lat="47.14733" lon="5.65905">
        <ele>220</ele>
        <time>2011-03-18T13:58:55Z</time>
      </trkpt>
      <trkpt lat="47.14744" lon="5.65902">
        <ele>220</ele>
        <time>2011-03-18T13:58:58Z</time>
      </trkpt>
      <trkpt lat="47.14755" lon="5.65899">
        <ele>220</ele>
        <time>2011-03-18T13:59:01Z</time>
      </trkpt>
      <trkpt lat="47.14765" lon="5.65897">
        <ele>220</ele>
        <time>2011-03-18T13:59:04Z</time>
      </trkpt>
      <trkpt lat="47.14776" lon="5.65895">
        <ele>220</ele>
        <time>2011-03-18T13:59:09Z</time>
      </trkpt>
      <trkpt lat="47.14786" lon="5.65891">
        <ele>226</ele>
        <time>2011-03-18T13:59:13Z</time>
      </trkpt>
      <trkpt lat="47.14798" lon="5.6589">
        <ele>226</ele>
        <time>2011-03-18T13:59:17Z</time>
      </trkpt>
      <trkpt lat="47.14807" lon="5.65888">
        <ele>226</ele>
        <time>2011-03-18T13:59:21Z</time>
      </trkpt>
      <trkpt lat="47.14817" lon="5.65887">
        <ele>226</ele>
        <time>2011-03-18T13:59:26Z</time>
      </trkpt>
      <trkpt lat="47.14827" lon="5.65888">
        <ele>226</ele>
        <time>2011-03-18T13:59:46Z</time>
      </trkpt>
      <trkpt lat="47.14837" lon="5.65885">
        <ele>226</ele>
        <time>2011-03-18T13:59:50Z</time>
      </trkpt>
      <trkpt lat="47.14848" lon="5.65886">
        <ele>226</ele>
        <time>2011-03-18T13:59:54Z</time>
      </trkpt>
      <trkpt lat="47.14857" lon="5.65889">
        <ele>232</ele>
        <time>2011-03-18T13:59:57Z</time>
      </trkpt>
      <trkpt lat="47.14867" lon="5.65892">
        <ele>232</ele>
        <time>2011-03-18T14:00:01Z</time>
      </trkpt>
      <trkpt lat="47.14876" lon="5.65896">
        <ele>237</ele>
        <time>2011-03-18T14:00:04Z</time>
      </trkpt>
      <trkpt lat="47.14887" lon="5.65901">
        <ele>237</ele>
        <time>2011-03-18T14:00:08Z</time>
      </trkpt>
      <trkpt lat="47.14897" lon="5.65903">
        <ele>237</ele>
        <time>2011-03-18T14:00:11Z</time>
      </trkpt>
      <trkpt lat="47.14908" lon="5.65904">
        <ele>237</ele>
        <time>2011-03-18T14:00:14Z</time>
      </trkpt>
      <trkpt lat="47.1492" lon="5.65905">
        <ele>237</ele>
        <time>2011-03-18T14:00:17Z</time>
      </trkpt>
      <trkpt lat="47.14931" lon="5.65906">
        <ele>237</ele>
        <time>2011-03-18T14:00:20Z</time>
      </trkpt>
      <trkpt lat="47.14943" lon="5.65909">
        <ele>237</ele>
        <time>2011-03-18T14:00:23Z</time>
      </trkpt>
      <trkpt lat="47.14953" lon="5.65912">
        <ele>237</ele>
        <time>2011-03-18T14:00:26Z</time>
      </trkpt>
      <trkpt lat="47.14962" lon="5.6592">
        <ele>237</ele>
        <time>2011-03-18T14:00:29Z</time>
      </trkpt>
      <trkpt lat="47.14967" lon="5.65931">
        <ele>237</ele>
        <time>2011-03-18T14:00:32Z</time>
      </trkpt>
      <trkpt lat="47.14972" lon="5.65945">
        <ele>237</ele>
        <time>2011-03-18T14:00:35Z</time>
      </trkpt>
      <trkpt lat="47.14977" lon="5.65958">
        <ele>237</ele>
        <time>2011-03-18T14:00:38Z</time>
      </trkpt>
      <trkpt lat="47.14983" lon="5.65971">
        <ele>237</ele>
        <time>2011-03-18T14:00:41Z</time>
      </trkpt>
      <trkpt lat="47.14988" lon="5.65985">
        <ele>237</ele>
        <time>2011-03-18T14:00:44Z</time>
      </trkpt>
      <trkpt lat="47.14994" lon="5.66">
        <ele>237</ele>
        <time>2011-03-18T14:00:47Z</time>
      </trkpt>
      <trkpt lat="47.14999" lon="5.66013">
        <ele>237</ele>
        <time>2011-03-18T14:00:50Z</time>
      </trkpt>
      <trkpt lat="47.15005" lon="5.66028">
        <ele>237</ele>
        <time>2011-03-18T14:00:53Z</time>
      </trkpt>
      <trkpt lat="47.15011" lon="5.66042">
        <ele>237</ele>
        <time>2011-03-18T14:00:56Z</time>
      </trkpt>
      <trkpt lat="47.15017" lon="5.66057">
        <ele>237</ele>
        <time>2011-03-18T14:00:59Z</time>
      </trkpt>
      <trkpt lat="47.15022" lon="5.66073">
        <ele>237</ele>
        <time>2011-03-18T14:01:02Z</time>
      </trkpt>
      <trkpt lat="47.15028" lon="5.66087">
        <ele>237</ele>
        <time>2011-03-18T14:01:05Z</time>
      </trkpt>
      <trkpt lat="47.15033" lon="5.66101">
        <ele>237</ele>
        <time>2011-03-18T14:01:08Z</time>
      </trkpt>
      <trkpt lat="47.15039" lon="5.66115">
        <ele>242</ele>
        <time>2011-03-18T14:01:11Z</time>
      </trkpt>
      <trkpt lat="47.15046" lon="5.66126">
        <ele>242</ele>
        <time>2011-03-18T14:01:14Z</time>
      </trkpt>
      <trkpt lat="47.15057" lon="5.66133">
        <ele>242</ele>
        <time>2011-03-18T14:01:17Z</time>
      </trkpt>
      <trkpt lat="47.15068" lon="5.66136">
        <ele>242</ele>
        <time>2011-03-18T14:01:20Z</time>
      </trkpt>
      <trkpt lat="47.15079" lon="5.6614">
        <ele>242</ele>
        <time>2011-03-18T14:01:23Z</time>
      </trkpt>
      <trkpt lat="47.1509" lon="5.66144">
        <ele>242</ele>
        <time>2011-03-18T14:01:26Z</time>
      </trkpt>
      <trkpt lat="47.15101" lon="5.66149">
        <ele>242</ele>
        <time>2011-03-18T14:01:29Z</time>
      </trkpt>
      <trkpt lat="47.15113" lon="5.66152">
        <ele>242</ele>
        <time>2011-03-18T14:01:32Z</time>
      </trkpt>
      <trkpt lat="47.15122" lon="5.66156">
        <ele>248</ele>
        <time>2011-03-18T14:01:35Z</time>
      </trkpt>
      <trkpt lat="47.15133" lon="5.6616">
        <ele>248</ele>
        <time>2011-03-18T14:01:38Z</time>
      </trkpt>
      <trkpt lat="47.15143" lon="5.66161">
        <ele>248</ele>
        <time>2011-03-18T14:01:41Z</time>
      </trkpt>
      <trkpt lat="47.15152" lon="5.66164">
        <ele>248</ele>
        <time>2011-03-18T14:01:44Z</time>
      </trkpt>
      <trkpt lat="47.15162" lon="5.66168">
        <ele>254</ele>
        <time>2011-03-18T14:01:47Z</time>
      </trkpt>
      <trkpt lat="47.15172" lon="5.66171">
        <ele>254</ele>
        <time>2011-03-18T14:01:50Z</time>
      </trkpt>
      <trkpt lat="47.15182" lon="5.66174">
        <ele>254</ele>
        <time>2011-03-18T14:01:53Z</time>
      </trkpt>
      <trkpt lat="47.15192" lon="5.66178">
        <ele>260</ele>
        <time>2011-03-18T14:01:56Z</time>
      </trkpt>
      <trkpt lat="47.15202" lon="5.66182">
        <ele>260</ele>
        <time>2011-03-18T14:01:59Z</time>
      </trkpt>
      <trkpt lat="47.15213" lon="5.66187">
        <ele>260</ele>
        <time>2011-03-18T14:02:02Z</time>
      </trkpt>
      <trkpt lat="47.15223" lon="5.6619">
        <ele>260</ele>
        <time>2011-03-18T14:02:05Z</time>
      </trkpt>
      <trkpt lat="47.15233" lon="5.66196">
        <ele>260</ele>
        <time>2011-03-18T14:02:08Z</time>
      </trkpt>
      <trkpt lat="47.15243" lon="5.662">
        <ele>260</ele>
        <time>2011-03-18T14:02:11Z</time>
      </trkpt>
      <trkpt lat="47.15253" lon="5.66205">
        <ele>260</ele>
        <time>2011-03-18T14:02:14Z</time>
      </trkpt>
      <trkpt lat="47.15263" lon="5.66208">
        <ele>260</ele>
        <time>2011-03-18T14:02:17Z</time>
      </trkpt>
      <trkpt lat="47.15272" lon="5.66213">
        <ele>260</ele>
        <time>2011-03-18T14:02:20Z</time>
      </trkpt>
      <trkpt lat="47.15282" lon="5.66216">
        <ele>260</ele>
        <time>2011-03-18T14:02:23Z</time>
      </trkpt>
      <trkpt lat="47.15291" lon="5.6622">
        <ele>260</ele>
        <time>2011-03-18T14:02:26Z</time>
      </trkpt>
      <trkpt lat="47.15302" lon="5.66223">
        <ele>260</ele>
        <time>2011-03-18T14:02:29Z</time>
      </trkpt>
      <trkpt lat="47.15312" lon="5.66228">
        <ele>260</ele>
        <time>2011-03-18T14:02:32Z</time>
      </trkpt>
      <trkpt lat="47.15322" lon="5.66233">
        <ele>260</ele>
        <time>2011-03-18T14:02:35Z</time>
      </trkpt>
      <trkpt lat="47.15332" lon="5.66237">
        <ele>260</ele>
        <time>2011-03-18T14:02:38Z</time>
      </trkpt>
      <trkpt lat="47.15342" lon="5.66242">
        <ele>260</ele>
        <time>2011-03-18T14:02:41Z</time>
      </trkpt>
      <trkpt lat="47.15353" lon="5.66247">
        <ele>260</ele>
        <time>2011-03-18T14:02:44Z</time>
      </trkpt>
      <trkpt lat="47.15363" lon="5.66251">
        <ele>260</ele>
        <time>2011-03-18T14:02:47Z</time>
      </trkpt>
      <trkpt lat="47.15374" lon="5.66255">
        <ele>260</ele>
        <time>2011-03-18T14:02:50Z</time>
      </trkpt>
      <trkpt lat="47.15383" lon="5.66258">
        <ele>260</ele>
        <time>2011-03-18T14:02:53Z</time>
      </trkpt>
      <trkpt lat="47.15392" lon="5.66262">
        <ele>260</ele>
        <time>2011-03-18T14:02:57Z</time>
      </trkpt>
      <trkpt lat="47.15402" lon="5.66267">
        <ele>260</ele>
        <time>2011-03-18T14:03:44Z</time>
      </trkpt>
      <trkpt lat="47.15412" lon="5.66268">
        <ele>260</ele>
        <time>2011-03-18T14:03:47Z</time>
      </trkpt>
      <trkpt lat="47.15426" lon="5.6627">
        <ele>260</ele>
        <time>2011-03-18T14:03:50Z</time>
      </trkpt>
      <trkpt lat="47.15435" lon="5.66271">
        <ele>260</ele>
        <time>2011-03-18T14:03:52Z</time>
      </trkpt>
      <trkpt lat="47.15445" lon="5.66273">
        <ele>260</ele>
        <time>2011-03-18T14:03:54Z</time>
      </trkpt>
      <trkpt lat="47.15456" lon="5.66275">
        <ele>260</ele>
        <time>2011-03-18T14:03:56Z</time>
      </trkpt>
      <trkpt lat="47.15467" lon="5.66276">
        <ele>260</ele>
        <time>2011-03-18T14:03:58Z</time>
      </trkpt>
      <trkpt lat="47.15478" lon="5.66278">
        <ele>260</ele>
        <time>2011-03-18T14:04:00Z</time>
      </trkpt>
      <trkpt lat="47.15489" lon="5.6628">
        <ele>260</ele>
        <time>2011-03-18T14:04:02Z</time>
      </trkpt>
      <trkpt lat="47.15502" lon="5.66282">
        <ele>260</ele>
        <time>2011-03-18T14:04:04Z</time>
      </trkpt>
      <trkpt lat="47.15514" lon="5.66285">
        <ele>260</ele>
        <time>2011-03-18T14:04:06Z</time>
      </trkpt>
      <trkpt lat="47.15527" lon="5.66286">
        <ele>260</ele>
        <time>2011-03-18T14:04:08Z</time>
      </trkpt>
      <trkpt lat="47.15541" lon="5.66288">
        <ele>260</ele>
        <time>2011-03-18T14:04:10Z</time>
      </trkpt>
      <trkpt lat="47.15554" lon="5.6629">
        <ele>260</ele>
        <time>2011-03-18T14:04:12Z</time>
      </trkpt>
      <trkpt lat="47.15569" lon="5.66292">
        <ele>260</ele>
        <time>2011-03-18T14:04:14Z</time>
      </trkpt>
      <trkpt lat="47.15584" lon="5.66294">
        <ele>254</ele>
        <time>2011-03-18T14:04:16Z</time>
      </trkpt>
      <trkpt lat="47.156" lon="5.66296">
        <ele>254</ele>
        <time>2011-03-18T14:04:18Z</time>
      </trkpt>
      <trkpt lat="47.15615" lon="5.66299">
        <ele>254</ele>
        <time>2011-03-18T14:04:20Z</time>
      </trkpt>
      <trkpt lat="47.15632" lon="5.66302">
        <ele>254</ele>
        <time>2011-03-18T14:04:22Z</time>
      </trkpt>
      <trkpt lat="47.15647" lon="5.66303">
        <ele>254</ele>
        <time>2011-03-18T14:04:24Z</time>
      </trkpt>
      <trkpt lat="47.15665" lon="5.66306">
        <ele>254</ele>
        <time>2011-03-18T14:04:26Z</time>
      </trkpt>
      <trkpt lat="47.15681" lon="5.66308">
        <ele>254</ele>
        <time>2011-03-18T14:04:28Z</time>
      </trkpt>
      <trkpt lat="47.15698" lon="5.66311">
        <ele>254</ele>
        <time>2011-03-18T14:04:30Z</time>
      </trkpt>
      <trkpt lat="47.15715" lon="5.66312">
        <ele>254</ele>
        <time>2011-03-18T14:04:32Z</time>
      </trkpt>
      <trkpt lat="47.15733" lon="5.66315">
        <ele>254</ele>
        <time>2011-03-18T14:04:34Z</time>
      </trkpt>
      <trkpt lat="47.1575" lon="5.66318">
        <ele>254</ele>
        <time>2011-03-18T14:04:36Z</time>
      </trkpt>
      <trkpt lat="47.15767" lon="5.6632">
        <ele>254</ele>
        <time>2011-03-18T14:04:38Z</time>
      </trkpt>
      <trkpt lat="47.15785" lon="5.66323">
        <ele>254</ele>
        <time>2011-03-18T14:04:40Z</time>
      </trkpt>
      <trkpt lat="47.15802" lon="5.66325">
        <ele>254</ele>
        <time>2011-03-18T14:04:42Z</time>
      </trkpt>
      <trkpt lat="47.1582" lon="5.66327">
        <ele>254</ele>
        <time>2011-03-18T14:04:44Z</time>
      </trkpt>
      <trkpt lat="47.15829" lon="5.66329">
        <ele>254</ele>
        <time>2011-03-18T14:04:45Z</time>
      </trkpt>
      <trkpt lat="47.15839" lon="5.66329">
        <ele>254</ele>
        <time>2011-03-18T14:04:46Z</time>
      </trkpt>
      <trkpt lat="47.15856" lon="5.66331">
        <ele>249</ele>
        <time>2011-03-18T14:04:48Z</time>
      </trkpt>
      <trkpt lat="47.15866" lon="5.66333">
        <ele>249</ele>
        <time>2011-03-18T14:04:49Z</time>
      </trkpt>
      <trkpt lat="47.15875" lon="5.66334">
        <ele>249</ele>
        <time>2011-03-18T14:04:50Z</time>
      </trkpt>
      <trkpt lat="47.15885" lon="5.66336">
        <ele>249</ele>
        <time>2011-03-18T14:04:51Z</time>
      </trkpt>
      <trkpt lat="47.15894" lon="5.66337">
        <ele>249</ele>
        <time>2011-03-18T14:04:52Z</time>
      </trkpt>
      <trkpt lat="47.15911" lon="5.66339">
        <ele>249</ele>
        <time>2011-03-18T14:04:54Z</time>
      </trkpt>
      <trkpt lat="47.1592" lon="5.6634">
        <ele>249</ele>
        <time>2011-03-18T14:04:55Z</time>
      </trkpt>
      <trkpt lat="47.15937" lon="5.66343">
        <ele>249</ele>
        <time>2011-03-18T14:04:57Z</time>
      </trkpt>
      <trkpt lat="47.15946" lon="5.66345">
        <ele>249</ele>
        <time>2011-03-18T14:04:58Z</time>
      </trkpt>
      <trkpt lat="47.15964" lon="5.66346">
        <ele>249</ele>
        <time>2011-03-18T14:05:00Z</time>
      </trkpt>
      <trkpt lat="47.15981" lon="5.66345">
        <ele>249</ele>
        <time>2011-03-18T14:05:02Z</time>
      </trkpt>
      <trkpt lat="47.1599" lon="5.66343">
        <ele>249</ele>
        <time>2011-03-18T14:05:03Z</time>
      </trkpt>
      <trkpt lat="47.16" lon="5.66342">
        <ele>249</ele>
        <time>2011-03-18T14:05:04Z</time>
      </trkpt>
      <trkpt lat="47.16009" lon="5.66341">
        <ele>249</ele>
        <time>2011-03-18T14:05:05Z</time>
      </trkpt>
      <trkpt lat="47.16019" lon="5.6634">
        <ele>249</ele>
        <time>2011-03-18T14:05:06Z</time>
      </trkpt>
      <trkpt lat="47.16028" lon="5.66339">
        <ele>249</ele>
        <time>2011-03-18T14:05:07Z</time>
      </trkpt>
      <trkpt lat="47.16037" lon="5.66338">
        <ele>249</ele>
        <time>2011-03-18T14:05:08Z</time>
      </trkpt>
      <trkpt lat="47.16047" lon="5.66338">
        <ele>249</ele>
        <time>2011-03-18T14:05:09Z</time>
      </trkpt>
      <trkpt lat="47.16057" lon="5.66337">
        <ele>249</ele>
        <time>2011-03-18T14:05:10Z</time>
      </trkpt>
      <trkpt lat="47.16067" lon="5.66336">
        <ele>249</ele>
        <time>2011-03-18T14:05:11Z</time>
      </trkpt>
      <trkpt lat="47.16077" lon="5.66336">
        <ele>243</ele>
        <time>2011-03-18T14:05:12Z</time>
      </trkpt>
      <trkpt lat="47.16087" lon="5.66335">
        <ele>243</ele>
        <time>2011-03-18T14:05:13Z</time>
      </trkpt>
      <trkpt lat="47.16098" lon="5.66334">
        <ele>243</ele>
        <time>2011-03-18T14:05:14Z</time>
      </trkpt>
      <trkpt lat="47.16108" lon="5.66333">
        <ele>243</ele>
        <time>2011-03-18T14:05:15Z</time>
      </trkpt>
      <trkpt lat="47.16118" lon="5.66332">
        <ele>243</ele>
        <time>2011-03-18T14:05:16Z</time>
      </trkpt>
      <trkpt lat="47.16128" lon="5.66331">
        <ele>243</ele>
        <time>2011-03-18T14:05:17Z</time>
      </trkpt>
      <trkpt lat="47.16138" lon="5.66331">
        <ele>243</ele>
        <time>2011-03-18T14:05:18Z</time>
      </trkpt>
      <trkpt lat="47.16147" lon="5.6633">
        <ele>243</ele>
        <time>2011-03-18T14:05:19Z</time>
      </trkpt>
      <trkpt lat="47.16157" lon="5.66329">
        <ele>243</ele>
        <time>2011-03-18T14:05:20Z</time>
      </trkpt>
      <trkpt lat="47.16167" lon="5.66329">
        <ele>243</ele>
        <time>2011-03-18T14:05:21Z</time>
      </trkpt>
      <trkpt lat="47.16177" lon="5.66328">
        <ele>243</ele>
        <time>2011-03-18T14:05:22Z</time>
      </trkpt>
      <trkpt lat="47.16187" lon="5.66328">
        <ele>243</ele>
        <time>2011-03-18T14:05:23Z</time>
      </trkpt>
      <trkpt lat="47.16197" lon="5.66327">
        <ele>238</ele>
        <time>2011-03-18T14:05:24Z</time>
      </trkpt>
      <trkpt lat="47.16207" lon="5.66326">
        <ele>238</ele>
        <time>2011-03-18T14:05:25Z</time>
      </trkpt>
      <trkpt lat="47.16217" lon="5.66325">
        <ele>238</ele>
        <time>2011-03-18T14:05:26Z</time>
      </trkpt>
      <trkpt lat="47.16227" lon="5.66324">
        <ele>238</ele>
        <time>2011-03-18T14:05:27Z</time>
      </trkpt>
      <trkpt lat="47.16237" lon="5.66323">
        <ele>238</ele>
        <time>2011-03-18T14:05:28Z</time>
      </trkpt>
      <trkpt lat="47.16247" lon="5.66323">
        <ele>238</ele>
        <time>2011-03-18T14:05:29Z</time>
      </trkpt>
      <trkpt lat="47.16257" lon="5.66321">
        <ele>238</ele>
        <time>2011-03-18T14:05:30Z</time>
      </trkpt>
      <trkpt lat="47.16266" lon="5.6632">
        <ele>238</ele>
        <time>2011-03-18T14:05:31Z</time>
      </trkpt>
      <trkpt lat="47.16276" lon="5.6632">
        <ele>238</ele>
        <time>2011-03-18T14:05:32Z</time>
      </trkpt>
      <trkpt lat="47.16285" lon="5.66319">
        <ele>238</ele>
        <time>2011-03-18T14:05:33Z</time>
      </trkpt>
      <trkpt lat="47.16302" lon="5.66318">
        <ele>238</ele>
        <time>2011-03-18T14:05:35Z</time>
      </trkpt>
      <trkpt lat="47.16312" lon="5.66317">
        <ele>238</ele>
        <time>2011-03-18T14:05:36Z</time>
      </trkpt>
      <trkpt lat="47.16329" lon="5.66315">
        <ele>238</ele>
        <time>2011-03-18T14:05:38Z</time>
      </trkpt>
      <trkpt lat="47.16338" lon="5.66314">
        <ele>238</ele>
        <time>2011-03-18T14:05:39Z</time>
      </trkpt>
      <trkpt lat="47.16355" lon="5.66312">
        <ele>238</ele>
        <time>2011-03-18T14:05:41Z</time>
      </trkpt>
      <trkpt lat="47.16372" lon="5.66311">
        <ele>238</ele>
        <time>2011-03-18T14:05:43Z</time>
      </trkpt>
      <trkpt lat="47.16388" lon="5.6631">
        <ele>238</ele>
        <time>2011-03-18T14:05:45Z</time>
      </trkpt>
      <trkpt lat="47.16404" lon="5.66309">
        <ele>238</ele>
        <time>2011-03-18T14:05:47Z</time>
      </trkpt>
      <trkpt lat="47.16419" lon="5.66306">
        <ele>238</ele>
        <time>2011-03-18T14:05:49Z</time>
      </trkpt>
      <trkpt lat="47.16434" lon="5.66302">
        <ele>238</ele>
        <time>2011-03-18T14:05:51Z</time>
      </trkpt>
      <trkpt lat="47.16448" lon="5.66296">
        <ele>232</ele>
        <time>2011-03-18T14:05:53Z</time>
      </trkpt>
      <trkpt lat="47.16462" lon="5.66288">
        <ele>232</ele>
        <time>2011-03-18T14:05:55Z</time>
      </trkpt>
      <trkpt lat="47.16476" lon="5.66279">
        <ele>232</ele>
        <time>2011-03-18T14:05:57Z</time>
      </trkpt>
      <trkpt lat="47.16489" lon="5.66269">
        <ele>232</ele>
        <time>2011-03-18T14:05:59Z</time>
      </trkpt>
      <trkpt lat="47.16502" lon="5.6626">
        <ele>232</ele>
        <time>2011-03-18T14:06:01Z</time>
      </trkpt>
      <trkpt lat="47.16514" lon="5.66251">
        <ele>232</ele>
        <time>2011-03-18T14:06:03Z</time>
      </trkpt>
      <trkpt lat="47.16527" lon="5.66242">
        <ele>232</ele>
        <time>2011-03-18T14:06:05Z</time>
      </trkpt>
      <trkpt lat="47.16538" lon="5.66235">
        <ele>232</ele>
        <time>2011-03-18T14:06:07Z</time>
      </trkpt>
      <trkpt lat="47.1655" lon="5.66229">
        <ele>232</ele>
        <time>2011-03-18T14:06:09Z</time>
      </trkpt>
      <trkpt lat="47.16562" lon="5.66223">
        <ele>232</ele>
        <time>2011-03-18T14:06:11Z</time>
      </trkpt>
      <trkpt lat="47.16573" lon="5.6622">
        <ele>232</ele>
        <time>2011-03-18T14:06:13Z</time>
      </trkpt>
      <trkpt lat="47.16585" lon="5.66217">
        <ele>232</ele>
        <time>2011-03-18T14:06:15Z</time>
      </trkpt>
      <trkpt lat="47.16597" lon="5.66214">
        <ele>232</ele>
        <time>2011-03-18T14:06:17Z</time>
      </trkpt>
      <trkpt lat="47.16609" lon="5.66211">
        <ele>232</ele>
        <time>2011-03-18T14:06:19Z</time>
      </trkpt>
      <trkpt lat="47.16621" lon="5.66208">
        <ele>232</ele>
        <time>2011-03-18T14:06:21Z</time>
      </trkpt>
      <trkpt lat="47.16633" lon="5.66205">
        <ele>232</ele>
        <time>2011-03-18T14:06:23Z</time>
      </trkpt>
      <trkpt lat="47.16646" lon="5.66203">
        <ele>232</ele>
        <time>2011-03-18T14:06:25Z</time>
      </trkpt>
      <trkpt lat="47.16658" lon="5.662">
        <ele>232</ele>
        <time>2011-03-18T14:06:27Z</time>
      </trkpt>
      <trkpt lat="47.16671" lon="5.66198">
        <ele>232</ele>
        <time>2011-03-18T14:06:29Z</time>
      </trkpt>
      <trkpt lat="47.16684" lon="5.66196">
        <ele>232</ele>
        <time>2011-03-18T14:06:31Z</time>
      </trkpt>
      <trkpt lat="47.16696" lon="5.66194">
        <ele>232</ele>
        <time>2011-03-18T14:06:33Z</time>
      </trkpt>
      <trkpt lat="47.16709" lon="5.66191">
        <ele>232</ele>
        <time>2011-03-18T14:06:35Z</time>
      </trkpt>
      <trkpt lat="47.16722" lon="5.66189">
        <ele>232</ele>
        <time>2011-03-18T14:06:37Z</time>
      </trkpt>
      <trkpt lat="47.16734" lon="5.66187">
        <ele>232</ele>
        <time>2011-03-18T14:06:39Z</time>
      </trkpt>
      <trkpt lat="47.16745" lon="5.66184">
        <ele>232</ele>
        <time>2011-03-18T14:06:41Z</time>
      </trkpt>
      <trkpt lat="47.16756" lon="5.66181">
        <ele>232</ele>
        <time>2011-03-18T14:06:43Z</time>
      </trkpt>
      <trkpt lat="47.16767" lon="5.66178">
        <ele>232</ele>
        <time>2011-03-18T14:06:45Z</time>
      </trkpt>
      <trkpt lat="47.16778" lon="5.66171">
        <ele>232</ele>
        <time>2011-03-18T14:06:47Z</time>
      </trkpt>
      <trkpt lat="47.1679" lon="5.66164">
        <ele>232</ele>
        <time>2011-03-18T14:06:49Z</time>
      </trkpt>
      <trkpt lat="47.16801" lon="5.66154">
        <ele>232</ele>
        <time>2011-03-18T14:06:51Z</time>
      </trkpt>
      <trkpt lat="47.16812" lon="5.66143">
        <ele>227</ele>
        <time>2011-03-18T14:06:53Z</time>
      </trkpt>
      <trkpt lat="47.16822" lon="5.66132">
        <ele>227</ele>
        <time>2011-03-18T14:06:55Z</time>
      </trkpt>
      <trkpt lat="47.16832" lon="5.66119">
        <ele>227</ele>
        <time>2011-03-18T14:06:57Z</time>
      </trkpt>
      <trkpt lat="47.16842" lon="5.66107">
        <ele>227</ele>
        <time>2011-03-18T14:06:59Z</time>
      </trkpt>
      <trkpt lat="47.16853" lon="5.66094">
        <ele>227</ele>
        <time>2011-03-18T14:07:01Z</time>
      </trkpt>
      <trkpt lat="47.16864" lon="5.66082">
        <ele>227</ele>
        <time>2011-03-18T14:07:03Z</time>
      </trkpt>
      <trkpt lat="47.16873" lon="5.66069">
        <ele>221</ele>
        <time>2011-03-18T14:07:05Z</time>
      </trkpt>
      <trkpt lat="47.16884" lon="5.66055">
        <ele>221</ele>
        <time>2011-03-18T14:07:07Z</time>
      </trkpt>
      <trkpt lat="47.16894" lon="5.66043">
        <ele>221</ele>
        <time>2011-03-18T14:07:09Z</time>
      </trkpt>
      <trkpt lat="47.16904" lon="5.66031">
        <ele>221</ele>
        <time>2011-03-18T14:07:11Z</time>
      </trkpt>
      <trkpt lat="47.16914" lon="5.66019">
        <ele>221</ele>
        <time>2011-03-18T14:07:13Z</time>
      </trkpt>
      <trkpt lat="47.16925" lon="5.66006">
        <ele>221</ele>
        <time>2011-03-18T14:07:15Z</time>
      </trkpt>
      <trkpt lat="47.16935" lon="5.65994">
        <ele>221</ele>
        <time>2011-03-18T14:07:17Z</time>
      </trkpt>
      <trkpt lat="47.16945" lon="5.65983">
        <ele>221</ele>
        <time>2011-03-18T14:07:19Z</time>
      </trkpt>
      <trkpt lat="47.16954" lon="5.65971">
        <ele>221</ele>
        <time>2011-03-18T14:07:21Z</time>
      </trkpt>
      <trkpt lat="47.16964" lon="5.65959">
        <ele>221</ele>
        <time>2011-03-18T14:07:23Z</time>
      </trkpt>
      <trkpt lat="47.16973" lon="5.65949">
        <ele>221</ele>
        <time>2011-03-18T14:07:25Z</time>
      </trkpt>
      <trkpt lat="47.16983" lon="5.65937">
        <ele>221</ele>
        <time>2011-03-18T14:07:27Z</time>
      </trkpt>
      <trkpt lat="47.16993" lon="5.65925">
        <ele>216</ele>
        <time>2011-03-18T14:07:29Z</time>
      </trkpt>
      <trkpt lat="47.17002" lon="5.65914">
        <ele>216</ele>
        <time>2011-03-18T14:07:31Z</time>
      </trkpt>
      <trkpt lat="47.17011" lon="5.65903">
        <ele>216</ele>
        <time>2011-03-18T14:07:33Z</time>
      </trkpt>
      <trkpt lat="47.1702" lon="5.65891">
        <ele>216</ele>
        <time>2011-03-18T14:07:35Z</time>
      </trkpt>
      <trkpt lat="47.1703" lon="5.65879">
        <ele>216</ele>
        <time>2011-03-18T14:07:37Z</time>
      </trkpt>
      <trkpt lat="47.17039" lon="5.65867">
        <ele>216</ele>
        <time>2011-03-18T14:07:39Z</time>
      </trkpt>
      <trkpt lat="47.17049" lon="5.65855">
        <ele>216</ele>
        <time>2011-03-18T14:07:41Z</time>
      </trkpt>
      <trkpt lat="47.17058" lon="5.65843">
        <ele>216</ele>
        <time>2011-03-18T14:07:43Z</time>
      </trkpt>
      <trkpt lat="47.17068" lon="5.65832">
        <ele>216</ele>
        <time>2011-03-18T14:07:45Z</time>
      </trkpt>
      <trkpt lat="47.17077" lon="5.65821">
        <ele>216</ele>
        <time>2011-03-18T14:07:47Z</time>
      </trkpt>
      <trkpt lat="47.17087" lon="5.6581">
        <ele>216</ele>
        <time>2011-03-18T14:07:49Z</time>
      </trkpt>
      <trkpt lat="47.17096" lon="5.65799">
        <ele>216</ele>
        <time>2011-03-18T14:07:51Z</time>
      </trkpt>
      <trkpt lat="47.17106" lon="5.6579">
        <ele>216</ele>
        <time>2011-03-18T14:07:53Z</time>
      </trkpt>
      <trkpt lat="47.17114" lon="5.6578">
        <ele>221</ele>
        <time>2011-03-18T14:07:55Z</time>
      </trkpt>
      <trkpt lat="47.17138" lon="5.65755">
        <ele>221</ele>
        <time>2011-03-18T14:08:00Z</time>
      </trkpt>
      <trkpt lat="47.17151" lon="5.65745">
        <ele>221</ele>
        <time>2011-03-18T14:08:02Z</time>
      </trkpt>
      <trkpt lat="47.1716" lon="5.65733">
        <ele>221</ele>
        <time>2011-03-18T14:08:04Z</time>
      </trkpt>
      <trkpt lat="47.17169" lon="5.65724">
        <ele>221</ele>
        <time>2011-03-18T14:08:06Z</time>
      </trkpt>
      <trkpt lat="47.17179" lon="5.65714">
        <ele>221</ele>
        <time>2011-03-18T14:08:08Z</time>
      </trkpt>
      <trkpt lat="47.17189" lon="5.65704">
        <ele>221</ele>
        <time>2011-03-18T14:08:10Z</time>
      </trkpt>
      <trkpt lat="47.17199" lon="5.65694">
        <ele>221</ele>
        <time>2011-03-18T14:08:12Z</time>
      </trkpt>
      <trkpt lat="47.1721" lon="5.65684">
        <ele>221</ele>
        <time>2011-03-18T14:08:14Z</time>
      </trkpt>
      <trkpt lat="47.17222" lon="5.65675">
        <ele>221</ele>
        <time>2011-03-18T14:08:16Z</time>
      </trkpt>
      <trkpt lat="47.17235" lon="5.65666">
        <ele>221</ele>
        <time>2011-03-18T14:08:18Z</time>
      </trkpt>
      <trkpt lat="47.17248" lon="5.65659">
        <ele>221</ele>
        <time>2011-03-18T14:08:20Z</time>
      </trkpt>
      <trkpt lat="47.17261" lon="5.65654">
        <ele>221</ele>
        <time>2011-03-18T14:08:22Z</time>
      </trkpt>
      <trkpt lat="47.17273" lon="5.65649">
        <ele>221</ele>
        <time>2011-03-18T14:08:24Z</time>
      </trkpt>
      <trkpt lat="47.17285" lon="5.65645">
        <ele>221</ele>
        <time>2011-03-18T14:08:26Z</time>
      </trkpt>
      <trkpt lat="47.17296" lon="5.6564">
        <ele>221</ele>
        <time>2011-03-18T14:08:28Z</time>
      </trkpt>
      <trkpt lat="47.17306" lon="5.65637">
        <ele>221</ele>
        <time>2011-03-18T14:08:30Z</time>
      </trkpt>
      <trkpt lat="47.17315" lon="5.65631">
        <ele>221</ele>
        <time>2011-03-18T14:08:32Z</time>
      </trkpt>
      <trkpt lat="47.17324" lon="5.65625">
        <ele>221</ele>
        <time>2011-03-18T14:08:34Z</time>
      </trkpt>
      <trkpt lat="47.17332" lon="5.65617">
        <ele>221</ele>
        <time>2011-03-18T14:08:36Z</time>
      </trkpt>
      <trkpt lat="47.17339" lon="5.65609">
        <ele>221</ele>
        <time>2011-03-18T14:08:38Z</time>
      </trkpt>
      <trkpt lat="47.17349" lon="5.65596">
        <ele>221</ele>
        <time>2011-03-18T14:08:41Z</time>
      </trkpt>
      <trkpt lat="47.17358" lon="5.65583">
        <ele>221</ele>
        <time>2011-03-18T14:08:44Z</time>
      </trkpt>
      <trkpt lat="47.17367" lon="5.65569">
        <ele>221</ele>
        <time>2011-03-18T14:08:47Z</time>
      </trkpt>
      <trkpt lat="47.17374" lon="5.65554">
        <ele>221</ele>
        <time>2011-03-18T14:08:50Z</time>
      </trkpt>
      <trkpt lat="47.17374" lon="5.65535">
        <ele>221</ele>
        <time>2011-03-18T14:08:53Z</time>
      </trkpt>
      <trkpt lat="47.17372" lon="5.65521">
        <ele>221</ele>
        <time>2011-03-18T14:08:55Z</time>
      </trkpt>
      <trkpt lat="47.1737" lon="5.65507">
        <ele>221</ele>
        <time>2011-03-18T14:08:57Z</time>
      </trkpt>
      <trkpt lat="47.17369" lon="5.65492">
        <ele>221</ele>
        <time>2011-03-18T14:08:59Z</time>
      </trkpt>
      <trkpt lat="47.17368" lon="5.65479">
        <ele>221</ele>
        <time>2011-03-18T14:09:01Z</time>
      </trkpt>
      <trkpt lat="47.1737" lon="5.65464">
        <ele>221</ele>
        <time>2011-03-18T14:09:03Z</time>
      </trkpt>
      <trkpt lat="47.17373" lon="5.65451">
        <ele>221</ele>
        <time>2011-03-18T14:09:05Z</time>
      </trkpt>
      <trkpt lat="47.17377" lon="5.65437">
        <ele>221</ele>
        <time>2011-03-18T14:09:07Z</time>
      </trkpt>
      <trkpt lat="47.17382" lon="5.65424">
        <ele>221</ele>
        <time>2011-03-18T14:09:09Z</time>
      </trkpt>
      <trkpt lat="47.17386" lon="5.6541">
        <ele>221</ele>
        <time>2011-03-18T14:09:11Z</time>
      </trkpt>
      <trkpt lat="47.1739" lon="5.65395">
        <ele>221</ele>
        <time>2011-03-18T14:09:13Z</time>
      </trkpt>
      <trkpt lat="47.17394" lon="5.65379">
        <ele>221</ele>
        <time>2011-03-18T14:09:15Z</time>
      </trkpt>
      <trkpt lat="47.17398" lon="5.65362">
        <ele>221</ele>
        <time>2011-03-18T14:09:17Z</time>
      </trkpt>
      <trkpt lat="47.17402" lon="5.65346">
        <ele>221</ele>
        <time>2011-03-18T14:09:19Z</time>
      </trkpt>
      <trkpt lat="47.17404" lon="5.65329">
        <ele>221</ele>
        <time>2011-03-18T14:09:21Z</time>
      </trkpt>
      <trkpt lat="47.17407" lon="5.65313">
        <ele>221</ele>
        <time>2011-03-18T14:09:23Z</time>
      </trkpt>
      <trkpt lat="47.17409" lon="5.65295">
        <ele>221</ele>
        <time>2011-03-18T14:09:25Z</time>
      </trkpt>
      <trkpt lat="47.17411" lon="5.65279">
        <ele>221</ele>
        <time>2011-03-18T14:09:27Z</time>
      </trkpt>
      <trkpt lat="47.17412" lon="5.65263">
        <ele>221</ele>
        <time>2011-03-18T14:09:29Z</time>
      </trkpt>
      <trkpt lat="47.17413" lon="5.65247">
        <ele>221</ele>
        <time>2011-03-18T14:09:31Z</time>
      </trkpt>
      <trkpt lat="47.17413" lon="5.65231">
        <ele>221</ele>
        <time>2011-03-18T14:09:33Z</time>
      </trkpt>
      <trkpt lat="47.17414" lon="5.65215">
        <ele>221</ele>
        <time>2011-03-18T14:09:35Z</time>
      </trkpt>
      <trkpt lat="47.17416" lon="5.65199">
        <ele>221</ele>
        <time>2011-03-18T14:09:37Z</time>
      </trkpt>
      <trkpt lat="47.17416" lon="5.65185">
        <ele>221</ele>
        <time>2011-03-18T14:09:39Z</time>
      </trkpt>
      <trkpt lat="47.17416" lon="5.65171">
        <ele>221</ele>
        <time>2011-03-18T14:09:41Z</time>
      </trkpt>
      <trkpt lat="47.17414" lon="5.65157">
        <ele>221</ele>
        <time>2011-03-18T14:09:43Z</time>
      </trkpt>
      <trkpt lat="47.17412" lon="5.65143">
        <ele>221</ele>
        <time>2011-03-18T14:09:45Z</time>
      </trkpt>
      <trkpt lat="47.17407" lon="5.65129">
        <ele>221</ele>
        <time>2011-03-18T14:09:47Z</time>
      </trkpt>
      <trkpt lat="47.17402" lon="5.65115">
        <ele>221</ele>
        <time>2011-03-18T14:09:49Z</time>
      </trkpt>
      <trkpt lat="47.17397" lon="5.651">
        <ele>221</ele>
        <time>2011-03-18T14:09:51Z</time>
      </trkpt>
      <trkpt lat="47.17392" lon="5.65083">
        <ele>221</ele>
        <time>2011-03-18T14:09:53Z</time>
      </trkpt>
      <trkpt lat="47.17389" lon="5.65067">
        <ele>221</ele>
        <time>2011-03-18T14:09:55Z</time>
      </trkpt>
      <trkpt lat="47.17388" lon="5.65053">
        <ele>221</ele>
        <time>2011-03-18T14:09:57Z</time>
      </trkpt>
      <trkpt lat="47.17387" lon="5.65039">
        <ele>221</ele>
        <time>2011-03-18T14:09:59Z</time>
      </trkpt>
      <trkpt lat="47.17386" lon="5.65026">
        <ele>221</ele>
        <time>2011-03-18T14:10:01Z</time>
      </trkpt>
      <trkpt lat="47.17383" lon="5.65008">
        <ele>221</ele>
        <time>2011-03-18T14:10:04Z</time>
      </trkpt>
      <trkpt lat="47.17384" lon="5.6499">
        <ele>221</ele>
        <time>2011-03-18T14:10:07Z</time>
      </trkpt>
      <trkpt lat="47.17392" lon="5.64977">
        <ele>221</ele>
        <time>2011-03-18T14:10:10Z</time>
      </trkpt>
      <trkpt lat="47.17397" lon="5.64964">
        <ele>221</ele>
        <time>2011-03-18T14:10:14Z</time>
      </trkpt>
      <trkpt lat="47.17392" lon="5.6495">
        <ele>221</ele>
        <time>2011-03-18T14:10:17Z</time>
      </trkpt>
      <trkpt lat="47.17384" lon="5.64934">
        <ele>221</ele>
        <time>2011-03-18T14:10:20Z</time>
      </trkpt>
      <trkpt lat="47.17378" lon="5.64924">
        <ele>221</ele>
        <time>2011-03-18T14:10:22Z</time>
      </trkpt>
      <trkpt lat="47.17371" lon="5.64913">
        <ele>221</ele>
        <time>2011-03-18T14:10:24Z</time>
      </trkpt>
      <trkpt lat="47.17364" lon="5.649">
        <ele>221</ele>
        <time>2011-03-18T14:10:26Z</time>
      </trkpt>
      <trkpt lat="47.17357" lon="5.64888">
        <ele>221</ele>
        <time>2011-03-18T14:10:28Z</time>
      </trkpt>
      <trkpt lat="47.17349" lon="5.64876">
        <ele>221</ele>
        <time>2011-03-18T14:10:30Z</time>
      </trkpt>
      <trkpt lat="47.17343" lon="5.64864">
        <ele>221</ele>
        <time>2011-03-18T14:10:32Z</time>
      </trkpt>
      <trkpt lat="47.17337" lon="5.64853">
        <ele>221</ele>
        <time>2011-03-18T14:10:34Z</time>
      </trkpt>
      <trkpt lat="47.17332" lon="5.64841">
        <ele>221</ele>
        <time>2011-03-18T14:10:36Z</time>
      </trkpt>
      <trkpt lat="47.17326" lon="5.64828">
        <ele>221</ele>
        <time>2011-03-18T14:10:38Z</time>
      </trkpt>
      <trkpt lat="47.17321" lon="5.64815">
        <ele>221</ele>
        <time>2011-03-18T14:10:40Z</time>
      </trkpt>
      <trkpt lat="47.17315" lon="5.64803">
        <ele>221</ele>
        <time>2011-03-18T14:10:42Z</time>
      </trkpt>
      <trkpt lat="47.17308" lon="5.6479">
        <ele>221</ele>
        <time>2011-03-18T14:10:44Z</time>
      </trkpt>
      <trkpt lat="47.173" lon="5.64776">
        <ele>221</ele>
        <time>2011-03-18T14:10:46Z</time>
      </trkpt>
      <trkpt lat="47.17292" lon="5.64764">
        <ele>221</ele>
        <time>2011-03-18T14:10:48Z</time>
      </trkpt>
      <trkpt lat="47.17285" lon="5.64751">
        <ele>221</ele>
        <time>2011-03-18T14:10:50Z</time>
      </trkpt>
      <trkpt lat="47.17275" lon="5.64738">
        <ele>215</ele>
        <time>2011-03-18T14:10:52Z</time>
      </trkpt>
      <trkpt lat="47.17267" lon="5.64723">
        <ele>215</ele>
        <time>2011-03-18T14:10:54Z</time>
      </trkpt>
      <trkpt lat="47.17256" lon="5.64709">
        <ele>215</ele>
        <time>2011-03-18T14:10:56Z</time>
      </trkpt>
      <trkpt lat="47.17244" lon="5.64695">
        <ele>215</ele>
        <time>2011-03-18T14:10:58Z</time>
      </trkpt>
      <trkpt lat="47.17232" lon="5.64685">
        <ele>215</ele>
        <time>2011-03-18T14:11:00Z</time>
      </trkpt>
      <trkpt lat="47.17219" lon="5.64674">
        <ele>215</ele>
        <time>2011-03-18T14:11:02Z</time>
      </trkpt>
      <trkpt lat="47.17208" lon="5.64659">
        <ele>215</ele>
        <time>2011-03-18T14:11:04Z</time>
      </trkpt>
      <trkpt lat="47.17199" lon="5.64642">
        <ele>209</ele>
        <time>2011-03-18T14:11:06Z</time>
      </trkpt>
      <trkpt lat="47.17193" lon="5.6462">
        <ele>209</ele>
        <time>2011-03-18T14:11:08Z</time>
      </trkpt>
      <trkpt lat="47.17188" lon="5.64598">
        <ele>209</ele>
        <time>2011-03-18T14:11:10Z</time>
      </trkpt>
      <trkpt lat="47.17183" lon="5.64577">
        <ele>209</ele>
        <time>2011-03-18T14:11:12Z</time>
      </trkpt>
      <trkpt lat="47.1718" lon="5.64554">
        <ele>209</ele>
        <time>2011-03-18T14:11:14Z</time>
      </trkpt>
      <trkpt lat="47.17177" lon="5.64532">
        <ele>209</ele>
        <time>2011-03-18T14:11:16Z</time>
      </trkpt>
      <trkpt lat="47.17175" lon="5.64509">
        <ele>209</ele>
        <time>2011-03-18T14:11:18Z</time>
      </trkpt>
      <trkpt lat="47.17171" lon="5.64488">
        <ele>209</ele>
        <time>2011-03-18T14:11:20Z</time>
      </trkpt>
      <trkpt lat="47.17166" lon="5.64468">
        <ele>209</ele>
        <time>2011-03-18T14:11:22Z</time>
      </trkpt>
      <trkpt lat="47.1716" lon="5.64449">
        <ele>209</ele>
        <time>2011-03-18T14:11:24Z</time>
      </trkpt>
      <trkpt lat="47.17153" lon="5.64431">
        <ele>209</ele>
        <time>2011-03-18T14:11:26Z</time>
      </trkpt>
      <trkpt lat="47.17149" lon="5.64412">
        <ele>209</ele>
        <time>2011-03-18T14:11:28Z</time>
      </trkpt>
      <trkpt lat="47.17143" lon="5.64394">
        <ele>209</ele>
        <time>2011-03-18T14:11:30Z</time>
      </trkpt>
      <trkpt lat="47.17137" lon="5.64375">
        <ele>209</ele>
        <time>2011-03-18T14:11:32Z</time>
      </trkpt>
      <trkpt lat="47.17133" lon="5.64358">
        <ele>209</ele>
        <time>2011-03-18T14:11:34Z</time>
      </trkpt>
      <trkpt lat="47.17127" lon="5.6434">
        <ele>209</ele>
        <time>2011-03-18T14:11:36Z</time>
      </trkpt>
      <trkpt lat="47.17123" lon="5.64323">
        <ele>209</ele>
        <time>2011-03-18T14:11:38Z</time>
      </trkpt>
      <trkpt lat="47.17118" lon="5.64307">
        <ele>209</ele>
        <time>2011-03-18T14:11:40Z</time>
      </trkpt>
      <trkpt lat="47.17114" lon="5.64292">
        <ele>209</ele>
        <time>2011-03-18T14:11:42Z</time>
      </trkpt>
      <trkpt lat="47.1711" lon="5.64277">
        <ele>209</ele>
        <time>2011-03-18T14:11:44Z</time>
      </trkpt>
      <trkpt lat="47.17106" lon="5.64261">
        <ele>209</ele>
        <time>2011-03-18T14:11:46Z</time>
      </trkpt>
      <trkpt lat="47.17102" lon="5.64245">
        <ele>209</ele>
        <time>2011-03-18T14:11:48Z</time>
      </trkpt>
      <trkpt lat="47.17098" lon="5.6423">
        <ele>209</ele>
        <time>2011-03-18T14:11:50Z</time>
      </trkpt>
      <trkpt lat="47.17094" lon="5.64215">
        <ele>209</ele>
        <time>2011-03-18T14:11:52Z</time>
      </trkpt>
      <trkpt lat="47.1709" lon="5.642">
        <ele>209</ele>
        <time>2011-03-18T14:11:54Z</time>
      </trkpt>
      <trkpt lat="47.17086" lon="5.64185">
        <ele>209</ele>
        <time>2011-03-18T14:11:56Z</time>
      </trkpt>
      <trkpt lat="47.1708" lon="5.64173">
        <ele>209</ele>
        <time>2011-03-18T14:11:58Z</time>
      </trkpt>
      <trkpt lat="47.17074" lon="5.64163">
        <ele>209</ele>
        <time>2011-03-18T14:12:00Z</time>
      </trkpt>
      <trkpt lat="47.17067" lon="5.64152">
        <ele>209</ele>
        <time>2011-03-18T14:12:02Z</time>
      </trkpt>
      <trkpt lat="47.17059" lon="5.64141">
        <ele>209</ele>
        <time>2011-03-18T14:12:04Z</time>
      </trkpt>
      <trkpt lat="47.17051" lon="5.64133">
        <ele>209</ele>
        <time>2011-03-18T14:12:06Z</time>
      </trkpt>
      <trkpt lat="47.1704" lon="5.64124">
        <ele>209</ele>
        <time>2011-03-18T14:12:09Z</time>
      </trkpt>
      <trkpt lat="47.1703" lon="5.64117">
        <ele>209</ele>
        <time>2011-03-18T14:12:13Z</time>
      </trkpt>
      <trkpt lat="47.17022" lon="5.64108">
        <ele>214</ele>
        <time>2011-03-18T14:12:18Z</time>
      </trkpt>
      <trkpt lat="47.17012" lon="5.641">
        <ele>214</ele>
        <time>2011-03-18T14:12:23Z</time>
      </trkpt>
      <trkpt lat="47.17004" lon="5.64092">
        <ele>214</ele>
        <time>2011-03-18T14:12:26Z</time>
      </trkpt>
      <trkpt lat="47.16996" lon="5.64084">
        <ele>214</ele>
        <time>2011-03-18T14:12:29Z</time>
      </trkpt>
      <trkpt lat="47.16987" lon="5.64078">
        <ele>214</ele>
        <time>2011-03-18T14:12:34Z</time>
      </trkpt>
      <trkpt lat="47.16981" lon="5.64068">
        <ele>228</ele>
        <time>2011-03-18T14:13:04Z</time>
      </trkpt>
      <trkpt lat="47.16972" lon="5.64065">
        <ele>228</ele>
        <time>2011-03-18T14:16:06Z</time>
      </trkpt>
      <trkpt lat="47.16981" lon="5.64062">
        <ele>228</ele>
        <time>2011-03-18T14:16:42Z</time>
      </trkpt>
      <trkpt lat="47.16972" lon="5.64061">
        <ele>240</ele>
        <time>2011-03-18T14:17:05Z</time>
      </trkpt>
      <trkpt lat="47.16981" lon="5.64064">
        <ele>224</ele>
        <time>2011-03-18T14:18:01Z</time>
      </trkpt>
      <trkpt lat="47.16973" lon="5.64058">
        <ele>240</ele>
        <time>2011-03-18T14:20:01Z</time>
      </trkpt>
      <trkpt lat="47.16974" lon="5.64071">
        <ele>231</ele>
        <time>2011-03-18T14:20:38Z</time>
      </trkpt>
      <trkpt lat="47.16978" lon="5.64084">
        <ele>221</ele>
        <time>2011-03-18T14:22:04Z</time>
      </trkpt>
      <trkpt lat="47.16984" lon="5.64073">
        <ele>232</ele>
        <time>2011-03-18T14:23:06Z</time>
      </trkpt>
      <trkpt lat="47.16978" lon="5.64063">
        <ele>232</ele>
        <time>2011-03-18T14:24:00Z</time>
      </trkpt>
      <trkpt lat="47.1697" lon="5.64053">
        <ele>232</ele>
        <time>2011-03-18T14:24:11Z</time>
      </trkpt>
      <trkpt lat="47.16962" lon="5.64043">
        <ele>232</ele>
        <time>2011-03-18T14:24:15Z</time>
      </trkpt>
      <trkpt lat="47.16953" lon="5.64033">
        <ele>232</ele>
        <time>2011-03-18T14:24:19Z</time>
      </trkpt>
      <trkpt lat="47.16946" lon="5.64023">
        <ele>225</ele>
        <time>2011-03-18T14:24:23Z</time>
      </trkpt>
      <trkpt lat="47.16938" lon="5.64015">
        <ele>225</ele>
        <time>2011-03-18T14:24:26Z</time>
      </trkpt>
      <trkpt lat="47.16932" lon="5.64006">
        <ele>225</ele>
        <time>2011-03-18T14:24:29Z</time>
      </trkpt>
      <trkpt lat="47.16926" lon="5.63996">
        <ele>225</ele>
        <time>2011-03-18T14:24:32Z</time>
      </trkpt>
      <trkpt lat="47.16921" lon="5.63982">
        <ele>219</ele>
        <time>2011-03-18T14:24:35Z</time>
      </trkpt>
      <trkpt lat="47.16914" lon="5.63969">
        <ele>219</ele>
        <time>2011-03-18T14:24:38Z</time>
      </trkpt>
      <trkpt lat="47.16908" lon="5.63956">
        <ele>219</ele>
        <time>2011-03-18T14:24:41Z</time>
      </trkpt>
      <trkpt lat="47.16904" lon="5.63942">
        <ele>219</ele>
        <time>2011-03-18T14:24:44Z</time>
      </trkpt>
      <trkpt lat="47.169" lon="5.63927">
        <ele>219</ele>
        <time>2011-03-18T14:24:47Z</time>
      </trkpt>
      <trkpt lat="47.16897" lon="5.63913">
        <ele>219</ele>
        <time>2011-03-18T14:24:50Z</time>
      </trkpt>
      <trkpt lat="47.16894" lon="5.639">
        <ele>219</ele>
        <time>2011-03-18T14:24:53Z</time>
      </trkpt>
      <trkpt lat="47.16892" lon="5.63885">
        <ele>219</ele>
        <time>2011-03-18T14:24:56Z</time>
      </trkpt>
      <trkpt lat="47.16891" lon="5.6387">
        <ele>219</ele>
        <time>2011-03-18T14:24:59Z</time>
      </trkpt>
      <trkpt lat="47.16887" lon="5.63854">
        <ele>219</ele>
        <time>2011-03-18T14:25:02Z</time>
      </trkpt>
      <trkpt lat="47.16883" lon="5.63838">
        <ele>219</ele>
        <time>2011-03-18T14:25:05Z</time>
      </trkpt>
      <trkpt lat="47.16881" lon="5.63826">
        <ele>219</ele>
        <time>2011-03-18T14:25:07Z</time>
      </trkpt>
      <trkpt lat="47.16876" lon="5.63808">
        <ele>219</ele>
        <time>2011-03-18T14:25:10Z</time>
      </trkpt>
      <trkpt lat="47.16872" lon="5.63796">
        <ele>219</ele>
        <time>2011-03-18T14:25:12Z</time>
      </trkpt>
      <trkpt lat="47.16862" lon="5.63782">
        <ele>219</ele>
        <time>2011-03-18T14:25:15Z</time>
      </trkpt>
      <trkpt lat="47.16854" lon="5.63776">
        <ele>219</ele>
        <time>2011-03-18T14:25:17Z</time>
      </trkpt>
      <trkpt lat="47.16845" lon="5.63771">
        <ele>219</ele>
        <time>2011-03-18T14:25:19Z</time>
      </trkpt>
      <trkpt lat="47.16833" lon="5.63764">
        <ele>219</ele>
        <time>2011-03-18T14:25:22Z</time>
      </trkpt>
      <trkpt lat="47.16824" lon="5.63759">
        <ele>219</ele>
        <time>2011-03-18T14:25:24Z</time>
      </trkpt>
      <trkpt lat="47.16816" lon="5.63755">
        <ele>224</ele>
        <time>2011-03-18T14:25:26Z</time>
      </trkpt>
      <trkpt lat="47.16804" lon="5.63748">
        <ele>224</ele>
        <time>2011-03-18T14:25:29Z</time>
      </trkpt>
      <trkpt lat="47.16791" lon="5.63741">
        <ele>224</ele>
        <time>2011-03-18T14:25:32Z</time>
      </trkpt>
      <trkpt lat="47.16783" lon="5.63735">
        <ele>224</ele>
        <time>2011-03-18T14:25:34Z</time>
      </trkpt>
      <trkpt lat="47.16774" lon="5.63729">
        <ele>224</ele>
        <time>2011-03-18T14:25:36Z</time>
      </trkpt>
      <trkpt lat="47.16766" lon="5.63721">
        <ele>224</ele>
        <time>2011-03-18T14:25:38Z</time>
      </trkpt>
      <trkpt lat="47.16758" lon="5.63711">
        <ele>224</ele>
        <time>2011-03-18T14:25:40Z</time>
      </trkpt>
      <trkpt lat="47.16749" lon="5.63701">
        <ele>224</ele>
        <time>2011-03-18T14:25:42Z</time>
      </trkpt>
      <trkpt lat="47.16741" lon="5.63689">
        <ele>224</ele>
        <time>2011-03-18T14:25:44Z</time>
      </trkpt>
      <trkpt lat="47.16731" lon="5.63679">
        <ele>224</ele>
        <time>2011-03-18T14:25:46Z</time>
      </trkpt>
      <trkpt lat="47.16722" lon="5.63667">
        <ele>224</ele>
        <time>2011-03-18T14:25:48Z</time>
      </trkpt>
      <trkpt lat="47.16712" lon="5.63655">
        <ele>224</ele>
        <time>2011-03-18T14:25:50Z</time>
      </trkpt>
      <trkpt lat="47.16703" lon="5.63644">
        <ele>224</ele>
        <time>2011-03-18T14:25:52Z</time>
      </trkpt>
      <trkpt lat="47.16694" lon="5.63634">
        <ele>224</ele>
        <time>2011-03-18T14:25:54Z</time>
      </trkpt>
      <trkpt lat="47.16685" lon="5.63625">
        <ele>224</ele>
        <time>2011-03-18T14:25:56Z</time>
      </trkpt>
      <trkpt lat="47.16675" lon="5.63617">
        <ele>224</ele>
        <time>2011-03-18T14:25:58Z</time>
      </trkpt>
      <trkpt lat="47.16666" lon="5.6361">
        <ele>224</ele>
        <time>2011-03-18T14:26:00Z</time>
      </trkpt>
      <trkpt lat="47.16657" lon="5.63605">
        <ele>224</ele>
        <time>2011-03-18T14:26:02Z</time>
      </trkpt>
      <trkpt lat="47.16647" lon="5.636">
        <ele>224</ele>
        <time>2011-03-18T14:26:04Z</time>
      </trkpt>
      <trkpt lat="47.16639" lon="5.63597">
        <ele>224</ele>
        <time>2011-03-18T14:26:06Z</time>
      </trkpt>
      <trkpt lat="47.1663" lon="5.63592">
        <ele>224</ele>
        <time>2011-03-18T14:26:08Z</time>
      </trkpt>
      <trkpt lat="47.16618" lon="5.63588">
        <ele>224</ele>
        <time>2011-03-18T14:26:11Z</time>
      </trkpt>
      <trkpt lat="47.16606" lon="5.63582">
        <ele>224</ele>
        <time>2011-03-18T14:26:14Z</time>
      </trkpt>
      <trkpt lat="47.16597" lon="5.63579">
        <ele>224</ele>
        <time>2011-03-18T14:26:16Z</time>
      </trkpt>
      <trkpt lat="47.16589" lon="5.63575">
        <ele>224</ele>
        <time>2011-03-18T14:26:18Z</time>
      </trkpt>
      <trkpt lat="47.1658" lon="5.63572">
        <ele>224</ele>
        <time>2011-03-18T14:26:20Z</time>
      </trkpt>
      <trkpt lat="47.16571" lon="5.63567">
        <ele>224</ele>
        <time>2011-03-18T14:26:22Z</time>
      </trkpt>
      <trkpt lat="47.16562" lon="5.63564">
        <ele>224</ele>
        <time>2011-03-18T14:26:24Z</time>
      </trkpt>
      <trkpt lat="47.16552" lon="5.6356">
        <ele>224</ele>
        <time>2011-03-18T14:26:26Z</time>
      </trkpt>
      <trkpt lat="47.16543" lon="5.63555">
        <ele>224</ele>
        <time>2011-03-18T14:26:28Z</time>
      </trkpt>
      <trkpt lat="47.16533" lon="5.63551">
        <ele>224</ele>
        <time>2011-03-18T14:26:30Z</time>
      </trkpt>
      <trkpt lat="47.16522" lon="5.63544">
        <ele>224</ele>
        <time>2011-03-18T14:26:32Z</time>
      </trkpt>
      <trkpt lat="47.16511" lon="5.63536">
        <ele>224</ele>
        <time>2011-03-18T14:26:34Z</time>
      </trkpt>
      <trkpt lat="47.16501" lon="5.63524">
        <ele>224</ele>
        <time>2011-03-18T14:26:36Z</time>
      </trkpt>
      <trkpt lat="47.16492" lon="5.63509">
        <ele>224</ele>
        <time>2011-03-18T14:26:38Z</time>
      </trkpt>
      <trkpt lat="47.16484" lon="5.6349">
        <ele>224</ele>
        <time>2011-03-18T14:26:40Z</time>
      </trkpt>
      <trkpt lat="47.16476" lon="5.63468">
        <ele>224</ele>
        <time>2011-03-18T14:26:42Z</time>
      </trkpt>
      <trkpt lat="47.16468" lon="5.63446">
        <ele>224</ele>
        <time>2011-03-18T14:26:44Z</time>
      </trkpt>
      <trkpt lat="47.16464" lon="5.63433">
        <ele>224</ele>
        <time>2011-03-18T14:26:45Z</time>
      </trkpt>
      <trkpt lat="47.16459" lon="5.63422">
        <ele>224</ele>
        <time>2011-03-18T14:26:46Z</time>
      </trkpt>
      <trkpt lat="47.16455" lon="5.6341">
        <ele>224</ele>
        <time>2011-03-18T14:26:47Z</time>
      </trkpt>
      <trkpt lat="47.16451" lon="5.63398">
        <ele>224</ele>
        <time>2011-03-18T14:26:48Z</time>
      </trkpt>
      <trkpt lat="47.1644" lon="5.63378">
        <ele>224</ele>
        <time>2011-03-18T14:26:50Z</time>
      </trkpt>
      <trkpt lat="47.16427" lon="5.63361">
        <ele>224</ele>
        <time>2011-03-18T14:26:52Z</time>
      </trkpt>
      <trkpt lat="47.16416" lon="5.63347">
        <ele>224</ele>
        <time>2011-03-18T14:26:54Z</time>
      </trkpt>
      <trkpt lat="47.16405" lon="5.63336">
        <ele>224</ele>
        <time>2011-03-18T14:26:56Z</time>
      </trkpt>
      <trkpt lat="47.16394" lon="5.63325">
        <ele>224</ele>
        <time>2011-03-18T14:26:58Z</time>
      </trkpt>
      <trkpt lat="47.16383" lon="5.63314">
        <ele>224</ele>
        <time>2011-03-18T14:27:00Z</time>
      </trkpt>
      <trkpt lat="47.16372" lon="5.63302">
        <ele>224</ele>
        <time>2011-03-18T14:27:02Z</time>
      </trkpt>
      <trkpt lat="47.16361" lon="5.63289">
        <ele>224</ele>
        <time>2011-03-18T14:27:04Z</time>
      </trkpt>
      <trkpt lat="47.16351" lon="5.63272">
        <ele>224</ele>
        <time>2011-03-18T14:27:06Z</time>
      </trkpt>
      <trkpt lat="47.1634" lon="5.63254">
        <ele>224</ele>
        <time>2011-03-18T14:27:08Z</time>
      </trkpt>
      <trkpt lat="47.1633" lon="5.63233">
        <ele>219</ele>
        <time>2011-03-18T14:27:10Z</time>
      </trkpt>
      <trkpt lat="47.1632" lon="5.63214">
        <ele>219</ele>
        <time>2011-03-18T14:27:12Z</time>
      </trkpt>
      <trkpt lat="47.1631" lon="5.63198">
        <ele>219</ele>
        <time>2011-03-18T14:27:14Z</time>
      </trkpt>
      <trkpt lat="47.16299" lon="5.63184">
        <ele>219</ele>
        <time>2011-03-18T14:27:16Z</time>
      </trkpt>
      <trkpt lat="47.16287" lon="5.63174">
        <ele>219</ele>
        <time>2011-03-18T14:27:18Z</time>
      </trkpt>
      <trkpt lat="47.16274" lon="5.63166">
        <ele>219</ele>
        <time>2011-03-18T14:27:20Z</time>
      </trkpt>
      <trkpt lat="47.16262" lon="5.63157">
        <ele>219</ele>
        <time>2011-03-18T14:27:22Z</time>
      </trkpt>
      <trkpt lat="47.1625" lon="5.63149">
        <ele>219</ele>
        <time>2011-03-18T14:27:24Z</time>
      </trkpt>
      <trkpt lat="47.16238" lon="5.63141">
        <ele>219</ele>
        <time>2011-03-18T14:27:26Z</time>
      </trkpt>
      <trkpt lat="47.16227" lon="5.63132">
        <ele>219</ele>
        <time>2011-03-18T14:27:28Z</time>
      </trkpt>
      <trkpt lat="47.16218" lon="5.63123">
        <ele>219</ele>
        <time>2011-03-18T14:27:30Z</time>
      </trkpt>
      <trkpt lat="47.16209" lon="5.63114">
        <ele>219</ele>
        <time>2011-03-18T14:27:32Z</time>
      </trkpt>
      <trkpt lat="47.162" lon="5.63105">
        <ele>219</ele>
        <time>2011-03-18T14:27:34Z</time>
      </trkpt>
      <trkpt lat="47.16192" lon="5.63096">
        <ele>219</ele>
        <time>2011-03-18T14:27:36Z</time>
      </trkpt>
      <trkpt lat="47.16184" lon="5.63087">
        <ele>219</ele>
        <time>2011-03-18T14:27:38Z</time>
      </trkpt>
      <trkpt lat="47.16176" lon="5.63078">
        <ele>224</ele>
        <time>2011-03-18T14:27:40Z</time>
      </trkpt>
      <trkpt lat="47.16168" lon="5.63069">
        <ele>224</ele>
        <time>2011-03-18T14:27:42Z</time>
      </trkpt>
      <trkpt lat="47.16159" lon="5.63061">
        <ele>224</ele>
        <time>2011-03-18T14:27:44Z</time>
      </trkpt>
      <trkpt lat="47.16151" lon="5.63053">
        <ele>224</ele>
        <time>2011-03-18T14:27:46Z</time>
      </trkpt>
      <trkpt lat="47.16143" lon="5.63045">
        <ele>224</ele>
        <time>2011-03-18T14:27:48Z</time>
      </trkpt>
      <trkpt lat="47.16134" lon="5.63038">
        <ele>224</ele>
        <time>2011-03-18T14:27:50Z</time>
      </trkpt>
      <trkpt lat="47.16125" lon="5.63032">
        <ele>224</ele>
        <time>2011-03-18T14:27:52Z</time>
      </trkpt>
      <trkpt lat="47.16116" lon="5.63025">
        <ele>224</ele>
        <time>2011-03-18T14:27:54Z</time>
      </trkpt>
      <trkpt lat="47.16107" lon="5.63018">
        <ele>224</ele>
        <time>2011-03-18T14:27:56Z</time>
      </trkpt>
      <trkpt lat="47.16098" lon="5.6301">
        <ele>224</ele>
        <time>2011-03-18T14:27:58Z</time>
      </trkpt>
      <trkpt lat="47.16089" lon="5.63003">
        <ele>224</ele>
        <time>2011-03-18T14:28:00Z</time>
      </trkpt>
      <trkpt lat="47.16081" lon="5.62996">
        <ele>224</ele>
        <time>2011-03-18T14:28:02Z</time>
      </trkpt>
      <trkpt lat="47.16071" lon="5.62988">
        <ele>224</ele>
        <time>2011-03-18T14:28:04Z</time>
      </trkpt>
      <trkpt lat="47.16062" lon="5.6298">
        <ele>224</ele>
        <time>2011-03-18T14:28:06Z</time>
      </trkpt>
      <trkpt lat="47.16052" lon="5.62973">
        <ele>224</ele>
        <time>2011-03-18T14:28:08Z</time>
      </trkpt>
      <trkpt lat="47.16043" lon="5.62967">
        <ele>224</ele>
        <time>2011-03-18T14:28:10Z</time>
      </trkpt>
      <trkpt lat="47.16033" lon="5.62961">
        <ele>224</ele>
        <time>2011-03-18T14:28:12Z</time>
      </trkpt>
      <trkpt lat="47.16023" lon="5.62954">
        <ele>224</ele>
        <time>2011-03-18T14:28:14Z</time>
      </trkpt>
      <trkpt lat="47.16013" lon="5.62948">
        <ele>224</ele>
        <time>2011-03-18T14:28:16Z</time>
      </trkpt>
      <trkpt lat="47.16003" lon="5.62942">
        <ele>224</ele>
        <time>2011-03-18T14:28:18Z</time>
      </trkpt>
      <trkpt lat="47.15994" lon="5.62936">
        <ele>224</ele>
        <time>2011-03-18T14:28:20Z</time>
      </trkpt>
      <trkpt lat="47.15984" lon="5.6293">
        <ele>224</ele>
        <time>2011-03-18T14:28:22Z</time>
      </trkpt>
      <trkpt lat="47.15975" lon="5.62925">
        <ele>224</ele>
        <time>2011-03-18T14:28:24Z</time>
      </trkpt>
      <trkpt lat="47.15966" lon="5.62919">
        <ele>224</ele>
        <time>2011-03-18T14:28:26Z</time>
      </trkpt>
      <trkpt lat="47.15958" lon="5.62915">
        <ele>224</ele>
        <time>2011-03-18T14:28:28Z</time>
      </trkpt>
      <trkpt lat="47.15945" lon="5.6291">
        <ele>230</ele>
        <time>2011-03-18T14:28:31Z</time>
      </trkpt>
      <trkpt lat="47.15933" lon="5.62908">
        <ele>230</ele>
        <time>2011-03-18T14:28:34Z</time>
      </trkpt>
      <trkpt lat="47.15921" lon="5.62906">
        <ele>230</ele>
        <time>2011-03-18T14:28:37Z</time>
      </trkpt>
      <trkpt lat="47.15908" lon="5.62905">
        <ele>230</ele>
        <time>2011-03-18T14:28:40Z</time>
      </trkpt>
      <trkpt lat="47.15897" lon="5.62904">
        <ele>230</ele>
        <time>2011-03-18T14:28:43Z</time>
      </trkpt>
      <trkpt lat="47.15886" lon="5.62903">
        <ele>230</ele>
        <time>2011-03-18T14:28:46Z</time>
      </trkpt>
      <trkpt lat="47.15877" lon="5.62901">
        <ele>230</ele>
        <time>2011-03-18T14:28:49Z</time>
      </trkpt>
      <trkpt lat="47.15867" lon="5.62901">
        <ele>230</ele>
        <time>2011-03-18T14:28:52Z</time>
      </trkpt>
      <trkpt lat="47.15858" lon="5.62901">
        <ele>230</ele>
        <time>2011-03-18T14:28:55Z</time>
      </trkpt>
      <trkpt lat="47.15847" lon="5.62899">
        <ele>230</ele>
        <time>2011-03-18T14:28:58Z</time>
      </trkpt>
      <trkpt lat="47.15834" lon="5.62897">
        <ele>230</ele>
        <time>2011-03-18T14:29:01Z</time>
      </trkpt>
      <trkpt lat="47.15824" lon="5.62894">
        <ele>230</ele>
        <time>2011-03-18T14:29:03Z</time>
      </trkpt>
      <trkpt lat="47.15813" lon="5.62892">
        <ele>230</ele>
        <time>2011-03-18T14:29:05Z</time>
      </trkpt>
      <trkpt lat="47.15801" lon="5.62891">
        <ele>230</ele>
        <time>2011-03-18T14:29:07Z</time>
      </trkpt>
      <trkpt lat="47.15789" lon="5.62889">
        <ele>230</ele>
        <time>2011-03-18T14:29:09Z</time>
      </trkpt>
      <trkpt lat="47.15777" lon="5.62886">
        <ele>230</ele>
        <time>2011-03-18T14:29:11Z</time>
      </trkpt>
      <trkpt lat="47.15765" lon="5.62883">
        <ele>230</ele>
        <time>2011-03-18T14:29:13Z</time>
      </trkpt>
      <trkpt lat="47.15753" lon="5.62878">
        <ele>230</ele>
        <time>2011-03-18T14:29:15Z</time>
      </trkpt>
      <trkpt lat="47.15741" lon="5.6287">
        <ele>230</ele>
        <time>2011-03-18T14:29:17Z</time>
      </trkpt>
      <trkpt lat="47.15731" lon="5.62859">
        <ele>230</ele>
        <time>2011-03-18T14:29:19Z</time>
      </trkpt>
      <trkpt lat="47.15721" lon="5.62848">
        <ele>230</ele>
        <time>2011-03-18T14:29:21Z</time>
      </trkpt>
      <trkpt lat="47.15712" lon="5.62836">
        <ele>230</ele>
        <time>2011-03-18T14:29:23Z</time>
      </trkpt>
      <trkpt lat="47.15703" lon="5.62823">
        <ele>230</ele>
        <time>2011-03-18T14:29:25Z</time>
      </trkpt>
      <trkpt lat="47.15695" lon="5.62812">
        <ele>225</ele>
        <time>2011-03-18T14:29:27Z</time>
      </trkpt>
      <trkpt lat="47.15685" lon="5.62802">
        <ele>225</ele>
        <time>2011-03-18T14:29:29Z</time>
      </trkpt>
      <trkpt lat="47.15677" lon="5.62791">
        <ele>225</ele>
        <time>2011-03-18T14:29:31Z</time>
      </trkpt>
      <trkpt lat="47.15669" lon="5.6278">
        <ele>225</ele>
        <time>2011-03-18T14:29:33Z</time>
      </trkpt>
      <trkpt lat="47.15661" lon="5.62771">
        <ele>225</ele>
        <time>2011-03-18T14:29:35Z</time>
      </trkpt>
      <trkpt lat="47.15654" lon="5.62761">
        <ele>225</ele>
        <time>2011-03-18T14:29:37Z</time>
      </trkpt>
      <trkpt lat="47.15646" lon="5.62751">
        <ele>225</ele>
        <time>2011-03-18T14:29:39Z</time>
      </trkpt>
      <trkpt lat="47.15638" lon="5.6274">
        <ele>225</ele>
        <time>2011-03-18T14:29:41Z</time>
      </trkpt>
      <trkpt lat="47.15633" lon="5.62728">
        <ele>225</ele>
        <time>2011-03-18T14:29:43Z</time>
      </trkpt>
      <trkpt lat="47.15629" lon="5.62716">
        <ele>225</ele>
        <time>2011-03-18T14:29:45Z</time>
      </trkpt>
      <trkpt lat="47.15624" lon="5.62705">
        <ele>225</ele>
        <time>2011-03-18T14:29:47Z</time>
      </trkpt>
      <trkpt lat="47.15617" lon="5.62694">
        <ele>225</ele>
        <time>2011-03-18T14:29:49Z</time>
      </trkpt>
      <trkpt lat="47.1561" lon="5.62684">
        <ele>225</ele>
        <time>2011-03-18T14:29:51Z</time>
      </trkpt>
      <trkpt lat="47.15603" lon="5.62675">
        <ele>225</ele>
        <time>2011-03-18T14:29:53Z</time>
      </trkpt>
      <trkpt lat="47.15595" lon="5.62667">
        <ele>225</ele>
        <time>2011-03-18T14:29:55Z</time>
      </trkpt>
      <trkpt lat="47.15587" lon="5.62657">
        <ele>225</ele>
        <time>2011-03-18T14:29:58Z</time>
      </trkpt>
      <trkpt lat="47.15581" lon="5.62647">
        <ele>225</ele>
        <time>2011-03-18T14:30:04Z</time>
      </trkpt>
      <trkpt lat="47.15587" lon="5.62636">
        <ele>234</ele>
        <time>2011-03-18T14:30:56Z</time>
      </trkpt>
      <trkpt lat="47.15594" lon="5.62622">
        <ele>234</ele>
        <time>2011-03-18T14:31:00Z</time>
      </trkpt>
      <trkpt lat="47.15598" lon="5.6261">
        <ele>234</ele>
        <time>2011-03-18T14:31:03Z</time>
      </trkpt>
      <trkpt lat="47.15603" lon="5.62598">
        <ele>234</ele>
        <time>2011-03-18T14:31:06Z</time>
      </trkpt>
      <trkpt lat="47.15611" lon="5.62587">
        <ele>229</ele>
        <time>2011-03-18T14:31:09Z</time>
      </trkpt>
      <trkpt lat="47.15619" lon="5.62573">
        <ele>229</ele>
        <time>2011-03-18T14:31:12Z</time>
      </trkpt>
      <trkpt lat="47.15624" lon="5.62561">
        <ele>229</ele>
        <time>2011-03-18T14:31:14Z</time>
      </trkpt>
      <trkpt lat="47.15629" lon="5.62548">
        <ele>229</ele>
        <time>2011-03-18T14:31:16Z</time>
      </trkpt>
      <trkpt lat="47.15636" lon="5.62536">
        <ele>229</ele>
        <time>2011-03-18T14:31:18Z</time>
      </trkpt>
      <trkpt lat="47.15644" lon="5.62521">
        <ele>229</ele>
        <time>2011-03-18T14:31:20Z</time>
      </trkpt>
      <trkpt lat="47.1565" lon="5.62502">
        <ele>223</ele>
        <time>2011-03-18T14:31:22Z</time>
      </trkpt>
      <trkpt lat="47.15655" lon="5.62483">
        <ele>223</ele>
        <time>2011-03-18T14:31:24Z</time>
      </trkpt>
      <trkpt lat="47.1566" lon="5.62461">
        <ele>223</ele>
        <time>2011-03-18T14:31:26Z</time>
      </trkpt>
      <trkpt lat="47.15665" lon="5.6244">
        <ele>223</ele>
        <time>2011-03-18T14:31:28Z</time>
      </trkpt>
      <trkpt lat="47.1567" lon="5.62419">
        <ele>217</ele>
        <time>2011-03-18T14:31:30Z</time>
      </trkpt>
      <trkpt lat="47.15674" lon="5.62399">
        <ele>217</ele>
        <time>2011-03-18T14:31:32Z</time>
      </trkpt>
      <trkpt lat="47.15679" lon="5.6238">
        <ele>217</ele>
        <time>2011-03-18T14:31:34Z</time>
      </trkpt>
      <trkpt lat="47.15684" lon="5.62362">
        <ele>217</ele>
        <time>2011-03-18T14:31:36Z</time>
      </trkpt>
      <trkpt lat="47.15687" lon="5.62345">
        <ele>217</ele>
        <time>2011-03-18T14:31:38Z</time>
      </trkpt>
      <trkpt lat="47.15691" lon="5.62328">
        <ele>217</ele>
        <time>2011-03-18T14:31:40Z</time>
      </trkpt>
      <trkpt lat="47.15695" lon="5.62313">
        <ele>217</ele>
        <time>2011-03-18T14:31:42Z</time>
      </trkpt>
      <trkpt lat="47.15698" lon="5.62297">
        <ele>217</ele>
        <time>2011-03-18T14:31:44Z</time>
      </trkpt>
      <trkpt lat="47.15701" lon="5.62282">
        <ele>217</ele>
        <time>2011-03-18T14:31:46Z</time>
      </trkpt>
      <trkpt lat="47.15704" lon="5.62266">
        <ele>217</ele>
        <time>2011-03-18T14:31:48Z</time>
      </trkpt>
      <trkpt lat="47.15706" lon="5.62253">
        <ele>217</ele>
        <time>2011-03-18T14:31:50Z</time>
      </trkpt>
      <trkpt lat="47.15708" lon="5.62239">
        <ele>217</ele>
        <time>2011-03-18T14:31:52Z</time>
      </trkpt>
      <trkpt lat="47.15708" lon="5.62225">
        <ele>217</ele>
        <time>2011-03-18T14:31:54Z</time>
      </trkpt>
      <trkpt lat="47.15708" lon="5.62212">
        <ele>217</ele>
        <time>2011-03-18T14:31:56Z</time>
      </trkpt>
      <trkpt lat="47.15705" lon="5.62192">
        <ele>217</ele>
        <time>2011-03-18T14:31:59Z</time>
      </trkpt>
      <trkpt lat="47.15703" lon="5.62179">
        <ele>217</ele>
        <time>2011-03-18T14:32:01Z</time>
      </trkpt>
      <trkpt lat="47.15698" lon="5.62162">
        <ele>217</ele>
        <time>2011-03-18T14:32:04Z</time>
      </trkpt>
      <trkpt lat="47.15693" lon="5.62145">
        <ele>217</ele>
        <time>2011-03-18T14:32:07Z</time>
      </trkpt>
      <trkpt lat="47.15688" lon="5.62129">
        <ele>217</ele>
        <time>2011-03-18T14:32:10Z</time>
      </trkpt>
      <trkpt lat="47.15683" lon="5.62113">
        <ele>217</ele>
        <time>2011-03-18T14:32:13Z</time>
      </trkpt>
      <trkpt lat="47.15676" lon="5.62097">
        <ele>217</ele>
        <time>2011-03-18T14:32:16Z</time>
      </trkpt>
      <trkpt lat="47.1567" lon="5.62083">
        <ele>217</ele>
        <time>2011-03-18T14:32:19Z</time>
      </trkpt>
      <trkpt lat="47.15665" lon="5.62069">
        <ele>223</ele>
        <time>2011-03-18T14:32:22Z</time>
      </trkpt>
      <trkpt lat="47.15659" lon="5.62053">
        <ele>223</ele>
        <time>2011-03-18T14:32:25Z</time>
      </trkpt>
      <trkpt lat="47.15654" lon="5.62038">
        <ele>223</ele>
        <time>2011-03-18T14:32:28Z</time>
      </trkpt>
      <trkpt lat="47.15649" lon="5.62023">
        <ele>223</ele>
        <time>2011-03-18T14:32:31Z</time>
      </trkpt>
      <trkpt lat="47.15644" lon="5.62009">
        <ele>223</ele>
        <time>2011-03-18T14:32:34Z</time>
      </trkpt>
      <trkpt lat="47.15638" lon="5.61994">
        <ele>223</ele>
        <time>2011-03-18T14:32:37Z</time>
      </trkpt>
      <trkpt lat="47.15633" lon="5.61979">
        <ele>223</ele>
        <time>2011-03-18T14:32:40Z</time>
      </trkpt>
      <trkpt lat="47.15628" lon="5.61964">
        <ele>223</ele>
        <time>2011-03-18T14:32:43Z</time>
      </trkpt>
      <trkpt lat="47.15622" lon="5.61949">
        <ele>223</ele>
        <time>2011-03-18T14:32:46Z</time>
      </trkpt>
      <trkpt lat="47.15617" lon="5.61935">
        <ele>223</ele>
        <time>2011-03-18T14:32:49Z</time>
      </trkpt>
      <trkpt lat="47.15613" lon="5.61921">
        <ele>223</ele>
        <time>2011-03-18T14:32:52Z</time>
      </trkpt>
      <trkpt lat="47.15608" lon="5.61905">
        <ele>223</ele>
        <time>2011-03-18T14:32:55Z</time>
      </trkpt>
      <trkpt lat="47.15602" lon="5.61892">
        <ele>223</ele>
        <time>2011-03-18T14:32:58Z</time>
      </trkpt>
      <trkpt lat="47.15597" lon="5.61876">
        <ele>223</ele>
        <time>2011-03-18T14:33:01Z</time>
      </trkpt>
      <trkpt lat="47.15592" lon="5.61863">
        <ele>223</ele>
        <time>2011-03-18T14:33:04Z</time>
      </trkpt>
      <trkpt lat="47.15586" lon="5.61849">
        <ele>223</ele>
        <time>2011-03-18T14:33:07Z</time>
      </trkpt>
      <trkpt lat="47.1558" lon="5.61834">
        <ele>223</ele>
        <time>2011-03-18T14:33:10Z</time>
      </trkpt>
      <trkpt lat="47.15573" lon="5.6182">
        <ele>223</ele>
        <time>2011-03-18T14:33:13Z</time>
      </trkpt>
      <trkpt lat="47.15565" lon="5.61806">
        <ele>229</ele>
        <time>2011-03-18T14:33:16Z</time>
      </trkpt>
      <trkpt lat="47.15556" lon="5.61793">
        <ele>229</ele>
        <time>2011-03-18T14:33:19Z</time>
      </trkpt>
      <trkpt lat="47.15547" lon="5.61779">
        <ele>229</ele>
        <time>2011-03-18T14:33:22Z</time>
      </trkpt>
      <trkpt lat="47.15541" lon="5.6177">
        <ele>229</ele>
        <time>2011-03-18T14:33:24Z</time>
      </trkpt>
      <trkpt lat="47.15532" lon="5.61756">
        <ele>229</ele>
        <time>2011-03-18T14:33:27Z</time>
      </trkpt>
      <trkpt lat="47.15525" lon="5.61746">
        <ele>229</ele>
        <time>2011-03-18T14:33:29Z</time>
      </trkpt>
      <trkpt lat="47.15518" lon="5.61736">
        <ele>229</ele>
        <time>2011-03-18T14:33:31Z</time>
      </trkpt>
      <trkpt lat="47.15511" lon="5.61726">
        <ele>229</ele>
        <time>2011-03-18T14:33:33Z</time>
      </trkpt>
      <trkpt lat="47.15504" lon="5.61717">
        <ele>229</ele>
        <time>2011-03-18T14:33:35Z</time>
      </trkpt>
      <trkpt lat="47.15497" lon="5.61707">
        <ele>229</ele>
        <time>2011-03-18T14:33:37Z</time>
      </trkpt>
      <trkpt lat="47.15491" lon="5.61696">
        <ele>229</ele>
        <time>2011-03-18T14:33:39Z</time>
      </trkpt>
      <trkpt lat="47.15483" lon="5.61686">
        <ele>229</ele>
        <time>2011-03-18T14:33:41Z</time>
      </trkpt>
      <trkpt lat="47.15477" lon="5.61676">
        <ele>229</ele>
        <time>2011-03-18T14:33:43Z</time>
      </trkpt>
      <trkpt lat="47.15469" lon="5.61665">
        <ele>229</ele>
        <time>2011-03-18T14:33:45Z</time>
      </trkpt>
      <trkpt lat="47.15462" lon="5.61655">
        <ele>229</ele>
        <time>2011-03-18T14:33:47Z</time>
      </trkpt>
      <trkpt lat="47.15454" lon="5.61644">
        <ele>229</ele>
        <time>2011-03-18T14:33:49Z</time>
      </trkpt>
      <trkpt lat="47.15448" lon="5.61634">
        <ele>229</ele>
        <time>2011-03-18T14:33:51Z</time>
      </trkpt>
      <trkpt lat="47.15442" lon="5.61624">
        <ele>229</ele>
        <time>2011-03-18T14:33:53Z</time>
      </trkpt>
      <trkpt lat="47.15435" lon="5.61614">
        <ele>229</ele>
        <time>2011-03-18T14:33:55Z</time>
      </trkpt>
      <trkpt lat="47.15426" lon="5.616">
        <ele>229</ele>
        <time>2011-03-18T14:33:58Z</time>
      </trkpt>
      <trkpt lat="47.15417" lon="5.61585">
        <ele>229</ele>
        <time>2011-03-18T14:34:01Z</time>
      </trkpt>
      <trkpt lat="47.15408" lon="5.61571">
        <ele>229</ele>
        <time>2011-03-18T14:34:04Z</time>
      </trkpt>
      <trkpt lat="47.15399" lon="5.61557">
        <ele>229</ele>
        <time>2011-03-18T14:34:07Z</time>
      </trkpt>
      <trkpt lat="47.15393" lon="5.61547">
        <ele>229</ele>
        <time>2011-03-18T14:34:09Z</time>
      </trkpt>
      <trkpt lat="47.15387" lon="5.61537">
        <ele>229</ele>
        <time>2011-03-18T14:34:11Z</time>
      </trkpt>
      <trkpt lat="47.1538" lon="5.61527">
        <ele>229</ele>
        <time>2011-03-18T14:34:13Z</time>
      </trkpt>
      <trkpt lat="47.15374" lon="5.61517">
        <ele>229</ele>
        <time>2011-03-18T14:34:15Z</time>
      </trkpt>
      <trkpt lat="47.15367" lon="5.61507">
        <ele>229</ele>
        <time>2011-03-18T14:34:17Z</time>
      </trkpt>
      <trkpt lat="47.15361" lon="5.61497">
        <ele>229</ele>
        <time>2011-03-18T14:34:19Z</time>
      </trkpt>
      <trkpt lat="47.15352" lon="5.61484">
        <ele>229</ele>
        <time>2011-03-18T14:34:22Z</time>
      </trkpt>
      <trkpt lat="47.15346" lon="5.61474">
        <ele>229</ele>
        <time>2011-03-18T14:34:24Z</time>
      </trkpt>
      <trkpt lat="47.1534" lon="5.61464">
        <ele>229</ele>
        <time>2011-03-18T14:34:26Z</time>
      </trkpt>
      <trkpt lat="47.15334" lon="5.61454">
        <ele>229</ele>
        <time>2011-03-18T14:34:28Z</time>
      </trkpt>
      <trkpt lat="47.15328" lon="5.61444">
        <ele>229</ele>
        <time>2011-03-18T14:34:30Z</time>
      </trkpt>
      <trkpt lat="47.15321" lon="5.61435">
        <ele>229</ele>
        <time>2011-03-18T14:34:32Z</time>
      </trkpt>
      <trkpt lat="47.15315" lon="5.61425">
        <ele>229</ele>
        <time>2011-03-18T14:34:34Z</time>
      </trkpt>
      <trkpt lat="47.15308" lon="5.61415">
        <ele>229</ele>
        <time>2011-03-18T14:34:36Z</time>
      </trkpt>
      <trkpt lat="47.15302" lon="5.61405">
        <ele>229</ele>
        <time>2011-03-18T14:34:38Z</time>
      </trkpt>
      <trkpt lat="47.15295" lon="5.61395">
        <ele>229</ele>
        <time>2011-03-18T14:34:40Z</time>
      </trkpt>
      <trkpt lat="47.15288" lon="5.61384">
        <ele>229</ele>
        <time>2011-03-18T14:34:42Z</time>
      </trkpt>
      <trkpt lat="47.1528" lon="5.61373">
        <ele>229</ele>
        <time>2011-03-18T14:34:44Z</time>
      </trkpt>
      <trkpt lat="47.15272" lon="5.61362">
        <ele>229</ele>
        <time>2011-03-18T14:34:46Z</time>
      </trkpt>
      <trkpt lat="47.15264" lon="5.61349">
        <ele>229</ele>
        <time>2011-03-18T14:34:48Z</time>
      </trkpt>
      <trkpt lat="47.15257" lon="5.61338">
        <ele>229</ele>
        <time>2011-03-18T14:34:50Z</time>
      </trkpt>
      <trkpt lat="47.15249" lon="5.61325">
        <ele>229</ele>
        <time>2011-03-18T14:34:52Z</time>
      </trkpt>
      <trkpt lat="47.15241" lon="5.61311">
        <ele>229</ele>
        <time>2011-03-18T14:34:54Z</time>
      </trkpt>
      <trkpt lat="47.15233" lon="5.61298">
        <ele>229</ele>
        <time>2011-03-18T14:34:56Z</time>
      </trkpt>
      <trkpt lat="47.15225" lon="5.61284">
        <ele>229</ele>
        <time>2011-03-18T14:34:58Z</time>
      </trkpt>
      <trkpt lat="47.15218" lon="5.61268">
        <ele>229</ele>
        <time>2011-03-18T14:35:00Z</time>
      </trkpt>
      <trkpt lat="47.15211" lon="5.61252">
        <ele>224</ele>
        <time>2011-03-18T14:35:02Z</time>
      </trkpt>
      <trkpt lat="47.15206" lon="5.61234">
        <ele>224</ele>
        <time>2011-03-18T14:35:04Z</time>
      </trkpt>
      <trkpt lat="47.15201" lon="5.61217">
        <ele>224</ele>
        <time>2011-03-18T14:35:06Z</time>
      </trkpt>
      <trkpt lat="47.15197" lon="5.61198">
        <ele>224</ele>
        <time>2011-03-18T14:35:08Z</time>
      </trkpt>
      <trkpt lat="47.15194" lon="5.6118">
        <ele>224</ele>
        <time>2011-03-18T14:35:10Z</time>
      </trkpt>
      <trkpt lat="47.15192" lon="5.61162">
        <ele>224</ele>
        <time>2011-03-18T14:35:12Z</time>
      </trkpt>
      <trkpt lat="47.15189" lon="5.61144">
        <ele>224</ele>
        <time>2011-03-18T14:35:14Z</time>
      </trkpt>
      <trkpt lat="47.15187" lon="5.61126">
        <ele>224</ele>
        <time>2011-03-18T14:35:16Z</time>
      </trkpt>
      <trkpt lat="47.15185" lon="5.61107">
        <ele>224</ele>
        <time>2011-03-18T14:35:18Z</time>
      </trkpt>
      <trkpt lat="47.15183" lon="5.61088">
        <ele>224</ele>
        <time>2011-03-18T14:35:20Z</time>
      </trkpt>
      <trkpt lat="47.15181" lon="5.61068">
        <ele>224</ele>
        <time>2011-03-18T14:35:22Z</time>
      </trkpt>
      <trkpt lat="47.15177" lon="5.61051">
        <ele>218</ele>
        <time>2011-03-18T14:35:24Z</time>
      </trkpt>
      <trkpt lat="47.15176" lon="5.61032">
        <ele>218</ele>
        <time>2011-03-18T14:35:26Z</time>
      </trkpt>
      <trkpt lat="47.15179" lon="5.61013">
        <ele>218</ele>
        <time>2011-03-18T14:35:28Z</time>
      </trkpt>
      <trkpt lat="47.15188" lon="5.60996">
        <ele>218</ele>
        <time>2011-03-18T14:35:30Z</time>
      </trkpt>
      <trkpt lat="47.15197" lon="5.60979">
        <ele>218</ele>
        <time>2011-03-18T14:35:32Z</time>
      </trkpt>
      <trkpt lat="47.15206" lon="5.60963">
        <ele>213</ele>
        <time>2011-03-18T14:35:34Z</time>
      </trkpt>
      <trkpt lat="47.15216" lon="5.60947">
        <ele>213</ele>
        <time>2011-03-18T14:35:36Z</time>
      </trkpt>
      <trkpt lat="47.15225" lon="5.60931">
        <ele>213</ele>
        <time>2011-03-18T14:35:38Z</time>
      </trkpt>
      <trkpt lat="47.15236" lon="5.60917">
        <ele>213</ele>
        <time>2011-03-18T14:35:40Z</time>
      </trkpt>
      <trkpt lat="47.15249" lon="5.60903">
        <ele>213</ele>
        <time>2011-03-18T14:35:42Z</time>
      </trkpt>
      <trkpt lat="47.15259" lon="5.60887">
        <ele>213</ele>
        <time>2011-03-18T14:35:44Z</time>
      </trkpt>
      <trkpt lat="47.15266" lon="5.60869">
        <ele>213</ele>
        <time>2011-03-18T14:35:46Z</time>
      </trkpt>
      <trkpt lat="47.15274" lon="5.60852">
        <ele>208</ele>
        <time>2011-03-18T14:35:48Z</time>
      </trkpt>
      <trkpt lat="47.15285" lon="5.60838">
        <ele>208</ele>
        <time>2011-03-18T14:35:50Z</time>
      </trkpt>
      <trkpt lat="47.15298" lon="5.60832">
        <ele>208</ele>
        <time>2011-03-18T14:35:52Z</time>
      </trkpt>
      <trkpt lat="47.15311" lon="5.60832">
        <ele>208</ele>
        <time>2011-03-18T14:35:54Z</time>
      </trkpt>
      <trkpt lat="47.15322" lon="5.6083">
        <ele>208</ele>
        <time>2011-03-18T14:35:56Z</time>
      </trkpt>
      <trkpt lat="47.15331" lon="5.60825">
        <ele>208</ele>
        <time>2011-03-18T14:35:58Z</time>
      </trkpt>
      <trkpt lat="47.15341" lon="5.60818">
        <ele>208</ele>
        <time>2011-03-18T14:36:00Z</time>
      </trkpt>
      <trkpt lat="47.1535" lon="5.6081">
        <ele>208</ele>
        <time>2011-03-18T14:36:02Z</time>
      </trkpt>
      <trkpt lat="47.15359" lon="5.60803">
        <ele>208</ele>
        <time>2011-03-18T14:36:04Z</time>
      </trkpt>
      <trkpt lat="47.15368" lon="5.60795">
        <ele>208</ele>
        <time>2011-03-18T14:36:06Z</time>
      </trkpt>
      <trkpt lat="47.15376" lon="5.60788">
        <ele>208</ele>
        <time>2011-03-18T14:36:08Z</time>
      </trkpt>
      <trkpt lat="47.15385" lon="5.60781">
        <ele>208</ele>
        <time>2011-03-18T14:36:10Z</time>
      </trkpt>
      <trkpt lat="47.15396" lon="5.60772">
        <ele>208</ele>
        <time>2011-03-18T14:36:13Z</time>
      </trkpt>
      <trkpt lat="47.15407" lon="5.60763">
        <ele>208</ele>
        <time>2011-03-18T14:36:16Z</time>
      </trkpt>
      <trkpt lat="47.15417" lon="5.60754">
        <ele>214</ele>
        <time>2011-03-18T14:36:19Z</time>
      </trkpt>
      <trkpt lat="47.15427" lon="5.60745">
        <ele>214</ele>
        <time>2011-03-18T14:36:22Z</time>
      </trkpt>
      <trkpt lat="47.15437" lon="5.60736">
        <ele>214</ele>
        <time>2011-03-18T14:36:25Z</time>
      </trkpt>
      <trkpt lat="47.15446" lon="5.60726">
        <ele>214</ele>
        <time>2011-03-18T14:36:28Z</time>
      </trkpt>
      <trkpt lat="47.15456" lon="5.60716">
        <ele>214</ele>
        <time>2011-03-18T14:36:31Z</time>
      </trkpt>
      <trkpt lat="47.15465" lon="5.60707">
        <ele>214</ele>
        <time>2011-03-18T14:36:34Z</time>
      </trkpt>
      <trkpt lat="47.15475" lon="5.60697">
        <ele>214</ele>
        <time>2011-03-18T14:36:37Z</time>
      </trkpt>
      <trkpt lat="47.15483" lon="5.60687">
        <ele>214</ele>
        <time>2011-03-18T14:36:40Z</time>
      </trkpt>
      <trkpt lat="47.15493" lon="5.60676">
        <ele>214</ele>
        <time>2011-03-18T14:36:43Z</time>
      </trkpt>
      <trkpt lat="47.15503" lon="5.60666">
        <ele>214</ele>
        <time>2011-03-18T14:36:46Z</time>
      </trkpt>
      <trkpt lat="47.15513" lon="5.60656">
        <ele>214</ele>
        <time>2011-03-18T14:36:49Z</time>
      </trkpt>
      <trkpt lat="47.15523" lon="5.60646">
        <ele>214</ele>
        <time>2011-03-18T14:36:52Z</time>
      </trkpt>
      <trkpt lat="47.15533" lon="5.60635">
        <ele>214</ele>
        <time>2011-03-18T14:36:55Z</time>
      </trkpt>
      <trkpt lat="47.15543" lon="5.60623">
        <ele>214</ele>
        <time>2011-03-18T14:36:58Z</time>
      </trkpt>
      <trkpt lat="47.15553" lon="5.60613">
        <ele>214</ele>
        <time>2011-03-18T14:37:01Z</time>
      </trkpt>
      <trkpt lat="47.15563" lon="5.60603">
        <ele>214</ele>
        <time>2011-03-18T14:37:04Z</time>
      </trkpt>
      <trkpt lat="47.15573" lon="5.60592">
        <ele>214</ele>
        <time>2011-03-18T14:37:07Z</time>
      </trkpt>
      <trkpt lat="47.15583" lon="5.60581">
        <ele>214</ele>
        <time>2011-03-18T14:37:10Z</time>
      </trkpt>
      <trkpt lat="47.15594" lon="5.60571">
        <ele>219</ele>
        <time>2011-03-18T14:37:13Z</time>
      </trkpt>
      <trkpt lat="47.15603" lon="5.6056">
        <ele>219</ele>
        <time>2011-03-18T14:37:16Z</time>
      </trkpt>
      <trkpt lat="47.15614" lon="5.60549">
        <ele>219</ele>
        <time>2011-03-18T14:37:19Z</time>
      </trkpt>
      <trkpt lat="47.15624" lon="5.60538">
        <ele>219</ele>
        <time>2011-03-18T14:37:22Z</time>
      </trkpt>
      <trkpt lat="47.15634" lon="5.60527">
        <ele>219</ele>
        <time>2011-03-18T14:37:25Z</time>
      </trkpt>
      <trkpt lat="47.15644" lon="5.60515">
        <ele>219</ele>
        <time>2011-03-18T14:37:28Z</time>
      </trkpt>
      <trkpt lat="47.15654" lon="5.60503">
        <ele>219</ele>
        <time>2011-03-18T14:37:31Z</time>
      </trkpt>
      <trkpt lat="47.15663" lon="5.60491">
        <ele>219</ele>
        <time>2011-03-18T14:37:34Z</time>
      </trkpt>
      <trkpt lat="47.15671" lon="5.60479">
        <ele>219</ele>
        <time>2011-03-18T14:37:37Z</time>
      </trkpt>
      <trkpt lat="47.15679" lon="5.60466">
        <ele>219</ele>
        <time>2011-03-18T14:37:40Z</time>
      </trkpt>
      <trkpt lat="47.15686" lon="5.60454">
        <ele>219</ele>
        <time>2011-03-18T14:37:43Z</time>
      </trkpt>
      <trkpt lat="47.15693" lon="5.60442">
        <ele>219</ele>
        <time>2011-03-18T14:37:46Z</time>
      </trkpt>
      <trkpt lat="47.157" lon="5.60429">
        <ele>219</ele>
        <time>2011-03-18T14:37:49Z</time>
      </trkpt>
      <trkpt lat="47.15706" lon="5.60418">
        <ele>219</ele>
        <time>2011-03-18T14:37:52Z</time>
      </trkpt>
      <trkpt lat="47.15714" lon="5.60404">
        <ele>219</ele>
        <time>2011-03-18T14:37:55Z</time>
      </trkpt>
      <trkpt lat="47.15721" lon="5.60391">
        <ele>219</ele>
        <time>2011-03-18T14:37:58Z</time>
      </trkpt>
      <trkpt lat="47.15727" lon="5.60379">
        <ele>219</ele>
        <time>2011-03-18T14:38:00Z</time>
      </trkpt>
      <trkpt lat="47.15733" lon="5.60367">
        <ele>219</ele>
        <time>2011-03-18T14:38:02Z</time>
      </trkpt>
      <trkpt lat="47.15739" lon="5.60355">
        <ele>219</ele>
        <time>2011-03-18T14:38:04Z</time>
      </trkpt>
      <trkpt lat="47.15747" lon="5.60341">
        <ele>219</ele>
        <time>2011-03-18T14:38:06Z</time>
      </trkpt>
      <trkpt lat="47.15755" lon="5.60327">
        <ele>219</ele>
        <time>2011-03-18T14:38:08Z</time>
      </trkpt>
      <trkpt lat="47.15763" lon="5.60312">
        <ele>219</ele>
        <time>2011-03-18T14:38:10Z</time>
      </trkpt>
      <trkpt lat="47.15769" lon="5.60295">
        <ele>219</ele>
        <time>2011-03-18T14:38:12Z</time>
      </trkpt>
      <trkpt lat="47.15774" lon="5.60276">
        <ele>219</ele>
        <time>2011-03-18T14:38:14Z</time>
      </trkpt>
      <trkpt lat="47.15777" lon="5.60256">
        <ele>219</ele>
        <time>2011-03-18T14:38:16Z</time>
      </trkpt>
      <trkpt lat="47.15777" lon="5.60234">
        <ele>219</ele>
        <time>2011-03-18T14:38:18Z</time>
      </trkpt>
      <trkpt lat="47.15773" lon="5.60212">
        <ele>219</ele>
        <time>2011-03-18T14:38:20Z</time>
      </trkpt>
      <trkpt lat="47.15766" lon="5.60189">
        <ele>219</ele>
        <time>2011-03-18T14:38:22Z</time>
      </trkpt>
      <trkpt lat="47.15759" lon="5.60165">
        <ele>214</ele>
        <time>2011-03-18T14:38:24Z</time>
      </trkpt>
      <trkpt lat="47.15755" lon="5.60154">
        <ele>214</ele>
        <time>2011-03-18T14:38:25Z</time>
      </trkpt>
      <trkpt lat="47.15751" lon="5.60141">
        <ele>214</ele>
        <time>2011-03-18T14:38:26Z</time>
      </trkpt>
      <trkpt lat="47.15747" lon="5.60128">
        <ele>214</ele>
        <time>2011-03-18T14:38:27Z</time>
      </trkpt>
      <trkpt lat="47.15743" lon="5.60116">
        <ele>214</ele>
        <time>2011-03-18T14:38:28Z</time>
      </trkpt>
      <trkpt lat="47.15739" lon="5.60104">
        <ele>214</ele>
        <time>2011-03-18T14:38:29Z</time>
      </trkpt>
      <trkpt lat="47.15735" lon="5.60092">
        <ele>214</ele>
        <time>2011-03-18T14:38:30Z</time>
      </trkpt>
      <trkpt lat="47.15728" lon="5.60068">
        <ele>214</ele>
        <time>2011-03-18T14:38:32Z</time>
      </trkpt>
      <trkpt lat="47.15723" lon="5.60047">
        <ele>214</ele>
        <time>2011-03-18T14:38:34Z</time>
      </trkpt>
      <trkpt lat="47.15717" lon="5.60028">
        <ele>214</ele>
        <time>2011-03-18T14:38:36Z</time>
      </trkpt>
      <trkpt lat="47.15713" lon="5.60009">
        <ele>214</ele>
        <time>2011-03-18T14:38:38Z</time>
      </trkpt>
      <trkpt lat="47.15708" lon="5.59992">
        <ele>214</ele>
        <time>2011-03-18T14:38:40Z</time>
      </trkpt>
      <trkpt lat="47.15704" lon="5.59975">
        <ele>214</ele>
        <time>2011-03-18T14:38:42Z</time>
      </trkpt>
      <trkpt lat="47.15703" lon="5.59959">
        <ele>214</ele>
        <time>2011-03-18T14:38:44Z</time>
      </trkpt>
      <trkpt lat="47.157" lon="5.59943">
        <ele>214</ele>
        <time>2011-03-18T14:38:46Z</time>
      </trkpt>
      <trkpt lat="47.15699" lon="5.59927">
        <ele>214</ele>
        <time>2011-03-18T14:38:48Z</time>
      </trkpt>
      <trkpt lat="47.15696" lon="5.59911">
        <ele>214</ele>
        <time>2011-03-18T14:38:50Z</time>
      </trkpt>
      <trkpt lat="47.15694" lon="5.59896">
        <ele>214</ele>
        <time>2011-03-18T14:38:52Z</time>
      </trkpt>
      <trkpt lat="47.15692" lon="5.5988">
        <ele>214</ele>
        <time>2011-03-18T14:38:54Z</time>
      </trkpt>
      <trkpt lat="47.1569" lon="5.59865">
        <ele>214</ele>
        <time>2011-03-18T14:38:56Z</time>
      </trkpt>
      <trkpt lat="47.15688" lon="5.59851">
        <ele>214</ele>
        <time>2011-03-18T14:38:58Z</time>
      </trkpt>
      <trkpt lat="47.15687" lon="5.59836">
        <ele>219</ele>
        <time>2011-03-18T14:39:00Z</time>
      </trkpt>
      <trkpt lat="47.15685" lon="5.59822">
        <ele>219</ele>
        <time>2011-03-18T14:39:02Z</time>
      </trkpt>
      <trkpt lat="47.15684" lon="5.59807">
        <ele>219</ele>
        <time>2011-03-18T14:39:04Z</time>
      </trkpt>
      <trkpt lat="47.15683" lon="5.59793">
        <ele>219</ele>
        <time>2011-03-18T14:39:06Z</time>
      </trkpt>
      <trkpt lat="47.1568" lon="5.5978">
        <ele>219</ele>
        <time>2011-03-18T14:39:08Z</time>
      </trkpt>
      <trkpt lat="47.15677" lon="5.59766">
        <ele>219</ele>
        <time>2011-03-18T14:39:10Z</time>
      </trkpt>
      <trkpt lat="47.15674" lon="5.59754">
        <ele>219</ele>
        <time>2011-03-18T14:39:12Z</time>
      </trkpt>
      <trkpt lat="47.15668" lon="5.59738">
        <ele>219</ele>
        <time>2011-03-18T14:39:15Z</time>
      </trkpt>
      <trkpt lat="47.15664" lon="5.5972">
        <ele>219</ele>
        <time>2011-03-18T14:39:18Z</time>
      </trkpt>
      <trkpt lat="47.1566" lon="5.59703">
        <ele>219</ele>
        <time>2011-03-18T14:39:21Z</time>
      </trkpt>
      <trkpt lat="47.15657" lon="5.59685">
        <ele>219</ele>
        <time>2011-03-18T14:39:24Z</time>
      </trkpt>
      <trkpt lat="47.15654" lon="5.59672">
        <ele>219</ele>
        <time>2011-03-18T14:39:26Z</time>
      </trkpt>
      <trkpt lat="47.15652" lon="5.59658">
        <ele>219</ele>
        <time>2011-03-18T14:39:28Z</time>
      </trkpt>
      <trkpt lat="47.15649" lon="5.59643">
        <ele>219</ele>
        <time>2011-03-18T14:39:30Z</time>
      </trkpt>
      <trkpt lat="47.15647" lon="5.59628">
        <ele>219</ele>
        <time>2011-03-18T14:39:32Z</time>
      </trkpt>
      <trkpt lat="47.15643" lon="5.59614">
        <ele>219</ele>
        <time>2011-03-18T14:39:34Z</time>
      </trkpt>
      <trkpt lat="47.1564" lon="5.59597">
        <ele>219</ele>
        <time>2011-03-18T14:39:36Z</time>
      </trkpt>
      <trkpt lat="47.15636" lon="5.59579">
        <ele>219</ele>
        <time>2011-03-18T14:39:38Z</time>
      </trkpt>
      <trkpt lat="47.15633" lon="5.59559">
        <ele>213</ele>
        <time>2011-03-18T14:39:40Z</time>
      </trkpt>
      <trkpt lat="47.15629" lon="5.59539">
        <ele>213</ele>
        <time>2011-03-18T14:39:42Z</time>
      </trkpt>
      <trkpt lat="47.15624" lon="5.59519">
        <ele>213</ele>
        <time>2011-03-18T14:39:44Z</time>
      </trkpt>
      <trkpt lat="47.15621" lon="5.595">
        <ele>213</ele>
        <time>2011-03-18T14:39:46Z</time>
      </trkpt>
      <trkpt lat="47.15616" lon="5.5948">
        <ele>213</ele>
        <time>2011-03-18T14:39:48Z</time>
      </trkpt>
      <trkpt lat="47.15612" lon="5.59461">
        <ele>213</ele>
        <time>2011-03-18T14:39:50Z</time>
      </trkpt>
      <trkpt lat="47.15608" lon="5.59443">
        <ele>213</ele>
        <time>2011-03-18T14:39:52Z</time>
      </trkpt>
      <trkpt lat="47.15605" lon="5.59426">
        <ele>213</ele>
        <time>2011-03-18T14:39:54Z</time>
      </trkpt>
      <trkpt lat="47.15602" lon="5.59408">
        <ele>213</ele>
        <time>2011-03-18T14:39:56Z</time>
      </trkpt>
      <trkpt lat="47.15598" lon="5.5939">
        <ele>213</ele>
        <time>2011-03-18T14:39:58Z</time>
      </trkpt>
      <trkpt lat="47.15594" lon="5.59372">
        <ele>213</ele>
        <time>2011-03-18T14:40:00Z</time>
      </trkpt>
      <trkpt lat="47.1559" lon="5.59354">
        <ele>213</ele>
        <time>2011-03-18T14:40:02Z</time>
      </trkpt>
      <trkpt lat="47.15587" lon="5.59336">
        <ele>213</ele>
        <time>2011-03-18T14:40:04Z</time>
      </trkpt>
      <trkpt lat="47.15583" lon="5.59319">
        <ele>213</ele>
        <time>2011-03-18T14:40:06Z</time>
      </trkpt>
      <trkpt lat="47.1558" lon="5.59301">
        <ele>213</ele>
        <time>2011-03-18T14:40:08Z</time>
      </trkpt>
      <trkpt lat="47.15576" lon="5.59283">
        <ele>213</ele>
        <time>2011-03-18T14:40:10Z</time>
      </trkpt>
      <trkpt lat="47.15573" lon="5.59264">
        <ele>213</ele>
        <time>2011-03-18T14:40:12Z</time>
      </trkpt>
      <trkpt lat="47.1557" lon="5.59245">
        <ele>213</ele>
        <time>2011-03-18T14:40:14Z</time>
      </trkpt>
      <trkpt lat="47.15566" lon="5.59226">
        <ele>213</ele>
        <time>2011-03-18T14:40:16Z</time>
      </trkpt>
      <trkpt lat="47.15562" lon="5.59208">
        <ele>213</ele>
        <time>2011-03-18T14:40:18Z</time>
      </trkpt>
      <trkpt lat="47.15559" lon="5.5919">
        <ele>213</ele>
        <time>2011-03-18T14:40:20Z</time>
      </trkpt>
      <trkpt lat="47.15555" lon="5.59172">
        <ele>213</ele>
        <time>2011-03-18T14:40:22Z</time>
      </trkpt>
      <trkpt lat="47.15551" lon="5.59154">
        <ele>213</ele>
        <time>2011-03-18T14:40:24Z</time>
      </trkpt>
      <trkpt lat="47.15548" lon="5.59136">
        <ele>213</ele>
        <time>2011-03-18T14:40:26Z</time>
      </trkpt>
      <trkpt lat="47.15545" lon="5.59117">
        <ele>213</ele>
        <time>2011-03-18T14:40:28Z</time>
      </trkpt>
      <trkpt lat="47.15543" lon="5.59098">
        <ele>213</ele>
        <time>2011-03-18T14:40:30Z</time>
      </trkpt>
      <trkpt lat="47.15543" lon="5.59079">
        <ele>213</ele>
        <time>2011-03-18T14:40:32Z</time>
      </trkpt>
      <trkpt lat="47.15544" lon="5.59059">
        <ele>213</ele>
        <time>2011-03-18T14:40:34Z</time>
      </trkpt>
      <trkpt lat="47.15546" lon="5.59041">
        <ele>213</ele>
        <time>2011-03-18T14:40:36Z</time>
      </trkpt>
      <trkpt lat="47.15547" lon="5.59021">
        <ele>213</ele>
        <time>2011-03-18T14:40:38Z</time>
      </trkpt>
      <trkpt lat="47.15548" lon="5.59001">
        <ele>213</ele>
        <time>2011-03-18T14:40:40Z</time>
      </trkpt>
      <trkpt lat="47.15549" lon="5.58981">
        <ele>213</ele>
        <time>2011-03-18T14:40:42Z</time>
      </trkpt>
      <trkpt lat="47.1555" lon="5.58962">
        <ele>213</ele>
        <time>2011-03-18T14:40:44Z</time>
      </trkpt>
      <trkpt lat="47.15551" lon="5.58943">
        <ele>213</ele>
        <time>2011-03-18T14:40:46Z</time>
      </trkpt>
      <trkpt lat="47.15551" lon="5.58923">
        <ele>213</ele>
        <time>2011-03-18T14:40:48Z</time>
      </trkpt>
      <trkpt lat="47.15552" lon="5.58904">
        <ele>213</ele>
        <time>2011-03-18T14:40:50Z</time>
      </trkpt>
      <trkpt lat="47.15553" lon="5.58886">
        <ele>213</ele>
        <time>2011-03-18T14:40:52Z</time>
      </trkpt>
      <trkpt lat="47.15554" lon="5.58867">
        <ele>213</ele>
        <time>2011-03-18T14:40:54Z</time>
      </trkpt>
      <trkpt lat="47.15556" lon="5.58848">
        <ele>213</ele>
        <time>2011-03-18T14:40:56Z</time>
      </trkpt>
      <trkpt lat="47.15559" lon="5.58829">
        <ele>213</ele>
        <time>2011-03-18T14:40:58Z</time>
      </trkpt>
      <trkpt lat="47.15563" lon="5.58811">
        <ele>213</ele>
        <time>2011-03-18T14:41:00Z</time>
      </trkpt>
      <trkpt lat="47.15568" lon="5.58793">
        <ele>213</ele>
        <time>2011-03-18T14:41:02Z</time>
      </trkpt>
      <trkpt lat="47.15576" lon="5.58776">
        <ele>213</ele>
        <time>2011-03-18T14:41:04Z</time>
      </trkpt>
      <trkpt lat="47.15584" lon="5.58761">
        <ele>213</ele>
        <time>2011-03-18T14:41:06Z</time>
      </trkpt>
      <trkpt lat="47.15595" lon="5.58749">
        <ele>213</ele>
        <time>2011-03-18T14:41:08Z</time>
      </trkpt>
      <trkpt lat="47.15605" lon="5.58736">
        <ele>213</ele>
        <time>2011-03-18T14:41:10Z</time>
      </trkpt>
      <trkpt lat="47.15617" lon="5.58727">
        <ele>213</ele>
        <time>2011-03-18T14:41:12Z</time>
      </trkpt>
      <trkpt lat="47.1563" lon="5.5872">
        <ele>213</ele>
        <time>2011-03-18T14:41:14Z</time>
      </trkpt>
      <trkpt lat="47.15643" lon="5.58713">
        <ele>213</ele>
        <time>2011-03-18T14:41:16Z</time>
      </trkpt>
      <trkpt lat="47.15655" lon="5.58703">
        <ele>213</ele>
        <time>2011-03-18T14:41:18Z</time>
      </trkpt>
      <trkpt lat="47.15666" lon="5.58693">
        <ele>219</ele>
        <time>2011-03-18T14:41:20Z</time>
      </trkpt>
      <trkpt lat="47.15678" lon="5.58684">
        <ele>219</ele>
        <time>2011-03-18T14:41:22Z</time>
      </trkpt>
      <trkpt lat="47.1569" lon="5.58676">
        <ele>219</ele>
        <time>2011-03-18T14:41:24Z</time>
      </trkpt>
      <trkpt lat="47.15701" lon="5.58666">
        <ele>219</ele>
        <time>2011-03-18T14:41:26Z</time>
      </trkpt>
      <trkpt lat="47.15712" lon="5.58657">
        <ele>219</ele>
        <time>2011-03-18T14:41:28Z</time>
      </trkpt>
      <trkpt lat="47.15723" lon="5.58648">
        <ele>219</ele>
        <time>2011-03-18T14:41:30Z</time>
      </trkpt>
      <trkpt lat="47.15734" lon="5.58639">
        <ele>219</ele>
        <time>2011-03-18T14:41:32Z</time>
      </trkpt>
      <trkpt lat="47.15746" lon="5.58629">
        <ele>219</ele>
        <time>2011-03-18T14:41:34Z</time>
      </trkpt>
      <trkpt lat="47.15758" lon="5.58621">
        <ele>219</ele>
        <time>2011-03-18T14:41:36Z</time>
      </trkpt>
      <trkpt lat="47.1577" lon="5.58613">
        <ele>219</ele>
        <time>2011-03-18T14:41:38Z</time>
      </trkpt>
      <trkpt lat="47.15782" lon="5.58604">
        <ele>219</ele>
        <time>2011-03-18T14:41:40Z</time>
      </trkpt>
      <trkpt lat="47.15793" lon="5.58596">
        <ele>219</ele>
        <time>2011-03-18T14:41:42Z</time>
      </trkpt>
      <trkpt lat="47.15806" lon="5.58589">
        <ele>219</ele>
        <time>2011-03-18T14:41:44Z</time>
      </trkpt>
      <trkpt lat="47.15818" lon="5.58581">
        <ele>219</ele>
        <time>2011-03-18T14:41:46Z</time>
      </trkpt>
      <trkpt lat="47.15831" lon="5.58572">
        <ele>219</ele>
        <time>2011-03-18T14:41:48Z</time>
      </trkpt>
      <trkpt lat="47.15842" lon="5.58564">
        <ele>219</ele>
        <time>2011-03-18T14:41:50Z</time>
      </trkpt>
      <trkpt lat="47.15852" lon="5.58555">
        <ele>219</ele>
        <time>2011-03-18T14:41:52Z</time>
      </trkpt>
      <trkpt lat="47.15863" lon="5.58546">
        <ele>219</ele>
        <time>2011-03-18T14:41:54Z</time>
      </trkpt>
      <trkpt lat="47.15874" lon="5.58537">
        <ele>219</ele>
        <time>2011-03-18T14:41:56Z</time>
      </trkpt>
      <trkpt lat="47.15885" lon="5.58529">
        <ele>219</ele>
        <time>2011-03-18T14:41:58Z</time>
      </trkpt>
      <trkpt lat="47.15896" lon="5.58521">
        <ele>219</ele>
        <time>2011-03-18T14:42:00Z</time>
      </trkpt>
      <trkpt lat="47.15906" lon="5.58513">
        <ele>219</ele>
        <time>2011-03-18T14:42:02Z</time>
      </trkpt>
      <trkpt lat="47.15918" lon="5.58505">
        <ele>219</ele>
        <time>2011-03-18T14:42:04Z</time>
      </trkpt>
      <trkpt lat="47.15929" lon="5.58498">
        <ele>219</ele>
        <time>2011-03-18T14:42:06Z</time>
      </trkpt>
      <trkpt lat="47.1594" lon="5.58489">
        <ele>219</ele>
        <time>2011-03-18T14:42:08Z</time>
      </trkpt>
      <trkpt lat="47.15951" lon="5.58482">
        <ele>219</ele>
        <time>2011-03-18T14:42:10Z</time>
      </trkpt>
      <trkpt lat="47.15962" lon="5.58474">
        <ele>219</ele>
        <time>2011-03-18T14:42:12Z</time>
      </trkpt>
      <trkpt lat="47.15972" lon="5.58465">
        <ele>219</ele>
        <time>2011-03-18T14:42:14Z</time>
      </trkpt>
      <trkpt lat="47.15981" lon="5.58457">
        <ele>219</ele>
        <time>2011-03-18T14:42:16Z</time>
      </trkpt>
      <trkpt lat="47.15992" lon="5.58449">
        <ele>219</ele>
        <time>2011-03-18T14:42:18Z</time>
      </trkpt>
      <trkpt lat="47.16003" lon="5.58443">
        <ele>219</ele>
        <time>2011-03-18T14:42:20Z</time>
      </trkpt>
      <trkpt lat="47.16014" lon="5.58436">
        <ele>219</ele>
        <time>2011-03-18T14:42:22Z</time>
      </trkpt>
      <trkpt lat="47.16025" lon="5.5843">
        <ele>219</ele>
        <time>2011-03-18T14:42:24Z</time>
      </trkpt>
      <trkpt lat="47.16035" lon="5.58422">
        <ele>224</ele>
        <time>2011-03-18T14:42:26Z</time>
      </trkpt>
      <trkpt lat="47.16045" lon="5.58413">
        <ele>224</ele>
        <time>2011-03-18T14:42:28Z</time>
      </trkpt>
      <trkpt lat="47.16055" lon="5.58405">
        <ele>224</ele>
        <time>2011-03-18T14:42:30Z</time>
      </trkpt>
      <trkpt lat="47.16066" lon="5.58397">
        <ele>224</ele>
        <time>2011-03-18T14:42:32Z</time>
      </trkpt>
      <trkpt lat="47.16076" lon="5.58389">
        <ele>224</ele>
        <time>2011-03-18T14:42:34Z</time>
      </trkpt>
      <trkpt lat="47.16088" lon="5.58382">
        <ele>224</ele>
        <time>2011-03-18T14:42:36Z</time>
      </trkpt>
      <trkpt lat="47.16099" lon="5.58375">
        <ele>224</ele>
        <time>2011-03-18T14:42:38Z</time>
      </trkpt>
      <trkpt lat="47.16109" lon="5.58365">
        <ele>224</ele>
        <time>2011-03-18T14:42:40Z</time>
      </trkpt>
      <trkpt lat="47.16119" lon="5.58356">
        <ele>224</ele>
        <time>2011-03-18T14:42:42Z</time>
      </trkpt>
      <trkpt lat="47.16131" lon="5.58348">
        <ele>224</ele>
        <time>2011-03-18T14:42:44Z</time>
      </trkpt>
      <trkpt lat="47.16142" lon="5.58339">
        <ele>224</ele>
        <time>2011-03-18T14:42:46Z</time>
      </trkpt>
      <trkpt lat="47.16154" lon="5.5833">
        <ele>224</ele>
        <time>2011-03-18T14:42:48Z</time>
      </trkpt>
      <trkpt lat="47.16166" lon="5.58322">
        <ele>224</ele>
        <time>2011-03-18T14:42:50Z</time>
      </trkpt>
      <trkpt lat="47.16176" lon="5.58312">
        <ele>224</ele>
        <time>2011-03-18T14:42:52Z</time>
      </trkpt>
      <trkpt lat="47.16188" lon="5.58303">
        <ele>224</ele>
        <time>2011-03-18T14:42:54Z</time>
      </trkpt>
      <trkpt lat="47.162" lon="5.58295">
        <ele>224</ele>
        <time>2011-03-18T14:42:56Z</time>
      </trkpt>
      <trkpt lat="47.16211" lon="5.58286">
        <ele>224</ele>
        <time>2011-03-18T14:42:58Z</time>
      </trkpt>
      <trkpt lat="47.16223" lon="5.58277">
        <ele>224</ele>
        <time>2011-03-18T14:43:00Z</time>
      </trkpt>
      <trkpt lat="47.16234" lon="5.58269">
        <ele>224</ele>
        <time>2011-03-18T14:43:02Z</time>
      </trkpt>
      <trkpt lat="47.16245" lon="5.58262">
        <ele>224</ele>
        <time>2011-03-18T14:43:04Z</time>
      </trkpt>
      <trkpt lat="47.16257" lon="5.58253">
        <ele>224</ele>
        <time>2011-03-18T14:43:06Z</time>
      </trkpt>
      <trkpt lat="47.16267" lon="5.58244">
        <ele>224</ele>
        <time>2011-03-18T14:43:08Z</time>
      </trkpt>
      <trkpt lat="47.16277" lon="5.58235">
        <ele>224</ele>
        <time>2011-03-18T14:43:10Z</time>
      </trkpt>
      <trkpt lat="47.16287" lon="5.58223">
        <ele>224</ele>
        <time>2011-03-18T14:43:12Z</time>
      </trkpt>
      <trkpt lat="47.16295" lon="5.5821">
        <ele>224</ele>
        <time>2011-03-18T14:43:14Z</time>
      </trkpt>
      <trkpt lat="47.16303" lon="5.58197">
        <ele>224</ele>
        <time>2011-03-18T14:43:16Z</time>
      </trkpt>
      <trkpt lat="47.1631" lon="5.58181">
        <ele>224</ele>
        <time>2011-03-18T14:43:18Z</time>
      </trkpt>
      <trkpt lat="47.16317" lon="5.58165">
        <ele>224</ele>
        <time>2011-03-18T14:43:20Z</time>
      </trkpt>
      <trkpt lat="47.16325" lon="5.5815">
        <ele>224</ele>
        <time>2011-03-18T14:43:22Z</time>
      </trkpt>
      <trkpt lat="47.16331" lon="5.58135">
        <ele>224</ele>
        <time>2011-03-18T14:43:24Z</time>
      </trkpt>
      <trkpt lat="47.16337" lon="5.58121">
        <ele>224</ele>
        <time>2011-03-18T14:43:26Z</time>
      </trkpt>
      <trkpt lat="47.16344" lon="5.58106">
        <ele>224</ele>
        <time>2011-03-18T14:43:28Z</time>
      </trkpt>
      <trkpt lat="47.1635" lon="5.58093">
        <ele>224</ele>
        <time>2011-03-18T14:43:30Z</time>
      </trkpt>
      <trkpt lat="47.16355" lon="5.5808">
        <ele>224</ele>
        <time>2011-03-18T14:43:32Z</time>
      </trkpt>
      <trkpt lat="47.16361" lon="5.58068">
        <ele>224</ele>
        <time>2011-03-18T14:43:34Z</time>
      </trkpt>
      <trkpt lat="47.16367" lon="5.58054">
        <ele>224</ele>
        <time>2011-03-18T14:43:36Z</time>
      </trkpt>
      <trkpt lat="47.16372" lon="5.58042">
        <ele>224</ele>
        <time>2011-03-18T14:43:38Z</time>
      </trkpt>
      <trkpt lat="47.16378" lon="5.58028">
        <ele>224</ele>
        <time>2011-03-18T14:43:40Z</time>
      </trkpt>
      <trkpt lat="47.16384" lon="5.58015">
        <ele>224</ele>
        <time>2011-03-18T14:43:42Z</time>
      </trkpt>
      <trkpt lat="47.1639" lon="5.58">
        <ele>224</ele>
        <time>2011-03-18T14:43:44Z</time>
      </trkpt>
      <trkpt lat="47.16396" lon="5.57987">
        <ele>224</ele>
        <time>2011-03-18T14:43:46Z</time>
      </trkpt>
      <trkpt lat="47.16402" lon="5.57974">
        <ele>224</ele>
        <time>2011-03-18T14:43:48Z</time>
      </trkpt>
      <trkpt lat="47.16408" lon="5.57961">
        <ele>224</ele>
        <time>2011-03-18T14:43:50Z</time>
      </trkpt>
      <trkpt lat="47.16415" lon="5.57947">
        <ele>224</ele>
        <time>2011-03-18T14:43:52Z</time>
      </trkpt>
      <trkpt lat="47.16421" lon="5.57935">
        <ele>224</ele>
        <time>2011-03-18T14:43:54Z</time>
      </trkpt>
      <trkpt lat="47.16427" lon="5.57921">
        <ele>224</ele>
        <time>2011-03-18T14:43:56Z</time>
      </trkpt>
      <trkpt lat="47.16434" lon="5.57906">
        <ele>224</ele>
        <time>2011-03-18T14:43:58Z</time>
      </trkpt>
      <trkpt lat="47.1644" lon="5.57891">
        <ele>224</ele>
        <time>2011-03-18T14:44:00Z</time>
      </trkpt>
      <trkpt lat="47.16446" lon="5.57875">
        <ele>224</ele>
        <time>2011-03-18T14:44:02Z</time>
      </trkpt>
      <trkpt lat="47.16453" lon="5.5786">
        <ele>224</ele>
        <time>2011-03-18T14:44:04Z</time>
      </trkpt>
      <trkpt lat="47.1646" lon="5.57845">
        <ele>224</ele>
        <time>2011-03-18T14:44:06Z</time>
      </trkpt>
      <trkpt lat="47.16467" lon="5.5783">
        <ele>224</ele>
        <time>2011-03-18T14:44:08Z</time>
      </trkpt>
      <trkpt lat="47.16474" lon="5.57814">
        <ele>224</ele>
        <time>2011-03-18T14:44:10Z</time>
      </trkpt>
      <trkpt lat="47.16481" lon="5.57798">
        <ele>224</ele>
        <time>2011-03-18T14:44:12Z</time>
      </trkpt>
      <trkpt lat="47.16488" lon="5.57783">
        <ele>224</ele>
        <time>2011-03-18T14:44:14Z</time>
      </trkpt>
      <trkpt lat="47.16495" lon="5.57767">
        <ele>224</ele>
        <time>2011-03-18T14:44:16Z</time>
      </trkpt>
      <trkpt lat="47.16502" lon="5.57751">
        <ele>224</ele>
        <time>2011-03-18T14:44:18Z</time>
      </trkpt>
      <trkpt lat="47.16508" lon="5.57736">
        <ele>224</ele>
        <time>2011-03-18T14:44:20Z</time>
      </trkpt>
      <trkpt lat="47.16515" lon="5.57722">
        <ele>224</ele>
        <time>2011-03-18T14:44:22Z</time>
      </trkpt>
      <trkpt lat="47.16521" lon="5.57707">
        <ele>224</ele>
        <time>2011-03-18T14:44:24Z</time>
      </trkpt>
      <trkpt lat="47.16527" lon="5.57694">
        <ele>224</ele>
        <time>2011-03-18T14:44:26Z</time>
      </trkpt>
      <trkpt lat="47.16533" lon="5.57681">
        <ele>224</ele>
        <time>2011-03-18T14:44:28Z</time>
      </trkpt>
      <trkpt lat="47.16539" lon="5.57669">
        <ele>224</ele>
        <time>2011-03-18T14:44:30Z</time>
      </trkpt>
      <trkpt lat="47.16544" lon="5.57657">
        <ele>224</ele>
        <time>2011-03-18T14:44:32Z</time>
      </trkpt>
      <trkpt lat="47.16549" lon="5.57645">
        <ele>224</ele>
        <time>2011-03-18T14:44:34Z</time>
      </trkpt>
      <trkpt lat="47.16554" lon="5.57634">
        <ele>224</ele>
        <time>2011-03-18T14:44:36Z</time>
      </trkpt>
      <trkpt lat="47.1656" lon="5.57618">
        <ele>224</ele>
        <time>2011-03-18T14:44:39Z</time>
      </trkpt>
      <trkpt lat="47.16566" lon="5.57601">
        <ele>224</ele>
        <time>2011-03-18T14:44:42Z</time>
      </trkpt>
      <trkpt lat="47.16571" lon="5.57584">
        <ele>224</ele>
        <time>2011-03-18T14:44:45Z</time>
      </trkpt>
      <trkpt lat="47.16575" lon="5.57567">
        <ele>224</ele>
        <time>2011-03-18T14:44:48Z</time>
      </trkpt>
      <trkpt lat="47.16578" lon="5.57549">
        <ele>224</ele>
        <time>2011-03-18T14:44:51Z</time>
      </trkpt>
      <trkpt lat="47.1658" lon="5.5753">
        <ele>224</ele>
        <time>2011-03-18T14:44:54Z</time>
      </trkpt>
      <trkpt lat="47.16582" lon="5.57512">
        <ele>229</ele>
        <time>2011-03-18T14:44:57Z</time>
      </trkpt>
      <trkpt lat="47.16582" lon="5.57495">
        <ele>229</ele>
        <time>2011-03-18T14:45:00Z</time>
      </trkpt>
      <trkpt lat="47.16584" lon="5.57477">
        <ele>229</ele>
        <time>2011-03-18T14:45:03Z</time>
      </trkpt>
      <trkpt lat="47.16584" lon="5.57459">
        <ele>229</ele>
        <time>2011-03-18T14:45:06Z</time>
      </trkpt>
      <trkpt lat="47.16586" lon="5.57441">
        <ele>229</ele>
        <time>2011-03-18T14:45:09Z</time>
      </trkpt>
      <trkpt lat="47.16587" lon="5.57422">
        <ele>229</ele>
        <time>2011-03-18T14:45:12Z</time>
      </trkpt>
      <trkpt lat="47.16587" lon="5.57408">
        <ele>229</ele>
        <time>2011-03-18T14:45:14Z</time>
      </trkpt>
      <trkpt lat="47.16588" lon="5.57395">
        <ele>229</ele>
        <time>2011-03-18T14:45:16Z</time>
      </trkpt>
      <trkpt lat="47.16589" lon="5.57381">
        <ele>229</ele>
        <time>2011-03-18T14:45:18Z</time>
      </trkpt>
      <trkpt lat="47.1659" lon="5.57367">
        <ele>229</ele>
        <time>2011-03-18T14:45:20Z</time>
      </trkpt>
      <trkpt lat="47.1659" lon="5.57352">
        <ele>229</ele>
        <time>2011-03-18T14:45:22Z</time>
      </trkpt>
      <trkpt lat="47.16591" lon="5.57335">
        <ele>229</ele>
        <time>2011-03-18T14:45:24Z</time>
      </trkpt>
      <trkpt lat="47.16592" lon="5.57318">
        <ele>229</ele>
        <time>2011-03-18T14:45:26Z</time>
      </trkpt>
      <trkpt lat="47.16591" lon="5.573">
        <ele>229</ele>
        <time>2011-03-18T14:45:28Z</time>
      </trkpt>
      <trkpt lat="47.1659" lon="5.57282">
        <ele>229</ele>
        <time>2011-03-18T14:45:30Z</time>
      </trkpt>
      <trkpt lat="47.16588" lon="5.57264">
        <ele>229</ele>
        <time>2011-03-18T14:45:32Z</time>
      </trkpt>
      <trkpt lat="47.16586" lon="5.57246">
        <ele>229</ele>
        <time>2011-03-18T14:45:34Z</time>
      </trkpt>
      <trkpt lat="47.16584" lon="5.57227">
        <ele>229</ele>
        <time>2011-03-18T14:45:36Z</time>
      </trkpt>
      <trkpt lat="47.16581" lon="5.57209">
        <ele>229</ele>
        <time>2011-03-18T14:45:38Z</time>
      </trkpt>
      <trkpt lat="47.16579" lon="5.5719">
        <ele>229</ele>
        <time>2011-03-18T14:45:40Z</time>
      </trkpt>
      <trkpt lat="47.16577" lon="5.57171">
        <ele>229</ele>
        <time>2011-03-18T14:45:42Z</time>
      </trkpt>
      <trkpt lat="47.16575" lon="5.57152">
        <ele>229</ele>
        <time>2011-03-18T14:45:44Z</time>
      </trkpt>
      <trkpt lat="47.16573" lon="5.57132">
        <ele>229</ele>
        <time>2011-03-18T14:45:46Z</time>
      </trkpt>
      <trkpt lat="47.16571" lon="5.57113">
        <ele>229</ele>
        <time>2011-03-18T14:45:48Z</time>
      </trkpt>
      <trkpt lat="47.16568" lon="5.57093">
        <ele>229</ele>
        <time>2011-03-18T14:45:50Z</time>
      </trkpt>
      <trkpt lat="47.16565" lon="5.57074">
        <ele>229</ele>
        <time>2011-03-18T14:45:52Z</time>
      </trkpt>
      <trkpt lat="47.16563" lon="5.57054">
        <ele>229</ele>
        <time>2011-03-18T14:45:54Z</time>
      </trkpt>
      <trkpt lat="47.1656" lon="5.57035">
        <ele>229</ele>
        <time>2011-03-18T14:45:56Z</time>
      </trkpt>
      <trkpt lat="47.16557" lon="5.57015">
        <ele>229</ele>
        <time>2011-03-18T14:45:58Z</time>
      </trkpt>
      <trkpt lat="47.16555" lon="5.56995">
        <ele>229</ele>
        <time>2011-03-18T14:46:00Z</time>
      </trkpt>
      <trkpt lat="47.16552" lon="5.56975">
        <ele>229</ele>
        <time>2011-03-18T14:46:02Z</time>
      </trkpt>
      <trkpt lat="47.1655" lon="5.56956">
        <ele>229</ele>
        <time>2011-03-18T14:46:04Z</time>
      </trkpt>
      <trkpt lat="47.16548" lon="5.56936">
        <ele>229</ele>
        <time>2011-03-18T14:46:06Z</time>
      </trkpt>
      <trkpt lat="47.16544" lon="5.56916">
        <ele>224</ele>
        <time>2011-03-18T14:46:08Z</time>
      </trkpt>
      <trkpt lat="47.16542" lon="5.56896">
        <ele>224</ele>
        <time>2011-03-18T14:46:10Z</time>
      </trkpt>
      <trkpt lat="47.1654" lon="5.56876">
        <ele>224</ele>
        <time>2011-03-18T14:46:12Z</time>
      </trkpt>
      <trkpt lat="47.16538" lon="5.56855">
        <ele>224</ele>
        <time>2011-03-18T14:46:14Z</time>
      </trkpt>
      <trkpt lat="47.16537" lon="5.56834">
        <ele>224</ele>
        <time>2011-03-18T14:46:16Z</time>
      </trkpt>
      <trkpt lat="47.16536" lon="5.56814">
        <ele>224</ele>
        <time>2011-03-18T14:46:18Z</time>
      </trkpt>
      <trkpt lat="47.16535" lon="5.56795">
        <ele>224</ele>
        <time>2011-03-18T14:46:20Z</time>
      </trkpt>
      <trkpt lat="47.16535" lon="5.56774">
        <ele>224</ele>
        <time>2011-03-18T14:46:22Z</time>
      </trkpt>
      <trkpt lat="47.16536" lon="5.56754">
        <ele>224</ele>
        <time>2011-03-18T14:46:24Z</time>
      </trkpt>
      <trkpt lat="47.16537" lon="5.56734">
        <ele>224</ele>
        <time>2011-03-18T14:46:26Z</time>
      </trkpt>
      <trkpt lat="47.16538" lon="5.56714">
        <ele>224</ele>
        <time>2011-03-18T14:46:28Z</time>
      </trkpt>
      <trkpt lat="47.16539" lon="5.56693">
        <ele>224</ele>
        <time>2011-03-18T14:46:30Z</time>
      </trkpt>
      <trkpt lat="47.1654" lon="5.56673">
        <ele>224</ele>
        <time>2011-03-18T14:46:32Z</time>
      </trkpt>
      <trkpt lat="47.16541" lon="5.56654">
        <ele>224</ele>
        <time>2011-03-18T14:46:34Z</time>
      </trkpt>
      <trkpt lat="47.16543" lon="5.56635">
        <ele>224</ele>
        <time>2011-03-18T14:46:36Z</time>
      </trkpt>
      <trkpt lat="47.16546" lon="5.56616">
        <ele>224</ele>
        <time>2011-03-18T14:46:38Z</time>
      </trkpt>
      <trkpt lat="47.1655" lon="5.56599">
        <ele>224</ele>
        <time>2011-03-18T14:46:40Z</time>
      </trkpt>
      <trkpt lat="47.16554" lon="5.56583">
        <ele>224</ele>
        <time>2011-03-18T14:46:42Z</time>
      </trkpt>
      <trkpt lat="47.16558" lon="5.56568">
        <ele>224</ele>
        <time>2011-03-18T14:46:44Z</time>
      </trkpt>
      <trkpt lat="47.16562" lon="5.56555">
        <ele>224</ele>
        <time>2011-03-18T14:46:46Z</time>
      </trkpt>
      <trkpt lat="47.16567" lon="5.56538">
        <ele>224</ele>
        <time>2011-03-18T14:46:49Z</time>
      </trkpt>
      <trkpt lat="47.16571" lon="5.56525">
        <ele>224</ele>
        <time>2011-03-18T14:46:52Z</time>
      </trkpt>
      <trkpt lat="47.16565" lon="5.56514">
        <ele>224</ele>
        <time>2011-03-18T14:47:14Z</time>
      </trkpt>
      <trkpt lat="47.16556" lon="5.56509">
        <ele>224</ele>
        <time>2011-03-18T14:47:17Z</time>
      </trkpt>
      <trkpt lat="47.16545" lon="5.56503">
        <ele>224</ele>
        <time>2011-03-18T14:47:20Z</time>
      </trkpt>
      <trkpt lat="47.16537" lon="5.56499">
        <ele>224</ele>
        <time>2011-03-18T14:47:22Z</time>
      </trkpt>
      <trkpt lat="47.16527" lon="5.56494">
        <ele>224</ele>
        <time>2011-03-18T14:47:24Z</time>
      </trkpt>
      <trkpt lat="47.16518" lon="5.56488">
        <ele>224</ele>
        <time>2011-03-18T14:47:26Z</time>
      </trkpt>
      <trkpt lat="47.16508" lon="5.56484">
        <ele>224</ele>
        <time>2011-03-18T14:47:28Z</time>
      </trkpt>
      <trkpt lat="47.16498" lon="5.56479">
        <ele>224</ele>
        <time>2011-03-18T14:47:30Z</time>
      </trkpt>
      <trkpt lat="47.16486" lon="5.56477">
        <ele>224</ele>
        <time>2011-03-18T14:47:32Z</time>
      </trkpt>
      <trkpt lat="47.16475" lon="5.56475">
        <ele>224</ele>
        <time>2011-03-18T14:47:34Z</time>
      </trkpt>
      <trkpt lat="47.16464" lon="5.5647">
        <ele>224</ele>
        <time>2011-03-18T14:47:36Z</time>
      </trkpt>
      <trkpt lat="47.16456" lon="5.56459">
        <ele>224</ele>
        <time>2011-03-18T14:47:38Z</time>
      </trkpt>
      <trkpt lat="47.16448" lon="5.56448">
        <ele>224</ele>
        <time>2011-03-18T14:47:40Z</time>
      </trkpt>
      <trkpt lat="47.16444" lon="5.56431">
        <ele>224</ele>
        <time>2011-03-18T14:47:43Z</time>
      </trkpt>
      <trkpt lat="47.16449" lon="5.56417">
        <ele>224</ele>
        <time>2011-03-18T14:47:45Z</time>
      </trkpt>
      <trkpt lat="47.16457" lon="5.56404">
        <ele>224</ele>
        <time>2011-03-18T14:47:47Z</time>
      </trkpt>
      <trkpt lat="47.16465" lon="5.5639">
        <ele>224</ele>
        <time>2011-03-18T14:47:49Z</time>
      </trkpt>
      <trkpt lat="47.16474" lon="5.56375">
        <ele>224</ele>
        <time>2011-03-18T14:47:51Z</time>
      </trkpt>
      <trkpt lat="47.16481" lon="5.5636">
        <ele>219</ele>
        <time>2011-03-18T14:47:53Z</time>
      </trkpt>
      <trkpt lat="47.16487" lon="5.56345">
        <ele>219</ele>
        <time>2011-03-18T14:47:55Z</time>
      </trkpt>
      <trkpt lat="47.16492" lon="5.56329">
        <ele>219</ele>
        <time>2011-03-18T14:47:57Z</time>
      </trkpt>
      <trkpt lat="47.16497" lon="5.56314">
        <ele>219</ele>
        <time>2011-03-18T14:47:59Z</time>
      </trkpt>
      <trkpt lat="47.165" lon="5.56299">
        <ele>219</ele>
        <time>2011-03-18T14:48:01Z</time>
      </trkpt>
      <trkpt lat="47.16502" lon="5.56283">
        <ele>219</ele>
        <time>2011-03-18T14:48:03Z</time>
      </trkpt>
      <trkpt lat="47.16503" lon="5.56267">
        <ele>219</ele>
        <time>2011-03-18T14:48:05Z</time>
      </trkpt>
      <trkpt lat="47.16497" lon="5.56254">
        <ele>219</ele>
        <time>2011-03-18T14:48:07Z</time>
      </trkpt>
      <trkpt lat="47.16491" lon="5.56242">
        <ele>219</ele>
        <time>2011-03-18T14:48:09Z</time>
      </trkpt>
      <trkpt lat="47.16484" lon="5.56231">
        <ele>219</ele>
        <time>2011-03-18T14:48:11Z</time>
      </trkpt>
      <trkpt lat="47.16477" lon="5.5622">
        <ele>219</ele>
        <time>2011-03-18T14:48:13Z</time>
      </trkpt>
      <trkpt lat="47.16468" lon="5.56212">
        <ele>219</ele>
        <time>2011-03-18T14:48:15Z</time>
      </trkpt>
      <trkpt lat="47.16461" lon="5.56203">
        <ele>219</ele>
        <time>2011-03-18T14:48:17Z</time>
      </trkpt>
      <trkpt lat="47.16453" lon="5.56195">
        <ele>219</ele>
        <time>2011-03-18T14:48:19Z</time>
      </trkpt>
      <trkpt lat="47.16444" lon="5.56185">
        <ele>219</ele>
        <time>2011-03-18T14:48:21Z</time>
      </trkpt>
      <trkpt lat="47.16435" lon="5.56175">
        <ele>219</ele>
        <time>2011-03-18T14:48:23Z</time>
      </trkpt>
      <trkpt lat="47.16426" lon="5.56166">
        <ele>219</ele>
        <time>2011-03-18T14:48:25Z</time>
      </trkpt>
      <trkpt lat="47.16416" lon="5.56155">
        <ele>219</ele>
        <time>2011-03-18T14:48:27Z</time>
      </trkpt>
      <trkpt lat="47.16407" lon="5.56143">
        <ele>219</ele>
        <time>2011-03-18T14:48:29Z</time>
      </trkpt>
      <trkpt lat="47.16397" lon="5.56132">
        <ele>219</ele>
        <time>2011-03-18T14:48:31Z</time>
      </trkpt>
      <trkpt lat="47.16387" lon="5.56119">
        <ele>219</ele>
        <time>2011-03-18T14:48:33Z</time>
      </trkpt>
      <trkpt lat="47.16377" lon="5.56106">
        <ele>219</ele>
        <time>2011-03-18T14:48:35Z</time>
      </trkpt>
      <trkpt lat="47.16367" lon="5.56092">
        <ele>219</ele>
        <time>2011-03-18T14:48:37Z</time>
      </trkpt>
      <trkpt lat="47.16356" lon="5.5608">
        <ele>219</ele>
        <time>2011-03-18T14:48:39Z</time>
      </trkpt>
      <trkpt lat="47.16345" lon="5.56066">
        <ele>219</ele>
        <time>2011-03-18T14:48:41Z</time>
      </trkpt>
      <trkpt lat="47.16335" lon="5.56054">
        <ele>219</ele>
        <time>2011-03-18T14:48:43Z</time>
      </trkpt>
      <trkpt lat="47.16325" lon="5.5604">
        <ele>219</ele>
        <time>2011-03-18T14:48:45Z</time>
      </trkpt>
      <trkpt lat="47.16315" lon="5.56027">
        <ele>219</ele>
        <time>2011-03-18T14:48:47Z</time>
      </trkpt>
      <trkpt lat="47.16305" lon="5.56013">
        <ele>219</ele>
        <time>2011-03-18T14:48:49Z</time>
      </trkpt>
      <trkpt lat="47.16296" lon="5.56001">
        <ele>219</ele>
        <time>2011-03-18T14:48:51Z</time>
      </trkpt>
      <trkpt lat="47.16287" lon="5.55987">
        <ele>219</ele>
        <time>2011-03-18T14:48:53Z</time>
      </trkpt>
      <trkpt lat="47.16278" lon="5.55974">
        <ele>219</ele>
        <time>2011-03-18T14:48:55Z</time>
      </trkpt>
      <trkpt lat="47.16269" lon="5.55961">
        <ele>219</ele>
        <time>2011-03-18T14:48:57Z</time>
      </trkpt>
      <trkpt lat="47.16261" lon="5.55949">
        <ele>219</ele>
        <time>2011-03-18T14:48:59Z</time>
      </trkpt>
      <trkpt lat="47.16252" lon="5.55935">
        <ele>219</ele>
        <time>2011-03-18T14:49:01Z</time>
      </trkpt>
      <trkpt lat="47.16242" lon="5.55922">
        <ele>219</ele>
        <time>2011-03-18T14:49:03Z</time>
      </trkpt>
      <trkpt lat="47.16232" lon="5.55908">
        <ele>219</ele>
        <time>2011-03-18T14:49:05Z</time>
      </trkpt>
      <trkpt lat="47.1622" lon="5.55896">
        <ele>219</ele>
        <time>2011-03-18T14:49:07Z</time>
      </trkpt>
      <trkpt lat="47.16207" lon="5.55888">
        <ele>219</ele>
        <time>2011-03-18T14:49:09Z</time>
      </trkpt>
      <trkpt lat="47.16195" lon="5.55882">
        <ele>219</ele>
        <time>2011-03-18T14:49:11Z</time>
      </trkpt>
      <trkpt lat="47.16182" lon="5.55878">
        <ele>219</ele>
        <time>2011-03-18T14:49:13Z</time>
      </trkpt>
      <trkpt lat="47.16168" lon="5.55876">
        <ele>219</ele>
        <time>2011-03-18T14:49:15Z</time>
      </trkpt>
      <trkpt lat="47.16155" lon="5.55874">
        <ele>219</ele>
        <time>2011-03-18T14:49:17Z</time>
      </trkpt>
      <trkpt lat="47.16143" lon="5.55874">
        <ele>219</ele>
        <time>2011-03-18T14:49:19Z</time>
      </trkpt>
      <trkpt lat="47.1613" lon="5.55873">
        <ele>219</ele>
        <time>2011-03-18T14:49:21Z</time>
      </trkpt>
      <trkpt lat="47.16118" lon="5.55873">
        <ele>219</ele>
        <time>2011-03-18T14:49:23Z</time>
      </trkpt>
      <trkpt lat="47.16106" lon="5.55873">
        <ele>219</ele>
        <time>2011-03-18T14:49:25Z</time>
      </trkpt>
      <trkpt lat="47.16094" lon="5.55873">
        <ele>219</ele>
        <time>2011-03-18T14:49:27Z</time>
      </trkpt>
      <trkpt lat="47.16081" lon="5.55872">
        <ele>219</ele>
        <time>2011-03-18T14:49:29Z</time>
      </trkpt>
      <trkpt lat="47.16067" lon="5.55871">
        <ele>219</ele>
        <time>2011-03-18T14:49:31Z</time>
      </trkpt>
      <trkpt lat="47.16053" lon="5.5587">
        <ele>219</ele>
        <time>2011-03-18T14:49:33Z</time>
      </trkpt>
      <trkpt lat="47.1604" lon="5.55868">
        <ele>219</ele>
        <time>2011-03-18T14:49:35Z</time>
      </trkpt>
      <trkpt lat="47.16027" lon="5.55864">
        <ele>219</ele>
        <time>2011-03-18T14:49:37Z</time>
      </trkpt>
      <trkpt lat="47.16014" lon="5.55859">
        <ele>219</ele>
        <time>2011-03-18T14:49:39Z</time>
      </trkpt>
      <trkpt lat="47.16001" lon="5.55853">
        <ele>219</ele>
        <time>2011-03-18T14:49:41Z</time>
      </trkpt>
      <trkpt lat="47.15988" lon="5.55847">
        <ele>219</ele>
        <time>2011-03-18T14:49:43Z</time>
      </trkpt>
      <trkpt lat="47.15975" lon="5.55843">
        <ele>219</ele>
        <time>2011-03-18T14:49:45Z</time>
      </trkpt>
      <trkpt lat="47.15963" lon="5.55837">
        <ele>219</ele>
        <time>2011-03-18T14:49:47Z</time>
      </trkpt>
      <trkpt lat="47.15951" lon="5.55833">
        <ele>219</ele>
        <time>2011-03-18T14:49:49Z</time>
      </trkpt>
      <trkpt lat="47.1594" lon="5.55827">
        <ele>219</ele>
        <time>2011-03-18T14:49:51Z</time>
      </trkpt>
      <trkpt lat="47.15928" lon="5.55823">
        <ele>219</ele>
        <time>2011-03-18T14:49:53Z</time>
      </trkpt>
      <trkpt lat="47.15916" lon="5.55818">
        <ele>219</ele>
        <time>2011-03-18T14:49:55Z</time>
      </trkpt>
      <trkpt lat="47.15905" lon="5.55813">
        <ele>219</ele>
        <time>2011-03-18T14:49:57Z</time>
      </trkpt>
      <trkpt lat="47.15895" lon="5.55808">
        <ele>219</ele>
        <time>2011-03-18T14:49:59Z</time>
      </trkpt>
      <trkpt lat="47.15884" lon="5.55804">
        <ele>219</ele>
        <time>2011-03-18T14:50:01Z</time>
      </trkpt>
      <trkpt lat="47.15874" lon="5.55797">
        <ele>219</ele>
        <time>2011-03-18T14:50:03Z</time>
      </trkpt>
      <trkpt lat="47.15863" lon="5.5579">
        <ele>219</ele>
        <time>2011-03-18T14:50:05Z</time>
      </trkpt>
      <trkpt lat="47.15853" lon="5.55781">
        <ele>219</ele>
        <time>2011-03-18T14:50:07Z</time>
      </trkpt>
      <trkpt lat="47.15843" lon="5.55772">
        <ele>219</ele>
        <time>2011-03-18T14:50:09Z</time>
      </trkpt>
      <trkpt lat="47.15834" lon="5.55763">
        <ele>219</ele>
        <time>2011-03-18T14:50:11Z</time>
      </trkpt>
      <trkpt lat="47.15825" lon="5.55754">
        <ele>219</ele>
        <time>2011-03-18T14:50:13Z</time>
      </trkpt>
      <trkpt lat="47.15815" lon="5.55744">
        <ele>219</ele>
        <time>2011-03-18T14:50:15Z</time>
      </trkpt>
      <trkpt lat="47.15806" lon="5.55734">
        <ele>219</ele>
        <time>2011-03-18T14:50:17Z</time>
      </trkpt>
      <trkpt lat="47.15797" lon="5.55724">
        <ele>219</ele>
        <time>2011-03-18T14:50:19Z</time>
      </trkpt>
      <trkpt lat="47.15788" lon="5.55714">
        <ele>219</ele>
        <time>2011-03-18T14:50:21Z</time>
      </trkpt>
      <trkpt lat="47.15779" lon="5.55705">
        <ele>219</ele>
        <time>2011-03-18T14:50:23Z</time>
      </trkpt>
      <trkpt lat="47.15769" lon="5.55696">
        <ele>219</ele>
        <time>2011-03-18T14:50:25Z</time>
      </trkpt>
      <trkpt lat="47.15761" lon="5.55688">
        <ele>219</ele>
        <time>2011-03-18T14:50:27Z</time>
      </trkpt>
      <trkpt lat="47.15752" lon="5.55679">
        <ele>219</ele>
        <time>2011-03-18T14:50:29Z</time>
      </trkpt>
      <trkpt lat="47.15744" lon="5.55671">
        <ele>219</ele>
        <time>2011-03-18T14:50:31Z</time>
      </trkpt>
      <trkpt lat="47.15736" lon="5.55664">
        <ele>219</ele>
        <time>2011-03-18T14:50:33Z</time>
      </trkpt>
      <trkpt lat="47.15728" lon="5.55657">
        <ele>219</ele>
        <time>2011-03-18T14:50:35Z</time>
      </trkpt>
      <trkpt lat="47.1572" lon="5.55649">
        <ele>219</ele>
        <time>2011-03-18T14:50:37Z</time>
      </trkpt>
      <trkpt lat="47.15712" lon="5.55642">
        <ele>219</ele>
        <time>2011-03-18T14:50:39Z</time>
      </trkpt>
      <trkpt lat="47.15704" lon="5.55636">
        <ele>219</ele>
        <time>2011-03-18T14:50:41Z</time>
      </trkpt>
      <trkpt lat="47.15696" lon="5.5563">
        <ele>219</ele>
        <time>2011-03-18T14:50:43Z</time>
      </trkpt>
      <trkpt lat="47.15688" lon="5.55623">
        <ele>224</ele>
        <time>2011-03-18T14:50:45Z</time>
      </trkpt>
      <trkpt lat="47.1568" lon="5.55617">
        <ele>224</ele>
        <time>2011-03-18T14:50:47Z</time>
      </trkpt>
      <trkpt lat="47.15668" lon="5.55609">
        <ele>224</ele>
        <time>2011-03-18T14:50:50Z</time>
      </trkpt>
      <trkpt lat="47.15657" lon="5.55601">
        <ele>224</ele>
        <time>2011-03-18T14:50:53Z</time>
      </trkpt>
      <trkpt lat="47.15644" lon="5.55593">
        <ele>224</ele>
        <time>2011-03-18T14:50:56Z</time>
      </trkpt>
      <trkpt lat="47.15632" lon="5.55585">
        <ele>224</ele>
        <time>2011-03-18T14:50:59Z</time>
      </trkpt>
      <trkpt lat="47.1562" lon="5.55577">
        <ele>224</ele>
        <time>2011-03-18T14:51:02Z</time>
      </trkpt>
      <trkpt lat="47.15608" lon="5.55569">
        <ele>224</ele>
        <time>2011-03-18T14:51:05Z</time>
      </trkpt>
      <trkpt lat="47.15597" lon="5.5556">
        <ele>224</ele>
        <time>2011-03-18T14:51:08Z</time>
      </trkpt>
      <trkpt lat="47.15589" lon="5.55553">
        <ele>224</ele>
        <time>2011-03-18T14:51:10Z</time>
      </trkpt>
      <trkpt lat="47.15581" lon="5.55546">
        <ele>224</ele>
        <time>2011-03-18T14:51:12Z</time>
      </trkpt>
      <trkpt lat="47.15572" lon="5.55538">
        <ele>224</ele>
        <time>2011-03-18T14:51:14Z</time>
      </trkpt>
      <trkpt lat="47.15565" lon="5.5553">
        <ele>224</ele>
        <time>2011-03-18T14:51:16Z</time>
      </trkpt>
      <trkpt lat="47.15557" lon="5.55522">
        <ele>224</ele>
        <time>2011-03-18T14:51:18Z</time>
      </trkpt>
      <trkpt lat="47.15549" lon="5.55514">
        <ele>224</ele>
        <time>2011-03-18T14:51:20Z</time>
      </trkpt>
      <trkpt lat="47.15541" lon="5.55506">
        <ele>224</ele>
        <time>2011-03-18T14:51:22Z</time>
      </trkpt>
      <trkpt lat="47.15534" lon="5.55498">
        <ele>224</ele>
        <time>2011-03-18T14:51:24Z</time>
      </trkpt>
      <trkpt lat="47.15526" lon="5.55489">
        <ele>224</ele>
        <time>2011-03-18T14:51:26Z</time>
      </trkpt>
      <trkpt lat="47.15519" lon="5.5548">
        <ele>224</ele>
        <time>2011-03-18T14:51:28Z</time>
      </trkpt>
      <trkpt lat="47.1551" lon="5.55472">
        <ele>224</ele>
        <time>2011-03-18T14:51:30Z</time>
      </trkpt>
      <trkpt lat="47.15502" lon="5.55463">
        <ele>224</ele>
        <time>2011-03-18T14:51:32Z</time>
      </trkpt>
      <trkpt lat="47.15495" lon="5.55454">
        <ele>224</ele>
        <time>2011-03-18T14:51:34Z</time>
      </trkpt>
      <trkpt lat="47.15488" lon="5.55445">
        <ele>224</ele>
        <time>2011-03-18T14:51:36Z</time>
      </trkpt>
      <trkpt lat="47.1548" lon="5.55436">
        <ele>224</ele>
        <time>2011-03-18T14:51:38Z</time>
      </trkpt>
      <trkpt lat="47.15472" lon="5.55426">
        <ele>224</ele>
        <time>2011-03-18T14:51:40Z</time>
      </trkpt>
      <trkpt lat="47.15464" lon="5.55417">
        <ele>224</ele>
        <time>2011-03-18T14:51:42Z</time>
      </trkpt>
      <trkpt lat="47.15457" lon="5.55409">
        <ele>224</ele>
        <time>2011-03-18T14:51:44Z</time>
      </trkpt>
      <trkpt lat="47.15449" lon="5.554">
        <ele>224</ele>
        <time>2011-03-18T14:51:46Z</time>
      </trkpt>
      <trkpt lat="47.15442" lon="5.55392">
        <ele>224</ele>
        <time>2011-03-18T14:51:48Z</time>
      </trkpt>
      <trkpt lat="47.15431" lon="5.55381">
        <ele>224</ele>
        <time>2011-03-18T14:51:51Z</time>
      </trkpt>
      <trkpt lat="47.15421" lon="5.55371">
        <ele>224</ele>
        <time>2011-03-18T14:51:54Z</time>
      </trkpt>
      <trkpt lat="47.1541" lon="5.55362">
        <ele>224</ele>
        <time>2011-03-18T14:51:57Z</time>
      </trkpt>
      <trkpt lat="47.15399" lon="5.55353">
        <ele>224</ele>
        <time>2011-03-18T14:52:00Z</time>
      </trkpt>
      <trkpt lat="47.15388" lon="5.55345">
        <ele>229</ele>
        <time>2011-03-18T14:52:03Z</time>
      </trkpt>
      <trkpt lat="47.15377" lon="5.55337">
        <ele>229</ele>
        <time>2011-03-18T14:52:06Z</time>
      </trkpt>
      <trkpt lat="47.15366" lon="5.55329">
        <ele>229</ele>
        <time>2011-03-18T14:52:09Z</time>
      </trkpt>
      <trkpt lat="47.15354" lon="5.55321">
        <ele>229</ele>
        <time>2011-03-18T14:52:12Z</time>
      </trkpt>
      <trkpt lat="47.15346" lon="5.55314">
        <ele>229</ele>
        <time>2011-03-18T14:52:14Z</time>
      </trkpt>
      <trkpt lat="47.15337" lon="5.55307">
        <ele>229</ele>
        <time>2011-03-18T14:52:16Z</time>
      </trkpt>
      <trkpt lat="47.15329" lon="5.55301">
        <ele>229</ele>
        <time>2011-03-18T14:52:18Z</time>
      </trkpt>
      <trkpt lat="47.15319" lon="5.55294">
        <ele>229</ele>
        <time>2011-03-18T14:52:20Z</time>
      </trkpt>
      <trkpt lat="47.15309" lon="5.55286">
        <ele>229</ele>
        <time>2011-03-18T14:52:22Z</time>
      </trkpt>
      <trkpt lat="47.153" lon="5.55277">
        <ele>229</ele>
        <time>2011-03-18T14:52:24Z</time>
      </trkpt>
      <trkpt lat="47.1529" lon="5.55268">
        <ele>229</ele>
        <time>2011-03-18T14:52:26Z</time>
      </trkpt>
      <trkpt lat="47.1528" lon="5.5526">
        <ele>229</ele>
        <time>2011-03-18T14:52:28Z</time>
      </trkpt>
      <trkpt lat="47.1527" lon="5.55252">
        <ele>229</ele>
        <time>2011-03-18T14:52:30Z</time>
      </trkpt>
      <trkpt lat="47.1526" lon="5.55243">
        <ele>229</ele>
        <time>2011-03-18T14:52:32Z</time>
      </trkpt>
      <trkpt lat="47.15249" lon="5.55235">
        <ele>229</ele>
        <time>2011-03-18T14:52:34Z</time>
      </trkpt>
      <trkpt lat="47.15239" lon="5.55227">
        <ele>229</ele>
        <time>2011-03-18T14:52:36Z</time>
      </trkpt>
      <trkpt lat="47.15229" lon="5.55219">
        <ele>229</ele>
        <time>2011-03-18T14:52:38Z</time>
      </trkpt>
      <trkpt lat="47.15221" lon="5.55213">
        <ele>229</ele>
        <time>2011-03-18T14:52:40Z</time>
      </trkpt>
      <trkpt lat="47.15212" lon="5.55207">
        <ele>229</ele>
        <time>2011-03-18T14:52:42Z</time>
      </trkpt>
      <trkpt lat="47.15203" lon="5.55199">
        <ele>229</ele>
        <time>2011-03-18T14:52:44Z</time>
      </trkpt>
      <trkpt lat="47.15192" lon="5.55192">
        <ele>229</ele>
        <time>2011-03-18T14:52:46Z</time>
      </trkpt>
      <trkpt lat="47.15182" lon="5.55185">
        <ele>229</ele>
        <time>2011-03-18T14:52:48Z</time>
      </trkpt>
      <trkpt lat="47.15172" lon="5.55179">
        <ele>229</ele>
        <time>2011-03-18T14:52:50Z</time>
      </trkpt>
      <trkpt lat="47.15162" lon="5.55171">
        <ele>229</ele>
        <time>2011-03-18T14:52:52Z</time>
      </trkpt>
      <trkpt lat="47.15151" lon="5.55164">
        <ele>229</ele>
        <time>2011-03-18T14:52:54Z</time>
      </trkpt>
      <trkpt lat="47.15139" lon="5.55156">
        <ele>229</ele>
        <time>2011-03-18T14:52:56Z</time>
      </trkpt>
      <trkpt lat="47.15128" lon="5.55149">
        <ele>229</ele>
        <time>2011-03-18T14:52:58Z</time>
      </trkpt>
      <trkpt lat="47.15117" lon="5.55141">
        <ele>229</ele>
        <time>2011-03-18T14:53:00Z</time>
      </trkpt>
      <trkpt lat="47.15105" lon="5.55133">
        <ele>229</ele>
        <time>2011-03-18T14:53:02Z</time>
      </trkpt>
      <trkpt lat="47.15094" lon="5.55126">
        <ele>229</ele>
        <time>2011-03-18T14:53:04Z</time>
      </trkpt>
      <trkpt lat="47.15083" lon="5.55118">
        <ele>229</ele>
        <time>2011-03-18T14:53:06Z</time>
      </trkpt>
      <trkpt lat="47.15072" lon="5.55111">
        <ele>229</ele>
        <time>2011-03-18T14:53:08Z</time>
      </trkpt>
      <trkpt lat="47.15061" lon="5.55103">
        <ele>229</ele>
        <time>2011-03-18T14:53:10Z</time>
      </trkpt>
      <trkpt lat="47.15051" lon="5.55097">
        <ele>229</ele>
        <time>2011-03-18T14:53:12Z</time>
      </trkpt>
      <trkpt lat="47.15042" lon="5.55091">
        <ele>229</ele>
        <time>2011-03-18T14:53:14Z</time>
      </trkpt>
      <trkpt lat="47.15033" lon="5.55085">
        <ele>229</ele>
        <time>2011-03-18T14:53:16Z</time>
      </trkpt>
      <trkpt lat="47.15025" lon="5.55079">
        <ele>229</ele>
        <time>2011-03-18T14:53:18Z</time>
      </trkpt>
      <trkpt lat="47.15016" lon="5.55074">
        <ele>229</ele>
        <time>2011-03-18T14:53:20Z</time>
      </trkpt>
      <trkpt lat="47.15008" lon="5.55068">
        <ele>229</ele>
        <time>2011-03-18T14:53:22Z</time>
      </trkpt>
      <trkpt lat="47.14999" lon="5.55063">
        <ele>229</ele>
        <time>2011-03-18T14:53:24Z</time>
      </trkpt>
      <trkpt lat="47.14991" lon="5.55057">
        <ele>229</ele>
        <time>2011-03-18T14:53:26Z</time>
      </trkpt>
      <trkpt lat="47.14982" lon="5.55052">
        <ele>224</ele>
        <time>2011-03-18T14:53:28Z</time>
      </trkpt>
      <trkpt lat="47.14973" lon="5.55048">
        <ele>224</ele>
        <time>2011-03-18T14:53:30Z</time>
      </trkpt>
      <trkpt lat="47.14962" lon="5.5504">
        <ele>224</ele>
        <time>2011-03-18T14:53:33Z</time>
      </trkpt>
      <trkpt lat="47.14952" lon="5.55037">
        <ele>224</ele>
        <time>2011-03-18T14:53:36Z</time>
      </trkpt>
      <trkpt lat="47.14943" lon="5.55046">
        <ele>224</ele>
        <time>2011-03-18T14:53:39Z</time>
      </trkpt>
      <trkpt lat="47.14937" lon="5.55062">
        <ele>224</ele>
        <time>2011-03-18T14:53:42Z</time>
      </trkpt>
      <trkpt lat="47.14931" lon="5.55079">
        <ele>224</ele>
        <time>2011-03-18T14:53:45Z</time>
      </trkpt>
      <trkpt lat="47.14925" lon="5.55095">
        <ele>224</ele>
        <time>2011-03-18T14:53:48Z</time>
      </trkpt>
      <trkpt lat="47.14919" lon="5.55106">
        <ele>224</ele>
        <time>2011-03-18T14:53:50Z</time>
      </trkpt>
      <trkpt lat="47.14915" lon="5.55119">
        <ele>224</ele>
        <time>2011-03-18T14:53:52Z</time>
      </trkpt>
      <trkpt lat="47.14909" lon="5.55132">
        <ele>224</ele>
        <time>2011-03-18T14:53:54Z</time>
      </trkpt>
      <trkpt lat="47.14904" lon="5.55144">
        <ele>224</ele>
        <time>2011-03-18T14:53:56Z</time>
      </trkpt>
      <trkpt lat="47.14897" lon="5.55154">
        <ele>224</ele>
        <time>2011-03-18T14:53:58Z</time>
      </trkpt>
      <trkpt lat="47.14888" lon="5.55162">
        <ele>224</ele>
        <time>2011-03-18T14:54:00Z</time>
      </trkpt>
      <trkpt lat="47.14877" lon="5.55165">
        <ele>224</ele>
        <time>2011-03-18T14:54:02Z</time>
      </trkpt>
      <trkpt lat="47.14866" lon="5.55166">
        <ele>224</ele>
        <time>2011-03-18T14:54:04Z</time>
      </trkpt>
      <trkpt lat="47.14855" lon="5.55167">
        <ele>224</ele>
        <time>2011-03-18T14:54:06Z</time>
      </trkpt>
      <trkpt lat="47.14844" lon="5.55172">
        <ele>224</ele>
        <time>2011-03-18T14:54:08Z</time>
      </trkpt>
      <trkpt lat="47.14834" lon="5.55183">
        <ele>224</ele>
        <time>2011-03-18T14:54:10Z</time>
      </trkpt>
      <trkpt lat="47.14824" lon="5.55197">
        <ele>224</ele>
        <time>2011-03-18T14:54:12Z</time>
      </trkpt>
      <trkpt lat="47.14816" lon="5.55211">
        <ele>224</ele>
        <time>2011-03-18T14:54:14Z</time>
      </trkpt>
      <trkpt lat="47.14806" lon="5.55225">
        <ele>224</ele>
        <time>2011-03-18T14:54:16Z</time>
      </trkpt>
      <trkpt lat="47.14796" lon="5.5524">
        <ele>224</ele>
        <time>2011-03-18T14:54:18Z</time>
      </trkpt>
      <trkpt lat="47.14783" lon="5.55251">
        <ele>224</ele>
        <time>2011-03-18T14:54:20Z</time>
      </trkpt>
      <trkpt lat="47.14768" lon="5.55258">
        <ele>224</ele>
        <time>2011-03-18T14:54:22Z</time>
      </trkpt>
      <trkpt lat="47.14751" lon="5.5526">
        <ele>224</ele>
        <time>2011-03-18T14:54:24Z</time>
      </trkpt>
      <trkpt lat="47.14733" lon="5.5526">
        <ele>224</ele>
        <time>2011-03-18T14:54:26Z</time>
      </trkpt>
      <trkpt lat="47.14724" lon="5.5526">
        <ele>224</ele>
        <time>2011-03-18T14:54:27Z</time>
      </trkpt>
      <trkpt lat="47.14711" lon="5.55257">
        <ele>224</ele>
        <time>2011-03-18T14:54:29Z</time>
      </trkpt>
      <trkpt lat="47.14702" lon="5.55252">
        <ele>224</ele>
        <time>2011-03-18T14:54:31Z</time>
      </trkpt>
      <trkpt lat="47.14689" lon="5.55249">
        <ele>224</ele>
        <time>2011-03-18T14:54:34Z</time>
      </trkpt>
      <trkpt lat="47.1468" lon="5.55244">
        <ele>224</ele>
        <time>2011-03-18T14:54:36Z</time>
      </trkpt>
      <trkpt lat="47.14669" lon="5.5524">
        <ele>224</ele>
        <time>2011-03-18T14:54:38Z</time>
      </trkpt>
      <trkpt lat="47.14661" lon="5.55234">
        <ele>224</ele>
        <time>2011-03-18T14:54:40Z</time>
      </trkpt>
      <trkpt lat="47.14652" lon="5.55227">
        <ele>224</ele>
        <time>2011-03-18T14:54:42Z</time>
      </trkpt>
      <trkpt lat="47.14643" lon="5.55219">
        <ele>219</ele>
        <time>2011-03-18T14:54:44Z</time>
      </trkpt>
      <trkpt lat="47.14634" lon="5.55209">
        <ele>219</ele>
        <time>2011-03-18T14:54:46Z</time>
      </trkpt>
      <trkpt lat="47.14626" lon="5.55199">
        <ele>219</ele>
        <time>2011-03-18T14:54:48Z</time>
      </trkpt>
      <trkpt lat="47.14617" lon="5.55188">
        <ele>219</ele>
        <time>2011-03-18T14:54:50Z</time>
      </trkpt>
      <trkpt lat="47.14608" lon="5.55177">
        <ele>219</ele>
        <time>2011-03-18T14:54:52Z</time>
      </trkpt>
      <trkpt lat="47.14598" lon="5.55165">
        <ele>219</ele>
        <time>2011-03-18T14:54:54Z</time>
      </trkpt>
      <trkpt lat="47.1459" lon="5.55153">
        <ele>219</ele>
        <time>2011-03-18T14:54:56Z</time>
      </trkpt>
      <trkpt lat="47.14582" lon="5.5514">
        <ele>214</ele>
        <time>2011-03-18T14:54:58Z</time>
      </trkpt>
      <trkpt lat="47.14574" lon="5.55128">
        <ele>214</ele>
        <time>2011-03-18T14:55:00Z</time>
      </trkpt>
      <trkpt lat="47.14568" lon="5.55117">
        <ele>214</ele>
        <time>2011-03-18T14:55:02Z</time>
      </trkpt>
      <trkpt lat="47.14561" lon="5.55106">
        <ele>214</ele>
        <time>2011-03-18T14:55:04Z</time>
      </trkpt>
      <trkpt lat="47.14555" lon="5.55095">
        <ele>214</ele>
        <time>2011-03-18T14:55:06Z</time>
      </trkpt>
      <trkpt lat="47.14547" lon="5.55086">
        <ele>214</ele>
        <time>2011-03-18T14:55:08Z</time>
      </trkpt>
      <trkpt lat="47.14539" lon="5.55071">
        <ele>214</ele>
        <time>2011-03-18T14:55:11Z</time>
      </trkpt>
      <trkpt lat="47.14531" lon="5.55056">
        <ele>214</ele>
        <time>2011-03-18T14:55:14Z</time>
      </trkpt>
      <trkpt lat="47.14525" lon="5.5504">
        <ele>214</ele>
        <time>2011-03-18T14:55:17Z</time>
      </trkpt>
      <trkpt lat="47.1452" lon="5.55025">
        <ele>219</ele>
        <time>2011-03-18T14:55:20Z</time>
      </trkpt>
      <trkpt lat="47.14517" lon="5.55009">
        <ele>219</ele>
        <time>2011-03-18T14:55:23Z</time>
      </trkpt>
      <trkpt lat="47.14514" lon="5.54991">
        <ele>219</ele>
        <time>2011-03-18T14:55:26Z</time>
      </trkpt>
      <trkpt lat="47.14515" lon="5.54972">
        <ele>219</ele>
        <time>2011-03-18T14:55:29Z</time>
      </trkpt>
      <trkpt lat="47.14517" lon="5.54959">
        <ele>219</ele>
        <time>2011-03-18T14:55:31Z</time>
      </trkpt>
      <trkpt lat="47.1452" lon="5.54943">
        <ele>219</ele>
        <time>2011-03-18T14:55:33Z</time>
      </trkpt>
      <trkpt lat="47.14522" lon="5.54926">
        <ele>219</ele>
        <time>2011-03-18T14:55:35Z</time>
      </trkpt>
      <trkpt lat="47.14527" lon="5.54911">
        <ele>214</ele>
        <time>2011-03-18T14:55:37Z</time>
      </trkpt>
      <trkpt lat="47.14532" lon="5.54895">
        <ele>214</ele>
        <time>2011-03-18T14:55:39Z</time>
      </trkpt>
      <trkpt lat="47.14537" lon="5.5488">
        <ele>214</ele>
        <time>2011-03-18T14:55:41Z</time>
      </trkpt>
      <trkpt lat="47.14543" lon="5.54868">
        <ele>214</ele>
        <time>2011-03-18T14:55:43Z</time>
      </trkpt>
      <trkpt lat="47.14549" lon="5.54858">
        <ele>214</ele>
        <time>2011-03-18T14:55:45Z</time>
      </trkpt>
      <trkpt lat="47.14557" lon="5.54848">
        <ele>214</ele>
        <time>2011-03-18T14:55:48Z</time>
      </trkpt>
      <trkpt lat="47.1456" lon="5.54836">
        <ele>214</ele>
        <time>2011-03-18T14:56:31Z</time>
      </trkpt>
      <trkpt lat="47.14556" lon="5.54822">
        <ele>214</ele>
        <time>2011-03-18T15:02:18Z</time>
      </trkpt>
      <trkpt lat="47.14555" lon="5.54807">
        <ele>214</ele>
        <time>2011-03-18T15:02:23Z</time>
      </trkpt>
      <trkpt lat="47.14552" lon="5.54792">
        <ele>214</ele>
        <time>2011-03-18T15:02:27Z</time>
      </trkpt>
      <trkpt lat="47.14547" lon="5.54777">
        <ele>214</ele>
        <time>2011-03-18T15:02:31Z</time>
      </trkpt>
      <trkpt lat="47.14541" lon="5.54765">
        <ele>214</ele>
        <time>2011-03-18T15:02:34Z</time>
      </trkpt>
      <trkpt lat="47.14535" lon="5.54751">
        <ele>219</ele>
        <time>2011-03-18T15:02:38Z</time>
      </trkpt>
      <trkpt lat="47.1453" lon="5.54739">
        <ele>219</ele>
        <time>2011-03-18T15:02:41Z</time>
      </trkpt>
      <trkpt lat="47.14526" lon="5.54727">
        <ele>219</ele>
        <time>2011-03-18T15:02:44Z</time>
      </trkpt>
      <trkpt lat="47.14521" lon="5.54715">
        <ele>219</ele>
        <time>2011-03-18T15:02:47Z</time>
      </trkpt>
      <trkpt lat="47.14517" lon="5.54703">
        <ele>219</ele>
        <time>2011-03-18T15:02:50Z</time>
      </trkpt>
      <trkpt lat="47.14512" lon="5.54691">
        <ele>219</ele>
        <time>2011-03-18T15:02:53Z</time>
      </trkpt>
      <trkpt lat="47.14508" lon="5.54678">
        <ele>219</ele>
        <time>2011-03-18T15:02:56Z</time>
      </trkpt>
      <trkpt lat="47.14503" lon="5.54666">
        <ele>219</ele>
        <time>2011-03-18T15:02:59Z</time>
      </trkpt>
      <trkpt lat="47.14499" lon="5.54653">
        <ele>219</ele>
        <time>2011-03-18T15:03:02Z</time>
      </trkpt>
      <trkpt lat="47.14495" lon="5.54641">
        <ele>219</ele>
        <time>2011-03-18T15:03:05Z</time>
      </trkpt>
      <trkpt lat="47.1449" lon="5.54628">
        <ele>219</ele>
        <time>2011-03-18T15:03:08Z</time>
      </trkpt>
      <trkpt lat="47.14486" lon="5.54615">
        <ele>219</ele>
        <time>2011-03-18T15:03:11Z</time>
      </trkpt>
      <trkpt lat="47.14482" lon="5.54603">
        <ele>219</ele>
        <time>2011-03-18T15:03:14Z</time>
      </trkpt>
      <trkpt lat="47.14479" lon="5.54589">
        <ele>219</ele>
        <time>2011-03-18T15:03:17Z</time>
      </trkpt>
      <trkpt lat="47.14475" lon="5.54576">
        <ele>219</ele>
        <time>2011-03-18T15:03:20Z</time>
      </trkpt>
      <trkpt lat="47.14471" lon="5.54562">
        <ele>219</ele>
        <time>2011-03-18T15:03:23Z</time>
      </trkpt>
      <trkpt lat="47.14468" lon="5.54547">
        <ele>219</ele>
        <time>2011-03-18T15:03:26Z</time>
      </trkpt>
      <trkpt lat="47.14465" lon="5.54532">
        <ele>224</ele>
        <time>2011-03-18T15:03:29Z</time>
      </trkpt>
      <trkpt lat="47.14462" lon="5.54516">
        <ele>224</ele>
        <time>2011-03-18T15:03:32Z</time>
      </trkpt>
      <trkpt lat="47.14459" lon="5.545">
        <ele>224</ele>
        <time>2011-03-18T15:03:35Z</time>
      </trkpt>
      <trkpt lat="47.14456" lon="5.54483">
        <ele>224</ele>
        <time>2011-03-18T15:03:38Z</time>
      </trkpt>
      <trkpt lat="47.14452" lon="5.54465">
        <ele>224</ele>
        <time>2011-03-18T15:03:41Z</time>
      </trkpt>
      <trkpt lat="47.14448" lon="5.54447">
        <ele>224</ele>
        <time>2011-03-18T15:03:44Z</time>
      </trkpt>
      <trkpt lat="47.14445" lon="5.54432">
        <ele>224</ele>
        <time>2011-03-18T15:03:46Z</time>
      </trkpt>
      <trkpt lat="47.14442" lon="5.54417">
        <ele>224</ele>
        <time>2011-03-18T15:03:48Z</time>
      </trkpt>
      <trkpt lat="47.14439" lon="5.544">
        <ele>224</ele>
        <time>2011-03-18T15:03:50Z</time>
      </trkpt>
      <trkpt lat="47.14435" lon="5.54381">
        <ele>224</ele>
        <time>2011-03-18T15:03:52Z</time>
      </trkpt>
      <trkpt lat="47.14432" lon="5.54363">
        <ele>224</ele>
        <time>2011-03-18T15:03:54Z</time>
      </trkpt>
      <trkpt lat="47.14428" lon="5.54344">
        <ele>224</ele>
        <time>2011-03-18T15:03:56Z</time>
      </trkpt>
      <trkpt lat="47.14424" lon="5.54325">
        <ele>224</ele>
        <time>2011-03-18T15:03:58Z</time>
      </trkpt>
      <trkpt lat="47.1442" lon="5.54307">
        <ele>224</ele>
        <time>2011-03-18T15:04:00Z</time>
      </trkpt>
      <trkpt lat="47.14416" lon="5.54289">
        <ele>224</ele>
        <time>2011-03-18T15:04:02Z</time>
      </trkpt>
      <trkpt lat="47.14413" lon="5.54271">
        <ele>224</ele>
        <time>2011-03-18T15:04:04Z</time>
      </trkpt>
      <trkpt lat="47.14409" lon="5.54254">
        <ele>224</ele>
        <time>2011-03-18T15:04:06Z</time>
      </trkpt>
      <trkpt lat="47.14406" lon="5.54238">
        <ele>224</ele>
        <time>2011-03-18T15:04:08Z</time>
      </trkpt>
      <trkpt lat="47.14403" lon="5.54223">
        <ele>224</ele>
        <time>2011-03-18T15:04:10Z</time>
      </trkpt>
      <trkpt lat="47.144" lon="5.54209">
        <ele>224</ele>
        <time>2011-03-18T15:04:12Z</time>
      </trkpt>
      <trkpt lat="47.14398" lon="5.54197">
        <ele>224</ele>
        <time>2011-03-18T15:04:14Z</time>
      </trkpt>
      <trkpt lat="47.14395" lon="5.54184">
        <ele>224</ele>
        <time>2011-03-18T15:04:16Z</time>
      </trkpt>
      <trkpt lat="47.14393" lon="5.54172">
        <ele>224</ele>
        <time>2011-03-18T15:04:18Z</time>
      </trkpt>
      <trkpt lat="47.14391" lon="5.54159">
        <ele>224</ele>
        <time>2011-03-18T15:04:20Z</time>
      </trkpt>
      <trkpt lat="47.14388" lon="5.54146">
        <ele>224</ele>
        <time>2011-03-18T15:04:22Z</time>
      </trkpt>
      <trkpt lat="47.14386" lon="5.54134">
        <ele>224</ele>
        <time>2011-03-18T15:04:24Z</time>
      </trkpt>
      <trkpt lat="47.14383" lon="5.54121">
        <ele>224</ele>
        <time>2011-03-18T15:04:26Z</time>
      </trkpt>
      <trkpt lat="47.1438" lon="5.54108">
        <ele>224</ele>
        <time>2011-03-18T15:04:28Z</time>
      </trkpt>
      <trkpt lat="47.14378" lon="5.54094">
        <ele>224</ele>
        <time>2011-03-18T15:04:30Z</time>
      </trkpt>
      <trkpt lat="47.14375" lon="5.5408">
        <ele>224</ele>
        <time>2011-03-18T15:04:32Z</time>
      </trkpt>
      <trkpt lat="47.14373" lon="5.54067">
        <ele>224</ele>
        <time>2011-03-18T15:04:34Z</time>
      </trkpt>
      <trkpt lat="47.14371" lon="5.54053">
        <ele>224</ele>
        <time>2011-03-18T15:04:36Z</time>
      </trkpt>
      <trkpt lat="47.14369" lon="5.5404">
        <ele>224</ele>
        <time>2011-03-18T15:04:38Z</time>
      </trkpt>
      <trkpt lat="47.14368" lon="5.54026">
        <ele>224</ele>
        <time>2011-03-18T15:04:40Z</time>
      </trkpt>
      <trkpt lat="47.14367" lon="5.54013">
        <ele>224</ele>
        <time>2011-03-18T15:04:42Z</time>
      </trkpt>
      <trkpt lat="47.14365" lon="5.53994">
        <ele>224</ele>
        <time>2011-03-18T15:04:45Z</time>
      </trkpt>
      <trkpt lat="47.14365" lon="5.5398">
        <ele>224</ele>
        <time>2011-03-18T15:04:47Z</time>
      </trkpt>
      <trkpt lat="47.14364" lon="5.53961">
        <ele>224</ele>
        <time>2011-03-18T15:04:50Z</time>
      </trkpt>
      <trkpt lat="47.14363" lon="5.53943">
        <ele>224</ele>
        <time>2011-03-18T15:04:53Z</time>
      </trkpt>
      <trkpt lat="47.14361" lon="5.53925">
        <ele>224</ele>
        <time>2011-03-18T15:04:56Z</time>
      </trkpt>
      <trkpt lat="47.14361" lon="5.53907">
        <ele>224</ele>
        <time>2011-03-18T15:04:59Z</time>
      </trkpt>
      <trkpt lat="47.14359" lon="5.53889">
        <ele>224</ele>
        <time>2011-03-18T15:05:02Z</time>
      </trkpt>
      <trkpt lat="47.14359" lon="5.53871">
        <ele>224</ele>
        <time>2011-03-18T15:05:05Z</time>
      </trkpt>
      <trkpt lat="47.14358" lon="5.53854">
        <ele>224</ele>
        <time>2011-03-18T15:05:08Z</time>
      </trkpt>
      <trkpt lat="47.14358" lon="5.53837">
        <ele>229</ele>
        <time>2011-03-18T15:05:11Z</time>
      </trkpt>
      <trkpt lat="47.14358" lon="5.5382">
        <ele>229</ele>
        <time>2011-03-18T15:05:14Z</time>
      </trkpt>
      <trkpt lat="47.14358" lon="5.53803">
        <ele>229</ele>
        <time>2011-03-18T15:05:17Z</time>
      </trkpt>
      <trkpt lat="47.14359" lon="5.53787">
        <ele>229</ele>
        <time>2011-03-18T15:05:20Z</time>
      </trkpt>
      <trkpt lat="47.14359" lon="5.53771">
        <ele>229</ele>
        <time>2011-03-18T15:05:23Z</time>
      </trkpt>
      <trkpt lat="47.14359" lon="5.53753">
        <ele>229</ele>
        <time>2011-03-18T15:05:26Z</time>
      </trkpt>
      <trkpt lat="47.1436" lon="5.53734">
        <ele>229</ele>
        <time>2011-03-18T15:05:29Z</time>
      </trkpt>
      <trkpt lat="47.14361" lon="5.53715">
        <ele>229</ele>
        <time>2011-03-18T15:05:32Z</time>
      </trkpt>
      <trkpt lat="47.14362" lon="5.53702">
        <ele>229</ele>
        <time>2011-03-18T15:05:34Z</time>
      </trkpt>
      <trkpt lat="47.14363" lon="5.53683">
        <ele>229</ele>
        <time>2011-03-18T15:05:37Z</time>
      </trkpt>
      <trkpt lat="47.14364" lon="5.53663">
        <ele>229</ele>
        <time>2011-03-18T15:05:40Z</time>
      </trkpt>
      <trkpt lat="47.14366" lon="5.53645">
        <ele>229</ele>
        <time>2011-03-18T15:05:43Z</time>
      </trkpt>
      <trkpt lat="47.14368" lon="5.53626">
        <ele>229</ele>
        <time>2011-03-18T15:05:46Z</time>
      </trkpt>
      <trkpt lat="47.1437" lon="5.53608">
        <ele>235</ele>
        <time>2011-03-18T15:05:49Z</time>
      </trkpt>
      <trkpt lat="47.14373" lon="5.53589">
        <ele>235</ele>
        <time>2011-03-18T15:05:52Z</time>
      </trkpt>
      <trkpt lat="47.14376" lon="5.5357">
        <ele>235</ele>
        <time>2011-03-18T15:05:55Z</time>
      </trkpt>
      <trkpt lat="47.1438" lon="5.53551">
        <ele>235</ele>
        <time>2011-03-18T15:05:58Z</time>
      </trkpt>
      <trkpt lat="47.14383" lon="5.53538">
        <ele>235</ele>
        <time>2011-03-18T15:06:00Z</time>
      </trkpt>
      <trkpt lat="47.14385" lon="5.53526">
        <ele>235</ele>
        <time>2011-03-18T15:06:02Z</time>
      </trkpt>
      <trkpt lat="47.14387" lon="5.53513">
        <ele>235</ele>
        <time>2011-03-18T15:06:04Z</time>
      </trkpt>
      <trkpt lat="47.14391" lon="5.53501">
        <ele>235</ele>
        <time>2011-03-18T15:06:06Z</time>
      </trkpt>
      <trkpt lat="47.14393" lon="5.53488">
        <ele>235</ele>
        <time>2011-03-18T15:06:08Z</time>
      </trkpt>
      <trkpt lat="47.14396" lon="5.53475">
        <ele>235</ele>
        <time>2011-03-18T15:06:10Z</time>
      </trkpt>
      <trkpt lat="47.14399" lon="5.53463">
        <ele>235</ele>
        <time>2011-03-18T15:06:12Z</time>
      </trkpt>
      <trkpt lat="47.14402" lon="5.5345">
        <ele>235</ele>
        <time>2011-03-18T15:06:14Z</time>
      </trkpt>
      <trkpt lat="47.14405" lon="5.53438">
        <ele>235</ele>
        <time>2011-03-18T15:06:16Z</time>
      </trkpt>
      <trkpt lat="47.14408" lon="5.53425">
        <ele>235</ele>
        <time>2011-03-18T15:06:18Z</time>
      </trkpt>
      <trkpt lat="47.14412" lon="5.53407">
        <ele>235</ele>
        <time>2011-03-18T15:06:21Z</time>
      </trkpt>
      <trkpt lat="47.14415" lon="5.5339">
        <ele>241</ele>
        <time>2011-03-18T15:06:24Z</time>
      </trkpt>
      <trkpt lat="47.14418" lon="5.53374">
        <ele>241</ele>
        <time>2011-03-18T15:06:27Z</time>
      </trkpt>
      <trkpt lat="47.14421" lon="5.53357">
        <ele>241</ele>
        <time>2011-03-18T15:06:30Z</time>
      </trkpt>
      <trkpt lat="47.14424" lon="5.5334">
        <ele>241</ele>
        <time>2011-03-18T15:06:33Z</time>
      </trkpt>
      <trkpt lat="47.14427" lon="5.53321">
        <ele>241</ele>
        <time>2011-03-18T15:06:36Z</time>
      </trkpt>
      <trkpt lat="47.1443" lon="5.53303">
        <ele>241</ele>
        <time>2011-03-18T15:06:39Z</time>
      </trkpt>
      <trkpt lat="47.14431" lon="5.5329">
        <ele>241</ele>
        <time>2011-03-18T15:06:41Z</time>
      </trkpt>
      <trkpt lat="47.14433" lon="5.53276">
        <ele>241</ele>
        <time>2011-03-18T15:06:43Z</time>
      </trkpt>
      <trkpt lat="47.14434" lon="5.53263">
        <ele>241</ele>
        <time>2011-03-18T15:06:45Z</time>
      </trkpt>
      <trkpt lat="47.14435" lon="5.53249">
        <ele>241</ele>
        <time>2011-03-18T15:06:47Z</time>
      </trkpt>
      <trkpt lat="47.14435" lon="5.53235">
        <ele>241</ele>
        <time>2011-03-18T15:06:49Z</time>
      </trkpt>
      <trkpt lat="47.14435" lon="5.53221">
        <ele>241</ele>
        <time>2011-03-18T15:06:51Z</time>
      </trkpt>
      <trkpt lat="47.14435" lon="5.53206">
        <ele>241</ele>
        <time>2011-03-18T15:06:53Z</time>
      </trkpt>
      <trkpt lat="47.14435" lon="5.53192">
        <ele>241</ele>
        <time>2011-03-18T15:06:55Z</time>
      </trkpt>
      <trkpt lat="47.14434" lon="5.53176">
        <ele>241</ele>
        <time>2011-03-18T15:06:57Z</time>
      </trkpt>
      <trkpt lat="47.14433" lon="5.5316">
        <ele>241</ele>
        <time>2011-03-18T15:06:59Z</time>
      </trkpt>
      <trkpt lat="47.14435" lon="5.53145">
        <ele>241</ele>
        <time>2011-03-18T15:07:01Z</time>
      </trkpt>
      <trkpt lat="47.14436" lon="5.5313">
        <ele>241</ele>
        <time>2011-03-18T15:07:03Z</time>
      </trkpt>
      <trkpt lat="47.14439" lon="5.53113">
        <ele>241</ele>
        <time>2011-03-18T15:07:05Z</time>
      </trkpt>
      <trkpt lat="47.14443" lon="5.53098">
        <ele>241</ele>
        <time>2011-03-18T15:07:07Z</time>
      </trkpt>
      <trkpt lat="47.14447" lon="5.53083">
        <ele>241</ele>
        <time>2011-03-18T15:07:09Z</time>
      </trkpt>
      <trkpt lat="47.14452" lon="5.53069">
        <ele>241</ele>
        <time>2011-03-18T15:07:11Z</time>
      </trkpt>
      <trkpt lat="47.14457" lon="5.53054">
        <ele>241</ele>
        <time>2011-03-18T15:07:13Z</time>
      </trkpt>
      <trkpt lat="47.14462" lon="5.53041">
        <ele>241</ele>
        <time>2011-03-18T15:07:15Z</time>
      </trkpt>
      <trkpt lat="47.14466" lon="5.53026">
        <ele>241</ele>
        <time>2011-03-18T15:07:17Z</time>
      </trkpt>
      <trkpt lat="47.14471" lon="5.53013">
        <ele>241</ele>
        <time>2011-03-18T15:07:19Z</time>
      </trkpt>
      <trkpt lat="47.14475" lon="5.52998">
        <ele>241</ele>
        <time>2011-03-18T15:07:21Z</time>
      </trkpt>
      <trkpt lat="47.1448" lon="5.52984">
        <ele>241</ele>
        <time>2011-03-18T15:07:23Z</time>
      </trkpt>
      <trkpt lat="47.14485" lon="5.5297">
        <ele>241</ele>
        <time>2011-03-18T15:07:25Z</time>
      </trkpt>
      <trkpt lat="47.1449" lon="5.52954">
        <ele>241</ele>
        <time>2011-03-18T15:07:27Z</time>
      </trkpt>
      <trkpt lat="47.14494" lon="5.52939">
        <ele>241</ele>
        <time>2011-03-18T15:07:29Z</time>
      </trkpt>
      <trkpt lat="47.14497" lon="5.52924">
        <ele>241</ele>
        <time>2011-03-18T15:07:31Z</time>
      </trkpt>
      <trkpt lat="47.14499" lon="5.52909">
        <ele>241</ele>
        <time>2011-03-18T15:07:33Z</time>
      </trkpt>
      <trkpt lat="47.14501" lon="5.52893">
        <ele>241</ele>
        <time>2011-03-18T15:07:35Z</time>
      </trkpt>
      <trkpt lat="47.14502" lon="5.52877">
        <ele>241</ele>
        <time>2011-03-18T15:07:37Z</time>
      </trkpt>
      <trkpt lat="47.14503" lon="5.52862">
        <ele>241</ele>
        <time>2011-03-18T15:07:39Z</time>
      </trkpt>
      <trkpt lat="47.14505" lon="5.52847">
        <ele>241</ele>
        <time>2011-03-18T15:07:41Z</time>
      </trkpt>
      <trkpt lat="47.14506" lon="5.5283">
        <ele>241</ele>
        <time>2011-03-18T15:07:43Z</time>
      </trkpt>
      <trkpt lat="47.14508" lon="5.52815">
        <ele>241</ele>
        <time>2011-03-18T15:07:45Z</time>
      </trkpt>
      <trkpt lat="47.14509" lon="5.528">
        <ele>246</ele>
        <time>2011-03-18T15:07:47Z</time>
      </trkpt>
      <trkpt lat="47.14509" lon="5.52786">
        <ele>246</ele>
        <time>2011-03-18T15:07:49Z</time>
      </trkpt>
      <trkpt lat="47.14511" lon="5.5277">
        <ele>246</ele>
        <time>2011-03-18T15:07:51Z</time>
      </trkpt>
      <trkpt lat="47.14511" lon="5.52755">
        <ele>246</ele>
        <time>2011-03-18T15:07:53Z</time>
      </trkpt>
      <trkpt lat="47.14513" lon="5.5274">
        <ele>246</ele>
        <time>2011-03-18T15:07:55Z</time>
      </trkpt>
      <trkpt lat="47.14513" lon="5.52724">
        <ele>246</ele>
        <time>2011-03-18T15:07:57Z</time>
      </trkpt>
      <trkpt lat="47.14514" lon="5.52707">
        <ele>246</ele>
        <time>2011-03-18T15:07:59Z</time>
      </trkpt>
      <trkpt lat="47.14514" lon="5.52691">
        <ele>246</ele>
        <time>2011-03-18T15:08:01Z</time>
      </trkpt>
      <trkpt lat="47.14515" lon="5.52674">
        <ele>246</ele>
        <time>2011-03-18T15:08:03Z</time>
      </trkpt>
      <trkpt lat="47.14516" lon="5.52657">
        <ele>246</ele>
        <time>2011-03-18T15:08:05Z</time>
      </trkpt>
      <trkpt lat="47.14516" lon="5.5264">
        <ele>246</ele>
        <time>2011-03-18T15:08:07Z</time>
      </trkpt>
      <trkpt lat="47.14517" lon="5.52623">
        <ele>246</ele>
        <time>2011-03-18T15:08:09Z</time>
      </trkpt>
      <trkpt lat="47.14517" lon="5.52606">
        <ele>246</ele>
        <time>2011-03-18T15:08:11Z</time>
      </trkpt>
      <trkpt lat="47.14518" lon="5.5259">
        <ele>246</ele>
        <time>2011-03-18T15:08:13Z</time>
      </trkpt>
      <trkpt lat="47.14519" lon="5.52573">
        <ele>246</ele>
        <time>2011-03-18T15:08:15Z</time>
      </trkpt>
      <trkpt lat="47.1452" lon="5.52557">
        <ele>246</ele>
        <time>2011-03-18T15:08:17Z</time>
      </trkpt>
      <trkpt lat="47.1452" lon="5.52542">
        <ele>246</ele>
        <time>2011-03-18T15:08:19Z</time>
      </trkpt>
      <trkpt lat="47.14522" lon="5.52527">
        <ele>246</ele>
        <time>2011-03-18T15:08:21Z</time>
      </trkpt>
      <trkpt lat="47.14524" lon="5.52511">
        <ele>246</ele>
        <time>2011-03-18T15:08:23Z</time>
      </trkpt>
      <trkpt lat="47.14525" lon="5.52494">
        <ele>246</ele>
        <time>2011-03-18T15:08:25Z</time>
      </trkpt>
      <trkpt lat="47.14527" lon="5.52476">
        <ele>246</ele>
        <time>2011-03-18T15:08:27Z</time>
      </trkpt>
      <trkpt lat="47.14528" lon="5.52457">
        <ele>246</ele>
        <time>2011-03-18T15:08:29Z</time>
      </trkpt>
      <trkpt lat="47.1453" lon="5.52438">
        <ele>246</ele>
        <time>2011-03-18T15:08:31Z</time>
      </trkpt>
      <trkpt lat="47.14532" lon="5.5242">
        <ele>246</ele>
        <time>2011-03-18T15:08:33Z</time>
      </trkpt>
      <trkpt lat="47.14533" lon="5.52402">
        <ele>246</ele>
        <time>2011-03-18T15:08:35Z</time>
      </trkpt>
      <trkpt lat="47.14535" lon="5.52384">
        <ele>246</ele>
        <time>2011-03-18T15:08:37Z</time>
      </trkpt>
      <trkpt lat="47.14536" lon="5.52367">
        <ele>246</ele>
        <time>2011-03-18T15:08:39Z</time>
      </trkpt>
      <trkpt lat="47.14536" lon="5.52351">
        <ele>246</ele>
        <time>2011-03-18T15:08:41Z</time>
      </trkpt>
      <trkpt lat="47.14538" lon="5.52335">
        <ele>246</ele>
        <time>2011-03-18T15:08:43Z</time>
      </trkpt>
      <trkpt lat="47.14539" lon="5.5232">
        <ele>246</ele>
        <time>2011-03-18T15:08:45Z</time>
      </trkpt>
      <trkpt lat="47.1454" lon="5.52306">
        <ele>246</ele>
        <time>2011-03-18T15:08:47Z</time>
      </trkpt>
      <trkpt lat="47.14541" lon="5.52291">
        <ele>246</ele>
        <time>2011-03-18T15:08:49Z</time>
      </trkpt>
      <trkpt lat="47.14543" lon="5.52277">
        <ele>246</ele>
        <time>2011-03-18T15:08:51Z</time>
      </trkpt>
      <trkpt lat="47.14544" lon="5.52263">
        <ele>246</ele>
        <time>2011-03-18T15:08:53Z</time>
      </trkpt>
      <trkpt lat="47.14545" lon="5.52248">
        <ele>246</ele>
        <time>2011-03-18T15:08:55Z</time>
      </trkpt>
      <trkpt lat="47.14547" lon="5.52234">
        <ele>246</ele>
        <time>2011-03-18T15:08:57Z</time>
      </trkpt>
      <trkpt lat="47.14549" lon="5.5222">
        <ele>246</ele>
        <time>2011-03-18T15:08:59Z</time>
      </trkpt>
      <trkpt lat="47.14551" lon="5.52205">
        <ele>246</ele>
        <time>2011-03-18T15:09:01Z</time>
      </trkpt>
      <trkpt lat="47.14553" lon="5.5219">
        <ele>246</ele>
        <time>2011-03-18T15:09:03Z</time>
      </trkpt>
      <trkpt lat="47.14555" lon="5.52176">
        <ele>246</ele>
        <time>2011-03-18T15:09:05Z</time>
      </trkpt>
      <trkpt lat="47.14558" lon="5.5216">
        <ele>246</ele>
        <time>2011-03-18T15:09:07Z</time>
      </trkpt>
      <trkpt lat="47.1456" lon="5.52144">
        <ele>246</ele>
        <time>2011-03-18T15:09:09Z</time>
      </trkpt>
      <trkpt lat="47.14562" lon="5.52128">
        <ele>246</ele>
        <time>2011-03-18T15:09:11Z</time>
      </trkpt>
      <trkpt lat="47.14563" lon="5.52112">
        <ele>246</ele>
        <time>2011-03-18T15:09:13Z</time>
      </trkpt>
      <trkpt lat="47.14563" lon="5.52095">
        <ele>246</ele>
        <time>2011-03-18T15:09:15Z</time>
      </trkpt>
      <trkpt lat="47.14563" lon="5.52078">
        <ele>246</ele>
        <time>2011-03-18T15:09:17Z</time>
      </trkpt>
      <trkpt lat="47.14562" lon="5.52061">
        <ele>246</ele>
        <time>2011-03-18T15:09:19Z</time>
      </trkpt>
      <trkpt lat="47.14561" lon="5.52044">
        <ele>246</ele>
        <time>2011-03-18T15:09:21Z</time>
      </trkpt>
      <trkpt lat="47.1456" lon="5.52026">
        <ele>246</ele>
        <time>2011-03-18T15:09:23Z</time>
      </trkpt>
      <trkpt lat="47.1456" lon="5.52007">
        <ele>246</ele>
        <time>2011-03-18T15:09:25Z</time>
      </trkpt>
      <trkpt lat="47.14559" lon="5.51989">
        <ele>246</ele>
        <time>2011-03-18T15:09:27Z</time>
      </trkpt>
      <trkpt lat="47.14558" lon="5.51972">
        <ele>246</ele>
        <time>2011-03-18T15:09:29Z</time>
      </trkpt>
      <trkpt lat="47.14557" lon="5.51955">
        <ele>246</ele>
        <time>2011-03-18T15:09:31Z</time>
      </trkpt>
      <trkpt lat="47.14557" lon="5.51938">
        <ele>246</ele>
        <time>2011-03-18T15:09:33Z</time>
      </trkpt>
      <trkpt lat="47.14556" lon="5.5192">
        <ele>246</ele>
        <time>2011-03-18T15:09:35Z</time>
      </trkpt>
      <trkpt lat="47.14555" lon="5.51904">
        <ele>246</ele>
        <time>2011-03-18T15:09:37Z</time>
      </trkpt>
      <trkpt lat="47.14555" lon="5.51889">
        <ele>246</ele>
        <time>2011-03-18T15:09:39Z</time>
      </trkpt>
      <trkpt lat="47.14554" lon="5.51873">
        <ele>246</ele>
        <time>2011-03-18T15:09:41Z</time>
      </trkpt>
      <trkpt lat="47.14554" lon="5.51858">
        <ele>246</ele>
        <time>2011-03-18T15:09:43Z</time>
      </trkpt>
      <trkpt lat="47.14553" lon="5.51842">
        <ele>246</ele>
        <time>2011-03-18T15:09:45Z</time>
      </trkpt>
      <trkpt lat="47.14552" lon="5.51828">
        <ele>246</ele>
        <time>2011-03-18T15:09:47Z</time>
      </trkpt>
      <trkpt lat="47.14551" lon="5.51813">
        <ele>246</ele>
        <time>2011-03-18T15:09:49Z</time>
      </trkpt>
      <trkpt lat="47.14551" lon="5.51798">
        <ele>246</ele>
        <time>2011-03-18T15:09:51Z</time>
      </trkpt>
      <trkpt lat="47.14551" lon="5.51785">
        <ele>246</ele>
        <time>2011-03-18T15:09:53Z</time>
      </trkpt>
      <trkpt lat="47.1455" lon="5.51766">
        <ele>246</ele>
        <time>2011-03-18T15:09:56Z</time>
      </trkpt>
      <trkpt lat="47.1455" lon="5.51752">
        <ele>246</ele>
        <time>2011-03-18T15:09:58Z</time>
      </trkpt>
      <trkpt lat="47.14549" lon="5.51739">
        <ele>246</ele>
        <time>2011-03-18T15:10:00Z</time>
      </trkpt>
      <trkpt lat="47.14549" lon="5.51726">
        <ele>246</ele>
        <time>2011-03-18T15:10:02Z</time>
      </trkpt>
      <trkpt lat="47.14549" lon="5.5171">
        <ele>246</ele>
        <time>2011-03-18T15:10:04Z</time>
      </trkpt>
      <trkpt lat="47.14549" lon="5.51696">
        <ele>246</ele>
        <time>2011-03-18T15:10:06Z</time>
      </trkpt>
      <trkpt lat="47.14551" lon="5.51682">
        <ele>246</ele>
        <time>2011-03-18T15:10:08Z</time>
      </trkpt>
      <trkpt lat="47.14554" lon="5.51667">
        <ele>246</ele>
        <time>2011-03-18T15:10:10Z</time>
      </trkpt>
      <trkpt lat="47.14557" lon="5.51653">
        <ele>246</ele>
        <time>2011-03-18T15:10:12Z</time>
      </trkpt>
      <trkpt lat="47.1456" lon="5.51638">
        <ele>246</ele>
        <time>2011-03-18T15:10:14Z</time>
      </trkpt>
      <trkpt lat="47.14564" lon="5.51625">
        <ele>246</ele>
        <time>2011-03-18T15:10:16Z</time>
      </trkpt>
      <trkpt lat="47.14568" lon="5.51611">
        <ele>246</ele>
        <time>2011-03-18T15:10:18Z</time>
      </trkpt>
      <trkpt lat="47.14573" lon="5.51599">
        <ele>251</ele>
        <time>2011-03-18T15:10:20Z</time>
      </trkpt>
      <trkpt lat="47.14578" lon="5.51586">
        <ele>251</ele>
        <time>2011-03-18T15:10:22Z</time>
      </trkpt>
      <trkpt lat="47.14583" lon="5.51574">
        <ele>251</ele>
        <time>2011-03-18T15:10:24Z</time>
      </trkpt>
      <trkpt lat="47.14588" lon="5.51562">
        <ele>251</ele>
        <time>2011-03-18T15:10:26Z</time>
      </trkpt>
      <trkpt lat="47.14593" lon="5.5155">
        <ele>251</ele>
        <time>2011-03-18T15:10:28Z</time>
      </trkpt>
      <trkpt lat="47.14598" lon="5.51539">
        <ele>251</ele>
        <time>2011-03-18T15:10:30Z</time>
      </trkpt>
      <trkpt lat="47.14605" lon="5.51523">
        <ele>251</ele>
        <time>2011-03-18T15:10:33Z</time>
      </trkpt>
      <trkpt lat="47.14612" lon="5.51507">
        <ele>256</ele>
        <time>2011-03-18T15:10:36Z</time>
      </trkpt>
      <trkpt lat="47.14617" lon="5.51496">
        <ele>256</ele>
        <time>2011-03-18T15:10:38Z</time>
      </trkpt>
      <trkpt lat="47.14624" lon="5.5148">
        <ele>256</ele>
        <time>2011-03-18T15:10:41Z</time>
      </trkpt>
      <trkpt lat="47.14631" lon="5.51465">
        <ele>256</ele>
        <time>2011-03-18T15:10:44Z</time>
      </trkpt>
      <trkpt lat="47.14637" lon="5.5145">
        <ele>256</ele>
        <time>2011-03-18T15:10:47Z</time>
      </trkpt>
      <trkpt lat="47.14642" lon="5.51438">
        <ele>256</ele>
        <time>2011-03-18T15:10:50Z</time>
      </trkpt>
      <trkpt lat="47.14647" lon="5.51425">
        <ele>256</ele>
        <time>2011-03-18T15:11:05Z</time>
      </trkpt>
      <trkpt lat="47.14638" lon="5.51419">
        <ele>256</ele>
        <time>2011-03-18T15:11:10Z</time>
      </trkpt>
      <trkpt lat="47.14628" lon="5.51418">
        <ele>263</ele>
        <time>2011-03-18T15:11:13Z</time>
      </trkpt>
      <trkpt lat="47.14618" lon="5.51419">
        <ele>263</ele>
        <time>2011-03-18T15:11:16Z</time>
      </trkpt>
      <trkpt lat="47.14606" lon="5.51419">
        <ele>263</ele>
        <time>2011-03-18T15:11:19Z</time>
      </trkpt>
      <trkpt lat="47.14595" lon="5.51421">
        <ele>263</ele>
        <time>2011-03-18T15:11:21Z</time>
      </trkpt>
      <trkpt lat="47.14584" lon="5.51424">
        <ele>263</ele>
        <time>2011-03-18T15:11:23Z</time>
      </trkpt>
      <trkpt lat="47.14573" lon="5.51427">
        <ele>263</ele>
        <time>2011-03-18T15:11:25Z</time>
      </trkpt>
      <trkpt lat="47.14562" lon="5.51431">
        <ele>263</ele>
        <time>2011-03-18T15:11:27Z</time>
      </trkpt>
      <trkpt lat="47.14552" lon="5.51438">
        <ele>263</ele>
        <time>2011-03-18T15:11:29Z</time>
      </trkpt>
      <trkpt lat="47.14543" lon="5.51444">
        <ele>263</ele>
        <time>2011-03-18T15:11:31Z</time>
      </trkpt>
      <trkpt lat="47.14533" lon="5.51451">
        <ele>263</ele>
        <time>2011-03-18T15:11:33Z</time>
      </trkpt>
      <trkpt lat="47.14522" lon="5.51455">
        <ele>263</ele>
        <time>2011-03-18T15:11:35Z</time>
      </trkpt>
      <trkpt lat="47.14511" lon="5.51458">
        <ele>263</ele>
        <time>2011-03-18T15:11:37Z</time>
      </trkpt>
      <trkpt lat="47.14499" lon="5.51457">
        <ele>263</ele>
        <time>2011-03-18T15:11:39Z</time>
      </trkpt>
      <trkpt lat="47.14487" lon="5.51455">
        <ele>263</ele>
        <time>2011-03-18T15:11:41Z</time>
      </trkpt>
      <trkpt lat="47.14476" lon="5.51452">
        <ele>263</ele>
        <time>2011-03-18T15:11:43Z</time>
      </trkpt>
      <trkpt lat="47.14466" lon="5.5145">
        <ele>263</ele>
        <time>2011-03-18T15:11:45Z</time>
      </trkpt>
      <trkpt lat="47.14456" lon="5.51447">
        <ele>263</ele>
        <time>2011-03-18T15:11:47Z</time>
      </trkpt>
      <trkpt lat="47.14445" lon="5.51444">
        <ele>263</ele>
        <time>2011-03-18T15:11:49Z</time>
      </trkpt>
      <trkpt lat="47.14435" lon="5.51442">
        <ele>263</ele>
        <time>2011-03-18T15:11:51Z</time>
      </trkpt>
      <trkpt lat="47.14425" lon="5.51438">
        <ele>263</ele>
        <time>2011-03-18T15:11:53Z</time>
      </trkpt>
      <trkpt lat="47.14416" lon="5.51434">
        <ele>263</ele>
        <time>2011-03-18T15:11:55Z</time>
      </trkpt>
      <trkpt lat="47.14408" lon="5.51431">
        <ele>263</ele>
        <time>2011-03-18T15:11:57Z</time>
      </trkpt>
      <trkpt lat="47.14399" lon="5.51427">
        <ele>263</ele>
        <time>2011-03-18T15:11:59Z</time>
      </trkpt>
      <trkpt lat="47.14391" lon="5.51424">
        <ele>263</ele>
        <time>2011-03-18T15:12:01Z</time>
      </trkpt>
      <trkpt lat="47.14378" lon="5.51417">
        <ele>263</ele>
        <time>2011-03-18T15:12:04Z</time>
      </trkpt>
      <trkpt lat="47.14368" lon="5.51408">
        <ele>263</ele>
        <time>2011-03-18T15:12:07Z</time>
      </trkpt>
      <trkpt lat="47.14357" lon="5.51398">
        <ele>263</ele>
        <time>2011-03-18T15:12:10Z</time>
      </trkpt>
      <trkpt lat="47.14347" lon="5.51388">
        <ele>263</ele>
        <time>2011-03-18T15:12:13Z</time>
      </trkpt>
      <trkpt lat="47.14335" lon="5.51378">
        <ele>263</ele>
        <time>2011-03-18T15:12:16Z</time>
      </trkpt>
      <trkpt lat="47.14323" lon="5.5137">
        <ele>263</ele>
        <time>2011-03-18T15:12:19Z</time>
      </trkpt>
      <trkpt lat="47.14315" lon="5.51364">
        <ele>263</ele>
        <time>2011-03-18T15:12:21Z</time>
      </trkpt>
      <trkpt lat="47.14306" lon="5.5136">
        <ele>268</ele>
        <time>2011-03-18T15:12:23Z</time>
      </trkpt>
      <trkpt lat="47.14293" lon="5.51355">
        <ele>268</ele>
        <time>2011-03-18T15:12:26Z</time>
      </trkpt>
      <trkpt lat="47.14282" lon="5.51347">
        <ele>268</ele>
        <time>2011-03-18T15:12:29Z</time>
      </trkpt>
      <trkpt lat="47.1427" lon="5.5134">
        <ele>268</ele>
        <time>2011-03-18T15:12:32Z</time>
      </trkpt>
      <trkpt lat="47.14258" lon="5.51332">
        <ele>268</ele>
        <time>2011-03-18T15:12:35Z</time>
      </trkpt>
      <trkpt lat="47.14247" lon="5.51323">
        <ele>268</ele>
        <time>2011-03-18T15:12:38Z</time>
      </trkpt>
      <trkpt lat="47.14236" lon="5.51311">
        <ele>268</ele>
        <time>2011-03-18T15:12:41Z</time>
      </trkpt>
      <trkpt lat="47.14226" lon="5.51301">
        <ele>268</ele>
        <time>2011-03-18T15:12:44Z</time>
      </trkpt>
      <trkpt lat="47.14215" lon="5.51288">
        <ele>268</ele>
        <time>2011-03-18T15:12:47Z</time>
      </trkpt>
      <trkpt lat="47.14205" lon="5.51276">
        <ele>268</ele>
        <time>2011-03-18T15:12:50Z</time>
      </trkpt>
      <trkpt lat="47.14194" lon="5.51265">
        <ele>268</ele>
        <time>2011-03-18T15:12:53Z</time>
      </trkpt>
      <trkpt lat="47.14188" lon="5.51254">
        <ele>268</ele>
        <time>2011-03-18T15:12:55Z</time>
      </trkpt>
      <trkpt lat="47.14181" lon="5.51243">
        <ele>268</ele>
        <time>2011-03-18T15:12:57Z</time>
      </trkpt>
      <trkpt lat="47.14174" lon="5.51231">
        <ele>268</ele>
        <time>2011-03-18T15:12:59Z</time>
      </trkpt>
      <trkpt lat="47.14166" lon="5.51219">
        <ele>268</ele>
        <time>2011-03-18T15:13:01Z</time>
      </trkpt>
      <trkpt lat="47.14158" lon="5.51206">
        <ele>268</ele>
        <time>2011-03-18T15:13:03Z</time>
      </trkpt>
      <trkpt lat="47.1415" lon="5.51194">
        <ele>268</ele>
        <time>2011-03-18T15:13:05Z</time>
      </trkpt>
      <trkpt lat="47.14141" lon="5.5118">
        <ele>268</ele>
        <time>2011-03-18T15:13:07Z</time>
      </trkpt>
      <trkpt lat="47.14131" lon="5.51166">
        <ele>268</ele>
        <time>2011-03-18T15:13:09Z</time>
      </trkpt>
      <trkpt lat="47.14122" lon="5.51152">
        <ele>268</ele>
        <time>2011-03-18T15:13:11Z</time>
      </trkpt>
      <trkpt lat="47.14113" lon="5.51139">
        <ele>268</ele>
        <time>2011-03-18T15:13:13Z</time>
      </trkpt>
      <trkpt lat="47.14104" lon="5.51125">
        <ele>268</ele>
        <time>2011-03-18T15:13:15Z</time>
      </trkpt>
      <trkpt lat="47.14095" lon="5.51112">
        <ele>268</ele>
        <time>2011-03-18T15:13:17Z</time>
      </trkpt>
      <trkpt lat="47.14085" lon="5.51098">
        <ele>268</ele>
        <time>2011-03-18T15:13:19Z</time>
      </trkpt>
      <trkpt lat="47.14076" lon="5.51084">
        <ele>268</ele>
        <time>2011-03-18T15:13:21Z</time>
      </trkpt>
      <trkpt lat="47.14068" lon="5.51071">
        <ele>268</ele>
        <time>2011-03-18T15:13:23Z</time>
      </trkpt>
      <trkpt lat="47.14059" lon="5.51056">
        <ele>268</ele>
        <time>2011-03-18T15:13:25Z</time>
      </trkpt>
      <trkpt lat="47.1405" lon="5.51042">
        <ele>268</ele>
        <time>2011-03-18T15:13:27Z</time>
      </trkpt>
      <trkpt lat="47.14042" lon="5.51026">
        <ele>268</ele>
        <time>2011-03-18T15:13:29Z</time>
      </trkpt>
      <trkpt lat="47.14033" lon="5.51009">
        <ele>268</ele>
        <time>2011-03-18T15:13:31Z</time>
      </trkpt>
      <trkpt lat="47.14023" lon="5.50991">
        <ele>268</ele>
        <time>2011-03-18T15:13:33Z</time>
      </trkpt>
      <trkpt lat="47.14014" lon="5.50973">
        <ele>262</ele>
        <time>2011-03-18T15:13:35Z</time>
      </trkpt>
      <trkpt lat="47.14003" lon="5.50953">
        <ele>262</ele>
        <time>2011-03-18T15:13:37Z</time>
      </trkpt>
      <trkpt lat="47.13992" lon="5.50934">
        <ele>262</ele>
        <time>2011-03-18T15:13:39Z</time>
      </trkpt>
      <trkpt lat="47.13987" lon="5.50922">
        <ele>262</ele>
        <time>2011-03-18T15:13:40Z</time>
      </trkpt>
      <trkpt lat="47.13982" lon="5.5091">
        <ele>262</ele>
        <time>2011-03-18T15:13:41Z</time>
      </trkpt>
      <trkpt lat="47.13979" lon="5.50896">
        <ele>262</ele>
        <time>2011-03-18T15:13:42Z</time>
      </trkpt>
      <trkpt lat="47.13976" lon="5.50881">
        <ele>262</ele>
        <time>2011-03-18T15:13:43Z</time>
      </trkpt>
      <trkpt lat="47.13976" lon="5.50867">
        <ele>257</ele>
        <time>2011-03-18T15:13:44Z</time>
      </trkpt>
      <trkpt lat="47.13976" lon="5.50851">
        <ele>257</ele>
        <time>2011-03-18T15:13:45Z</time>
      </trkpt>
      <trkpt lat="47.13977" lon="5.50836">
        <ele>257</ele>
        <time>2011-03-18T15:13:46Z</time>
      </trkpt>
      <trkpt lat="47.13979" lon="5.50821">
        <ele>257</ele>
        <time>2011-03-18T15:13:47Z</time>
      </trkpt>
      <trkpt lat="47.1398" lon="5.50806">
        <ele>257</ele>
        <time>2011-03-18T15:13:48Z</time>
      </trkpt>
      <trkpt lat="47.13981" lon="5.50791">
        <ele>257</ele>
        <time>2011-03-18T15:13:49Z</time>
      </trkpt>
      <trkpt lat="47.13983" lon="5.50776">
        <ele>257</ele>
        <time>2011-03-18T15:13:50Z</time>
      </trkpt>
      <trkpt lat="47.13984" lon="5.50762">
        <ele>257</ele>
        <time>2011-03-18T15:13:51Z</time>
      </trkpt>
      <trkpt lat="47.13985" lon="5.50747">
        <ele>257</ele>
        <time>2011-03-18T15:13:52Z</time>
      </trkpt>
      <trkpt lat="47.13985" lon="5.50734">
        <ele>257</ele>
        <time>2011-03-18T15:13:53Z</time>
      </trkpt>
      <trkpt lat="47.13987" lon="5.50719">
        <ele>257</ele>
        <time>2011-03-18T15:13:54Z</time>
      </trkpt>
      <trkpt lat="47.13988" lon="5.50706">
        <ele>257</ele>
        <time>2011-03-18T15:13:55Z</time>
      </trkpt>
      <trkpt lat="47.13989" lon="5.50692">
        <ele>257</ele>
        <time>2011-03-18T15:13:56Z</time>
      </trkpt>
      <trkpt lat="47.1399" lon="5.50679">
        <ele>257</ele>
        <time>2011-03-18T15:13:57Z</time>
      </trkpt>
      <trkpt lat="47.13992" lon="5.50665">
        <ele>251</ele>
        <time>2011-03-18T15:13:58Z</time>
      </trkpt>
      <trkpt lat="47.13996" lon="5.50639">
        <ele>251</ele>
        <time>2011-03-18T15:14:00Z</time>
      </trkpt>
      <trkpt lat="47.13999" lon="5.50626">
        <ele>251</ele>
        <time>2011-03-18T15:14:01Z</time>
      </trkpt>
      <trkpt lat="47.14007" lon="5.50603">
        <ele>251</ele>
        <time>2011-03-18T15:14:03Z</time>
      </trkpt>
      <trkpt lat="47.14018" lon="5.50582">
        <ele>251</ele>
        <time>2011-03-18T15:14:05Z</time>
      </trkpt>
      <trkpt lat="47.1403" lon="5.50562">
        <ele>251</ele>
        <time>2011-03-18T15:14:07Z</time>
      </trkpt>
      <trkpt lat="47.14041" lon="5.50543">
        <ele>251</ele>
        <time>2011-03-18T15:14:09Z</time>
      </trkpt>
      <trkpt lat="47.14053" lon="5.50524">
        <ele>251</ele>
        <time>2011-03-18T15:14:11Z</time>
      </trkpt>
      <trkpt lat="47.14064" lon="5.50505">
        <ele>251</ele>
        <time>2011-03-18T15:14:13Z</time>
      </trkpt>
      <trkpt lat="47.14074" lon="5.50485">
        <ele>251</ele>
        <time>2011-03-18T15:14:15Z</time>
      </trkpt>
      <trkpt lat="47.14084" lon="5.50464">
        <ele>251</ele>
        <time>2011-03-18T15:14:17Z</time>
      </trkpt>
      <trkpt lat="47.14091" lon="5.50443">
        <ele>251</ele>
        <time>2011-03-18T15:14:19Z</time>
      </trkpt>
      <trkpt lat="47.14099" lon="5.50421">
        <ele>251</ele>
        <time>2011-03-18T15:14:21Z</time>
      </trkpt>
      <trkpt lat="47.14105" lon="5.504">
        <ele>251</ele>
        <time>2011-03-18T15:14:23Z</time>
      </trkpt>
      <trkpt lat="47.14111" lon="5.50377">
        <ele>251</ele>
        <time>2011-03-18T15:14:25Z</time>
      </trkpt>
      <trkpt lat="47.14118" lon="5.50355">
        <ele>251</ele>
        <time>2011-03-18T15:14:27Z</time>
      </trkpt>
      <trkpt lat="47.14124" lon="5.50332">
        <ele>251</ele>
        <time>2011-03-18T15:14:29Z</time>
      </trkpt>
      <trkpt lat="47.14131" lon="5.50309">
        <ele>251</ele>
        <time>2011-03-18T15:14:31Z</time>
      </trkpt>
      <trkpt lat="47.14138" lon="5.50286">
        <ele>251</ele>
        <time>2011-03-18T15:14:33Z</time>
      </trkpt>
      <trkpt lat="47.14145" lon="5.50262">
        <ele>251</ele>
        <time>2011-03-18T15:14:35Z</time>
      </trkpt>
      <trkpt lat="47.14152" lon="5.50238">
        <ele>251</ele>
        <time>2011-03-18T15:14:37Z</time>
      </trkpt>
      <trkpt lat="47.14158" lon="5.50214">
        <ele>251</ele>
        <time>2011-03-18T15:14:39Z</time>
      </trkpt>
      <trkpt lat="47.14161" lon="5.50201">
        <ele>251</ele>
        <time>2011-03-18T15:14:40Z</time>
      </trkpt>
      <trkpt lat="47.14164" lon="5.50188">
        <ele>251</ele>
        <time>2011-03-18T15:14:41Z</time>
      </trkpt>
      <trkpt lat="47.14166" lon="5.50174">
        <ele>246</ele>
        <time>2011-03-18T15:14:42Z</time>
      </trkpt>
      <trkpt lat="47.14167" lon="5.50161">
        <ele>246</ele>
        <time>2011-03-18T15:14:43Z</time>
      </trkpt>
      <trkpt lat="47.14167" lon="5.50146">
        <ele>246</ele>
        <time>2011-03-18T15:14:44Z</time>
      </trkpt>
      <trkpt lat="47.14166" lon="5.50132">
        <ele>246</ele>
        <time>2011-03-18T15:14:45Z</time>
      </trkpt>
      <trkpt lat="47.14164" lon="5.50117">
        <ele>246</ele>
        <time>2011-03-18T15:14:46Z</time>
      </trkpt>
      <trkpt lat="47.14162" lon="5.50102">
        <ele>246</ele>
        <time>2011-03-18T15:14:47Z</time>
      </trkpt>
      <trkpt lat="47.14159" lon="5.50087">
        <ele>246</ele>
        <time>2011-03-18T15:14:48Z</time>
      </trkpt>
      <trkpt lat="47.14156" lon="5.50073">
        <ele>246</ele>
        <time>2011-03-18T15:14:49Z</time>
      </trkpt>
      <trkpt lat="47.14153" lon="5.50057">
        <ele>246</ele>
        <time>2011-03-18T15:14:50Z</time>
      </trkpt>
      <trkpt lat="47.14151" lon="5.50043">
        <ele>241</ele>
        <time>2011-03-18T15:14:51Z</time>
      </trkpt>
      <trkpt lat="47.14148" lon="5.50029">
        <ele>241</ele>
        <time>2011-03-18T15:14:52Z</time>
      </trkpt>
      <trkpt lat="47.14146" lon="5.50015">
        <ele>241</ele>
        <time>2011-03-18T15:14:53Z</time>
      </trkpt>
      <trkpt lat="47.14142" lon="5.49993">
        <ele>241</ele>
        <time>2011-03-18T15:14:55Z</time>
      </trkpt>
      <trkpt lat="47.1414" lon="5.49975">
        <ele>241</ele>
        <time>2011-03-18T15:14:57Z</time>
      </trkpt>
      <trkpt lat="47.14139" lon="5.4996">
        <ele>241</ele>
        <time>2011-03-18T15:14:59Z</time>
      </trkpt>
      <trkpt lat="47.14137" lon="5.49944">
        <ele>241</ele>
        <time>2011-03-18T15:15:24Z</time>
      </trkpt>
      <trkpt lat="47.14136" lon="5.49931">
        <ele>241</ele>
        <time>2011-03-18T15:15:27Z</time>
      </trkpt>
      <trkpt lat="47.14131" lon="5.49916">
        <ele>241</ele>
        <time>2011-03-18T15:15:30Z</time>
      </trkpt>
      <trkpt lat="47.14127" lon="5.49904">
        <ele>241</ele>
        <time>2011-03-18T15:15:32Z</time>
      </trkpt>
      <trkpt lat="47.14123" lon="5.49889">
        <ele>241</ele>
        <time>2011-03-18T15:15:34Z</time>
      </trkpt>
      <trkpt lat="47.1412" lon="5.49871">
        <ele>241</ele>
        <time>2011-03-18T15:15:36Z</time>
      </trkpt>
      <trkpt lat="47.14117" lon="5.49853">
        <ele>241</ele>
        <time>2011-03-18T15:15:38Z</time>
      </trkpt>
      <trkpt lat="47.14112" lon="5.49831">
        <ele>241</ele>
        <time>2011-03-18T15:15:40Z</time>
      </trkpt>
      <trkpt lat="47.14109" lon="5.49809">
        <ele>241</ele>
        <time>2011-03-18T15:15:42Z</time>
      </trkpt>
      <trkpt lat="47.14107" lon="5.49785">
        <ele>241</ele>
        <time>2011-03-18T15:15:44Z</time>
      </trkpt>
      <trkpt lat="47.14105" lon="5.49764">
        <ele>241</ele>
        <time>2011-03-18T15:15:46Z</time>
      </trkpt>
      <trkpt lat="47.14102" lon="5.49744">
        <ele>241</ele>
        <time>2011-03-18T15:15:48Z</time>
      </trkpt>
      <trkpt lat="47.141" lon="5.49725">
        <ele>235</ele>
        <time>2011-03-18T15:15:50Z</time>
      </trkpt>
      <trkpt lat="47.14098" lon="5.49706">
        <ele>235</ele>
        <time>2011-03-18T15:15:52Z</time>
      </trkpt>
      <trkpt lat="47.14097" lon="5.49686">
        <ele>235</ele>
        <time>2011-03-18T15:15:54Z</time>
      </trkpt>
      <trkpt lat="47.14098" lon="5.49667">
        <ele>235</ele>
        <time>2011-03-18T15:15:56Z</time>
      </trkpt>
      <trkpt lat="47.14099" lon="5.49649">
        <ele>235</ele>
        <time>2011-03-18T15:15:58Z</time>
      </trkpt>
      <trkpt lat="47.14103" lon="5.49631">
        <ele>235</ele>
        <time>2011-03-18T15:16:00Z</time>
      </trkpt>
      <trkpt lat="47.14106" lon="5.49614">
        <ele>235</ele>
        <time>2011-03-18T15:16:02Z</time>
      </trkpt>
      <trkpt lat="47.14109" lon="5.49599">
        <ele>235</ele>
        <time>2011-03-18T15:16:04Z</time>
      </trkpt>
      <trkpt lat="47.14112" lon="5.49584">
        <ele>235</ele>
        <time>2011-03-18T15:16:06Z</time>
      </trkpt>
      <trkpt lat="47.14115" lon="5.4957">
        <ele>235</ele>
        <time>2011-03-18T15:16:08Z</time>
      </trkpt>
      <trkpt lat="47.14118" lon="5.49555">
        <ele>235</ele>
        <time>2011-03-18T15:16:10Z</time>
      </trkpt>
      <trkpt lat="47.1412" lon="5.49541">
        <ele>235</ele>
        <time>2011-03-18T15:16:12Z</time>
      </trkpt>
      <trkpt lat="47.14121" lon="5.49526">
        <ele>235</ele>
        <time>2011-03-18T15:16:14Z</time>
      </trkpt>
      <trkpt lat="47.14122" lon="5.49509">
        <ele>235</ele>
        <time>2011-03-18T15:16:16Z</time>
      </trkpt>
      <trkpt lat="47.14122" lon="5.49491">
        <ele>235</ele>
        <time>2011-03-18T15:16:18Z</time>
      </trkpt>
      <trkpt lat="47.14121" lon="5.49473">
        <ele>235</ele>
        <time>2011-03-18T15:16:20Z</time>
      </trkpt>
      <trkpt lat="47.1412" lon="5.49454">
        <ele>235</ele>
        <time>2011-03-18T15:16:22Z</time>
      </trkpt>
      <trkpt lat="47.14118" lon="5.49433">
        <ele>235</ele>
        <time>2011-03-18T15:16:24Z</time>
      </trkpt>
      <trkpt lat="47.14114" lon="5.49413">
        <ele>235</ele>
        <time>2011-03-18T15:16:26Z</time>
      </trkpt>
      <trkpt lat="47.14109" lon="5.49394">
        <ele>229</ele>
        <time>2011-03-18T15:16:28Z</time>
      </trkpt>
      <trkpt lat="47.14103" lon="5.49376">
        <ele>229</ele>
        <time>2011-03-18T15:16:30Z</time>
      </trkpt>
      <trkpt lat="47.14098" lon="5.49358">
        <ele>229</ele>
        <time>2011-03-18T15:16:32Z</time>
      </trkpt>
      <trkpt lat="47.14092" lon="5.49342">
        <ele>229</ele>
        <time>2011-03-18T15:16:34Z</time>
      </trkpt>
      <trkpt lat="47.14087" lon="5.49325">
        <ele>229</ele>
        <time>2011-03-18T15:16:36Z</time>
      </trkpt>
      <trkpt lat="47.14082" lon="5.49311">
        <ele>229</ele>
        <time>2011-03-18T15:16:38Z</time>
      </trkpt>
      <trkpt lat="47.14079" lon="5.49295">
        <ele>229</ele>
        <time>2011-03-18T15:16:40Z</time>
      </trkpt>
      <trkpt lat="47.14073" lon="5.4928">
        <ele>229</ele>
        <time>2011-03-18T15:16:42Z</time>
      </trkpt>
      <trkpt lat="47.14068" lon="5.49264">
        <ele>229</ele>
        <time>2011-03-18T15:16:44Z</time>
      </trkpt>
      <trkpt lat="47.14063" lon="5.49246">
        <ele>229</ele>
        <time>2011-03-18T15:16:46Z</time>
      </trkpt>
      <trkpt lat="47.14057" lon="5.49227">
        <ele>229</ele>
        <time>2011-03-18T15:16:48Z</time>
      </trkpt>
      <trkpt lat="47.14053" lon="5.49208">
        <ele>229</ele>
        <time>2011-03-18T15:16:50Z</time>
      </trkpt>
      <trkpt lat="47.14048" lon="5.49189">
        <ele>229</ele>
        <time>2011-03-18T15:16:52Z</time>
      </trkpt>
      <trkpt lat="47.14043" lon="5.4917">
        <ele>229</ele>
        <time>2011-03-18T15:16:54Z</time>
      </trkpt>
      <trkpt lat="47.14039" lon="5.49151">
        <ele>229</ele>
        <time>2011-03-18T15:16:56Z</time>
      </trkpt>
      <trkpt lat="47.14036" lon="5.49133">
        <ele>229</ele>
        <time>2011-03-18T15:16:58Z</time>
      </trkpt>
      <trkpt lat="47.14032" lon="5.49116">
        <ele>229</ele>
        <time>2011-03-18T15:17:00Z</time>
      </trkpt>
      <trkpt lat="47.14028" lon="5.491">
        <ele>229</ele>
        <time>2011-03-18T15:17:02Z</time>
      </trkpt>
      <trkpt lat="47.14027" lon="5.49083">
        <ele>229</ele>
        <time>2011-03-18T15:17:04Z</time>
      </trkpt>
      <trkpt lat="47.14031" lon="5.49068">
        <ele>229</ele>
        <time>2011-03-18T15:17:06Z</time>
      </trkpt>
      <trkpt lat="47.14036" lon="5.49054">
        <ele>229</ele>
        <time>2011-03-18T15:17:08Z</time>
      </trkpt>
      <trkpt lat="47.14042" lon="5.49039">
        <ele>229</ele>
        <time>2011-03-18T15:17:10Z</time>
      </trkpt>
      <trkpt lat="47.14048" lon="5.49023">
        <ele>229</ele>
        <time>2011-03-18T15:17:12Z</time>
      </trkpt>
      <trkpt lat="47.14053" lon="5.49006">
        <ele>229</ele>
        <time>2011-03-18T15:17:14Z</time>
      </trkpt>
      <trkpt lat="47.14058" lon="5.4899">
        <ele>229</ele>
        <time>2011-03-18T15:17:16Z</time>
      </trkpt>
      <trkpt lat="47.14061" lon="5.48975">
        <ele>229</ele>
        <time>2011-03-18T15:17:18Z</time>
      </trkpt>
      <trkpt lat="47.14064" lon="5.4896">
        <ele>229</ele>
        <time>2011-03-18T15:17:20Z</time>
      </trkpt>
      <trkpt lat="47.14066" lon="5.48944">
        <ele>229</ele>
        <time>2011-03-18T15:17:22Z</time>
      </trkpt>
      <trkpt lat="47.14069" lon="5.48931">
        <ele>229</ele>
        <time>2011-03-18T15:17:24Z</time>
      </trkpt>
      <trkpt lat="47.14074" lon="5.48918">
        <ele>229</ele>
        <time>2011-03-18T15:17:26Z</time>
      </trkpt>
      <trkpt lat="47.14077" lon="5.48906">
        <ele>229</ele>
        <time>2011-03-18T15:17:28Z</time>
      </trkpt>
      <trkpt lat="47.1408" lon="5.48893">
        <ele>229</ele>
        <time>2011-03-18T15:17:30Z</time>
      </trkpt>
      <trkpt lat="47.14084" lon="5.48876">
        <ele>229</ele>
        <time>2011-03-18T15:17:33Z</time>
      </trkpt>
      <trkpt lat="47.14087" lon="5.48859">
        <ele>229</ele>
        <time>2011-03-18T15:17:36Z</time>
      </trkpt>
      <trkpt lat="47.14089" lon="5.48842">
        <ele>235</ele>
        <time>2011-03-18T15:17:39Z</time>
      </trkpt>
      <trkpt lat="47.1409" lon="5.48826">
        <ele>235</ele>
        <time>2011-03-18T15:17:42Z</time>
      </trkpt>
      <trkpt lat="47.14091" lon="5.48811">
        <ele>235</ele>
        <time>2011-03-18T15:17:45Z</time>
      </trkpt>
      <trkpt lat="47.14092" lon="5.48796">
        <ele>235</ele>
        <time>2011-03-18T15:17:48Z</time>
      </trkpt>
      <trkpt lat="47.14093" lon="5.48783">
        <ele>235</ele>
        <time>2011-03-18T15:17:51Z</time>
      </trkpt>
      <trkpt lat="47.14095" lon="5.48768">
        <ele>235</ele>
        <time>2011-03-18T15:17:54Z</time>
      </trkpt>
      <trkpt lat="47.14096" lon="5.48755">
        <ele>240</ele>
        <time>2011-03-18T15:17:57Z</time>
      </trkpt>
      <trkpt lat="47.14097" lon="5.48741">
        <ele>240</ele>
        <time>2011-03-18T15:18:00Z</time>
      </trkpt>
      <trkpt lat="47.14098" lon="5.48727">
        <ele>240</ele>
        <time>2011-03-18T15:18:03Z</time>
      </trkpt>
      <trkpt lat="47.14098" lon="5.48712">
        <ele>240</ele>
        <time>2011-03-18T15:18:06Z</time>
      </trkpt>
      <trkpt lat="47.14099" lon="5.48696">
        <ele>240</ele>
        <time>2011-03-18T15:18:09Z</time>
      </trkpt>
      <trkpt lat="47.141" lon="5.48679">
        <ele>240</ele>
        <time>2011-03-18T15:18:12Z</time>
      </trkpt>
      <trkpt lat="47.141" lon="5.48661">
        <ele>240</ele>
        <time>2011-03-18T15:18:15Z</time>
      </trkpt>
      <trkpt lat="47.14101" lon="5.48648">
        <ele>240</ele>
        <time>2011-03-18T15:18:17Z</time>
      </trkpt>
      <trkpt lat="47.14101" lon="5.48628">
        <ele>240</ele>
        <time>2011-03-18T15:18:20Z</time>
      </trkpt>
      <trkpt lat="47.14102" lon="5.48615">
        <ele>240</ele>
        <time>2011-03-18T15:18:22Z</time>
      </trkpt>
      <trkpt lat="47.14104" lon="5.48595">
        <ele>240</ele>
        <time>2011-03-18T15:18:25Z</time>
      </trkpt>
      <trkpt lat="47.14106" lon="5.48581">
        <ele>240</ele>
        <time>2011-03-18T15:18:27Z</time>
      </trkpt>
      <trkpt lat="47.14107" lon="5.48567">
        <ele>240</ele>
        <time>2011-03-18T15:18:29Z</time>
      </trkpt>
      <trkpt lat="47.14108" lon="5.48553">
        <ele>240</ele>
        <time>2011-03-18T15:18:31Z</time>
      </trkpt>
      <trkpt lat="47.14109" lon="5.48537">
        <ele>240</ele>
        <time>2011-03-18T15:18:33Z</time>
      </trkpt>
      <trkpt lat="47.1411" lon="5.48523">
        <ele>240</ele>
        <time>2011-03-18T15:18:35Z</time>
      </trkpt>
      <trkpt lat="47.1411" lon="5.48508">
        <ele>240</ele>
        <time>2011-03-18T15:18:37Z</time>
      </trkpt>
      <trkpt lat="47.14111" lon="5.48492">
        <ele>240</ele>
        <time>2011-03-18T15:18:39Z</time>
      </trkpt>
      <trkpt lat="47.14112" lon="5.48477">
        <ele>240</ele>
        <time>2011-03-18T15:18:41Z</time>
      </trkpt>
      <trkpt lat="47.14114" lon="5.4846">
        <ele>240</ele>
        <time>2011-03-18T15:18:43Z</time>
      </trkpt>
      <trkpt lat="47.14114" lon="5.48444">
        <ele>240</ele>
        <time>2011-03-18T15:18:45Z</time>
      </trkpt>
      <trkpt lat="47.14114" lon="5.48427">
        <ele>240</ele>
        <time>2011-03-18T15:18:47Z</time>
      </trkpt>
      <trkpt lat="47.14114" lon="5.48411">
        <ele>240</ele>
        <time>2011-03-18T15:18:49Z</time>
      </trkpt>
      <trkpt lat="47.14113" lon="5.48394">
        <ele>240</ele>
        <time>2011-03-18T15:18:51Z</time>
      </trkpt>
      <trkpt lat="47.14112" lon="5.48377">
        <ele>240</ele>
        <time>2011-03-18T15:18:53Z</time>
      </trkpt>
      <trkpt lat="47.1411" lon="5.4836">
        <ele>240</ele>
        <time>2011-03-18T15:18:55Z</time>
      </trkpt>
      <trkpt lat="47.14109" lon="5.48342">
        <ele>235</ele>
        <time>2011-03-18T15:18:57Z</time>
      </trkpt>
      <trkpt lat="47.14106" lon="5.48326">
        <ele>235</ele>
        <time>2011-03-18T15:18:59Z</time>
      </trkpt>
      <trkpt lat="47.14103" lon="5.4831">
        <ele>235</ele>
        <time>2011-03-18T15:19:01Z</time>
      </trkpt>
      <trkpt lat="47.141" lon="5.48294">
        <ele>235</ele>
        <time>2011-03-18T15:19:03Z</time>
      </trkpt>
      <trkpt lat="47.14098" lon="5.48278">
        <ele>235</ele>
        <time>2011-03-18T15:19:05Z</time>
      </trkpt>
      <trkpt lat="47.14095" lon="5.48263">
        <ele>235</ele>
        <time>2011-03-18T15:19:07Z</time>
      </trkpt>
      <trkpt lat="47.14091" lon="5.48247">
        <ele>235</ele>
        <time>2011-03-18T15:19:09Z</time>
      </trkpt>
      <trkpt lat="47.14087" lon="5.48231">
        <ele>235</ele>
        <time>2011-03-18T15:19:11Z</time>
      </trkpt>
      <trkpt lat="47.14083" lon="5.48215">
        <ele>235</ele>
        <time>2011-03-18T15:19:13Z</time>
      </trkpt>
      <trkpt lat="47.14078" lon="5.48201">
        <ele>235</ele>
        <time>2011-03-18T15:19:15Z</time>
      </trkpt>
      <trkpt lat="47.14072" lon="5.48185">
        <ele>235</ele>
        <time>2011-03-18T15:19:17Z</time>
      </trkpt>
      <trkpt lat="47.14066" lon="5.4817">
        <ele>235</ele>
        <time>2011-03-18T15:19:19Z</time>
      </trkpt>
      <trkpt lat="47.14059" lon="5.48154">
        <ele>235</ele>
        <time>2011-03-18T15:19:21Z</time>
      </trkpt>
      <trkpt lat="47.14052" lon="5.48139">
        <ele>235</ele>
        <time>2011-03-18T15:19:23Z</time>
      </trkpt>
      <trkpt lat="47.14045" lon="5.48122">
        <ele>235</ele>
        <time>2011-03-18T15:19:25Z</time>
      </trkpt>
      <trkpt lat="47.14038" lon="5.48105">
        <ele>230</ele>
        <time>2011-03-18T15:19:27Z</time>
      </trkpt>
      <trkpt lat="47.1403" lon="5.48087">
        <ele>230</ele>
        <time>2011-03-18T15:19:29Z</time>
      </trkpt>
      <trkpt lat="47.14021" lon="5.48068">
        <ele>230</ele>
        <time>2011-03-18T15:19:31Z</time>
      </trkpt>
      <trkpt lat="47.14013" lon="5.4805">
        <ele>230</ele>
        <time>2011-03-18T15:19:33Z</time>
      </trkpt>
      <trkpt lat="47.14004" lon="5.48031">
        <ele>230</ele>
        <time>2011-03-18T15:19:35Z</time>
      </trkpt>
      <trkpt lat="47.13996" lon="5.48013">
        <ele>230</ele>
        <time>2011-03-18T15:19:37Z</time>
      </trkpt>
      <trkpt lat="47.13988" lon="5.47994">
        <ele>230</ele>
        <time>2011-03-18T15:19:39Z</time>
      </trkpt>
      <trkpt lat="47.13981" lon="5.47977">
        <ele>230</ele>
        <time>2011-03-18T15:19:41Z</time>
      </trkpt>
      <trkpt lat="47.13974" lon="5.47961">
        <ele>230</ele>
        <time>2011-03-18T15:19:43Z</time>
      </trkpt>
      <trkpt lat="47.13967" lon="5.47946">
        <ele>230</ele>
        <time>2011-03-18T15:19:45Z</time>
      </trkpt>
      <trkpt lat="47.1396" lon="5.47932">
        <ele>230</ele>
        <time>2011-03-18T15:19:47Z</time>
      </trkpt>
      <trkpt lat="47.13954" lon="5.47918">
        <ele>230</ele>
        <time>2011-03-18T15:19:49Z</time>
      </trkpt>
      <trkpt lat="47.13946" lon="5.47904">
        <ele>230</ele>
        <time>2011-03-18T15:19:51Z</time>
      </trkpt>
      <trkpt lat="47.13939" lon="5.47892">
        <ele>230</ele>
        <time>2011-03-18T15:19:53Z</time>
      </trkpt>
      <trkpt lat="47.13931" lon="5.47877">
        <ele>230</ele>
        <time>2011-03-18T15:19:55Z</time>
      </trkpt>
      <trkpt lat="47.13924" lon="5.47862">
        <ele>230</ele>
        <time>2011-03-18T15:19:57Z</time>
      </trkpt>
      <trkpt lat="47.13916" lon="5.47846">
        <ele>230</ele>
        <time>2011-03-18T15:19:59Z</time>
      </trkpt>
      <trkpt lat="47.13908" lon="5.4783">
        <ele>230</ele>
        <time>2011-03-18T15:20:01Z</time>
      </trkpt>
      <trkpt lat="47.13901" lon="5.47813">
        <ele>230</ele>
        <time>2011-03-18T15:20:03Z</time>
      </trkpt>
      <trkpt lat="47.13893" lon="5.47795">
        <ele>230</ele>
        <time>2011-03-18T15:20:05Z</time>
      </trkpt>
      <trkpt lat="47.13886" lon="5.47776">
        <ele>230</ele>
        <time>2011-03-18T15:20:07Z</time>
      </trkpt>
      <trkpt lat="47.13879" lon="5.47756">
        <ele>230</ele>
        <time>2011-03-18T15:20:09Z</time>
      </trkpt>
      <trkpt lat="47.13872" lon="5.47734">
        <ele>230</ele>
        <time>2011-03-18T15:20:11Z</time>
      </trkpt>
      <trkpt lat="47.13865" lon="5.47712">
        <ele>224</ele>
        <time>2011-03-18T15:20:13Z</time>
      </trkpt>
      <trkpt lat="47.13859" lon="5.47689">
        <ele>224</ele>
        <time>2011-03-18T15:20:15Z</time>
      </trkpt>
      <trkpt lat="47.13854" lon="5.47665">
        <ele>224</ele>
        <time>2011-03-18T15:20:17Z</time>
      </trkpt>
      <trkpt lat="47.13847" lon="5.47643">
        <ele>224</ele>
        <time>2011-03-18T15:20:19Z</time>
      </trkpt>
      <trkpt lat="47.1384" lon="5.47621">
        <ele>224</ele>
        <time>2011-03-18T15:20:21Z</time>
      </trkpt>
      <trkpt lat="47.13832" lon="5.47602">
        <ele>224</ele>
        <time>2011-03-18T15:20:23Z</time>
      </trkpt>
      <trkpt lat="47.13824" lon="5.47583">
        <ele>218</ele>
        <time>2011-03-18T15:20:25Z</time>
      </trkpt>
      <trkpt lat="47.13817" lon="5.47565">
        <ele>218</ele>
        <time>2011-03-18T15:20:27Z</time>
      </trkpt>
      <trkpt lat="47.13809" lon="5.47547">
        <ele>218</ele>
        <time>2011-03-18T15:20:29Z</time>
      </trkpt>
      <trkpt lat="47.13802" lon="5.47527">
        <ele>218</ele>
        <time>2011-03-18T15:20:31Z</time>
      </trkpt>
      <trkpt lat="47.13795" lon="5.47506">
        <ele>218</ele>
        <time>2011-03-18T15:20:33Z</time>
      </trkpt>
      <trkpt lat="47.13789" lon="5.47485">
        <ele>218</ele>
        <time>2011-03-18T15:20:35Z</time>
      </trkpt>
      <trkpt lat="47.13785" lon="5.47461">
        <ele>213</ele>
        <time>2011-03-18T15:20:37Z</time>
      </trkpt>
      <trkpt lat="47.13783" lon="5.47449">
        <ele>213</ele>
        <time>2011-03-18T15:20:38Z</time>
      </trkpt>
      <trkpt lat="47.13778" lon="5.47424">
        <ele>213</ele>
        <time>2011-03-18T15:20:40Z</time>
      </trkpt>
      <trkpt lat="47.13775" lon="5.47411">
        <ele>213</ele>
        <time>2011-03-18T15:20:41Z</time>
      </trkpt>
      <trkpt lat="47.13773" lon="5.47397">
        <ele>213</ele>
        <time>2011-03-18T15:20:42Z</time>
      </trkpt>
      <trkpt lat="47.13772" lon="5.47383">
        <ele>213</ele>
        <time>2011-03-18T15:20:43Z</time>
      </trkpt>
      <trkpt lat="47.13771" lon="5.4737">
        <ele>213</ele>
        <time>2011-03-18T15:20:44Z</time>
      </trkpt>
      <trkpt lat="47.13771" lon="5.47355">
        <ele>213</ele>
        <time>2011-03-18T15:20:45Z</time>
      </trkpt>
      <trkpt lat="47.13771" lon="5.47341">
        <ele>213</ele>
        <time>2011-03-18T15:20:46Z</time>
      </trkpt>
      <trkpt lat="47.13771" lon="5.47327">
        <ele>213</ele>
        <time>2011-03-18T15:20:47Z</time>
      </trkpt>
      <trkpt lat="47.13771" lon="5.47314">
        <ele>213</ele>
        <time>2011-03-18T15:20:48Z</time>
      </trkpt>
      <trkpt lat="47.1377" lon="5.473">
        <ele>213</ele>
        <time>2011-03-18T15:20:49Z</time>
      </trkpt>
      <trkpt lat="47.13768" lon="5.47274">
        <ele>213</ele>
        <time>2011-03-18T15:20:51Z</time>
      </trkpt>
      <trkpt lat="47.13763" lon="5.47251">
        <ele>213</ele>
        <time>2011-03-18T15:20:53Z</time>
      </trkpt>
      <trkpt lat="47.13757" lon="5.47228">
        <ele>213</ele>
        <time>2011-03-18T15:20:55Z</time>
      </trkpt>
      <trkpt lat="47.13751" lon="5.47207">
        <ele>213</ele>
        <time>2011-03-18T15:20:57Z</time>
      </trkpt>
      <trkpt lat="47.13745" lon="5.47188">
        <ele>213</ele>
        <time>2011-03-18T15:20:59Z</time>
      </trkpt>
      <trkpt lat="47.13738" lon="5.47172">
        <ele>213</ele>
        <time>2011-03-18T15:21:01Z</time>
      </trkpt>
      <trkpt lat="47.13733" lon="5.47156">
        <ele>213</ele>
        <time>2011-03-18T15:21:03Z</time>
      </trkpt>
      <trkpt lat="47.13728" lon="5.47141">
        <ele>213</ele>
        <time>2011-03-18T15:21:05Z</time>
      </trkpt>
      <trkpt lat="47.13724" lon="5.47127">
        <ele>213</ele>
        <time>2011-03-18T15:21:07Z</time>
      </trkpt>
      <trkpt lat="47.13719" lon="5.47114">
        <ele>213</ele>
        <time>2011-03-18T15:21:09Z</time>
      </trkpt>
      <trkpt lat="47.13714" lon="5.47102">
        <ele>213</ele>
        <time>2011-03-18T15:21:11Z</time>
      </trkpt>
      <trkpt lat="47.1371" lon="5.4709">
        <ele>213</ele>
        <time>2011-03-18T15:21:13Z</time>
      </trkpt>
      <trkpt lat="47.13705" lon="5.47079">
        <ele>213</ele>
        <time>2011-03-18T15:21:15Z</time>
      </trkpt>
      <trkpt lat="47.13701" lon="5.47067">
        <ele>213</ele>
        <time>2011-03-18T15:21:17Z</time>
      </trkpt>
      <trkpt lat="47.13694" lon="5.4705">
        <ele>213</ele>
        <time>2011-03-18T15:21:20Z</time>
      </trkpt>
      <trkpt lat="47.13689" lon="5.47035">
        <ele>213</ele>
        <time>2011-03-18T15:21:23Z</time>
      </trkpt>
      <trkpt lat="47.13684" lon="5.47019">
        <ele>213</ele>
        <time>2011-03-18T15:21:26Z</time>
      </trkpt>
      <trkpt lat="47.1368" lon="5.47005">
        <ele>218</ele>
        <time>2011-03-18T15:21:29Z</time>
      </trkpt>
      <trkpt lat="47.13676" lon="5.4699">
        <ele>218</ele>
        <time>2011-03-18T15:21:32Z</time>
      </trkpt>
      <trkpt lat="47.13673" lon="5.46975">
        <ele>218</ele>
        <time>2011-03-18T15:21:35Z</time>
      </trkpt>
      <trkpt lat="47.1367" lon="5.46962">
        <ele>218</ele>
        <time>2011-03-18T15:21:38Z</time>
      </trkpt>
      <trkpt lat="47.13667" lon="5.46947">
        <ele>218</ele>
        <time>2011-03-18T15:21:41Z</time>
      </trkpt>
      <trkpt lat="47.13664" lon="5.46933">
        <ele>218</ele>
        <time>2011-03-18T15:21:44Z</time>
      </trkpt>
      <trkpt lat="47.13661" lon="5.46919">
        <ele>218</ele>
        <time>2011-03-18T15:21:47Z</time>
      </trkpt>
      <trkpt lat="47.13657" lon="5.46903">
        <ele>218</ele>
        <time>2011-03-18T15:21:50Z</time>
      </trkpt>
      <trkpt lat="47.13654" lon="5.46886">
        <ele>218</ele>
        <time>2011-03-18T15:21:53Z</time>
      </trkpt>
      <trkpt lat="47.13651" lon="5.46869">
        <ele>218</ele>
        <time>2011-03-18T15:21:56Z</time>
      </trkpt>
      <trkpt lat="47.13648" lon="5.4685">
        <ele>218</ele>
        <time>2011-03-18T15:21:59Z</time>
      </trkpt>
      <trkpt lat="47.13648" lon="5.46837">
        <ele>218</ele>
        <time>2011-03-18T15:22:01Z</time>
      </trkpt>
      <trkpt lat="47.13646" lon="5.46823">
        <ele>218</ele>
        <time>2011-03-18T15:22:03Z</time>
      </trkpt>
      <trkpt lat="47.13644" lon="5.46807">
        <ele>218</ele>
        <time>2011-03-18T15:22:05Z</time>
      </trkpt>
      <trkpt lat="47.13642" lon="5.46791">
        <ele>218</ele>
        <time>2011-03-18T15:22:07Z</time>
      </trkpt>
      <trkpt lat="47.13639" lon="5.46774">
        <ele>218</ele>
        <time>2011-03-18T15:22:09Z</time>
      </trkpt>
      <trkpt lat="47.13635" lon="5.46755">
        <ele>218</ele>
        <time>2011-03-18T15:22:11Z</time>
      </trkpt>
      <trkpt lat="47.13632" lon="5.46734">
        <ele>218</ele>
        <time>2011-03-18T15:22:13Z</time>
      </trkpt>
      <trkpt lat="47.13627" lon="5.46712">
        <ele>218</ele>
        <time>2011-03-18T15:22:15Z</time>
      </trkpt>
      <trkpt lat="47.13624" lon="5.46689">
        <ele>218</ele>
        <time>2011-03-18T15:22:17Z</time>
      </trkpt>
      <trkpt lat="47.13619" lon="5.46664">
        <ele>218</ele>
        <time>2011-03-18T15:22:19Z</time>
      </trkpt>
      <trkpt lat="47.13617" lon="5.46652">
        <ele>218</ele>
        <time>2011-03-18T15:22:20Z</time>
      </trkpt>
      <trkpt lat="47.13613" lon="5.46627">
        <ele>218</ele>
        <time>2011-03-18T15:22:22Z</time>
      </trkpt>
      <trkpt lat="47.13611" lon="5.46613">
        <ele>218</ele>
        <time>2011-03-18T15:22:23Z</time>
      </trkpt>
      <trkpt lat="47.1361" lon="5.466">
        <ele>218</ele>
        <time>2011-03-18T15:22:24Z</time>
      </trkpt>
      <trkpt lat="47.13608" lon="5.46586">
        <ele>218</ele>
        <time>2011-03-18T15:22:25Z</time>
      </trkpt>
      <trkpt lat="47.13606" lon="5.4656">
        <ele>218</ele>
        <time>2011-03-18T15:22:27Z</time>
      </trkpt>
      <trkpt lat="47.13605" lon="5.46547">
        <ele>218</ele>
        <time>2011-03-18T15:22:28Z</time>
      </trkpt>
      <trkpt lat="47.13604" lon="5.46533">
        <ele>218</ele>
        <time>2011-03-18T15:22:29Z</time>
      </trkpt>
      <trkpt lat="47.13603" lon="5.4652">
        <ele>218</ele>
        <time>2011-03-18T15:22:30Z</time>
      </trkpt>
      <trkpt lat="47.13602" lon="5.46506">
        <ele>218</ele>
        <time>2011-03-18T15:22:31Z</time>
      </trkpt>
      <trkpt lat="47.136" lon="5.46481">
        <ele>218</ele>
        <time>2011-03-18T15:22:33Z</time>
      </trkpt>
      <trkpt lat="47.13597" lon="5.46457">
        <ele>218</ele>
        <time>2011-03-18T15:22:35Z</time>
      </trkpt>
      <trkpt lat="47.13595" lon="5.46432">
        <ele>218</ele>
        <time>2011-03-18T15:22:37Z</time>
      </trkpt>
      <trkpt lat="47.13592" lon="5.46408">
        <ele>218</ele>
        <time>2011-03-18T15:22:39Z</time>
      </trkpt>
      <trkpt lat="47.13589" lon="5.46384">
        <ele>218</ele>
        <time>2011-03-18T15:22:41Z</time>
      </trkpt>
      <trkpt lat="47.13586" lon="5.46361">
        <ele>218</ele>
        <time>2011-03-18T15:22:43Z</time>
      </trkpt>
      <trkpt lat="47.13583" lon="5.46337">
        <ele>218</ele>
        <time>2011-03-18T15:22:45Z</time>
      </trkpt>
      <trkpt lat="47.13577" lon="5.46315">
        <ele>218</ele>
        <time>2011-03-18T15:22:47Z</time>
      </trkpt>
      <trkpt lat="47.13572" lon="5.46293">
        <ele>218</ele>
        <time>2011-03-18T15:22:49Z</time>
      </trkpt>
      <trkpt lat="47.13567" lon="5.46273">
        <ele>218</ele>
        <time>2011-03-18T15:22:51Z</time>
      </trkpt>
      <trkpt lat="47.13562" lon="5.46252">
        <ele>218</ele>
        <time>2011-03-18T15:22:53Z</time>
      </trkpt>
      <trkpt lat="47.13558" lon="5.46231">
        <ele>218</ele>
        <time>2011-03-18T15:22:55Z</time>
      </trkpt>
      <trkpt lat="47.13553" lon="5.46211">
        <ele>218</ele>
        <time>2011-03-18T15:22:57Z</time>
      </trkpt>
      <trkpt lat="47.13548" lon="5.4619">
        <ele>218</ele>
        <time>2011-03-18T15:22:59Z</time>
      </trkpt>
      <trkpt lat="47.13543" lon="5.46169">
        <ele>218</ele>
        <time>2011-03-18T15:23:01Z</time>
      </trkpt>
      <trkpt lat="47.13539" lon="5.46149">
        <ele>218</ele>
        <time>2011-03-18T15:23:03Z</time>
      </trkpt>
      <trkpt lat="47.13534" lon="5.46128">
        <ele>218</ele>
        <time>2011-03-18T15:23:05Z</time>
      </trkpt>
      <trkpt lat="47.13529" lon="5.46107">
        <ele>218</ele>
        <time>2011-03-18T15:23:07Z</time>
      </trkpt>
      <trkpt lat="47.13524" lon="5.46085">
        <ele>218</ele>
        <time>2011-03-18T15:23:09Z</time>
      </trkpt>
      <trkpt lat="47.1352" lon="5.46063">
        <ele>218</ele>
        <time>2011-03-18T15:23:11Z</time>
      </trkpt>
      <trkpt lat="47.13514" lon="5.46039">
        <ele>213</ele>
        <time>2011-03-18T15:23:13Z</time>
      </trkpt>
      <trkpt lat="47.13509" lon="5.46016">
        <ele>213</ele>
        <time>2011-03-18T15:23:15Z</time>
      </trkpt>
      <trkpt lat="47.13504" lon="5.45993">
        <ele>213</ele>
        <time>2011-03-18T15:23:17Z</time>
      </trkpt>
      <trkpt lat="47.13499" lon="5.45971">
        <ele>213</ele>
        <time>2011-03-18T15:23:19Z</time>
      </trkpt>
      <trkpt lat="47.13494" lon="5.45948">
        <ele>213</ele>
        <time>2011-03-18T15:23:21Z</time>
      </trkpt>
      <trkpt lat="47.13488" lon="5.45925">
        <ele>213</ele>
        <time>2011-03-18T15:23:23Z</time>
      </trkpt>
      <trkpt lat="47.13483" lon="5.45904">
        <ele>213</ele>
        <time>2011-03-18T15:23:25Z</time>
      </trkpt>
      <trkpt lat="47.13479" lon="5.45882">
        <ele>213</ele>
        <time>2011-03-18T15:23:27Z</time>
      </trkpt>
      <trkpt lat="47.13474" lon="5.45861">
        <ele>213</ele>
        <time>2011-03-18T15:23:29Z</time>
      </trkpt>
      <trkpt lat="47.13469" lon="5.4584">
        <ele>213</ele>
        <time>2011-03-18T15:23:31Z</time>
      </trkpt>
      <trkpt lat="47.13464" lon="5.45818">
        <ele>213</ele>
        <time>2011-03-18T15:23:33Z</time>
      </trkpt>
      <trkpt lat="47.1346" lon="5.45797">
        <ele>213</ele>
        <time>2011-03-18T15:23:35Z</time>
      </trkpt>
      <trkpt lat="47.13456" lon="5.45775">
        <ele>213</ele>
        <time>2011-03-18T15:23:37Z</time>
      </trkpt>
      <trkpt lat="47.13452" lon="5.45754">
        <ele>213</ele>
        <time>2011-03-18T15:23:39Z</time>
      </trkpt>
      <trkpt lat="47.13447" lon="5.45732">
        <ele>213</ele>
        <time>2011-03-18T15:23:41Z</time>
      </trkpt>
      <trkpt lat="47.13443" lon="5.45711">
        <ele>213</ele>
        <time>2011-03-18T15:23:43Z</time>
      </trkpt>
      <trkpt lat="47.13439" lon="5.45691">
        <ele>213</ele>
        <time>2011-03-18T15:23:45Z</time>
      </trkpt>
      <trkpt lat="47.13434" lon="5.4567">
        <ele>213</ele>
        <time>2011-03-18T15:23:47Z</time>
      </trkpt>
      <trkpt lat="47.13429" lon="5.45651">
        <ele>213</ele>
        <time>2011-03-18T15:23:49Z</time>
      </trkpt>
      <trkpt lat="47.13425" lon="5.45631">
        <ele>213</ele>
        <time>2011-03-18T15:23:51Z</time>
      </trkpt>
      <trkpt lat="47.1342" lon="5.45613">
        <ele>213</ele>
        <time>2011-03-18T15:23:53Z</time>
      </trkpt>
      <trkpt lat="47.13417" lon="5.45595">
        <ele>213</ele>
        <time>2011-03-18T15:23:55Z</time>
      </trkpt>
      <trkpt lat="47.13414" lon="5.45577">
        <ele>213</ele>
        <time>2011-03-18T15:23:57Z</time>
      </trkpt>
      <trkpt lat="47.13414" lon="5.45559">
        <ele>213</ele>
        <time>2011-03-18T15:23:59Z</time>
      </trkpt>
      <trkpt lat="47.13415" lon="5.45544">
        <ele>213</ele>
        <time>2011-03-18T15:24:01Z</time>
      </trkpt>
      <trkpt lat="47.13417" lon="5.45531">
        <ele>219</ele>
        <time>2011-03-18T15:24:04Z</time>
      </trkpt>
      <trkpt lat="47.13418" lon="5.45517">
        <ele>219</ele>
        <time>2011-03-18T15:24:09Z</time>
      </trkpt>
      <trkpt lat="47.1341" lon="5.45521">
        <ele>225</ele>
        <time>2011-03-18T15:25:47Z</time>
      </trkpt>
      <trkpt lat="47.134" lon="5.45523">
        <ele>225</ele>
        <time>2011-03-18T15:25:52Z</time>
      </trkpt>
      <trkpt lat="47.1339" lon="5.45527">
        <ele>225</ele>
        <time>2011-03-18T15:25:56Z</time>
      </trkpt>
      <trkpt lat="47.13379" lon="5.45533">
        <ele>225</ele>
        <time>2011-03-18T15:26:00Z</time>
      </trkpt>
      <trkpt lat="47.13369" lon="5.45538">
        <ele>225</ele>
        <time>2011-03-18T15:26:03Z</time>
      </trkpt>
      <trkpt lat="47.13358" lon="5.45544">
        <ele>225</ele>
        <time>2011-03-18T15:26:06Z</time>
      </trkpt>
      <trkpt lat="47.13349" lon="5.4555">
        <ele>225</ele>
        <time>2011-03-18T15:26:08Z</time>
      </trkpt>
      <trkpt lat="47.13337" lon="5.45557">
        <ele>225</ele>
        <time>2011-03-18T15:26:11Z</time>
      </trkpt>
      <trkpt lat="47.13328" lon="5.45562">
        <ele>225</ele>
        <time>2011-03-18T15:26:13Z</time>
      </trkpt>
      <trkpt lat="47.13319" lon="5.45568">
        <ele>225</ele>
        <time>2011-03-18T15:26:15Z</time>
      </trkpt>
      <trkpt lat="47.13309" lon="5.45573">
        <ele>225</ele>
        <time>2011-03-18T15:26:17Z</time>
      </trkpt>
      <trkpt lat="47.13298" lon="5.45579">
        <ele>225</ele>
        <time>2011-03-18T15:26:19Z</time>
      </trkpt>
      <trkpt lat="47.13286" lon="5.45586">
        <ele>225</ele>
        <time>2011-03-18T15:26:21Z</time>
      </trkpt>
      <trkpt lat="47.13274" lon="5.45591">
        <ele>219</ele>
        <time>2011-03-18T15:26:23Z</time>
      </trkpt>
      <trkpt lat="47.13261" lon="5.45598">
        <ele>219</ele>
        <time>2011-03-18T15:26:25Z</time>
      </trkpt>
      <trkpt lat="47.13249" lon="5.45605">
        <ele>219</ele>
        <time>2011-03-18T15:26:27Z</time>
      </trkpt>
      <trkpt lat="47.13236" lon="5.45612">
        <ele>219</ele>
        <time>2011-03-18T15:26:29Z</time>
      </trkpt>
      <trkpt lat="47.13223" lon="5.45621">
        <ele>219</ele>
        <time>2011-03-18T15:26:31Z</time>
      </trkpt>
      <trkpt lat="47.1321" lon="5.45627">
        <ele>219</ele>
        <time>2011-03-18T15:26:33Z</time>
      </trkpt>
      <trkpt lat="47.13198" lon="5.45633">
        <ele>219</ele>
        <time>2011-03-18T15:26:35Z</time>
      </trkpt>
      <trkpt lat="47.13185" lon="5.45639">
        <ele>219</ele>
        <time>2011-03-18T15:26:37Z</time>
      </trkpt>
      <trkpt lat="47.13174" lon="5.45645">
        <ele>219</ele>
        <time>2011-03-18T15:26:39Z</time>
      </trkpt>
      <trkpt lat="47.13162" lon="5.4565">
        <ele>219</ele>
        <time>2011-03-18T15:26:41Z</time>
      </trkpt>
      <trkpt lat="47.13151" lon="5.45655">
        <ele>219</ele>
        <time>2011-03-18T15:26:43Z</time>
      </trkpt>
      <trkpt lat="47.13141" lon="5.4566">
        <ele>219</ele>
        <time>2011-03-18T15:26:45Z</time>
      </trkpt>
      <trkpt lat="47.1313" lon="5.45665">
        <ele>219</ele>
        <time>2011-03-18T15:26:47Z</time>
      </trkpt>
      <trkpt lat="47.1312" lon="5.4567">
        <ele>219</ele>
        <time>2011-03-18T15:26:49Z</time>
      </trkpt>
      <trkpt lat="47.1311" lon="5.45674">
        <ele>219</ele>
        <time>2011-03-18T15:26:51Z</time>
      </trkpt>
      <trkpt lat="47.131" lon="5.45679">
        <ele>219</ele>
        <time>2011-03-18T15:26:53Z</time>
      </trkpt>
      <trkpt lat="47.1309" lon="5.45683">
        <ele>219</ele>
        <time>2011-03-18T15:26:55Z</time>
      </trkpt>
      <trkpt lat="47.13081" lon="5.45688">
        <ele>219</ele>
        <time>2011-03-18T15:26:57Z</time>
      </trkpt>
      <trkpt lat="47.13071" lon="5.45691">
        <ele>219</ele>
        <time>2011-03-18T15:26:59Z</time>
      </trkpt>
      <trkpt lat="47.13061" lon="5.45692">
        <ele>219</ele>
        <time>2011-03-18T15:27:01Z</time>
      </trkpt>
      <trkpt lat="47.13051" lon="5.45692">
        <ele>219</ele>
        <time>2011-03-18T15:27:03Z</time>
      </trkpt>
      <trkpt lat="47.13041" lon="5.45691">
        <ele>219</ele>
        <time>2011-03-18T15:27:05Z</time>
      </trkpt>
      <trkpt lat="47.13031" lon="5.45689">
        <ele>219</ele>
        <time>2011-03-18T15:27:07Z</time>
      </trkpt>
      <trkpt lat="47.13021" lon="5.45686">
        <ele>219</ele>
        <time>2011-03-18T15:27:09Z</time>
      </trkpt>
      <trkpt lat="47.13011" lon="5.45684">
        <ele>219</ele>
        <time>2011-03-18T15:27:11Z</time>
      </trkpt>
      <trkpt lat="47.13001" lon="5.45683">
        <ele>219</ele>
        <time>2011-03-18T15:27:13Z</time>
      </trkpt>
      <trkpt lat="47.12991" lon="5.45681">
        <ele>219</ele>
        <time>2011-03-18T15:27:15Z</time>
      </trkpt>
      <trkpt lat="47.1298" lon="5.45681">
        <ele>219</ele>
        <time>2011-03-18T15:27:17Z</time>
      </trkpt>
      <trkpt lat="47.1297" lon="5.45682">
        <ele>219</ele>
        <time>2011-03-18T15:27:19Z</time>
      </trkpt>
      <trkpt lat="47.1296" lon="5.45683">
        <ele>219</ele>
        <time>2011-03-18T15:27:21Z</time>
      </trkpt>
      <trkpt lat="47.12949" lon="5.45686">
        <ele>219</ele>
        <time>2011-03-18T15:27:23Z</time>
      </trkpt>
      <trkpt lat="47.1294" lon="5.4569">
        <ele>219</ele>
        <time>2011-03-18T15:27:25Z</time>
      </trkpt>
      <trkpt lat="47.1293" lon="5.45693">
        <ele>219</ele>
        <time>2011-03-18T15:27:27Z</time>
      </trkpt>
      <trkpt lat="47.12921" lon="5.45698">
        <ele>219</ele>
        <time>2011-03-18T15:27:29Z</time>
      </trkpt>
      <trkpt lat="47.12912" lon="5.45701">
        <ele>219</ele>
        <time>2011-03-18T15:27:31Z</time>
      </trkpt>
      <trkpt lat="47.12903" lon="5.45704">
        <ele>219</ele>
        <time>2011-03-18T15:27:33Z</time>
      </trkpt>
      <trkpt lat="47.12894" lon="5.45709">
        <ele>219</ele>
        <time>2011-03-18T15:27:35Z</time>
      </trkpt>
      <trkpt lat="47.12881" lon="5.45713">
        <ele>219</ele>
        <time>2011-03-18T15:27:38Z</time>
      </trkpt>
      <trkpt lat="47.12868" lon="5.45718">
        <ele>219</ele>
        <time>2011-03-18T15:27:41Z</time>
      </trkpt>
      <trkpt lat="47.12856" lon="5.4572">
        <ele>219</ele>
        <time>2011-03-18T15:27:44Z</time>
      </trkpt>
      <trkpt lat="47.12844" lon="5.45724">
        <ele>219</ele>
        <time>2011-03-18T15:27:47Z</time>
      </trkpt>
      <trkpt lat="47.12832" lon="5.45727">
        <ele>219</ele>
        <time>2011-03-18T15:27:50Z</time>
      </trkpt>
      <trkpt lat="47.12821" lon="5.4573">
        <ele>219</ele>
        <time>2011-03-18T15:27:53Z</time>
      </trkpt>
      <trkpt lat="47.1281" lon="5.45733">
        <ele>225</ele>
        <time>2011-03-18T15:27:56Z</time>
      </trkpt>
      <trkpt lat="47.12799" lon="5.45736">
        <ele>225</ele>
        <time>2011-03-18T15:27:59Z</time>
      </trkpt>
      <trkpt lat="47.1279" lon="5.45739">
        <ele>225</ele>
        <time>2011-03-18T15:28:01Z</time>
      </trkpt>
      <trkpt lat="47.12777" lon="5.45743">
        <ele>225</ele>
        <time>2011-03-18T15:28:04Z</time>
      </trkpt>
      <trkpt lat="47.12768" lon="5.45744">
        <ele>225</ele>
        <time>2011-03-18T15:28:06Z</time>
      </trkpt>
      <trkpt lat="47.12759" lon="5.45743">
        <ele>225</ele>
        <time>2011-03-18T15:28:08Z</time>
      </trkpt>
      <trkpt lat="47.1275" lon="5.45741">
        <ele>225</ele>
        <time>2011-03-18T15:28:10Z</time>
      </trkpt>
      <trkpt lat="47.1274" lon="5.45738">
        <ele>225</ele>
        <time>2011-03-18T15:28:12Z</time>
      </trkpt>
      <trkpt lat="47.12732" lon="5.45735">
        <ele>225</ele>
        <time>2011-03-18T15:28:14Z</time>
      </trkpt>
      <trkpt lat="47.1272" lon="5.45729">
        <ele>225</ele>
        <time>2011-03-18T15:28:17Z</time>
      </trkpt>
      <trkpt lat="47.12711" lon="5.45725">
        <ele>225</ele>
        <time>2011-03-18T15:28:19Z</time>
      </trkpt>
      <trkpt lat="47.12702" lon="5.4572">
        <ele>230</ele>
        <time>2011-03-18T15:28:21Z</time>
      </trkpt>
      <trkpt lat="47.12693" lon="5.45715">
        <ele>230</ele>
        <time>2011-03-18T15:28:23Z</time>
      </trkpt>
      <trkpt lat="47.12684" lon="5.45709">
        <ele>230</ele>
        <time>2011-03-18T15:28:25Z</time>
      </trkpt>
      <trkpt lat="47.12674" lon="5.45703">
        <ele>230</ele>
        <time>2011-03-18T15:28:27Z</time>
      </trkpt>
      <trkpt lat="47.12664" lon="5.45699">
        <ele>230</ele>
        <time>2011-03-18T15:28:29Z</time>
      </trkpt>
      <trkpt lat="47.12655" lon="5.45692">
        <ele>230</ele>
        <time>2011-03-18T15:28:33Z</time>
      </trkpt>
      <trkpt lat="47.12646" lon="5.45685">
        <ele>230</ele>
        <time>2011-03-18T15:28:46Z</time>
      </trkpt>
      <trkpt lat="47.12637" lon="5.45691">
        <ele>230</ele>
        <time>2011-03-18T15:28:50Z</time>
      </trkpt>
      <trkpt lat="47.1263" lon="5.45699">
        <ele>230</ele>
        <time>2011-03-18T15:28:53Z</time>
      </trkpt>
      <trkpt lat="47.1262" lon="5.45706">
        <ele>230</ele>
        <time>2011-03-18T15:28:57Z</time>
      </trkpt>
      <trkpt lat="47.1261" lon="5.45703">
        <ele>236</ele>
        <time>2011-03-18T15:29:01Z</time>
      </trkpt>
      <trkpt lat="47.12602" lon="5.45696">
        <ele>236</ele>
        <time>2011-03-18T15:29:04Z</time>
      </trkpt>
      <trkpt lat="47.12593" lon="5.45691">
        <ele>236</ele>
        <time>2011-03-18T15:29:07Z</time>
      </trkpt>
      <trkpt lat="47.12585" lon="5.45685">
        <ele>243</ele>
        <time>2011-03-18T15:29:10Z</time>
      </trkpt>
      <trkpt lat="47.12576" lon="5.4568">
        <ele>243</ele>
        <time>2011-03-18T15:29:13Z</time>
      </trkpt>
      <trkpt lat="47.12571" lon="5.45669">
        <ele>243</ele>
        <time>2011-03-18T15:29:16Z</time>
      </trkpt>
      <trkpt lat="47.12573" lon="5.45651">
        <ele>243</ele>
        <time>2011-03-18T15:29:19Z</time>
      </trkpt>
      <trkpt lat="47.12577" lon="5.45637">
        <ele>243</ele>
        <time>2011-03-18T15:29:21Z</time>
      </trkpt>
      <trkpt lat="47.12581" lon="5.45622">
        <ele>243</ele>
        <time>2011-03-18T15:29:23Z</time>
      </trkpt>
      <trkpt lat="47.12585" lon="5.45607">
        <ele>243</ele>
        <time>2011-03-18T15:29:25Z</time>
      </trkpt>
      <trkpt lat="47.1259" lon="5.45592">
        <ele>243</ele>
        <time>2011-03-18T15:29:27Z</time>
      </trkpt>
      <trkpt lat="47.12594" lon="5.45577">
        <ele>243</ele>
        <time>2011-03-18T15:29:29Z</time>
      </trkpt>
      <trkpt lat="47.12599" lon="5.45559">
        <ele>243</ele>
        <time>2011-03-18T15:29:31Z</time>
      </trkpt>
      <trkpt lat="47.12602" lon="5.45543">
        <ele>243</ele>
        <time>2011-03-18T15:29:33Z</time>
      </trkpt>
      <trkpt lat="47.12605" lon="5.4553">
        <ele>243</ele>
        <time>2011-03-18T15:29:35Z</time>
      </trkpt>
      <trkpt lat="47.12604" lon="5.45512">
        <ele>243</ele>
        <time>2011-03-18T15:29:38Z</time>
      </trkpt>
      <trkpt lat="47.12596" lon="5.45501">
        <ele>238</ele>
        <time>2011-03-18T15:29:40Z</time>
      </trkpt>
      <trkpt lat="47.12588" lon="5.45491">
        <ele>238</ele>
        <time>2011-03-18T15:29:42Z</time>
      </trkpt>
      <trkpt lat="47.12581" lon="5.45481">
        <ele>238</ele>
        <time>2011-03-18T15:29:44Z</time>
      </trkpt>
      <trkpt lat="47.12575" lon="5.45469">
        <ele>238</ele>
        <time>2011-03-18T15:29:47Z</time>
      </trkpt>
      <trkpt lat="47.12573" lon="5.45453">
        <ele>238</ele>
        <time>2011-03-18T15:29:51Z</time>
      </trkpt>
      <trkpt lat="47.12572" lon="5.45439">
        <ele>238</ele>
        <time>2011-03-18T15:29:54Z</time>
      </trkpt>
      <trkpt lat="47.12572" lon="5.45426">
        <ele>238</ele>
        <time>2011-03-18T15:29:57Z</time>
      </trkpt>
      <trkpt lat="47.12573" lon="5.45411">
        <ele>238</ele>
        <time>2011-03-18T15:30:00Z</time>
      </trkpt>
      <trkpt lat="47.1257" lon="5.45398">
        <ele>238</ele>
        <time>2011-03-18T15:30:03Z</time>
      </trkpt>
      <trkpt lat="47.12566" lon="5.45384">
        <ele>238</ele>
        <time>2011-03-18T15:30:06Z</time>
      </trkpt>
      <trkpt lat="47.12559" lon="5.45372">
        <ele>243</ele>
        <time>2011-03-18T15:30:09Z</time>
      </trkpt>
      <trkpt lat="47.12552" lon="5.4536">
        <ele>243</ele>
        <time>2011-03-18T15:30:12Z</time>
      </trkpt>
      <trkpt lat="47.12544" lon="5.45349">
        <ele>243</ele>
        <time>2011-03-18T15:30:15Z</time>
      </trkpt>
      <trkpt lat="47.12535" lon="5.45338">
        <ele>243</ele>
        <time>2011-03-18T15:30:18Z</time>
      </trkpt>
      <trkpt lat="47.12525" lon="5.45325">
        <ele>243</ele>
        <time>2011-03-18T15:30:21Z</time>
      </trkpt>
      <trkpt lat="47.12519" lon="5.45315">
        <ele>243</ele>
        <time>2011-03-18T15:30:23Z</time>
      </trkpt>
      <trkpt lat="47.12514" lon="5.45301">
        <ele>243</ele>
        <time>2011-03-18T15:30:25Z</time>
      </trkpt>
      <trkpt lat="47.12512" lon="5.45283">
        <ele>237</ele>
        <time>2011-03-18T15:30:27Z</time>
      </trkpt>
      <trkpt lat="47.12515" lon="5.45265">
        <ele>237</ele>
        <time>2011-03-18T15:30:29Z</time>
      </trkpt>
      <trkpt lat="47.12521" lon="5.45246">
        <ele>237</ele>
        <time>2011-03-18T15:30:31Z</time>
      </trkpt>
      <trkpt lat="47.12528" lon="5.45227">
        <ele>237</ele>
        <time>2011-03-18T15:30:33Z</time>
      </trkpt>
      <trkpt lat="47.12535" lon="5.45207">
        <ele>237</ele>
        <time>2011-03-18T15:30:35Z</time>
      </trkpt>
      <trkpt lat="47.12542" lon="5.45188">
        <ele>237</ele>
        <time>2011-03-18T15:30:37Z</time>
      </trkpt>
      <trkpt lat="47.12548" lon="5.45168">
        <ele>232</ele>
        <time>2011-03-18T15:30:39Z</time>
      </trkpt>
      <trkpt lat="47.12553" lon="5.45148">
        <ele>232</ele>
        <time>2011-03-18T15:30:41Z</time>
      </trkpt>
      <trkpt lat="47.12557" lon="5.45127">
        <ele>232</ele>
        <time>2011-03-18T15:30:43Z</time>
      </trkpt>
      <trkpt lat="47.12562" lon="5.45107">
        <ele>232</ele>
        <time>2011-03-18T15:30:45Z</time>
      </trkpt>
      <trkpt lat="47.12566" lon="5.45086">
        <ele>232</ele>
        <time>2011-03-18T15:30:47Z</time>
      </trkpt>
      <trkpt lat="47.12571" lon="5.45065">
        <ele>226</ele>
        <time>2011-03-18T15:30:49Z</time>
      </trkpt>
      <trkpt lat="47.12575" lon="5.45044">
        <ele>226</ele>
        <time>2011-03-18T15:30:51Z</time>
      </trkpt>
      <trkpt lat="47.12579" lon="5.45025">
        <ele>226</ele>
        <time>2011-03-18T15:30:53Z</time>
      </trkpt>
      <trkpt lat="47.12583" lon="5.45011">
        <ele>226</ele>
        <time>2011-03-18T15:30:55Z</time>
      </trkpt>
      <trkpt lat="47.12587" lon="5.44998">
        <ele>226</ele>
        <time>2011-03-18T15:31:00Z</time>
      </trkpt>
      <trkpt lat="47.12591" lon="5.44983">
        <ele>226</ele>
        <time>2011-03-18T15:31:22Z</time>
      </trkpt>
      <trkpt lat="47.12594" lon="5.44967">
        <ele>226</ele>
        <time>2011-03-18T15:31:26Z</time>
      </trkpt>
      <trkpt lat="47.12599" lon="5.44952">
        <ele>226</ele>
        <time>2011-03-18T15:31:29Z</time>
      </trkpt>
      <trkpt lat="47.12603" lon="5.44937">
        <ele>226</ele>
        <time>2011-03-18T15:31:32Z</time>
      </trkpt>
      <trkpt lat="47.12608" lon="5.44922">
        <ele>226</ele>
        <time>2011-03-18T15:31:35Z</time>
      </trkpt>
      <trkpt lat="47.12613" lon="5.44906">
        <ele>226</ele>
        <time>2011-03-18T15:31:38Z</time>
      </trkpt>
      <trkpt lat="47.12618" lon="5.44891">
        <ele>226</ele>
        <time>2011-03-18T15:31:41Z</time>
      </trkpt>
      <trkpt lat="47.12623" lon="5.44874">
        <ele>226</ele>
        <time>2011-03-18T15:31:44Z</time>
      </trkpt>
      <trkpt lat="47.12626" lon="5.44862">
        <ele>226</ele>
        <time>2011-03-18T15:31:46Z</time>
      </trkpt>
      <trkpt lat="47.12631" lon="5.44847">
        <ele>226</ele>
        <time>2011-03-18T15:31:48Z</time>
      </trkpt>
      <trkpt lat="47.12635" lon="5.44833">
        <ele>226</ele>
        <time>2011-03-18T15:31:50Z</time>
      </trkpt>
      <trkpt lat="47.1264" lon="5.44817">
        <ele>226</ele>
        <time>2011-03-18T15:31:52Z</time>
      </trkpt>
      <trkpt lat="47.12645" lon="5.448">
        <ele>226</ele>
        <time>2011-03-18T15:31:54Z</time>
      </trkpt>
      <trkpt lat="47.12649" lon="5.44783">
        <ele>226</ele>
        <time>2011-03-18T15:31:56Z</time>
      </trkpt>
      <trkpt lat="47.12653" lon="5.44764">
        <ele>226</ele>
        <time>2011-03-18T15:31:58Z</time>
      </trkpt>
      <trkpt lat="47.12656" lon="5.44745">
        <ele>226</ele>
        <time>2011-03-18T15:32:00Z</time>
      </trkpt>
      <trkpt lat="47.12659" lon="5.44724">
        <ele>226</ele>
        <time>2011-03-18T15:32:02Z</time>
      </trkpt>
      <trkpt lat="47.12661" lon="5.44703">
        <ele>226</ele>
        <time>2011-03-18T15:32:04Z</time>
      </trkpt>
      <trkpt lat="47.12664" lon="5.44682">
        <ele>226</ele>
        <time>2011-03-18T15:32:06Z</time>
      </trkpt>
      <trkpt lat="47.12667" lon="5.44661">
        <ele>226</ele>
        <time>2011-03-18T15:32:08Z</time>
      </trkpt>
      <trkpt lat="47.1267" lon="5.4464">
        <ele>226</ele>
        <time>2011-03-18T15:32:10Z</time>
      </trkpt>
      <trkpt lat="47.12674" lon="5.44618">
        <ele>226</ele>
        <time>2011-03-18T15:32:12Z</time>
      </trkpt>
      <trkpt lat="47.12678" lon="5.44596">
        <ele>226</ele>
        <time>2011-03-18T15:32:14Z</time>
      </trkpt>
      <trkpt lat="47.12682" lon="5.44574">
        <ele>226</ele>
        <time>2011-03-18T15:32:16Z</time>
      </trkpt>
      <trkpt lat="47.12685" lon="5.44552">
        <ele>226</ele>
        <time>2011-03-18T15:32:18Z</time>
      </trkpt>
      <trkpt lat="47.12688" lon="5.44529">
        <ele>226</ele>
        <time>2011-03-18T15:32:20Z</time>
      </trkpt>
      <trkpt lat="47.12692" lon="5.44507">
        <ele>221</ele>
        <time>2011-03-18T15:32:22Z</time>
      </trkpt>
      <trkpt lat="47.12696" lon="5.44484">
        <ele>221</ele>
        <time>2011-03-18T15:32:24Z</time>
      </trkpt>
      <trkpt lat="47.12699" lon="5.44462">
        <ele>221</ele>
        <time>2011-03-18T15:32:26Z</time>
      </trkpt>
      <trkpt lat="47.12702" lon="5.44438">
        <ele>221</ele>
        <time>2011-03-18T15:32:28Z</time>
      </trkpt>
      <trkpt lat="47.12705" lon="5.44416">
        <ele>221</ele>
        <time>2011-03-18T15:32:30Z</time>
      </trkpt>
      <trkpt lat="47.12708" lon="5.44393">
        <ele>221</ele>
        <time>2011-03-18T15:32:32Z</time>
      </trkpt>
      <trkpt lat="47.12713" lon="5.4437">
        <ele>221</ele>
        <time>2011-03-18T15:32:34Z</time>
      </trkpt>
      <trkpt lat="47.12717" lon="5.44348">
        <ele>221</ele>
        <time>2011-03-18T15:32:36Z</time>
      </trkpt>
      <trkpt lat="47.12721" lon="5.44324">
        <ele>221</ele>
        <time>2011-03-18T15:32:38Z</time>
      </trkpt>
      <trkpt lat="47.12727" lon="5.44302">
        <ele>221</ele>
        <time>2011-03-18T15:32:40Z</time>
      </trkpt>
      <trkpt lat="47.12733" lon="5.44279">
        <ele>221</ele>
        <time>2011-03-18T15:32:42Z</time>
      </trkpt>
      <trkpt lat="47.12739" lon="5.44258">
        <ele>221</ele>
        <time>2011-03-18T15:32:44Z</time>
      </trkpt>
      <trkpt lat="47.12746" lon="5.44235">
        <ele>221</ele>
        <time>2011-03-18T15:32:46Z</time>
      </trkpt>
      <trkpt lat="47.12753" lon="5.44214">
        <ele>221</ele>
        <time>2011-03-18T15:32:48Z</time>
      </trkpt>
      <trkpt lat="47.12761" lon="5.44193">
        <ele>221</ele>
        <time>2011-03-18T15:32:50Z</time>
      </trkpt>
      <trkpt lat="47.12769" lon="5.44172">
        <ele>221</ele>
        <time>2011-03-18T15:32:52Z</time>
      </trkpt>
      <trkpt lat="47.12777" lon="5.44151">
        <ele>221</ele>
        <time>2011-03-18T15:32:54Z</time>
      </trkpt>
      <trkpt lat="47.12784" lon="5.4413">
        <ele>221</ele>
        <time>2011-03-18T15:32:56Z</time>
      </trkpt>
      <trkpt lat="47.12789" lon="5.44109">
        <ele>221</ele>
        <time>2011-03-18T15:32:58Z</time>
      </trkpt>
      <trkpt lat="47.12794" lon="5.44087">
        <ele>221</ele>
        <time>2011-03-18T15:33:00Z</time>
      </trkpt>
      <trkpt lat="47.12797" lon="5.44066">
        <ele>216</ele>
        <time>2011-03-18T15:33:02Z</time>
      </trkpt>
      <trkpt lat="47.12801" lon="5.44044">
        <ele>216</ele>
        <time>2011-03-18T15:33:04Z</time>
      </trkpt>
      <trkpt lat="47.12805" lon="5.44022">
        <ele>216</ele>
        <time>2011-03-18T15:33:06Z</time>
      </trkpt>
      <trkpt lat="47.12808" lon="5.44001">
        <ele>216</ele>
        <time>2011-03-18T15:33:08Z</time>
      </trkpt>
      <trkpt lat="47.12813" lon="5.43979">
        <ele>216</ele>
        <time>2011-03-18T15:33:10Z</time>
      </trkpt>
      <trkpt lat="47.12819" lon="5.4396">
        <ele>216</ele>
        <time>2011-03-18T15:33:12Z</time>
      </trkpt>
      <trkpt lat="47.12826" lon="5.43942">
        <ele>216</ele>
        <time>2011-03-18T15:33:14Z</time>
      </trkpt>
      <trkpt lat="47.12834" lon="5.43925">
        <ele>216</ele>
        <time>2011-03-18T15:33:16Z</time>
      </trkpt>
      <trkpt lat="47.12843" lon="5.43907">
        <ele>216</ele>
        <time>2011-03-18T15:33:18Z</time>
      </trkpt>
      <trkpt lat="47.12853" lon="5.43891">
        <ele>216</ele>
        <time>2011-03-18T15:33:20Z</time>
      </trkpt>
      <trkpt lat="47.12862" lon="5.43876">
        <ele>216</ele>
        <time>2011-03-18T15:33:22Z</time>
      </trkpt>
      <trkpt lat="47.12872" lon="5.4386">
        <ele>216</ele>
        <time>2011-03-18T15:33:24Z</time>
      </trkpt>
      <trkpt lat="47.12881" lon="5.43843">
        <ele>216</ele>
        <time>2011-03-18T15:33:26Z</time>
      </trkpt>
      <trkpt lat="47.12888" lon="5.43824">
        <ele>216</ele>
        <time>2011-03-18T15:33:28Z</time>
      </trkpt>
      <trkpt lat="47.12892" lon="5.43803">
        <ele>216</ele>
        <time>2011-03-18T15:33:30Z</time>
      </trkpt>
      <trkpt lat="47.12894" lon="5.43782">
        <ele>216</ele>
        <time>2011-03-18T15:33:32Z</time>
      </trkpt>
      <trkpt lat="47.12895" lon="5.43761">
        <ele>216</ele>
        <time>2011-03-18T15:33:34Z</time>
      </trkpt>
      <trkpt lat="47.12897" lon="5.4374">
        <ele>216</ele>
        <time>2011-03-18T15:33:36Z</time>
      </trkpt>
      <trkpt lat="47.12899" lon="5.4372">
        <ele>216</ele>
        <time>2011-03-18T15:33:38Z</time>
      </trkpt>
      <trkpt lat="47.129" lon="5.43698">
        <ele>216</ele>
        <time>2011-03-18T15:33:40Z</time>
      </trkpt>
      <trkpt lat="47.12901" lon="5.43678">
        <ele>216</ele>
        <time>2011-03-18T15:33:42Z</time>
      </trkpt>
      <trkpt lat="47.12903" lon="5.43658">
        <ele>216</ele>
        <time>2011-03-18T15:33:44Z</time>
      </trkpt>
      <trkpt lat="47.12905" lon="5.43637">
        <ele>216</ele>
        <time>2011-03-18T15:33:46Z</time>
      </trkpt>
      <trkpt lat="47.12907" lon="5.43616">
        <ele>216</ele>
        <time>2011-03-18T15:33:48Z</time>
      </trkpt>
      <trkpt lat="47.12908" lon="5.43597">
        <ele>216</ele>
        <time>2011-03-18T15:33:50Z</time>
      </trkpt>
      <trkpt lat="47.1291" lon="5.43576">
        <ele>216</ele>
        <time>2011-03-18T15:33:52Z</time>
      </trkpt>
      <trkpt lat="47.12911" lon="5.43555">
        <ele>216</ele>
        <time>2011-03-18T15:33:54Z</time>
      </trkpt>
      <trkpt lat="47.12913" lon="5.43535">
        <ele>216</ele>
        <time>2011-03-18T15:33:56Z</time>
      </trkpt>
      <trkpt lat="47.12916" lon="5.43514">
        <ele>216</ele>
        <time>2011-03-18T15:33:58Z</time>
      </trkpt>
      <trkpt lat="47.12918" lon="5.43493">
        <ele>216</ele>
        <time>2011-03-18T15:34:00Z</time>
      </trkpt>
      <trkpt lat="47.12919" lon="5.43473">
        <ele>216</ele>
        <time>2011-03-18T15:34:02Z</time>
      </trkpt>
      <trkpt lat="47.12921" lon="5.43452">
        <ele>216</ele>
        <time>2011-03-18T15:34:04Z</time>
      </trkpt>
      <trkpt lat="47.12923" lon="5.43431">
        <ele>216</ele>
        <time>2011-03-18T15:34:06Z</time>
      </trkpt>
      <trkpt lat="47.12926" lon="5.43411">
        <ele>222</ele>
        <time>2011-03-18T15:34:08Z</time>
      </trkpt>
      <trkpt lat="47.12927" lon="5.43388">
        <ele>222</ele>
        <time>2011-03-18T15:34:10Z</time>
      </trkpt>
      <trkpt lat="47.12929" lon="5.43368">
        <ele>222</ele>
        <time>2011-03-18T15:34:12Z</time>
      </trkpt>
      <trkpt lat="47.1293" lon="5.43345">
        <ele>222</ele>
        <time>2011-03-18T15:34:14Z</time>
      </trkpt>
      <trkpt lat="47.12932" lon="5.43321">
        <ele>222</ele>
        <time>2011-03-18T15:34:16Z</time>
      </trkpt>
      <trkpt lat="47.12935" lon="5.43298">
        <ele>222</ele>
        <time>2011-03-18T15:34:18Z</time>
      </trkpt>
      <trkpt lat="47.12937" lon="5.43272">
        <ele>222</ele>
        <time>2011-03-18T15:34:20Z</time>
      </trkpt>
      <trkpt lat="47.1294" lon="5.43248">
        <ele>222</ele>
        <time>2011-03-18T15:34:22Z</time>
      </trkpt>
      <trkpt lat="47.12943" lon="5.43225">
        <ele>222</ele>
        <time>2011-03-18T15:34:24Z</time>
      </trkpt>
      <trkpt lat="47.12945" lon="5.43201">
        <ele>222</ele>
        <time>2011-03-18T15:34:26Z</time>
      </trkpt>
      <trkpt lat="47.12946" lon="5.4318">
        <ele>222</ele>
        <time>2011-03-18T15:34:28Z</time>
      </trkpt>
      <trkpt lat="47.12946" lon="5.43157">
        <ele>222</ele>
        <time>2011-03-18T15:34:30Z</time>
      </trkpt>
      <trkpt lat="47.12943" lon="5.43135">
        <ele>222</ele>
        <time>2011-03-18T15:34:32Z</time>
      </trkpt>
      <trkpt lat="47.12938" lon="5.43115">
        <ele>222</ele>
        <time>2011-03-18T15:34:34Z</time>
      </trkpt>
      <trkpt lat="47.12933" lon="5.43095">
        <ele>215</ele>
        <time>2011-03-18T15:34:36Z</time>
      </trkpt>
      <trkpt lat="47.12927" lon="5.43075">
        <ele>215</ele>
        <time>2011-03-18T15:34:38Z</time>
      </trkpt>
      <trkpt lat="47.12922" lon="5.43057">
        <ele>215</ele>
        <time>2011-03-18T15:34:40Z</time>
      </trkpt>
      <trkpt lat="47.12918" lon="5.43036">
        <ele>215</ele>
        <time>2011-03-18T15:34:42Z</time>
      </trkpt>
      <trkpt lat="47.12913" lon="5.43015">
        <ele>215</ele>
        <time>2011-03-18T15:34:44Z</time>
      </trkpt>
      <trkpt lat="47.12909" lon="5.42994">
        <ele>215</ele>
        <time>2011-03-18T15:34:46Z</time>
      </trkpt>
      <trkpt lat="47.12903" lon="5.42973">
        <ele>215</ele>
        <time>2011-03-18T15:34:48Z</time>
      </trkpt>
      <trkpt lat="47.12899" lon="5.42952">
        <ele>215</ele>
        <time>2011-03-18T15:34:50Z</time>
      </trkpt>
      <trkpt lat="47.12895" lon="5.4293">
        <ele>215</ele>
        <time>2011-03-18T15:34:52Z</time>
      </trkpt>
      <trkpt lat="47.12891" lon="5.42909">
        <ele>215</ele>
        <time>2011-03-18T15:34:54Z</time>
      </trkpt>
      <trkpt lat="47.12886" lon="5.42887">
        <ele>215</ele>
        <time>2011-03-18T15:34:56Z</time>
      </trkpt>
      <trkpt lat="47.12881" lon="5.42865">
        <ele>215</ele>
        <time>2011-03-18T15:34:58Z</time>
      </trkpt>
      <trkpt lat="47.12876" lon="5.42843">
        <ele>215</ele>
        <time>2011-03-18T15:35:00Z</time>
      </trkpt>
      <trkpt lat="47.12872" lon="5.42821">
        <ele>215</ele>
        <time>2011-03-18T15:35:02Z</time>
      </trkpt>
      <trkpt lat="47.12867" lon="5.42799">
        <ele>215</ele>
        <time>2011-03-18T15:35:04Z</time>
      </trkpt>
      <trkpt lat="47.12863" lon="5.42778">
        <ele>215</ele>
        <time>2011-03-18T15:35:06Z</time>
      </trkpt>
      <trkpt lat="47.12858" lon="5.42757">
        <ele>215</ele>
        <time>2011-03-18T15:35:08Z</time>
      </trkpt>
      <trkpt lat="47.12853" lon="5.4274">
        <ele>215</ele>
        <time>2011-03-18T15:35:10Z</time>
      </trkpt>
      <trkpt lat="47.12848" lon="5.42724">
        <ele>215</ele>
        <time>2011-03-18T15:35:12Z</time>
      </trkpt>
      <trkpt lat="47.12845" lon="5.42704">
        <ele>215</ele>
        <time>2011-03-18T15:35:14Z</time>
      </trkpt>
      <trkpt lat="47.1284" lon="5.42685">
        <ele>215</ele>
        <time>2011-03-18T15:35:16Z</time>
      </trkpt>
      <trkpt lat="47.12835" lon="5.42672">
        <ele>215</ele>
        <time>2011-03-18T15:35:18Z</time>
      </trkpt>
      <trkpt lat="47.1283" lon="5.42654">
        <ele>220</ele>
        <time>2011-03-18T15:35:20Z</time>
      </trkpt>
      <trkpt lat="47.1283" lon="5.42641">
        <ele>220</ele>
        <time>2011-03-18T15:35:21Z</time>
      </trkpt>
      <trkpt lat="47.1283" lon="5.42616">
        <ele>220</ele>
        <time>2011-03-18T15:35:23Z</time>
      </trkpt>
      <trkpt lat="47.1283" lon="5.42592">
        <ele>220</ele>
        <time>2011-03-18T15:35:25Z</time>
      </trkpt>
      <trkpt lat="47.1283" lon="5.4257">
        <ele>220</ele>
        <time>2011-03-18T15:35:27Z</time>
      </trkpt>
      <trkpt lat="47.12832" lon="5.42548">
        <ele>220</ele>
        <time>2011-03-18T15:35:29Z</time>
      </trkpt>
      <trkpt lat="47.12833" lon="5.42528">
        <ele>220</ele>
        <time>2011-03-18T15:35:31Z</time>
      </trkpt>
      <trkpt lat="47.12834" lon="5.42508">
        <ele>220</ele>
        <time>2011-03-18T15:35:33Z</time>
      </trkpt>
      <trkpt lat="47.12834" lon="5.42488">
        <ele>220</ele>
        <time>2011-03-18T15:35:35Z</time>
      </trkpt>
      <trkpt lat="47.12835" lon="5.42468">
        <ele>220</ele>
        <time>2011-03-18T15:35:37Z</time>
      </trkpt>
      <trkpt lat="47.12835" lon="5.42449">
        <ele>220</ele>
        <time>2011-03-18T15:35:39Z</time>
      </trkpt>
      <trkpt lat="47.12837" lon="5.4243">
        <ele>220</ele>
        <time>2011-03-18T15:35:41Z</time>
      </trkpt>
      <trkpt lat="47.12838" lon="5.4241">
        <ele>220</ele>
        <time>2011-03-18T15:35:43Z</time>
      </trkpt>
      <trkpt lat="47.1284" lon="5.42391">
        <ele>220</ele>
        <time>2011-03-18T15:35:45Z</time>
      </trkpt>
      <trkpt lat="47.12842" lon="5.42372">
        <ele>220</ele>
        <time>2011-03-18T15:35:47Z</time>
      </trkpt>
      <trkpt lat="47.12844" lon="5.42353">
        <ele>220</ele>
        <time>2011-03-18T15:35:49Z</time>
      </trkpt>
      <trkpt lat="47.12847" lon="5.42334">
        <ele>220</ele>
        <time>2011-03-18T15:35:51Z</time>
      </trkpt>
      <trkpt lat="47.1285" lon="5.42316">
        <ele>220</ele>
        <time>2011-03-18T15:35:53Z</time>
      </trkpt>
      <trkpt lat="47.12853" lon="5.42297">
        <ele>220</ele>
        <time>2011-03-18T15:35:55Z</time>
      </trkpt>
      <trkpt lat="47.12857" lon="5.42279">
        <ele>220</ele>
        <time>2011-03-18T15:35:57Z</time>
      </trkpt>
      <trkpt lat="47.12859" lon="5.4226">
        <ele>220</ele>
        <time>2011-03-18T15:35:59Z</time>
      </trkpt>
      <trkpt lat="47.12861" lon="5.4224">
        <ele>220</ele>
        <time>2011-03-18T15:36:01Z</time>
      </trkpt>
      <trkpt lat="47.12861" lon="5.4222">
        <ele>220</ele>
        <time>2011-03-18T15:36:03Z</time>
      </trkpt>
      <trkpt lat="47.12858" lon="5.42202">
        <ele>220</ele>
        <time>2011-03-18T15:36:05Z</time>
      </trkpt>
      <trkpt lat="47.12856" lon="5.42182">
        <ele>220</ele>
        <time>2011-03-18T15:36:07Z</time>
      </trkpt>
      <trkpt lat="47.12854" lon="5.4216">
        <ele>220</ele>
        <time>2011-03-18T15:36:09Z</time>
      </trkpt>
      <trkpt lat="47.12851" lon="5.42138">
        <ele>220</ele>
        <time>2011-03-18T15:36:11Z</time>
      </trkpt>
      <trkpt lat="47.12851" lon="5.42113">
        <ele>220</ele>
        <time>2011-03-18T15:36:13Z</time>
      </trkpt>
      <trkpt lat="47.12853" lon="5.42099">
        <ele>220</ele>
        <time>2011-03-18T15:36:14Z</time>
      </trkpt>
      <trkpt lat="47.12855" lon="5.42085">
        <ele>220</ele>
        <time>2011-03-18T15:36:15Z</time>
      </trkpt>
      <trkpt lat="47.12857" lon="5.42071">
        <ele>215</ele>
        <time>2011-03-18T15:36:16Z</time>
      </trkpt>
      <trkpt lat="47.12861" lon="5.42045">
        <ele>215</ele>
        <time>2011-03-18T15:36:18Z</time>
      </trkpt>
      <trkpt lat="47.12862" lon="5.42032">
        <ele>215</ele>
        <time>2011-03-18T15:36:19Z</time>
      </trkpt>
      <trkpt lat="47.12862" lon="5.42018">
        <ele>215</ele>
        <time>2011-03-18T15:36:20Z</time>
      </trkpt>
      <trkpt lat="47.12861" lon="5.41994">
        <ele>215</ele>
        <time>2011-03-18T15:36:22Z</time>
      </trkpt>
      <trkpt lat="47.12852" lon="5.41977">
        <ele>215</ele>
        <time>2011-03-18T15:36:24Z</time>
      </trkpt>
      <trkpt lat="47.12847" lon="5.41964">
        <ele>215</ele>
        <time>2011-03-18T15:36:25Z</time>
      </trkpt>
      <trkpt lat="47.12841" lon="5.41952">
        <ele>215</ele>
        <time>2011-03-18T15:36:26Z</time>
      </trkpt>
      <trkpt lat="47.12835" lon="5.41941">
        <ele>215</ele>
        <time>2011-03-18T15:36:27Z</time>
      </trkpt>
      <trkpt lat="47.12829" lon="5.4193">
        <ele>215</ele>
        <time>2011-03-18T15:36:28Z</time>
      </trkpt>
      <trkpt lat="47.12817" lon="5.41911">
        <ele>220</ele>
        <time>2011-03-18T15:36:30Z</time>
      </trkpt>
      <trkpt lat="47.12808" lon="5.41891">
        <ele>220</ele>
        <time>2011-03-18T15:36:32Z</time>
      </trkpt>
      <trkpt lat="47.12806" lon="5.41878">
        <ele>220</ele>
        <time>2011-03-18T15:36:33Z</time>
      </trkpt>
      <trkpt lat="47.12804" lon="5.41856">
        <ele>220</ele>
        <time>2011-03-18T15:36:35Z</time>
      </trkpt>
      <trkpt lat="47.12804" lon="5.41833">
        <ele>220</ele>
        <time>2011-03-18T15:36:37Z</time>
      </trkpt>
      <trkpt lat="47.12804" lon="5.41814">
        <ele>220</ele>
        <time>2011-03-18T15:36:39Z</time>
      </trkpt>
      <trkpt lat="47.12805" lon="5.41796">
        <ele>220</ele>
        <time>2011-03-18T15:36:41Z</time>
      </trkpt>
      <trkpt lat="47.12806" lon="5.41778">
        <ele>220</ele>
        <time>2011-03-18T15:36:43Z</time>
      </trkpt>
      <trkpt lat="47.12807" lon="5.41762">
        <ele>220</ele>
        <time>2011-03-18T15:36:45Z</time>
      </trkpt>
      <trkpt lat="47.12808" lon="5.41746">
        <ele>220</ele>
        <time>2011-03-18T15:36:47Z</time>
      </trkpt>
      <trkpt lat="47.12808" lon="5.41731">
        <ele>220</ele>
        <time>2011-03-18T15:36:49Z</time>
      </trkpt>
      <trkpt lat="47.12808" lon="5.41716">
        <ele>220</ele>
        <time>2011-03-18T15:36:51Z</time>
      </trkpt>
      <trkpt lat="47.1281" lon="5.417">
        <ele>220</ele>
        <time>2011-03-18T15:36:53Z</time>
      </trkpt>
      <trkpt lat="47.12811" lon="5.41685">
        <ele>220</ele>
        <time>2011-03-18T15:36:55Z</time>
      </trkpt>
      <trkpt lat="47.12811" lon="5.4167">
        <ele>220</ele>
        <time>2011-03-18T15:36:57Z</time>
      </trkpt>
      <trkpt lat="47.12811" lon="5.41654">
        <ele>220</ele>
        <time>2011-03-18T15:36:59Z</time>
      </trkpt>
      <trkpt lat="47.12811" lon="5.41637">
        <ele>220</ele>
        <time>2011-03-18T15:37:01Z</time>
      </trkpt>
      <trkpt lat="47.12812" lon="5.41622">
        <ele>220</ele>
        <time>2011-03-18T15:37:03Z</time>
      </trkpt>
      <trkpt lat="47.12812" lon="5.41607">
        <ele>220</ele>
        <time>2011-03-18T15:37:05Z</time>
      </trkpt>
      <trkpt lat="47.12813" lon="5.41593">
        <ele>220</ele>
        <time>2011-03-18T15:37:07Z</time>
      </trkpt>
      <trkpt lat="47.12813" lon="5.41578">
        <ele>220</ele>
        <time>2011-03-18T15:37:09Z</time>
      </trkpt>
      <trkpt lat="47.12815" lon="5.41564">
        <ele>220</ele>
        <time>2011-03-18T15:37:11Z</time>
      </trkpt>
      <trkpt lat="47.12816" lon="5.41549">
        <ele>220</ele>
        <time>2011-03-18T15:37:13Z</time>
      </trkpt>
      <trkpt lat="47.12819" lon="5.41534">
        <ele>220</ele>
        <time>2011-03-18T15:37:15Z</time>
      </trkpt>
      <trkpt lat="47.12823" lon="5.4152">
        <ele>220</ele>
        <time>2011-03-18T15:37:17Z</time>
      </trkpt>
      <trkpt lat="47.12827" lon="5.41505">
        <ele>220</ele>
        <time>2011-03-18T15:37:19Z</time>
      </trkpt>
      <trkpt lat="47.12832" lon="5.41489">
        <ele>220</ele>
        <time>2011-03-18T15:37:21Z</time>
      </trkpt>
      <trkpt lat="47.12837" lon="5.41473">
        <ele>220</ele>
        <time>2011-03-18T15:37:23Z</time>
      </trkpt>
      <trkpt lat="47.12843" lon="5.41456">
        <ele>220</ele>
        <time>2011-03-18T15:37:25Z</time>
      </trkpt>
      <trkpt lat="47.12848" lon="5.41439">
        <ele>220</ele>
        <time>2011-03-18T15:37:27Z</time>
      </trkpt>
      <trkpt lat="47.12854" lon="5.41421">
        <ele>220</ele>
        <time>2011-03-18T15:37:29Z</time>
      </trkpt>
      <trkpt lat="47.1286" lon="5.41403">
        <ele>220</ele>
        <time>2011-03-18T15:37:31Z</time>
      </trkpt>
      <trkpt lat="47.12866" lon="5.41385">
        <ele>220</ele>
        <time>2011-03-18T15:37:33Z</time>
      </trkpt>
      <trkpt lat="47.12873" lon="5.41367">
        <ele>220</ele>
        <time>2011-03-18T15:37:35Z</time>
      </trkpt>
      <trkpt lat="47.1288" lon="5.41348">
        <ele>220</ele>
        <time>2011-03-18T15:37:37Z</time>
      </trkpt>
      <trkpt lat="47.12882" lon="5.41328">
        <ele>220</ele>
        <time>2011-03-18T15:37:39Z</time>
      </trkpt>
      <trkpt lat="47.1288" lon="5.4131">
        <ele>220</ele>
        <time>2011-03-18T15:37:41Z</time>
      </trkpt>
      <trkpt lat="47.12878" lon="5.41293">
        <ele>220</ele>
        <time>2011-03-18T15:37:43Z</time>
      </trkpt>
      <trkpt lat="47.12875" lon="5.41277">
        <ele>220</ele>
        <time>2011-03-18T15:37:45Z</time>
      </trkpt>
      <trkpt lat="47.12872" lon="5.41262">
        <ele>220</ele>
        <time>2011-03-18T15:37:47Z</time>
      </trkpt>
      <trkpt lat="47.1287" lon="5.41248">
        <ele>220</ele>
        <time>2011-03-18T15:37:49Z</time>
      </trkpt>
      <trkpt lat="47.12867" lon="5.41232">
        <ele>220</ele>
        <time>2011-03-18T15:37:51Z</time>
      </trkpt>
      <trkpt lat="47.12865" lon="5.41217">
        <ele>220</ele>
        <time>2011-03-18T15:37:53Z</time>
      </trkpt>
      <trkpt lat="47.12863" lon="5.41202">
        <ele>220</ele>
        <time>2011-03-18T15:37:55Z</time>
      </trkpt>
      <trkpt lat="47.12861" lon="5.41186">
        <ele>220</ele>
        <time>2011-03-18T15:37:57Z</time>
      </trkpt>
      <trkpt lat="47.12859" lon="5.41169">
        <ele>220</ele>
        <time>2011-03-18T15:37:59Z</time>
      </trkpt>
      <trkpt lat="47.12857" lon="5.41152">
        <ele>220</ele>
        <time>2011-03-18T15:38:01Z</time>
      </trkpt>
      <trkpt lat="47.12856" lon="5.41135">
        <ele>220</ele>
        <time>2011-03-18T15:38:03Z</time>
      </trkpt>
      <trkpt lat="47.12854" lon="5.41119">
        <ele>220</ele>
        <time>2011-03-18T15:38:05Z</time>
      </trkpt>
      <trkpt lat="47.12852" lon="5.41102">
        <ele>220</ele>
        <time>2011-03-18T15:38:07Z</time>
      </trkpt>
      <trkpt lat="47.1285" lon="5.41085">
        <ele>220</ele>
        <time>2011-03-18T15:38:09Z</time>
      </trkpt>
      <trkpt lat="47.12848" lon="5.41069">
        <ele>220</ele>
        <time>2011-03-18T15:38:11Z</time>
      </trkpt>
      <trkpt lat="47.12846" lon="5.41052">
        <ele>220</ele>
        <time>2011-03-18T15:38:13Z</time>
      </trkpt>
      <trkpt lat="47.12845" lon="5.41035">
        <ele>220</ele>
        <time>2011-03-18T15:38:15Z</time>
      </trkpt>
      <trkpt lat="47.12843" lon="5.41018">
        <ele>220</ele>
        <time>2011-03-18T15:38:17Z</time>
      </trkpt>
      <trkpt lat="47.1284" lon="5.41">
        <ele>220</ele>
        <time>2011-03-18T15:38:19Z</time>
      </trkpt>
      <trkpt lat="47.12838" lon="5.40982">
        <ele>220</ele>
        <time>2011-03-18T15:38:21Z</time>
      </trkpt>
      <trkpt lat="47.12834" lon="5.40963">
        <ele>220</ele>
        <time>2011-03-18T15:38:23Z</time>
      </trkpt>
      <trkpt lat="47.1283" lon="5.40945">
        <ele>215</ele>
        <time>2011-03-18T15:38:25Z</time>
      </trkpt>
      <trkpt lat="47.12824" lon="5.40927">
        <ele>215</ele>
        <time>2011-03-18T15:38:27Z</time>
      </trkpt>
      <trkpt lat="47.12818" lon="5.40909">
        <ele>215</ele>
        <time>2011-03-18T15:38:29Z</time>
      </trkpt>
      <trkpt lat="47.1281" lon="5.40889">
        <ele>215</ele>
        <time>2011-03-18T15:38:31Z</time>
      </trkpt>
      <trkpt lat="47.12803" lon="5.40871">
        <ele>215</ele>
        <time>2011-03-18T15:38:33Z</time>
      </trkpt>
      <trkpt lat="47.12795" lon="5.40853">
        <ele>215</ele>
        <time>2011-03-18T15:38:35Z</time>
      </trkpt>
      <trkpt lat="47.12787" lon="5.40834">
        <ele>215</ele>
        <time>2011-03-18T15:38:37Z</time>
      </trkpt>
      <trkpt lat="47.1278" lon="5.40816">
        <ele>215</ele>
        <time>2011-03-18T15:38:39Z</time>
      </trkpt>
      <trkpt lat="47.12772" lon="5.408">
        <ele>215</ele>
        <time>2011-03-18T15:38:41Z</time>
      </trkpt>
      <trkpt lat="47.12763" lon="5.40784">
        <ele>215</ele>
        <time>2011-03-18T15:38:43Z</time>
      </trkpt>
      <trkpt lat="47.12754" lon="5.40771">
        <ele>220</ele>
        <time>2011-03-18T15:38:45Z</time>
      </trkpt>
      <trkpt lat="47.12746" lon="5.40761">
        <ele>220</ele>
        <time>2011-03-18T15:38:47Z</time>
      </trkpt>
      <trkpt lat="47.12737" lon="5.40746">
        <ele>234</ele>
        <time>2011-03-18T15:38:50Z</time>
      </trkpt>
      <trkpt lat="47.12736" lon="5.40729">
        <ele>234</ele>
        <time>2011-03-18T15:38:52Z</time>
      </trkpt>
      <trkpt lat="47.12737" lon="5.40713">
        <ele>234</ele>
        <time>2011-03-18T15:38:54Z</time>
      </trkpt>
      <trkpt lat="47.12737" lon="5.40698">
        <ele>234</ele>
        <time>2011-03-18T15:38:56Z</time>
      </trkpt>
      <trkpt lat="47.12739" lon="5.40683">
        <ele>234</ele>
        <time>2011-03-18T15:38:58Z</time>
      </trkpt>
      <trkpt lat="47.1274" lon="5.40668">
        <ele>234</ele>
        <time>2011-03-18T15:39:00Z</time>
      </trkpt>
      <trkpt lat="47.12741" lon="5.40654">
        <ele>234</ele>
        <time>2011-03-18T15:39:02Z</time>
      </trkpt>
      <trkpt lat="47.12742" lon="5.40639">
        <ele>234</ele>
        <time>2011-03-18T15:39:04Z</time>
      </trkpt>
      <trkpt lat="47.12743" lon="5.40625">
        <ele>234</ele>
        <time>2011-03-18T15:39:06Z</time>
      </trkpt>
      <trkpt lat="47.12743" lon="5.40611">
        <ele>234</ele>
        <time>2011-03-18T15:39:08Z</time>
      </trkpt>
      <trkpt lat="47.12743" lon="5.40595">
        <ele>234</ele>
        <time>2011-03-18T15:39:10Z</time>
      </trkpt>
      <trkpt lat="47.12742" lon="5.40578">
        <ele>234</ele>
        <time>2011-03-18T15:39:12Z</time>
      </trkpt>
      <trkpt lat="47.12739" lon="5.40562">
        <ele>234</ele>
        <time>2011-03-18T15:39:14Z</time>
      </trkpt>
      <trkpt lat="47.12734" lon="5.40545">
        <ele>234</ele>
        <time>2011-03-18T15:39:16Z</time>
      </trkpt>
      <trkpt lat="47.12729" lon="5.4053">
        <ele>234</ele>
        <time>2011-03-18T15:39:18Z</time>
      </trkpt>
      <trkpt lat="47.12723" lon="5.40514">
        <ele>228</ele>
        <time>2011-03-18T15:39:20Z</time>
      </trkpt>
      <trkpt lat="47.12718" lon="5.40497">
        <ele>228</ele>
        <time>2011-03-18T15:39:22Z</time>
      </trkpt>
      <trkpt lat="47.1271" lon="5.40482">
        <ele>228</ele>
        <time>2011-03-18T15:39:24Z</time>
      </trkpt>
      <trkpt lat="47.12702" lon="5.40469">
        <ele>228</ele>
        <time>2011-03-18T15:39:26Z</time>
      </trkpt>
      <trkpt lat="47.12694" lon="5.40456">
        <ele>228</ele>
        <time>2011-03-18T15:39:28Z</time>
      </trkpt>
      <trkpt lat="47.12684" lon="5.40446">
        <ele>228</ele>
        <time>2011-03-18T15:39:30Z</time>
      </trkpt>
      <trkpt lat="47.12675" lon="5.40437">
        <ele>228</ele>
        <time>2011-03-18T15:39:32Z</time>
      </trkpt>
      <trkpt lat="47.12666" lon="5.40428">
        <ele>228</ele>
        <time>2011-03-18T15:39:34Z</time>
      </trkpt>
      <trkpt lat="47.12657" lon="5.40419">
        <ele>228</ele>
        <time>2011-03-18T15:39:36Z</time>
      </trkpt>
      <trkpt lat="47.12647" lon="5.4041">
        <ele>228</ele>
        <time>2011-03-18T15:39:38Z</time>
      </trkpt>
      <trkpt lat="47.12637" lon="5.40401">
        <ele>228</ele>
        <time>2011-03-18T15:39:40Z</time>
      </trkpt>
      <trkpt lat="47.12628" lon="5.40392">
        <ele>228</ele>
        <time>2011-03-18T15:39:42Z</time>
      </trkpt>
      <trkpt lat="47.12618" lon="5.40384">
        <ele>228</ele>
        <time>2011-03-18T15:39:44Z</time>
      </trkpt>
      <trkpt lat="47.12607" lon="5.40376">
        <ele>223</ele>
        <time>2011-03-18T15:39:46Z</time>
      </trkpt>
      <trkpt lat="47.12596" lon="5.40371">
        <ele>223</ele>
        <time>2011-03-18T15:39:48Z</time>
      </trkpt>
      <trkpt lat="47.12585" lon="5.40368">
        <ele>223</ele>
        <time>2011-03-18T15:39:50Z</time>
      </trkpt>
      <trkpt lat="47.12573" lon="5.40366">
        <ele>223</ele>
        <time>2011-03-18T15:39:52Z</time>
      </trkpt>
      <trkpt lat="47.12561" lon="5.40365">
        <ele>223</ele>
        <time>2011-03-18T15:39:54Z</time>
      </trkpt>
      <trkpt lat="47.1255" lon="5.40365">
        <ele>223</ele>
        <time>2011-03-18T15:39:56Z</time>
      </trkpt>
      <trkpt lat="47.12538" lon="5.40365">
        <ele>223</ele>
        <time>2011-03-18T15:39:58Z</time>
      </trkpt>
      <trkpt lat="47.12526" lon="5.40364">
        <ele>223</ele>
        <time>2011-03-18T15:40:00Z</time>
      </trkpt>
      <trkpt lat="47.12514" lon="5.40363">
        <ele>223</ele>
        <time>2011-03-18T15:40:02Z</time>
      </trkpt>
      <trkpt lat="47.12502" lon="5.4036">
        <ele>223</ele>
        <time>2011-03-18T15:40:04Z</time>
      </trkpt>
      <trkpt lat="47.1249" lon="5.40356">
        <ele>223</ele>
        <time>2011-03-18T15:40:06Z</time>
      </trkpt>
      <trkpt lat="47.12479" lon="5.40349">
        <ele>223</ele>
        <time>2011-03-18T15:40:08Z</time>
      </trkpt>
      <trkpt lat="47.12467" lon="5.40343">
        <ele>223</ele>
        <time>2011-03-18T15:40:10Z</time>
      </trkpt>
      <trkpt lat="47.12455" lon="5.40337">
        <ele>223</ele>
        <time>2011-03-18T15:40:12Z</time>
      </trkpt>
      <trkpt lat="47.12443" lon="5.4033">
        <ele>229</ele>
        <time>2011-03-18T15:40:14Z</time>
      </trkpt>
      <trkpt lat="47.12431" lon="5.40325">
        <ele>229</ele>
        <time>2011-03-18T15:40:16Z</time>
      </trkpt>
      <trkpt lat="47.12419" lon="5.40321">
        <ele>229</ele>
        <time>2011-03-18T15:40:18Z</time>
      </trkpt>
      <trkpt lat="47.12407" lon="5.40317">
        <ele>234</ele>
        <time>2011-03-18T15:40:20Z</time>
      </trkpt>
      <trkpt lat="47.12395" lon="5.40309">
        <ele>234</ele>
        <time>2011-03-18T15:40:22Z</time>
      </trkpt>
      <trkpt lat="47.12384" lon="5.40298">
        <ele>234</ele>
        <time>2011-03-18T15:40:24Z</time>
      </trkpt>
      <trkpt lat="47.12372" lon="5.40287">
        <ele>239</ele>
        <time>2011-03-18T15:40:26Z</time>
      </trkpt>
      <trkpt lat="47.12361" lon="5.40277">
        <ele>239</ele>
        <time>2011-03-18T15:40:28Z</time>
      </trkpt>
      <trkpt lat="47.12352" lon="5.40266">
        <ele>239</ele>
        <time>2011-03-18T15:40:30Z</time>
      </trkpt>
      <trkpt lat="47.12342" lon="5.40252">
        <ele>239</ele>
        <time>2011-03-18T15:40:32Z</time>
      </trkpt>
      <trkpt lat="47.12333" lon="5.40241">
        <ele>239</ele>
        <time>2011-03-18T15:40:34Z</time>
      </trkpt>
      <trkpt lat="47.12324" lon="5.40225">
        <ele>239</ele>
        <time>2011-03-18T15:40:36Z</time>
      </trkpt>
      <trkpt lat="47.12315" lon="5.40212">
        <ele>239</ele>
        <time>2011-03-18T15:40:38Z</time>
      </trkpt>
      <trkpt lat="47.12306" lon="5.40196">
        <ele>239</ele>
        <time>2011-03-18T15:40:40Z</time>
      </trkpt>
      <trkpt lat="47.12297" lon="5.40182">
        <ele>239</ele>
        <time>2011-03-18T15:40:42Z</time>
      </trkpt>
      <trkpt lat="47.12288" lon="5.40167">
        <ele>234</ele>
        <time>2011-03-18T15:40:44Z</time>
      </trkpt>
      <trkpt lat="47.12279" lon="5.40153">
        <ele>234</ele>
        <time>2011-03-18T15:40:46Z</time>
      </trkpt>
      <trkpt lat="47.1227" lon="5.40143">
        <ele>234</ele>
        <time>2011-03-18T15:40:48Z</time>
      </trkpt>
      <trkpt lat="47.12262" lon="5.40134">
        <ele>234</ele>
        <time>2011-03-18T15:40:50Z</time>
      </trkpt>
      <trkpt lat="47.12254" lon="5.40124">
        <ele>227</ele>
        <time>2011-03-18T15:40:52Z</time>
      </trkpt>
      <trkpt lat="47.12247" lon="5.40112">
        <ele>227</ele>
        <time>2011-03-18T15:40:54Z</time>
      </trkpt>
      <trkpt lat="47.12241" lon="5.40102">
        <ele>227</ele>
        <time>2011-03-18T15:40:56Z</time>
      </trkpt>
      <trkpt lat="47.12233" lon="5.40091">
        <ele>227</ele>
        <time>2011-03-18T15:40:59Z</time>
      </trkpt>
      <trkpt lat="47.12225" lon="5.4008">
        <ele>227</ele>
        <time>2011-03-18T15:41:02Z</time>
      </trkpt>
      <trkpt lat="47.12217" lon="5.40068">
        <ele>227</ele>
        <time>2011-03-18T15:41:05Z</time>
      </trkpt>
      <trkpt lat="47.12209" lon="5.40056">
        <ele>227</ele>
        <time>2011-03-18T15:41:08Z</time>
      </trkpt>
      <trkpt lat="47.12202" lon="5.40046">
        <ele>227</ele>
        <time>2011-03-18T15:41:11Z</time>
      </trkpt>
      <trkpt lat="47.12195" lon="5.40036">
        <ele>222</ele>
        <time>2011-03-18T15:41:14Z</time>
      </trkpt>
      <trkpt lat="47.12184" lon="5.40029">
        <ele>222</ele>
        <time>2011-03-18T15:41:17Z</time>
      </trkpt>
      <trkpt lat="47.12174" lon="5.40027">
        <ele>222</ele>
        <time>2011-03-18T15:41:20Z</time>
      </trkpt>
      <trkpt lat="47.12163" lon="5.40028">
        <ele>222</ele>
        <time>2011-03-18T15:41:23Z</time>
      </trkpt>
      <trkpt lat="47.12151" lon="5.40031">
        <ele>222</ele>
        <time>2011-03-18T15:41:26Z</time>
      </trkpt>
      <trkpt lat="47.12139" lon="5.40038">
        <ele>222</ele>
        <time>2011-03-18T15:41:29Z</time>
      </trkpt>
      <trkpt lat="47.12131" lon="5.40041">
        <ele>222</ele>
        <time>2011-03-18T15:41:31Z</time>
      </trkpt>
      <trkpt lat="47.12122" lon="5.40045">
        <ele>222</ele>
        <time>2011-03-18T15:41:33Z</time>
      </trkpt>
      <trkpt lat="47.12113" lon="5.40049">
        <ele>222</ele>
        <time>2011-03-18T15:41:35Z</time>
      </trkpt>
      <trkpt lat="47.12105" lon="5.40053">
        <ele>222</ele>
        <time>2011-03-18T15:41:37Z</time>
      </trkpt>
      <trkpt lat="47.12095" lon="5.40056">
        <ele>222</ele>
        <time>2011-03-18T15:41:39Z</time>
      </trkpt>
      <trkpt lat="47.12084" lon="5.40055">
        <ele>216</ele>
        <time>2011-03-18T15:41:41Z</time>
      </trkpt>
      <trkpt lat="47.12075" lon="5.40047">
        <ele>216</ele>
        <time>2011-03-18T15:41:43Z</time>
      </trkpt>
      <trkpt lat="47.12066" lon="5.40034">
        <ele>216</ele>
        <time>2011-03-18T15:41:45Z</time>
      </trkpt>
      <trkpt lat="47.1206" lon="5.4002">
        <ele>216</ele>
        <time>2011-03-18T15:41:47Z</time>
      </trkpt>
      <trkpt lat="47.12052" lon="5.40005">
        <ele>216</ele>
        <time>2011-03-18T15:41:49Z</time>
      </trkpt>
      <trkpt lat="47.12041" lon="5.39994">
        <ele>216</ele>
        <time>2011-03-18T15:41:51Z</time>
      </trkpt>
      <trkpt lat="47.12028" lon="5.39992">
        <ele>216</ele>
        <time>2011-03-18T15:41:53Z</time>
      </trkpt>
      <trkpt lat="47.12013" lon="5.39995">
        <ele>216</ele>
        <time>2011-03-18T15:41:55Z</time>
      </trkpt>
      <trkpt lat="47.11999" lon="5.39999">
        <ele>216</ele>
        <time>2011-03-18T15:41:57Z</time>
      </trkpt>
      <trkpt lat="47.11985" lon="5.40001">
        <ele>211</ele>
        <time>2011-03-18T15:41:59Z</time>
      </trkpt>
      <trkpt lat="47.11971" lon="5.40004">
        <ele>211</ele>
        <time>2011-03-18T15:42:01Z</time>
      </trkpt>
      <trkpt lat="47.11958" lon="5.40007">
        <ele>211</ele>
        <time>2011-03-18T15:42:03Z</time>
      </trkpt>
      <trkpt lat="47.11946" lon="5.4001">
        <ele>211</ele>
        <time>2011-03-18T15:42:05Z</time>
      </trkpt>
      <trkpt lat="47.11935" lon="5.40013">
        <ele>211</ele>
        <time>2011-03-18T15:42:07Z</time>
      </trkpt>
      <trkpt lat="47.11924" lon="5.40016">
        <ele>211</ele>
        <time>2011-03-18T15:42:09Z</time>
      </trkpt>
      <trkpt lat="47.11915" lon="5.40018">
        <ele>211</ele>
        <time>2011-03-18T15:42:11Z</time>
      </trkpt>
      <trkpt lat="47.11906" lon="5.4002">
        <ele>211</ele>
        <time>2011-03-18T15:42:13Z</time>
      </trkpt>
      <trkpt lat="47.11897" lon="5.40023">
        <ele>211</ele>
        <time>2011-03-18T15:42:15Z</time>
      </trkpt>
      <trkpt lat="47.11887" lon="5.40026">
        <ele>211</ele>
        <time>2011-03-18T15:42:17Z</time>
      </trkpt>
      <trkpt lat="47.11878" lon="5.40029">
        <ele>211</ele>
        <time>2011-03-18T15:42:19Z</time>
      </trkpt>
      <trkpt lat="47.11866" lon="5.40031">
        <ele>211</ele>
        <time>2011-03-18T15:42:22Z</time>
      </trkpt>
      <trkpt lat="47.11855" lon="5.40033">
        <ele>211</ele>
        <time>2011-03-18T15:42:25Z</time>
      </trkpt>
      <trkpt lat="47.11846" lon="5.40034">
        <ele>211</ele>
        <time>2011-03-18T15:42:28Z</time>
      </trkpt>
      <trkpt lat="47.11836" lon="5.40034">
        <ele>211</ele>
        <time>2011-03-18T15:42:33Z</time>
      </trkpt>
      <trkpt lat="47.11827" lon="5.40041">
        <ele>211</ele>
        <time>2011-03-18T15:43:20Z</time>
      </trkpt>
      <trkpt lat="47.11826" lon="5.40056">
        <ele>211</ele>
        <time>2011-03-18T15:43:23Z</time>
      </trkpt>
      <trkpt lat="47.11826" lon="5.40073">
        <ele>211</ele>
        <time>2011-03-18T15:43:26Z</time>
      </trkpt>
      <trkpt lat="47.11824" lon="5.40089">
        <ele>211</ele>
        <time>2011-03-18T15:43:29Z</time>
      </trkpt>
      <trkpt lat="47.11824" lon="5.40107">
        <ele>211</ele>
        <time>2011-03-18T15:43:32Z</time>
      </trkpt>
      <trkpt lat="47.11823" lon="5.40126">
        <ele>211</ele>
        <time>2011-03-18T15:43:35Z</time>
      </trkpt>
      <trkpt lat="47.11822" lon="5.40139">
        <ele>211</ele>
        <time>2011-03-18T15:43:37Z</time>
      </trkpt>
      <trkpt lat="47.11822" lon="5.40153">
        <ele>211</ele>
        <time>2011-03-18T15:43:39Z</time>
      </trkpt>
      <trkpt lat="47.11821" lon="5.40169">
        <ele>211</ele>
        <time>2011-03-18T15:43:41Z</time>
      </trkpt>
      <trkpt lat="47.11819" lon="5.40185">
        <ele>211</ele>
        <time>2011-03-18T15:43:43Z</time>
      </trkpt>
      <trkpt lat="47.11819" lon="5.40201">
        <ele>211</ele>
        <time>2011-03-18T15:43:45Z</time>
      </trkpt>
      <trkpt lat="47.11818" lon="5.40218">
        <ele>211</ele>
        <time>2011-03-18T15:43:47Z</time>
      </trkpt>
      <trkpt lat="47.11817" lon="5.40235">
        <ele>211</ele>
        <time>2011-03-18T15:43:49Z</time>
      </trkpt>
      <trkpt lat="47.11816" lon="5.40253">
        <ele>211</ele>
        <time>2011-03-18T15:43:51Z</time>
      </trkpt>
      <trkpt lat="47.11815" lon="5.40271">
        <ele>211</ele>
        <time>2011-03-18T15:43:53Z</time>
      </trkpt>
      <trkpt lat="47.11815" lon="5.4029">
        <ele>211</ele>
        <time>2011-03-18T15:43:55Z</time>
      </trkpt>
      <trkpt lat="47.11816" lon="5.4031">
        <ele>211</ele>
        <time>2011-03-18T15:43:57Z</time>
      </trkpt>
      <trkpt lat="47.1182" lon="5.40329">
        <ele>211</ele>
        <time>2011-03-18T15:43:59Z</time>
      </trkpt>
      <trkpt lat="47.11827" lon="5.40347">
        <ele>211</ele>
        <time>2011-03-18T15:44:01Z</time>
      </trkpt>
      <trkpt lat="47.11838" lon="5.40365">
        <ele>211</ele>
        <time>2011-03-18T15:44:03Z</time>
      </trkpt>
      <trkpt lat="47.11849" lon="5.40383">
        <ele>211</ele>
        <time>2011-03-18T15:44:05Z</time>
      </trkpt>
      <trkpt lat="47.11861" lon="5.404">
        <ele>211</ele>
        <time>2011-03-18T15:44:07Z</time>
      </trkpt>
      <trkpt lat="47.11871" lon="5.40421">
        <ele>211</ele>
        <time>2011-03-18T15:44:09Z</time>
      </trkpt>
      <trkpt lat="47.11879" lon="5.40444">
        <ele>211</ele>
        <time>2011-03-18T15:44:11Z</time>
      </trkpt>
      <trkpt lat="47.11886" lon="5.40467">
        <ele>211</ele>
        <time>2011-03-18T15:44:13Z</time>
      </trkpt>
      <trkpt lat="47.11892" lon="5.4049">
        <ele>211</ele>
        <time>2011-03-18T15:44:15Z</time>
      </trkpt>
      <trkpt lat="47.11895" lon="5.40503">
        <ele>211</ele>
        <time>2011-03-18T15:44:16Z</time>
      </trkpt>
      <trkpt lat="47.11898" lon="5.40515">
        <ele>211</ele>
        <time>2011-03-18T15:44:17Z</time>
      </trkpt>
      <trkpt lat="47.11903" lon="5.4054">
        <ele>211</ele>
        <time>2011-03-18T15:44:19Z</time>
      </trkpt>
      <trkpt lat="47.11907" lon="5.40564">
        <ele>211</ele>
        <time>2011-03-18T15:44:21Z</time>
      </trkpt>
      <trkpt lat="47.1191" lon="5.40587">
        <ele>211</ele>
        <time>2011-03-18T15:44:23Z</time>
      </trkpt>
      <trkpt lat="47.11913" lon="5.40611">
        <ele>211</ele>
        <time>2011-03-18T15:44:25Z</time>
      </trkpt>
      <trkpt lat="47.11915" lon="5.40631">
        <ele>211</ele>
        <time>2011-03-18T15:44:27Z</time>
      </trkpt>
      <trkpt lat="47.11916" lon="5.40652">
        <ele>211</ele>
        <time>2011-03-18T15:44:29Z</time>
      </trkpt>
      <trkpt lat="47.11918" lon="5.40672">
        <ele>211</ele>
        <time>2011-03-18T15:44:31Z</time>
      </trkpt>
      <trkpt lat="47.11918" lon="5.40691">
        <ele>211</ele>
        <time>2011-03-18T15:44:33Z</time>
      </trkpt>
      <trkpt lat="47.11918" lon="5.40709">
        <ele>211</ele>
        <time>2011-03-18T15:44:35Z</time>
      </trkpt>
      <trkpt lat="47.11916" lon="5.40728">
        <ele>211</ele>
        <time>2011-03-18T15:44:37Z</time>
      </trkpt>
      <trkpt lat="47.11913" lon="5.40747">
        <ele>211</ele>
        <time>2011-03-18T15:44:39Z</time>
      </trkpt>
      <trkpt lat="47.1191" lon="5.40766">
        <ele>211</ele>
        <time>2011-03-18T15:44:41Z</time>
      </trkpt>
      <trkpt lat="47.11906" lon="5.40784">
        <ele>211</ele>
        <time>2011-03-18T15:44:43Z</time>
      </trkpt>
      <trkpt lat="47.11902" lon="5.40802">
        <ele>211</ele>
        <time>2011-03-18T15:44:45Z</time>
      </trkpt>
      <trkpt lat="47.11895" lon="5.40819">
        <ele>206</ele>
        <time>2011-03-18T15:44:47Z</time>
      </trkpt>
      <trkpt lat="47.11888" lon="5.40836">
        <ele>206</ele>
        <time>2011-03-18T15:44:49Z</time>
      </trkpt>
      <trkpt lat="47.11882" lon="5.40855">
        <ele>206</ele>
        <time>2011-03-18T15:44:51Z</time>
      </trkpt>
      <trkpt lat="47.11874" lon="5.40873">
        <ele>206</ele>
        <time>2011-03-18T15:44:53Z</time>
      </trkpt>
      <trkpt lat="47.1187" lon="5.40893">
        <ele>206</ele>
        <time>2011-03-18T15:44:55Z</time>
      </trkpt>
      <trkpt lat="47.11867" lon="5.40913">
        <ele>206</ele>
        <time>2011-03-18T15:44:57Z</time>
      </trkpt>
      <trkpt lat="47.11862" lon="5.40932">
        <ele>206</ele>
        <time>2011-03-18T15:44:59Z</time>
      </trkpt>
      <trkpt lat="47.11856" lon="5.40951">
        <ele>206</ele>
        <time>2011-03-18T15:45:01Z</time>
      </trkpt>
      <trkpt lat="47.11859" lon="5.40972">
        <ele>206</ele>
        <time>2011-03-18T15:45:03Z</time>
      </trkpt>
      <trkpt lat="47.11857" lon="5.40992">
        <ele>206</ele>
        <time>2011-03-18T15:45:05Z</time>
      </trkpt>
      <trkpt lat="47.1185" lon="5.41013">
        <ele>206</ele>
        <time>2011-03-18T15:45:07Z</time>
      </trkpt>
      <trkpt lat="47.11843" lon="5.41032">
        <ele>206</ele>
        <time>2011-03-18T15:45:09Z</time>
      </trkpt>
      <trkpt lat="47.11837" lon="5.41051">
        <ele>206</ele>
        <time>2011-03-18T15:45:11Z</time>
      </trkpt>
      <trkpt lat="47.11834" lon="5.41071">
        <ele>206</ele>
        <time>2011-03-18T15:45:13Z</time>
      </trkpt>
      <trkpt lat="47.11829" lon="5.41089">
        <ele>206</ele>
        <time>2011-03-18T15:45:15Z</time>
      </trkpt>
      <trkpt lat="47.11825" lon="5.41108">
        <ele>206</ele>
        <time>2011-03-18T15:45:17Z</time>
      </trkpt>
      <trkpt lat="47.11819" lon="5.41127">
        <ele>206</ele>
        <time>2011-03-18T15:45:19Z</time>
      </trkpt>
      <trkpt lat="47.11815" lon="5.41146">
        <ele>206</ele>
        <time>2011-03-18T15:45:21Z</time>
      </trkpt>
      <trkpt lat="47.11808" lon="5.41163">
        <ele>206</ele>
        <time>2011-03-18T15:45:23Z</time>
      </trkpt>
      <trkpt lat="47.11802" lon="5.41181">
        <ele>206</ele>
        <time>2011-03-18T15:45:25Z</time>
      </trkpt>
      <trkpt lat="47.11796" lon="5.41197">
        <ele>206</ele>
        <time>2011-03-18T15:45:27Z</time>
      </trkpt>
      <trkpt lat="47.11789" lon="5.41214">
        <ele>206</ele>
        <time>2011-03-18T15:45:29Z</time>
      </trkpt>
      <trkpt lat="47.11783" lon="5.41232">
        <ele>201</ele>
        <time>2011-03-18T15:45:31Z</time>
      </trkpt>
      <trkpt lat="47.11776" lon="5.4125">
        <ele>201</ele>
        <time>2011-03-18T15:45:33Z</time>
      </trkpt>
      <trkpt lat="47.11769" lon="5.41269">
        <ele>201</ele>
        <time>2011-03-18T15:45:35Z</time>
      </trkpt>
      <trkpt lat="47.11762" lon="5.41288">
        <ele>201</ele>
        <time>2011-03-18T15:45:37Z</time>
      </trkpt>
      <trkpt lat="47.11756" lon="5.41306">
        <ele>201</ele>
        <time>2011-03-18T15:45:39Z</time>
      </trkpt>
      <trkpt lat="47.1175" lon="5.41325">
        <ele>201</ele>
        <time>2011-03-18T15:45:41Z</time>
      </trkpt>
      <trkpt lat="47.11743" lon="5.41343">
        <ele>201</ele>
        <time>2011-03-18T15:45:43Z</time>
      </trkpt>
      <trkpt lat="47.11736" lon="5.41362">
        <ele>201</ele>
        <time>2011-03-18T15:45:45Z</time>
      </trkpt>
      <trkpt lat="47.11729" lon="5.41381">
        <ele>201</ele>
        <time>2011-03-18T15:45:47Z</time>
      </trkpt>
      <trkpt lat="47.11723" lon="5.41399">
        <ele>201</ele>
        <time>2011-03-18T15:45:49Z</time>
      </trkpt>
      <trkpt lat="47.11717" lon="5.41418">
        <ele>201</ele>
        <time>2011-03-18T15:45:51Z</time>
      </trkpt>
      <trkpt lat="47.1171" lon="5.41436">
        <ele>201</ele>
        <time>2011-03-18T15:45:53Z</time>
      </trkpt>
      <trkpt lat="47.11704" lon="5.41455">
        <ele>201</ele>
        <time>2011-03-18T15:45:55Z</time>
      </trkpt>
      <trkpt lat="47.11697" lon="5.41474">
        <ele>201</ele>
        <time>2011-03-18T15:45:57Z</time>
      </trkpt>
      <trkpt lat="47.1169" lon="5.41493">
        <ele>201</ele>
        <time>2011-03-18T15:45:59Z</time>
      </trkpt>
      <trkpt lat="47.11683" lon="5.41511">
        <ele>201</ele>
        <time>2011-03-18T15:46:01Z</time>
      </trkpt>
      <trkpt lat="47.11677" lon="5.41531">
        <ele>201</ele>
        <time>2011-03-18T15:46:03Z</time>
      </trkpt>
      <trkpt lat="47.11671" lon="5.41549">
        <ele>201</ele>
        <time>2011-03-18T15:46:05Z</time>
      </trkpt>
      <trkpt lat="47.11664" lon="5.41567">
        <ele>201</ele>
        <time>2011-03-18T15:46:07Z</time>
      </trkpt>
      <trkpt lat="47.11658" lon="5.41586">
        <ele>201</ele>
        <time>2011-03-18T15:46:09Z</time>
      </trkpt>
      <trkpt lat="47.1165" lon="5.41605">
        <ele>201</ele>
        <time>2011-03-18T15:46:11Z</time>
      </trkpt>
      <trkpt lat="47.11645" lon="5.41624">
        <ele>201</ele>
        <time>2011-03-18T15:46:13Z</time>
      </trkpt>
      <trkpt lat="47.11639" lon="5.41643">
        <ele>201</ele>
        <time>2011-03-18T15:46:15Z</time>
      </trkpt>
      <trkpt lat="47.11632" lon="5.41661">
        <ele>201</ele>
        <time>2011-03-18T15:46:17Z</time>
      </trkpt>
      <trkpt lat="47.11625" lon="5.4168">
        <ele>201</ele>
        <time>2011-03-18T15:46:19Z</time>
      </trkpt>
      <trkpt lat="47.11618" lon="5.41699">
        <ele>201</ele>
        <time>2011-03-18T15:46:21Z</time>
      </trkpt>
      <trkpt lat="47.11612" lon="5.41717">
        <ele>201</ele>
        <time>2011-03-18T15:46:23Z</time>
      </trkpt>
      <trkpt lat="47.11605" lon="5.41735">
        <ele>201</ele>
        <time>2011-03-18T15:46:25Z</time>
      </trkpt>
      <trkpt lat="47.11599" lon="5.41754">
        <ele>201</ele>
        <time>2011-03-18T15:46:27Z</time>
      </trkpt>
      <trkpt lat="47.11593" lon="5.41772">
        <ele>201</ele>
        <time>2011-03-18T15:46:29Z</time>
      </trkpt>
      <trkpt lat="47.11587" lon="5.41791">
        <ele>201</ele>
        <time>2011-03-18T15:46:31Z</time>
      </trkpt>
      <trkpt lat="47.11581" lon="5.41809">
        <ele>206</ele>
        <time>2011-03-18T15:46:33Z</time>
      </trkpt>
      <trkpt lat="47.11574" lon="5.41828">
        <ele>206</ele>
        <time>2011-03-18T15:46:35Z</time>
      </trkpt>
      <trkpt lat="47.11567" lon="5.41848">
        <ele>206</ele>
        <time>2011-03-18T15:46:37Z</time>
      </trkpt>
      <trkpt lat="47.1156" lon="5.41867">
        <ele>206</ele>
        <time>2011-03-18T15:46:39Z</time>
      </trkpt>
      <trkpt lat="47.11553" lon="5.41886">
        <ele>206</ele>
        <time>2011-03-18T15:46:41Z</time>
      </trkpt>
      <trkpt lat="47.11547" lon="5.41907">
        <ele>206</ele>
        <time>2011-03-18T15:46:43Z</time>
      </trkpt>
      <trkpt lat="47.1154" lon="5.41927">
        <ele>206</ele>
        <time>2011-03-18T15:46:45Z</time>
      </trkpt>
      <trkpt lat="47.11534" lon="5.41946">
        <ele>206</ele>
        <time>2011-03-18T15:46:47Z</time>
      </trkpt>
      <trkpt lat="47.11528" lon="5.41966">
        <ele>206</ele>
        <time>2011-03-18T15:46:49Z</time>
      </trkpt>
      <trkpt lat="47.11521" lon="5.41985">
        <ele>206</ele>
        <time>2011-03-18T15:46:51Z</time>
      </trkpt>
      <trkpt lat="47.11513" lon="5.42005">
        <ele>206</ele>
        <time>2011-03-18T15:46:53Z</time>
      </trkpt>
      <trkpt lat="47.11506" lon="5.42023">
        <ele>206</ele>
        <time>2011-03-18T15:46:55Z</time>
      </trkpt>
      <trkpt lat="47.11499" lon="5.42041">
        <ele>206</ele>
        <time>2011-03-18T15:46:57Z</time>
      </trkpt>
      <trkpt lat="47.11493" lon="5.4206">
        <ele>206</ele>
        <time>2011-03-18T15:46:59Z</time>
      </trkpt>
      <trkpt lat="47.11485" lon="5.42078">
        <ele>206</ele>
        <time>2011-03-18T15:47:01Z</time>
      </trkpt>
      <trkpt lat="47.11478" lon="5.42096">
        <ele>206</ele>
        <time>2011-03-18T15:47:03Z</time>
      </trkpt>
      <trkpt lat="47.11471" lon="5.42114">
        <ele>206</ele>
        <time>2011-03-18T15:47:05Z</time>
      </trkpt>
      <trkpt lat="47.11464" lon="5.42132">
        <ele>206</ele>
        <time>2011-03-18T15:47:07Z</time>
      </trkpt>
      <trkpt lat="47.11456" lon="5.4215">
        <ele>206</ele>
        <time>2011-03-18T15:47:09Z</time>
      </trkpt>
      <trkpt lat="47.11449" lon="5.42168">
        <ele>206</ele>
        <time>2011-03-18T15:47:11Z</time>
      </trkpt>
      <trkpt lat="47.11442" lon="5.42186">
        <ele>206</ele>
        <time>2011-03-18T15:47:13Z</time>
      </trkpt>
      <trkpt lat="47.11433" lon="5.42204">
        <ele>206</ele>
        <time>2011-03-18T15:47:15Z</time>
      </trkpt>
      <trkpt lat="47.11425" lon="5.42223">
        <ele>206</ele>
        <time>2011-03-18T15:47:17Z</time>
      </trkpt>
      <trkpt lat="47.11417" lon="5.42241">
        <ele>206</ele>
        <time>2011-03-18T15:47:19Z</time>
      </trkpt>
      <trkpt lat="47.11409" lon="5.42259">
        <ele>206</ele>
        <time>2011-03-18T15:47:21Z</time>
      </trkpt>
      <trkpt lat="47.11401" lon="5.42277">
        <ele>206</ele>
        <time>2011-03-18T15:47:23Z</time>
      </trkpt>
      <trkpt lat="47.11393" lon="5.42294">
        <ele>206</ele>
        <time>2011-03-18T15:47:25Z</time>
      </trkpt>
      <trkpt lat="47.11385" lon="5.42313">
        <ele>206</ele>
        <time>2011-03-18T15:47:27Z</time>
      </trkpt>
      <trkpt lat="47.11377" lon="5.42331">
        <ele>206</ele>
        <time>2011-03-18T15:47:29Z</time>
      </trkpt>
      <trkpt lat="47.11369" lon="5.4235">
        <ele>206</ele>
        <time>2011-03-18T15:47:31Z</time>
      </trkpt>
      <trkpt lat="47.11361" lon="5.42369">
        <ele>206</ele>
        <time>2011-03-18T15:47:33Z</time>
      </trkpt>
      <trkpt lat="47.11353" lon="5.42387">
        <ele>206</ele>
        <time>2011-03-18T15:47:35Z</time>
      </trkpt>
      <trkpt lat="47.11345" lon="5.42406">
        <ele>206</ele>
        <time>2011-03-18T15:47:37Z</time>
      </trkpt>
      <trkpt lat="47.11337" lon="5.42424">
        <ele>206</ele>
        <time>2011-03-18T15:47:39Z</time>
      </trkpt>
      <trkpt lat="47.11329" lon="5.42443">
        <ele>206</ele>
        <time>2011-03-18T15:47:41Z</time>
      </trkpt>
      <trkpt lat="47.1132" lon="5.4246">
        <ele>206</ele>
        <time>2011-03-18T15:47:43Z</time>
      </trkpt>
      <trkpt lat="47.11313" lon="5.42477">
        <ele>206</ele>
        <time>2011-03-18T15:47:45Z</time>
      </trkpt>
      <trkpt lat="47.11305" lon="5.42494">
        <ele>206</ele>
        <time>2011-03-18T15:47:47Z</time>
      </trkpt>
      <trkpt lat="47.11297" lon="5.42509">
        <ele>206</ele>
        <time>2011-03-18T15:47:49Z</time>
      </trkpt>
      <trkpt lat="47.11289" lon="5.42521">
        <ele>206</ele>
        <time>2011-03-18T15:47:51Z</time>
      </trkpt>
      <trkpt lat="47.11282" lon="5.42533">
        <ele>206</ele>
        <time>2011-03-18T15:47:53Z</time>
      </trkpt>
      <trkpt lat="47.11274" lon="5.42545">
        <ele>206</ele>
        <time>2011-03-18T15:47:55Z</time>
      </trkpt>
      <trkpt lat="47.11266" lon="5.42555">
        <ele>206</ele>
        <time>2011-03-18T15:47:57Z</time>
      </trkpt>
      <trkpt lat="47.11257" lon="5.42566">
        <ele>206</ele>
        <time>2011-03-18T15:47:59Z</time>
      </trkpt>
      <trkpt lat="47.11248" lon="5.42578">
        <ele>206</ele>
        <time>2011-03-18T15:48:01Z</time>
      </trkpt>
      <trkpt lat="47.11239" lon="5.4259">
        <ele>206</ele>
        <time>2011-03-18T15:48:03Z</time>
      </trkpt>
      <trkpt lat="47.11228" lon="5.426">
        <ele>206</ele>
        <time>2011-03-18T15:48:05Z</time>
      </trkpt>
      <trkpt lat="47.11217" lon="5.42611">
        <ele>206</ele>
        <time>2011-03-18T15:48:07Z</time>
      </trkpt>
      <trkpt lat="47.11205" lon="5.42625">
        <ele>206</ele>
        <time>2011-03-18T15:48:09Z</time>
      </trkpt>
      <trkpt lat="47.11193" lon="5.42637">
        <ele>206</ele>
        <time>2011-03-18T15:48:11Z</time>
      </trkpt>
      <trkpt lat="47.11182" lon="5.42651">
        <ele>206</ele>
        <time>2011-03-18T15:48:13Z</time>
      </trkpt>
      <trkpt lat="47.11172" lon="5.42663">
        <ele>206</ele>
        <time>2011-03-18T15:48:15Z</time>
      </trkpt>
      <trkpt lat="47.11162" lon="5.42675">
        <ele>206</ele>
        <time>2011-03-18T15:48:17Z</time>
      </trkpt>
      <trkpt lat="47.11152" lon="5.42687">
        <ele>206</ele>
        <time>2011-03-18T15:48:19Z</time>
      </trkpt>
      <trkpt lat="47.11142" lon="5.42698">
        <ele>206</ele>
        <time>2011-03-18T15:48:21Z</time>
      </trkpt>
      <trkpt lat="47.11133" lon="5.4271">
        <ele>206</ele>
        <time>2011-03-18T15:48:23Z</time>
      </trkpt>
      <trkpt lat="47.11123" lon="5.42722">
        <ele>206</ele>
        <time>2011-03-18T15:48:25Z</time>
      </trkpt>
      <trkpt lat="47.11114" lon="5.42733">
        <ele>206</ele>
        <time>2011-03-18T15:48:27Z</time>
      </trkpt>
      <trkpt lat="47.11104" lon="5.42744">
        <ele>206</ele>
        <time>2011-03-18T15:48:29Z</time>
      </trkpt>
      <trkpt lat="47.11095" lon="5.42755">
        <ele>206</ele>
        <time>2011-03-18T15:48:31Z</time>
      </trkpt>
      <trkpt lat="47.11086" lon="5.42765">
        <ele>206</ele>
        <time>2011-03-18T15:48:33Z</time>
      </trkpt>
      <trkpt lat="47.11077" lon="5.42776">
        <ele>206</ele>
        <time>2011-03-18T15:48:35Z</time>
      </trkpt>
      <trkpt lat="47.11068" lon="5.42785">
        <ele>211</ele>
        <time>2011-03-18T15:48:37Z</time>
      </trkpt>
      <trkpt lat="47.1106" lon="5.42794">
        <ele>211</ele>
        <time>2011-03-18T15:48:39Z</time>
      </trkpt>
      <trkpt lat="47.11052" lon="5.42802">
        <ele>211</ele>
        <time>2011-03-18T15:48:41Z</time>
      </trkpt>
      <trkpt lat="47.11045" lon="5.42811">
        <ele>211</ele>
        <time>2011-03-18T15:48:43Z</time>
      </trkpt>
      <trkpt lat="47.11037" lon="5.42819">
        <ele>211</ele>
        <time>2011-03-18T15:48:45Z</time>
      </trkpt>
      <trkpt lat="47.11029" lon="5.42827">
        <ele>211</ele>
        <time>2011-03-18T15:48:47Z</time>
      </trkpt>
      <trkpt lat="47.11021" lon="5.42835">
        <ele>211</ele>
        <time>2011-03-18T15:48:49Z</time>
      </trkpt>
      <trkpt lat="47.11012" lon="5.42842">
        <ele>211</ele>
        <time>2011-03-18T15:48:51Z</time>
      </trkpt>
      <trkpt lat="47.11003" lon="5.4285">
        <ele>211</ele>
        <time>2011-03-18T15:48:53Z</time>
      </trkpt>
      <trkpt lat="47.10995" lon="5.42857">
        <ele>211</ele>
        <time>2011-03-18T15:48:55Z</time>
      </trkpt>
      <trkpt lat="47.10985" lon="5.42865">
        <ele>211</ele>
        <time>2011-03-18T15:48:57Z</time>
      </trkpt>
      <trkpt lat="47.10976" lon="5.42872">
        <ele>211</ele>
        <time>2011-03-18T15:48:59Z</time>
      </trkpt>
      <trkpt lat="47.10967" lon="5.42879">
        <ele>211</ele>
        <time>2011-03-18T15:49:01Z</time>
      </trkpt>
      <trkpt lat="47.10958" lon="5.42886">
        <ele>211</ele>
        <time>2011-03-18T15:49:03Z</time>
      </trkpt>
      <trkpt lat="47.10949" lon="5.42892">
        <ele>211</ele>
        <time>2011-03-18T15:49:05Z</time>
      </trkpt>
      <trkpt lat="47.10939" lon="5.429">
        <ele>211</ele>
        <time>2011-03-18T15:49:07Z</time>
      </trkpt>
      <trkpt lat="47.1093" lon="5.42907">
        <ele>211</ele>
        <time>2011-03-18T15:49:09Z</time>
      </trkpt>
      <trkpt lat="47.1092" lon="5.42913">
        <ele>211</ele>
        <time>2011-03-18T15:49:11Z</time>
      </trkpt>
      <trkpt lat="47.10911" lon="5.4292">
        <ele>211</ele>
        <time>2011-03-18T15:49:13Z</time>
      </trkpt>
      <trkpt lat="47.10903" lon="5.42927">
        <ele>211</ele>
        <time>2011-03-18T15:49:15Z</time>
      </trkpt>
      <trkpt lat="47.10895" lon="5.42934">
        <ele>211</ele>
        <time>2011-03-18T15:49:17Z</time>
      </trkpt>
      <trkpt lat="47.10885" lon="5.42947">
        <ele>211</ele>
        <time>2011-03-18T15:49:20Z</time>
      </trkpt>
      <trkpt lat="47.10878" lon="5.42957">
        <ele>211</ele>
        <time>2011-03-18T15:49:22Z</time>
      </trkpt>
      <trkpt lat="47.10872" lon="5.42969">
        <ele>211</ele>
        <time>2011-03-18T15:49:24Z</time>
      </trkpt>
      <trkpt lat="47.10866" lon="5.42981">
        <ele>211</ele>
        <time>2011-03-18T15:49:26Z</time>
      </trkpt>
      <trkpt lat="47.10862" lon="5.42995">
        <ele>211</ele>
        <time>2011-03-18T15:49:28Z</time>
      </trkpt>
      <trkpt lat="47.10858" lon="5.43009">
        <ele>211</ele>
        <time>2011-03-18T15:49:30Z</time>
      </trkpt>
      <trkpt lat="47.10855" lon="5.43024">
        <ele>211</ele>
        <time>2011-03-18T15:49:32Z</time>
      </trkpt>
      <trkpt lat="47.10852" lon="5.43039">
        <ele>211</ele>
        <time>2011-03-18T15:49:34Z</time>
      </trkpt>
      <trkpt lat="47.1085" lon="5.43054">
        <ele>211</ele>
        <time>2011-03-18T15:49:36Z</time>
      </trkpt>
      <trkpt lat="47.10848" lon="5.43068">
        <ele>211</ele>
        <time>2011-03-18T15:49:38Z</time>
      </trkpt>
      <trkpt lat="47.10846" lon="5.43084">
        <ele>211</ele>
        <time>2011-03-18T15:49:40Z</time>
      </trkpt>
      <trkpt lat="47.10845" lon="5.43099">
        <ele>211</ele>
        <time>2011-03-18T15:49:42Z</time>
      </trkpt>
      <trkpt lat="47.10843" lon="5.43114">
        <ele>211</ele>
        <time>2011-03-18T15:49:44Z</time>
      </trkpt>
      <trkpt lat="47.10842" lon="5.4313">
        <ele>211</ele>
        <time>2011-03-18T15:49:46Z</time>
      </trkpt>
      <trkpt lat="47.10841" lon="5.43145">
        <ele>211</ele>
        <time>2011-03-18T15:49:48Z</time>
      </trkpt>
      <trkpt lat="47.10839" lon="5.4316">
        <ele>211</ele>
        <time>2011-03-18T15:49:50Z</time>
      </trkpt>
      <trkpt lat="47.10838" lon="5.43174">
        <ele>211</ele>
        <time>2011-03-18T15:49:52Z</time>
      </trkpt>
      <trkpt lat="47.10835" lon="5.43188">
        <ele>211</ele>
        <time>2011-03-18T15:49:54Z</time>
      </trkpt>
      <trkpt lat="47.1083" lon="5.43201">
        <ele>211</ele>
        <time>2011-03-18T15:49:56Z</time>
      </trkpt>
      <trkpt lat="47.10825" lon="5.43214">
        <ele>211</ele>
        <time>2011-03-18T15:49:58Z</time>
      </trkpt>
      <trkpt lat="47.1082" lon="5.43226">
        <ele>211</ele>
        <time>2011-03-18T15:50:00Z</time>
      </trkpt>
      <trkpt lat="47.10814" lon="5.43236">
        <ele>216</ele>
        <time>2011-03-18T15:50:02Z</time>
      </trkpt>
      <trkpt lat="47.10809" lon="5.43248">
        <ele>216</ele>
        <time>2011-03-18T15:50:04Z</time>
      </trkpt>
      <trkpt lat="47.10803" lon="5.43265">
        <ele>216</ele>
        <time>2011-03-18T15:50:07Z</time>
      </trkpt>
      <trkpt lat="47.10798" lon="5.43281">
        <ele>216</ele>
        <time>2011-03-18T15:50:10Z</time>
      </trkpt>
      <trkpt lat="47.10793" lon="5.43298">
        <ele>216</ele>
        <time>2011-03-18T15:50:13Z</time>
      </trkpt>
      <trkpt lat="47.10788" lon="5.43315">
        <ele>216</ele>
        <time>2011-03-18T15:50:16Z</time>
      </trkpt>
      <trkpt lat="47.10781" lon="5.43329">
        <ele>221</ele>
        <time>2011-03-18T15:50:19Z</time>
      </trkpt>
      <trkpt lat="47.10774" lon="5.43342">
        <ele>221</ele>
        <time>2011-03-18T15:50:22Z</time>
      </trkpt>
      <trkpt lat="47.10765" lon="5.43356">
        <ele>221</ele>
        <time>2011-03-18T15:50:25Z</time>
      </trkpt>
      <trkpt lat="47.10757" lon="5.4337">
        <ele>221</ele>
        <time>2011-03-18T15:50:28Z</time>
      </trkpt>
      <trkpt lat="47.1075" lon="5.43386">
        <ele>221</ele>
        <time>2011-03-18T15:50:31Z</time>
      </trkpt>
      <trkpt lat="47.10741" lon="5.434">
        <ele>221</ele>
        <time>2011-03-18T15:50:34Z</time>
      </trkpt>
      <trkpt lat="47.10735" lon="5.4341">
        <ele>221</ele>
        <time>2011-03-18T15:50:36Z</time>
      </trkpt>
      <trkpt lat="47.10727" lon="5.43421">
        <ele>221</ele>
        <time>2011-03-18T15:50:38Z</time>
      </trkpt>
      <trkpt lat="47.10719" lon="5.43431">
        <ele>221</ele>
        <time>2011-03-18T15:50:40Z</time>
      </trkpt>
      <trkpt lat="47.10711" lon="5.43442">
        <ele>221</ele>
        <time>2011-03-18T15:50:42Z</time>
      </trkpt>
      <trkpt lat="47.10703" lon="5.43454">
        <ele>221</ele>
        <time>2011-03-18T15:50:44Z</time>
      </trkpt>
      <trkpt lat="47.10695" lon="5.43465">
        <ele>221</ele>
        <time>2011-03-18T15:50:46Z</time>
      </trkpt>
      <trkpt lat="47.10687" lon="5.43475">
        <ele>221</ele>
        <time>2011-03-18T15:50:48Z</time>
      </trkpt>
      <trkpt lat="47.1068" lon="5.43486">
        <ele>221</ele>
        <time>2011-03-18T15:50:50Z</time>
      </trkpt>
      <trkpt lat="47.10673" lon="5.43497">
        <ele>221</ele>
        <time>2011-03-18T15:50:52Z</time>
      </trkpt>
      <trkpt lat="47.10667" lon="5.43507">
        <ele>221</ele>
        <time>2011-03-18T15:50:54Z</time>
      </trkpt>
      <trkpt lat="47.10661" lon="5.43518">
        <ele>221</ele>
        <time>2011-03-18T15:50:57Z</time>
      </trkpt>
      <trkpt lat="47.10654" lon="5.43528">
        <ele>221</ele>
        <time>2011-03-18T15:51:02Z</time>
      </trkpt>
      <trkpt lat="47.10652" lon="5.43544">
        <ele>221</ele>
        <time>2011-03-18T15:51:16Z</time>
      </trkpt>
      <trkpt lat="47.10647" lon="5.43555">
        <ele>221</ele>
        <time>2011-03-18T15:51:21Z</time>
      </trkpt>
      <trkpt lat="47.10644" lon="5.43568">
        <ele>221</ele>
        <time>2011-03-18T15:52:05Z</time>
      </trkpt>
      <trkpt lat="47.10645" lon="5.43582">
        <ele>221</ele>
        <time>2011-03-18T15:52:11Z</time>
      </trkpt>
      <trkpt lat="47.10642" lon="5.43595">
        <ele>221</ele>
        <time>2011-03-18T15:52:14Z</time>
      </trkpt>
      <trkpt lat="47.10638" lon="5.4361">
        <ele>221</ele>
        <time>2011-03-18T15:52:17Z</time>
      </trkpt>
      <trkpt lat="47.10635" lon="5.43625">
        <ele>221</ele>
        <time>2011-03-18T15:52:20Z</time>
      </trkpt>
      <trkpt lat="47.10633" lon="5.43641">
        <ele>221</ele>
        <time>2011-03-18T15:52:24Z</time>
      </trkpt>
      <trkpt lat="47.10629" lon="5.43655">
        <ele>221</ele>
        <time>2011-03-18T15:52:27Z</time>
      </trkpt>
      <trkpt lat="47.10624" lon="5.4367">
        <ele>221</ele>
        <time>2011-03-18T15:52:30Z</time>
      </trkpt>
      <trkpt lat="47.10617" lon="5.43687">
        <ele>221</ele>
        <time>2011-03-18T15:52:33Z</time>
      </trkpt>
      <trkpt lat="47.10609" lon="5.43695">
        <ele>221</ele>
        <time>2011-03-18T15:52:35Z</time>
      </trkpt>
      <trkpt lat="47.10601" lon="5.43702">
        <ele>221</ele>
        <time>2011-03-18T15:52:37Z</time>
      </trkpt>
      <trkpt lat="47.10592" lon="5.43707">
        <ele>221</ele>
        <time>2011-03-18T15:52:39Z</time>
      </trkpt>
      <trkpt lat="47.10582" lon="5.43713">
        <ele>221</ele>
        <time>2011-03-18T15:52:41Z</time>
      </trkpt>
      <trkpt lat="47.10573" lon="5.43719">
        <ele>221</ele>
        <time>2011-03-18T15:52:43Z</time>
      </trkpt>
      <trkpt lat="47.10563" lon="5.43725">
        <ele>221</ele>
        <time>2011-03-18T15:52:45Z</time>
      </trkpt>
      <trkpt lat="47.10555" lon="5.43731">
        <ele>221</ele>
        <time>2011-03-18T15:52:47Z</time>
      </trkpt>
      <trkpt lat="47.10544" lon="5.4374">
        <ele>221</ele>
        <time>2011-03-18T15:52:50Z</time>
      </trkpt>
      <trkpt lat="47.10532" lon="5.43739">
        <ele>221</ele>
        <time>2011-03-18T15:52:53Z</time>
      </trkpt>
      <trkpt lat="47.10521" lon="5.43732">
        <ele>221</ele>
        <time>2011-03-18T15:52:56Z</time>
      </trkpt>
      <trkpt lat="47.10509" lon="5.43733">
        <ele>221</ele>
        <time>2011-03-18T15:53:00Z</time>
      </trkpt>
      <trkpt lat="47.10503" lon="5.43746">
        <ele>221</ele>
        <time>2011-03-18T15:53:03Z</time>
      </trkpt>
      <trkpt lat="47.10494" lon="5.43759">
        <ele>221</ele>
        <time>2011-03-18T15:53:06Z</time>
      </trkpt>
      <trkpt lat="47.10486" lon="5.43775">
        <ele>221</ele>
        <time>2011-03-18T15:53:09Z</time>
      </trkpt>
      <trkpt lat="47.10478" lon="5.43792">
        <ele>221</ele>
        <time>2011-03-18T15:53:12Z</time>
      </trkpt>
      <trkpt lat="47.10471" lon="5.43807">
        <ele>221</ele>
        <time>2011-03-18T15:53:15Z</time>
      </trkpt>
      <trkpt lat="47.10464" lon="5.43822">
        <ele>221</ele>
        <time>2011-03-18T15:53:18Z</time>
      </trkpt>
      <trkpt lat="47.10457" lon="5.43837">
        <ele>221</ele>
        <time>2011-03-18T15:53:21Z</time>
      </trkpt>
      <trkpt lat="47.10451" lon="5.4385">
        <ele>221</ele>
        <time>2011-03-18T15:53:24Z</time>
      </trkpt>
      <trkpt lat="47.10443" lon="5.43863">
        <ele>221</ele>
        <time>2011-03-18T15:53:27Z</time>
      </trkpt>
      <trkpt lat="47.10436" lon="5.43875">
        <ele>221</ele>
        <time>2011-03-18T15:53:30Z</time>
      </trkpt>
      <trkpt lat="47.10428" lon="5.43886">
        <ele>221</ele>
        <time>2011-03-18T15:53:33Z</time>
      </trkpt>
      <trkpt lat="47.10421" lon="5.43895">
        <ele>221</ele>
        <time>2011-03-18T15:53:36Z</time>
      </trkpt>
      <trkpt lat="47.10414" lon="5.43907">
        <ele>221</ele>
        <time>2011-03-18T15:53:39Z</time>
      </trkpt>
      <trkpt lat="47.10408" lon="5.43919">
        <ele>221</ele>
        <time>2011-03-18T15:53:42Z</time>
      </trkpt>
      <trkpt lat="47.10401" lon="5.43932">
        <ele>221</ele>
        <time>2011-03-18T15:53:45Z</time>
      </trkpt>
      <trkpt lat="47.10394" lon="5.43943">
        <ele>221</ele>
        <time>2011-03-18T15:53:48Z</time>
      </trkpt>
      <trkpt lat="47.10387" lon="5.43955">
        <ele>221</ele>
        <time>2011-03-18T15:53:51Z</time>
      </trkpt>
      <trkpt lat="47.10379" lon="5.43966">
        <ele>221</ele>
        <time>2011-03-18T15:53:54Z</time>
      </trkpt>
      <trkpt lat="47.10371" lon="5.43975">
        <ele>221</ele>
        <time>2011-03-18T15:53:57Z</time>
      </trkpt>
      <trkpt lat="47.10363" lon="5.43983">
        <ele>227</ele>
        <time>2011-03-18T15:54:00Z</time>
      </trkpt>
      <trkpt lat="47.10354" lon="5.43991">
        <ele>227</ele>
        <time>2011-03-18T15:54:03Z</time>
      </trkpt>
      <trkpt lat="47.10344" lon="5.43998">
        <ele>227</ele>
        <time>2011-03-18T15:54:06Z</time>
      </trkpt>
      <trkpt lat="47.10335" lon="5.44005">
        <ele>227</ele>
        <time>2011-03-18T15:54:09Z</time>
      </trkpt>
      <trkpt lat="47.10325" lon="5.44013">
        <ele>227</ele>
        <time>2011-03-18T15:54:12Z</time>
      </trkpt>
      <trkpt lat="47.10316" lon="5.44021">
        <ele>227</ele>
        <time>2011-03-18T15:54:15Z</time>
      </trkpt>
      <trkpt lat="47.10305" lon="5.44028">
        <ele>227</ele>
        <time>2011-03-18T15:54:18Z</time>
      </trkpt>
      <trkpt lat="47.10295" lon="5.44036">
        <ele>227</ele>
        <time>2011-03-18T15:54:21Z</time>
      </trkpt>
      <trkpt lat="47.10284" lon="5.44045">
        <ele>227</ele>
        <time>2011-03-18T15:54:24Z</time>
      </trkpt>
      <trkpt lat="47.10272" lon="5.44053">
        <ele>227</ele>
        <time>2011-03-18T15:54:27Z</time>
      </trkpt>
      <trkpt lat="47.10261" lon="5.44062">
        <ele>227</ele>
        <time>2011-03-18T15:54:30Z</time>
      </trkpt>
      <trkpt lat="47.10253" lon="5.44068">
        <ele>227</ele>
        <time>2011-03-18T15:54:32Z</time>
      </trkpt>
      <trkpt lat="47.10244" lon="5.44075">
        <ele>227</ele>
        <time>2011-03-18T15:54:34Z</time>
      </trkpt>
      <trkpt lat="47.10236" lon="5.44081">
        <ele>227</ele>
        <time>2011-03-18T15:54:36Z</time>
      </trkpt>
      <trkpt lat="47.10228" lon="5.44087">
        <ele>232</ele>
        <time>2011-03-18T15:54:38Z</time>
      </trkpt>
      <trkpt lat="47.1022" lon="5.44094">
        <ele>232</ele>
        <time>2011-03-18T15:54:40Z</time>
      </trkpt>
      <trkpt lat="47.10211" lon="5.44101">
        <ele>232</ele>
        <time>2011-03-18T15:54:42Z</time>
      </trkpt>
      <trkpt lat="47.10203" lon="5.44108">
        <ele>232</ele>
        <time>2011-03-18T15:54:44Z</time>
      </trkpt>
      <trkpt lat="47.10195" lon="5.44113">
        <ele>232</ele>
        <time>2011-03-18T15:54:46Z</time>
      </trkpt>
      <trkpt lat="47.10187" lon="5.44119">
        <ele>232</ele>
        <time>2011-03-18T15:54:48Z</time>
      </trkpt>
      <trkpt lat="47.10178" lon="5.44126">
        <ele>232</ele>
        <time>2011-03-18T15:54:50Z</time>
      </trkpt>
      <trkpt lat="47.1017" lon="5.44132">
        <ele>232</ele>
        <time>2011-03-18T15:54:52Z</time>
      </trkpt>
      <trkpt lat="47.10162" lon="5.44138">
        <ele>232</ele>
        <time>2011-03-18T15:54:54Z</time>
      </trkpt>
      <trkpt lat="47.1015" lon="5.44146">
        <ele>232</ele>
        <time>2011-03-18T15:54:57Z</time>
      </trkpt>
      <trkpt lat="47.10138" lon="5.44154">
        <ele>232</ele>
        <time>2011-03-18T15:55:00Z</time>
      </trkpt>
      <trkpt lat="47.10129" lon="5.44158">
        <ele>232</ele>
        <time>2011-03-18T15:55:02Z</time>
      </trkpt>
      <trkpt lat="47.1012" lon="5.44163">
        <ele>232</ele>
        <time>2011-03-18T15:55:04Z</time>
      </trkpt>
      <trkpt lat="47.10111" lon="5.44167">
        <ele>232</ele>
        <time>2011-03-18T15:55:06Z</time>
      </trkpt>
      <trkpt lat="47.10101" lon="5.44172">
        <ele>232</ele>
        <time>2011-03-18T15:55:08Z</time>
      </trkpt>
      <trkpt lat="47.10091" lon="5.44176">
        <ele>232</ele>
        <time>2011-03-18T15:55:10Z</time>
      </trkpt>
      <trkpt lat="47.10081" lon="5.44181">
        <ele>232</ele>
        <time>2011-03-18T15:55:12Z</time>
      </trkpt>
      <trkpt lat="47.10072" lon="5.44189">
        <ele>232</ele>
        <time>2011-03-18T15:55:14Z</time>
      </trkpt>
      <trkpt lat="47.10063" lon="5.44196">
        <ele>232</ele>
        <time>2011-03-18T15:55:16Z</time>
      </trkpt>
      <trkpt lat="47.10054" lon="5.44203">
        <ele>232</ele>
        <time>2011-03-18T15:55:18Z</time>
      </trkpt>
      <trkpt lat="47.10045" lon="5.44211">
        <ele>232</ele>
        <time>2011-03-18T15:55:20Z</time>
      </trkpt>
      <trkpt lat="47.10037" lon="5.4422">
        <ele>232</ele>
        <time>2011-03-18T15:55:22Z</time>
      </trkpt>
      <trkpt lat="47.10029" lon="5.4423">
        <ele>232</ele>
        <time>2011-03-18T15:55:24Z</time>
      </trkpt>
      <trkpt lat="47.10024" lon="5.44241">
        <ele>232</ele>
        <time>2011-03-18T15:55:26Z</time>
      </trkpt>
      <trkpt lat="47.10018" lon="5.44252">
        <ele>232</ele>
        <time>2011-03-18T15:55:28Z</time>
      </trkpt>
      <trkpt lat="47.10013" lon="5.44271">
        <ele>232</ele>
        <time>2011-03-18T15:55:31Z</time>
      </trkpt>
      <trkpt lat="47.1001" lon="5.44284">
        <ele>232</ele>
        <time>2011-03-18T15:55:33Z</time>
      </trkpt>
      <trkpt lat="47.10006" lon="5.44297">
        <ele>232</ele>
        <time>2011-03-18T15:55:35Z</time>
      </trkpt>
      <trkpt lat="47.10002" lon="5.4431">
        <ele>232</ele>
        <time>2011-03-18T15:55:37Z</time>
      </trkpt>
      <trkpt lat="47.09999" lon="5.44323">
        <ele>232</ele>
        <time>2011-03-18T15:55:39Z</time>
      </trkpt>
      <trkpt lat="47.09993" lon="5.4434">
        <ele>232</ele>
        <time>2011-03-18T15:55:42Z</time>
      </trkpt>
      <trkpt lat="47.09989" lon="5.44356">
        <ele>232</ele>
        <time>2011-03-18T15:55:45Z</time>
      </trkpt>
      <trkpt lat="47.09986" lon="5.44369">
        <ele>232</ele>
        <time>2011-03-18T15:55:49Z</time>
      </trkpt>
      <trkpt lat="47.09982" lon="5.44382">
        <ele>232</ele>
        <time>2011-03-18T15:55:52Z</time>
      </trkpt>
      <trkpt lat="47.09978" lon="5.44397">
        <ele>237</ele>
        <time>2011-03-18T15:55:55Z</time>
      </trkpt>
      <trkpt lat="47.09973" lon="5.44412">
        <ele>237</ele>
        <time>2011-03-18T15:55:58Z</time>
      </trkpt>
      <trkpt lat="47.09968" lon="5.44428">
        <ele>237</ele>
        <time>2011-03-18T15:56:01Z</time>
      </trkpt>
      <trkpt lat="47.09962" lon="5.44443">
        <ele>237</ele>
        <time>2011-03-18T15:56:04Z</time>
      </trkpt>
      <trkpt lat="47.09956" lon="5.44459">
        <ele>237</ele>
        <time>2011-03-18T15:56:07Z</time>
      </trkpt>
      <trkpt lat="47.09949" lon="5.44473">
        <ele>237</ele>
        <time>2011-03-18T15:56:10Z</time>
      </trkpt>
      <trkpt lat="47.09943" lon="5.44489">
        <ele>237</ele>
        <time>2011-03-18T15:56:13Z</time>
      </trkpt>
      <trkpt lat="47.09937" lon="5.44504">
        <ele>237</ele>
        <time>2011-03-18T15:56:16Z</time>
      </trkpt>
      <trkpt lat="47.0993" lon="5.44518">
        <ele>243</ele>
        <time>2011-03-18T15:56:19Z</time>
      </trkpt>
      <trkpt lat="47.09923" lon="5.44533">
        <ele>243</ele>
        <time>2011-03-18T15:56:22Z</time>
      </trkpt>
      <trkpt lat="47.09917" lon="5.44547">
        <ele>243</ele>
        <time>2011-03-18T15:56:25Z</time>
      </trkpt>
      <trkpt lat="47.0991" lon="5.44561">
        <ele>243</ele>
        <time>2011-03-18T15:56:28Z</time>
      </trkpt>
      <trkpt lat="47.09904" lon="5.44575">
        <ele>243</ele>
        <time>2011-03-18T15:56:31Z</time>
      </trkpt>
      <trkpt lat="47.09898" lon="5.44588">
        <ele>243</ele>
        <time>2011-03-18T15:56:34Z</time>
      </trkpt>
      <trkpt lat="47.09891" lon="5.446">
        <ele>243</ele>
        <time>2011-03-18T15:56:37Z</time>
      </trkpt>
      <trkpt lat="47.09884" lon="5.44611">
        <ele>248</ele>
        <time>2011-03-18T15:56:40Z</time>
      </trkpt>
      <trkpt lat="47.09877" lon="5.4462">
        <ele>248</ele>
        <time>2011-03-18T15:56:43Z</time>
      </trkpt>
      <trkpt lat="47.09869" lon="5.44628">
        <ele>248</ele>
        <time>2011-03-18T15:56:46Z</time>
      </trkpt>
      <trkpt lat="47.09859" lon="5.44639">
        <ele>248</ele>
        <time>2011-03-18T15:56:50Z</time>
      </trkpt>
      <trkpt lat="47.0985" lon="5.44648">
        <ele>248</ele>
        <time>2011-03-18T15:56:54Z</time>
      </trkpt>
      <trkpt lat="47.09843" lon="5.44656">
        <ele>254</ele>
        <time>2011-03-18T15:56:57Z</time>
      </trkpt>
      <trkpt lat="47.09835" lon="5.44664">
        <ele>254</ele>
        <time>2011-03-18T15:57:00Z</time>
      </trkpt>
      <trkpt lat="47.09826" lon="5.44675">
        <ele>254</ele>
        <time>2011-03-18T15:57:04Z</time>
      </trkpt>
      <trkpt lat="47.09818" lon="5.44685">
        <ele>254</ele>
        <time>2011-03-18T15:57:08Z</time>
      </trkpt>
      <trkpt lat="47.09811" lon="5.447">
        <ele>254</ele>
        <time>2011-03-18T15:57:12Z</time>
      </trkpt>
      <trkpt lat="47.09807" lon="5.44715">
        <ele>254</ele>
        <time>2011-03-18T15:57:16Z</time>
      </trkpt>
      <trkpt lat="47.09803" lon="5.44728">
        <ele>260</ele>
        <time>2011-03-18T15:57:19Z</time>
      </trkpt>
      <trkpt lat="47.098" lon="5.44743">
        <ele>260</ele>
        <time>2011-03-18T15:57:23Z</time>
      </trkpt>
      <trkpt lat="47.09796" lon="5.44756">
        <ele>260</ele>
        <time>2011-03-18T15:57:27Z</time>
      </trkpt>
      <trkpt lat="47.09791" lon="5.44772">
        <ele>260</ele>
        <time>2011-03-18T15:57:31Z</time>
      </trkpt>
      <trkpt lat="47.09787" lon="5.44787">
        <ele>260</ele>
        <time>2011-03-18T15:57:35Z</time>
      </trkpt>
      <trkpt lat="47.09784" lon="5.44802">
        <ele>266</ele>
        <time>2011-03-18T15:57:39Z</time>
      </trkpt>
      <trkpt lat="47.09783" lon="5.44818">
        <ele>266</ele>
        <time>2011-03-18T15:57:43Z</time>
      </trkpt>
      <trkpt lat="47.09784" lon="5.44835">
        <ele>266</ele>
        <time>2011-03-18T15:57:47Z</time>
      </trkpt>
      <trkpt lat="47.09788" lon="5.4485">
        <ele>266</ele>
        <time>2011-03-18T15:57:51Z</time>
      </trkpt>
      <trkpt lat="47.09792" lon="5.44863">
        <ele>266</ele>
        <time>2011-03-18T15:57:55Z</time>
      </trkpt>
      <trkpt lat="47.09796" lon="5.44879">
        <ele>271</ele>
        <time>2011-03-18T15:57:59Z</time>
      </trkpt>
      <trkpt lat="47.09799" lon="5.44895">
        <ele>271</ele>
        <time>2011-03-18T15:58:03Z</time>
      </trkpt>
      <trkpt lat="47.098" lon="5.44908">
        <ele>271</ele>
        <time>2011-03-18T15:58:06Z</time>
      </trkpt>
      <trkpt lat="47.09799" lon="5.44923">
        <ele>271</ele>
        <time>2011-03-18T15:58:09Z</time>
      </trkpt>
      <trkpt lat="47.09798" lon="5.44936">
        <ele>271</ele>
        <time>2011-03-18T15:58:12Z</time>
      </trkpt>
      <trkpt lat="47.09797" lon="5.44951">
        <ele>271</ele>
        <time>2011-03-18T15:58:16Z</time>
      </trkpt>
      <trkpt lat="47.09794" lon="5.44966">
        <ele>271</ele>
        <time>2011-03-18T15:58:21Z</time>
      </trkpt>
      <trkpt lat="47.0979" lon="5.44978">
        <ele>271</ele>
        <time>2011-03-18T16:00:13Z</time>
      </trkpt>
      <trkpt lat="47.09785" lon="5.44993">
        <ele>271</ele>
        <time>2011-03-18T16:00:17Z</time>
      </trkpt>
      <trkpt lat="47.09778" lon="5.45006">
        <ele>271</ele>
        <time>2011-03-18T16:00:20Z</time>
      </trkpt>
      <trkpt lat="47.0977" lon="5.45015">
        <ele>266</ele>
        <time>2011-03-18T16:00:22Z</time>
      </trkpt>
      <trkpt lat="47.09761" lon="5.45027">
        <ele>266</ele>
        <time>2011-03-18T16:00:24Z</time>
      </trkpt>
      <trkpt lat="47.09752" lon="5.45039">
        <ele>266</ele>
        <time>2011-03-18T16:00:26Z</time>
      </trkpt>
      <trkpt lat="47.09741" lon="5.45054">
        <ele>266</ele>
        <time>2011-03-18T16:00:28Z</time>
      </trkpt>
      <trkpt lat="47.0973" lon="5.4507">
        <ele>266</ele>
        <time>2011-03-18T16:00:30Z</time>
      </trkpt>
      <trkpt lat="47.09719" lon="5.45086">
        <ele>266</ele>
        <time>2011-03-18T16:00:32Z</time>
      </trkpt>
      <trkpt lat="47.09706" lon="5.45103">
        <ele>260</ele>
        <time>2011-03-18T16:00:34Z</time>
      </trkpt>
      <trkpt lat="47.09699" lon="5.45112">
        <ele>260</ele>
        <time>2011-03-18T16:00:35Z</time>
      </trkpt>
      <trkpt lat="47.09692" lon="5.45121">
        <ele>260</ele>
        <time>2011-03-18T16:00:36Z</time>
      </trkpt>
      <trkpt lat="47.09686" lon="5.4513">
        <ele>260</ele>
        <time>2011-03-18T16:00:37Z</time>
      </trkpt>
      <trkpt lat="47.09679" lon="5.4514">
        <ele>260</ele>
        <time>2011-03-18T16:00:38Z</time>
      </trkpt>
      <trkpt lat="47.09672" lon="5.45149">
        <ele>260</ele>
        <time>2011-03-18T16:00:39Z</time>
      </trkpt>
      <trkpt lat="47.09665" lon="5.45158">
        <ele>260</ele>
        <time>2011-03-18T16:00:40Z</time>
      </trkpt>
      <trkpt lat="47.09657" lon="5.45168">
        <ele>260</ele>
        <time>2011-03-18T16:00:41Z</time>
      </trkpt>
      <trkpt lat="47.0965" lon="5.45178">
        <ele>260</ele>
        <time>2011-03-18T16:00:42Z</time>
      </trkpt>
      <trkpt lat="47.09642" lon="5.45187">
        <ele>255</ele>
        <time>2011-03-18T16:00:43Z</time>
      </trkpt>
      <trkpt lat="47.09634" lon="5.45194">
        <ele>255</ele>
        <time>2011-03-18T16:00:44Z</time>
      </trkpt>
      <trkpt lat="47.09624" lon="5.45199">
        <ele>255</ele>
        <time>2011-03-18T16:00:45Z</time>
      </trkpt>
      <trkpt lat="47.09615" lon="5.45202">
        <ele>255</ele>
        <time>2011-03-18T16:00:46Z</time>
      </trkpt>
      <trkpt lat="47.09604" lon="5.45203">
        <ele>255</ele>
        <time>2011-03-18T16:00:47Z</time>
      </trkpt>
      <trkpt lat="47.09594" lon="5.45201">
        <ele>255</ele>
        <time>2011-03-18T16:00:48Z</time>
      </trkpt>
      <trkpt lat="47.09584" lon="5.45198">
        <ele>255</ele>
        <time>2011-03-18T16:00:49Z</time>
      </trkpt>
      <trkpt lat="47.09575" lon="5.45196">
        <ele>255</ele>
        <time>2011-03-18T16:00:50Z</time>
      </trkpt>
      <trkpt lat="47.09567" lon="5.45191">
        <ele>255</ele>
        <time>2011-03-18T16:00:51Z</time>
      </trkpt>
      <trkpt lat="47.09557" lon="5.45188">
        <ele>255</ele>
        <time>2011-03-18T16:00:52Z</time>
      </trkpt>
      <trkpt lat="47.09541" lon="5.4518">
        <ele>255</ele>
        <time>2011-03-18T16:00:54Z</time>
      </trkpt>
      <trkpt lat="47.09532" lon="5.45175">
        <ele>255</ele>
        <time>2011-03-18T16:00:55Z</time>
      </trkpt>
      <trkpt lat="47.09515" lon="5.45169">
        <ele>255</ele>
        <time>2011-03-18T16:00:57Z</time>
      </trkpt>
      <trkpt lat="47.09507" lon="5.45165">
        <ele>255</ele>
        <time>2011-03-18T16:00:58Z</time>
      </trkpt>
      <trkpt lat="47.09498" lon="5.45161">
        <ele>255</ele>
        <time>2011-03-18T16:00:59Z</time>
      </trkpt>
      <trkpt lat="47.09489" lon="5.45156">
        <ele>255</ele>
        <time>2011-03-18T16:01:00Z</time>
      </trkpt>
      <trkpt lat="47.09481" lon="5.45152">
        <ele>255</ele>
        <time>2011-03-18T16:01:01Z</time>
      </trkpt>
      <trkpt lat="47.09473" lon="5.45145">
        <ele>255</ele>
        <time>2011-03-18T16:01:02Z</time>
      </trkpt>
      <trkpt lat="47.09464" lon="5.45139">
        <ele>255</ele>
        <time>2011-03-18T16:01:03Z</time>
      </trkpt>
      <trkpt lat="47.09456" lon="5.45133">
        <ele>255</ele>
        <time>2011-03-18T16:01:04Z</time>
      </trkpt>
      <trkpt lat="47.09448" lon="5.45127">
        <ele>255</ele>
        <time>2011-03-18T16:01:05Z</time>
      </trkpt>
      <trkpt lat="47.0944" lon="5.45119">
        <ele>255</ele>
        <time>2011-03-18T16:01:06Z</time>
      </trkpt>
      <trkpt lat="47.09431" lon="5.45113">
        <ele>255</ele>
        <time>2011-03-18T16:01:07Z</time>
      </trkpt>
      <trkpt lat="47.09422" lon="5.45107">
        <ele>255</ele>
        <time>2011-03-18T16:01:08Z</time>
      </trkpt>
      <trkpt lat="47.09413" lon="5.45101">
        <ele>250</ele>
        <time>2011-03-18T16:01:09Z</time>
      </trkpt>
      <trkpt lat="47.09404" lon="5.45096">
        <ele>250</ele>
        <time>2011-03-18T16:01:10Z</time>
      </trkpt>
      <trkpt lat="47.09394" lon="5.45093">
        <ele>250</ele>
        <time>2011-03-18T16:01:11Z</time>
      </trkpt>
      <trkpt lat="47.09384" lon="5.45093">
        <ele>250</ele>
        <time>2011-03-18T16:01:12Z</time>
      </trkpt>
      <trkpt lat="47.09375" lon="5.45095">
        <ele>250</ele>
        <time>2011-03-18T16:01:13Z</time>
      </trkpt>
      <trkpt lat="47.09365" lon="5.451">
        <ele>250</ele>
        <time>2011-03-18T16:01:14Z</time>
      </trkpt>
      <trkpt lat="47.09355" lon="5.45104">
        <ele>250</ele>
        <time>2011-03-18T16:01:15Z</time>
      </trkpt>
      <trkpt lat="47.09345" lon="5.4511">
        <ele>250</ele>
        <time>2011-03-18T16:01:16Z</time>
      </trkpt>
      <trkpt lat="47.09335" lon="5.45117">
        <ele>250</ele>
        <time>2011-03-18T16:01:17Z</time>
      </trkpt>
      <trkpt lat="47.09325" lon="5.45122">
        <ele>244</ele>
        <time>2011-03-18T16:01:18Z</time>
      </trkpt>
      <trkpt lat="47.09315" lon="5.45128">
        <ele>244</ele>
        <time>2011-03-18T16:01:19Z</time>
      </trkpt>
      <trkpt lat="47.09304" lon="5.45135">
        <ele>244</ele>
        <time>2011-03-18T16:01:20Z</time>
      </trkpt>
      <trkpt lat="47.09294" lon="5.45141">
        <ele>244</ele>
        <time>2011-03-18T16:01:21Z</time>
      </trkpt>
      <trkpt lat="47.09284" lon="5.45146">
        <ele>244</ele>
        <time>2011-03-18T16:01:22Z</time>
      </trkpt>
      <trkpt lat="47.09274" lon="5.45153">
        <ele>244</ele>
        <time>2011-03-18T16:01:23Z</time>
      </trkpt>
      <trkpt lat="47.09264" lon="5.45159">
        <ele>239</ele>
        <time>2011-03-18T16:01:24Z</time>
      </trkpt>
      <trkpt lat="47.09254" lon="5.45164">
        <ele>239</ele>
        <time>2011-03-18T16:01:25Z</time>
      </trkpt>
      <trkpt lat="47.09244" lon="5.45171">
        <ele>239</ele>
        <time>2011-03-18T16:01:26Z</time>
      </trkpt>
      <trkpt lat="47.09234" lon="5.45176">
        <ele>239</ele>
        <time>2011-03-18T16:01:27Z</time>
      </trkpt>
      <trkpt lat="47.09224" lon="5.45182">
        <ele>239</ele>
        <time>2011-03-18T16:01:28Z</time>
      </trkpt>
      <trkpt lat="47.09215" lon="5.45188">
        <ele>239</ele>
        <time>2011-03-18T16:01:29Z</time>
      </trkpt>
      <trkpt lat="47.09206" lon="5.45193">
        <ele>239</ele>
        <time>2011-03-18T16:01:30Z</time>
      </trkpt>
      <trkpt lat="47.09197" lon="5.45198">
        <ele>239</ele>
        <time>2011-03-18T16:01:31Z</time>
      </trkpt>
      <trkpt lat="47.09189" lon="5.45204">
        <ele>239</ele>
        <time>2011-03-18T16:01:32Z</time>
      </trkpt>
      <trkpt lat="47.0918" lon="5.45209">
        <ele>239</ele>
        <time>2011-03-18T16:01:33Z</time>
      </trkpt>
      <trkpt lat="47.09164" lon="5.45219">
        <ele>239</ele>
        <time>2011-03-18T16:01:35Z</time>
      </trkpt>
      <trkpt lat="47.09149" lon="5.45228">
        <ele>239</ele>
        <time>2011-03-18T16:01:37Z</time>
      </trkpt>
      <trkpt lat="47.09134" lon="5.45237">
        <ele>239</ele>
        <time>2011-03-18T16:01:39Z</time>
      </trkpt>
      <trkpt lat="47.09121" lon="5.45246">
        <ele>239</ele>
        <time>2011-03-18T16:01:41Z</time>
      </trkpt>
      <trkpt lat="47.09107" lon="5.45255">
        <ele>239</ele>
        <time>2011-03-18T16:01:43Z</time>
      </trkpt>
      <trkpt lat="47.09092" lon="5.45263">
        <ele>239</ele>
        <time>2011-03-18T16:01:45Z</time>
      </trkpt>
      <trkpt lat="47.09077" lon="5.45272">
        <ele>233</ele>
        <time>2011-03-18T16:01:47Z</time>
      </trkpt>
      <trkpt lat="47.09062" lon="5.45282">
        <ele>233</ele>
        <time>2011-03-18T16:01:49Z</time>
      </trkpt>
      <trkpt lat="47.09046" lon="5.45292">
        <ele>233</ele>
        <time>2011-03-18T16:01:51Z</time>
      </trkpt>
      <trkpt lat="47.0903" lon="5.45302">
        <ele>233</ele>
        <time>2011-03-18T16:01:53Z</time>
      </trkpt>
      <trkpt lat="47.09021" lon="5.45307">
        <ele>233</ele>
        <time>2011-03-18T16:01:54Z</time>
      </trkpt>
      <trkpt lat="47.09013" lon="5.45312">
        <ele>233</ele>
        <time>2011-03-18T16:01:55Z</time>
      </trkpt>
      <trkpt lat="47.09004" lon="5.45317">
        <ele>233</ele>
        <time>2011-03-18T16:01:56Z</time>
      </trkpt>
      <trkpt lat="47.08995" lon="5.45321">
        <ele>228</ele>
        <time>2011-03-18T16:01:57Z</time>
      </trkpt>
      <trkpt lat="47.08986" lon="5.45324">
        <ele>228</ele>
        <time>2011-03-18T16:01:58Z</time>
      </trkpt>
      <trkpt lat="47.08976" lon="5.45324">
        <ele>228</ele>
        <time>2011-03-18T16:01:59Z</time>
      </trkpt>
      <trkpt lat="47.08967" lon="5.45323">
        <ele>228</ele>
        <time>2011-03-18T16:02:00Z</time>
      </trkpt>
      <trkpt lat="47.08957" lon="5.45321">
        <ele>228</ele>
        <time>2011-03-18T16:02:01Z</time>
      </trkpt>
      <trkpt lat="47.08947" lon="5.4532">
        <ele>228</ele>
        <time>2011-03-18T16:02:02Z</time>
      </trkpt>
      <trkpt lat="47.08938" lon="5.45319">
        <ele>228</ele>
        <time>2011-03-18T16:02:03Z</time>
      </trkpt>
      <trkpt lat="47.08921" lon="5.4532">
        <ele>228</ele>
        <time>2011-03-18T16:02:05Z</time>
      </trkpt>
      <trkpt lat="47.08908" lon="5.45329">
        <ele>228</ele>
        <time>2011-03-18T16:02:07Z</time>
      </trkpt>
      <trkpt lat="47.08899" lon="5.45342">
        <ele>228</ele>
        <time>2011-03-18T16:02:09Z</time>
      </trkpt>
      <trkpt lat="47.08891" lon="5.45356">
        <ele>228</ele>
        <time>2011-03-18T16:02:11Z</time>
      </trkpt>
      <trkpt lat="47.08881" lon="5.4537">
        <ele>228</ele>
        <time>2011-03-18T16:02:13Z</time>
      </trkpt>
      <trkpt lat="47.08872" lon="5.45384">
        <ele>228</ele>
        <time>2011-03-18T16:02:15Z</time>
      </trkpt>
      <trkpt lat="47.08862" lon="5.45399">
        <ele>228</ele>
        <time>2011-03-18T16:02:17Z</time>
      </trkpt>
      <trkpt lat="47.08851" lon="5.4541">
        <ele>223</ele>
        <time>2011-03-18T16:02:19Z</time>
      </trkpt>
      <trkpt lat="47.08838" lon="5.4542">
        <ele>223</ele>
        <time>2011-03-18T16:02:21Z</time>
      </trkpt>
      <trkpt lat="47.08825" lon="5.45429">
        <ele>223</ele>
        <time>2011-03-18T16:02:23Z</time>
      </trkpt>
      <trkpt lat="47.08811" lon="5.45438">
        <ele>223</ele>
        <time>2011-03-18T16:02:25Z</time>
      </trkpt>
      <trkpt lat="47.08797" lon="5.45445">
        <ele>223</ele>
        <time>2011-03-18T16:02:27Z</time>
      </trkpt>
      <trkpt lat="47.08784" lon="5.45453">
        <ele>223</ele>
        <time>2011-03-18T16:02:29Z</time>
      </trkpt>
      <trkpt lat="47.08769" lon="5.45459">
        <ele>223</ele>
        <time>2011-03-18T16:02:31Z</time>
      </trkpt>
      <trkpt lat="47.08755" lon="5.45463">
        <ele>223</ele>
        <time>2011-03-18T16:02:33Z</time>
      </trkpt>
      <trkpt lat="47.08739" lon="5.45467">
        <ele>223</ele>
        <time>2011-03-18T16:02:35Z</time>
      </trkpt>
      <trkpt lat="47.08724" lon="5.45468">
        <ele>223</ele>
        <time>2011-03-18T16:02:37Z</time>
      </trkpt>
      <trkpt lat="47.08708" lon="5.4547">
        <ele>223</ele>
        <time>2011-03-18T16:02:39Z</time>
      </trkpt>
      <trkpt lat="47.08693" lon="5.45471">
        <ele>223</ele>
        <time>2011-03-18T16:02:41Z</time>
      </trkpt>
      <trkpt lat="47.0868" lon="5.45472">
        <ele>223</ele>
        <time>2011-03-18T16:02:43Z</time>
      </trkpt>
      <trkpt lat="47.0867" lon="5.45474">
        <ele>218</ele>
        <time>2011-03-18T16:02:45Z</time>
      </trkpt>
      <trkpt lat="47.08659" lon="5.45474">
        <ele>218</ele>
        <time>2011-03-18T16:02:48Z</time>
      </trkpt>
      <trkpt lat="47.08648" lon="5.45475">
        <ele>218</ele>
        <time>2011-03-18T16:02:58Z</time>
      </trkpt>
      <trkpt lat="47.08637" lon="5.45477">
        <ele>218</ele>
        <time>2011-03-18T16:03:01Z</time>
      </trkpt>
      <trkpt lat="47.08627" lon="5.45481">
        <ele>218</ele>
        <time>2011-03-18T16:03:03Z</time>
      </trkpt>
      <trkpt lat="47.08618" lon="5.45488">
        <ele>218</ele>
        <time>2011-03-18T16:03:05Z</time>
      </trkpt>
      <trkpt lat="47.08607" lon="5.45495">
        <ele>218</ele>
        <time>2011-03-18T16:03:07Z</time>
      </trkpt>
      <trkpt lat="47.08596" lon="5.45501">
        <ele>218</ele>
        <time>2011-03-18T16:03:09Z</time>
      </trkpt>
      <trkpt lat="47.08585" lon="5.45506">
        <ele>218</ele>
        <time>2011-03-18T16:03:11Z</time>
      </trkpt>
      <trkpt lat="47.08574" lon="5.45511">
        <ele>218</ele>
        <time>2011-03-18T16:03:13Z</time>
      </trkpt>
      <trkpt lat="47.08563" lon="5.45515">
        <ele>218</ele>
        <time>2011-03-18T16:03:15Z</time>
      </trkpt>
      <trkpt lat="47.08553" lon="5.45518">
        <ele>218</ele>
        <time>2011-03-18T16:03:17Z</time>
      </trkpt>
      <trkpt lat="47.08541" lon="5.45523">
        <ele>218</ele>
        <time>2011-03-18T16:03:19Z</time>
      </trkpt>
      <trkpt lat="47.0853" lon="5.45528">
        <ele>218</ele>
        <time>2011-03-18T16:03:21Z</time>
      </trkpt>
      <trkpt lat="47.08519" lon="5.45533">
        <ele>218</ele>
        <time>2011-03-18T16:03:23Z</time>
      </trkpt>
      <trkpt lat="47.08506" lon="5.45538">
        <ele>212</ele>
        <time>2011-03-18T16:03:25Z</time>
      </trkpt>
      <trkpt lat="47.08494" lon="5.45544">
        <ele>212</ele>
        <time>2011-03-18T16:03:27Z</time>
      </trkpt>
      <trkpt lat="47.08482" lon="5.4555">
        <ele>212</ele>
        <time>2011-03-18T16:03:29Z</time>
      </trkpt>
      <trkpt lat="47.0847" lon="5.45554">
        <ele>212</ele>
        <time>2011-03-18T16:03:31Z</time>
      </trkpt>
      <trkpt lat="47.08457" lon="5.45558">
        <ele>212</ele>
        <time>2011-03-18T16:03:33Z</time>
      </trkpt>
      <trkpt lat="47.08445" lon="5.45561">
        <ele>212</ele>
        <time>2011-03-18T16:03:35Z</time>
      </trkpt>
      <trkpt lat="47.08435" lon="5.45564">
        <ele>212</ele>
        <time>2011-03-18T16:03:37Z</time>
      </trkpt>
      <trkpt lat="47.08424" lon="5.45566">
        <ele>212</ele>
        <time>2011-03-18T16:03:41Z</time>
      </trkpt>
      <trkpt lat="47.08415" lon="5.45568">
        <ele>212</ele>
        <time>2011-03-18T16:03:45Z</time>
      </trkpt>
      <trkpt lat="47.08403" lon="5.4557">
        <ele>212</ele>
        <time>2011-03-18T16:03:48Z</time>
      </trkpt>
      <trkpt lat="47.08394" lon="5.45574">
        <ele>212</ele>
        <time>2011-03-18T16:03:50Z</time>
      </trkpt>
      <trkpt lat="47.08384" lon="5.45579">
        <ele>212</ele>
        <time>2011-03-18T16:03:52Z</time>
      </trkpt>
      <trkpt lat="47.08374" lon="5.45586">
        <ele>212</ele>
        <time>2011-03-18T16:03:54Z</time>
      </trkpt>
      <trkpt lat="47.08364" lon="5.45591">
        <ele>212</ele>
        <time>2011-03-18T16:03:56Z</time>
      </trkpt>
      <trkpt lat="47.08352" lon="5.45596">
        <ele>212</ele>
        <time>2011-03-18T16:03:58Z</time>
      </trkpt>
      <trkpt lat="47.08341" lon="5.45598">
        <ele>212</ele>
        <time>2011-03-18T16:04:00Z</time>
      </trkpt>
      <trkpt lat="47.08331" lon="5.45603">
        <ele>212</ele>
        <time>2011-03-18T16:04:02Z</time>
      </trkpt>
      <trkpt lat="47.08329" lon="5.45616">
        <ele>212</ele>
        <time>2011-03-18T16:04:04Z</time>
      </trkpt>
      <trkpt lat="47.08324" lon="5.45632">
        <ele>212</ele>
        <time>2011-03-18T16:04:07Z</time>
      </trkpt>
      <trkpt lat="47.08316" lon="5.45639">
        <ele>212</ele>
        <time>2011-03-18T16:04:09Z</time>
      </trkpt>
      <trkpt lat="47.08307" lon="5.45645">
        <ele>212</ele>
        <time>2011-03-18T16:04:11Z</time>
      </trkpt>
      <trkpt lat="47.08298" lon="5.45652">
        <ele>212</ele>
        <time>2011-03-18T16:04:13Z</time>
      </trkpt>
      <trkpt lat="47.0829" lon="5.45658">
        <ele>212</ele>
        <time>2011-03-18T16:04:15Z</time>
      </trkpt>
      <trkpt lat="47.08282" lon="5.45665">
        <ele>212</ele>
        <time>2011-03-18T16:04:17Z</time>
      </trkpt>
      <trkpt lat="47.08273" lon="5.45673">
        <ele>212</ele>
        <time>2011-03-18T16:04:19Z</time>
      </trkpt>
      <trkpt lat="47.08265" lon="5.4568">
        <ele>212</ele>
        <time>2011-03-18T16:04:21Z</time>
      </trkpt>
      <trkpt lat="47.08256" lon="5.45687">
        <ele>212</ele>
        <time>2011-03-18T16:04:23Z</time>
      </trkpt>
      <trkpt lat="47.08248" lon="5.45694">
        <ele>212</ele>
        <time>2011-03-18T16:04:25Z</time>
      </trkpt>
      <trkpt lat="47.08239" lon="5.45702">
        <ele>212</ele>
        <time>2011-03-18T16:04:27Z</time>
      </trkpt>
      <trkpt lat="47.08231" lon="5.4571">
        <ele>212</ele>
        <time>2011-03-18T16:04:29Z</time>
      </trkpt>
      <trkpt lat="47.08223" lon="5.45717">
        <ele>212</ele>
        <time>2011-03-18T16:04:31Z</time>
      </trkpt>
      <trkpt lat="47.08215" lon="5.45725">
        <ele>212</ele>
        <time>2011-03-18T16:04:33Z</time>
      </trkpt>
      <trkpt lat="47.08208" lon="5.45733">
        <ele>212</ele>
        <time>2011-03-18T16:04:35Z</time>
      </trkpt>
      <trkpt lat="47.08197" lon="5.45745">
        <ele>212</ele>
        <time>2011-03-18T16:04:38Z</time>
      </trkpt>
      <trkpt lat="47.08187" lon="5.45755">
        <ele>212</ele>
        <time>2011-03-18T16:04:41Z</time>
      </trkpt>
      <trkpt lat="47.08179" lon="5.45763">
        <ele>212</ele>
        <time>2011-03-18T16:04:43Z</time>
      </trkpt>
      <trkpt lat="47.0817" lon="5.45775">
        <ele>212</ele>
        <time>2011-03-18T16:04:46Z</time>
      </trkpt>
      <trkpt lat="47.08159" lon="5.45787">
        <ele>212</ele>
        <time>2011-03-18T16:04:49Z</time>
      </trkpt>
      <trkpt lat="47.08149" lon="5.45798">
        <ele>212</ele>
        <time>2011-03-18T16:04:52Z</time>
      </trkpt>
      <trkpt lat="47.08139" lon="5.45809">
        <ele>212</ele>
        <time>2011-03-18T16:04:55Z</time>
      </trkpt>
      <trkpt lat="47.08129" lon="5.45821">
        <ele>212</ele>
        <time>2011-03-18T16:04:58Z</time>
      </trkpt>
      <trkpt lat="47.08119" lon="5.45832">
        <ele>212</ele>
        <time>2011-03-18T16:05:01Z</time>
      </trkpt>
      <trkpt lat="47.08109" lon="5.45839">
        <ele>212</ele>
        <time>2011-03-18T16:05:04Z</time>
      </trkpt>
      <trkpt lat="47.081" lon="5.45846">
        <ele>212</ele>
        <time>2011-03-18T16:05:07Z</time>
      </trkpt>
      <trkpt lat="47.08092" lon="5.45854">
        <ele>218</ele>
        <time>2011-03-18T16:05:12Z</time>
      </trkpt>
      <trkpt lat="47.08093" lon="5.45871">
        <ele>218</ele>
        <time>2011-03-18T16:05:17Z</time>
      </trkpt>
      <trkpt lat="47.08098" lon="5.45884">
        <ele>218</ele>
        <time>2011-03-18T16:05:20Z</time>
      </trkpt>
      <trkpt lat="47.081" lon="5.45898">
        <ele>218</ele>
        <time>2011-03-18T16:05:23Z</time>
      </trkpt>
      <trkpt lat="47.081" lon="5.45913">
        <ele>218</ele>
        <time>2011-03-18T16:05:26Z</time>
      </trkpt>
      <trkpt lat="47.08098" lon="5.4593">
        <ele>218</ele>
        <time>2011-03-18T16:05:29Z</time>
      </trkpt>
      <trkpt lat="47.08095" lon="5.45946">
        <ele>218</ele>
        <time>2011-03-18T16:05:32Z</time>
      </trkpt>
      <trkpt lat="47.08092" lon="5.45961">
        <ele>218</ele>
        <time>2011-03-18T16:05:35Z</time>
      </trkpt>
      <trkpt lat="47.08089" lon="5.45977">
        <ele>218</ele>
        <time>2011-03-18T16:05:38Z</time>
      </trkpt>
      <trkpt lat="47.08086" lon="5.45993">
        <ele>218</ele>
        <time>2011-03-18T16:05:41Z</time>
      </trkpt>
      <trkpt lat="47.08083" lon="5.4601">
        <ele>218</ele>
        <time>2011-03-18T16:05:44Z</time>
      </trkpt>
      <trkpt lat="47.08079" lon="5.46026">
        <ele>218</ele>
        <time>2011-03-18T16:05:47Z</time>
      </trkpt>
      <trkpt lat="47.08077" lon="5.46042">
        <ele>218</ele>
        <time>2011-03-18T16:05:50Z</time>
      </trkpt>
      <trkpt lat="47.08074" lon="5.46058">
        <ele>218</ele>
        <time>2011-03-18T16:05:53Z</time>
      </trkpt>
      <trkpt lat="47.08071" lon="5.46074">
        <ele>223</ele>
        <time>2011-03-18T16:05:56Z</time>
      </trkpt>
      <trkpt lat="47.08068" lon="5.4609">
        <ele>223</ele>
        <time>2011-03-18T16:05:59Z</time>
      </trkpt>
      <trkpt lat="47.08065" lon="5.46106">
        <ele>223</ele>
        <time>2011-03-18T16:06:02Z</time>
      </trkpt>
      <trkpt lat="47.08062" lon="5.46122">
        <ele>223</ele>
        <time>2011-03-18T16:06:05Z</time>
      </trkpt>
      <trkpt lat="47.08059" lon="5.46137">
        <ele>223</ele>
        <time>2011-03-18T16:06:08Z</time>
      </trkpt>
      <trkpt lat="47.08057" lon="5.46153">
        <ele>223</ele>
        <time>2011-03-18T16:06:11Z</time>
      </trkpt>
      <trkpt lat="47.08054" lon="5.46169">
        <ele>223</ele>
        <time>2011-03-18T16:06:14Z</time>
      </trkpt>
      <trkpt lat="47.08049" lon="5.46184">
        <ele>223</ele>
        <time>2011-03-18T16:06:17Z</time>
      </trkpt>
      <trkpt lat="47.08044" lon="5.46198">
        <ele>223</ele>
        <time>2011-03-18T16:06:20Z</time>
      </trkpt>
      <trkpt lat="47.08041" lon="5.46213">
        <ele>223</ele>
        <time>2011-03-18T16:06:23Z</time>
      </trkpt>
      <trkpt lat="47.08038" lon="5.46228">
        <ele>229</ele>
        <time>2011-03-18T16:06:26Z</time>
      </trkpt>
      <trkpt lat="47.08034" lon="5.46243">
        <ele>229</ele>
        <time>2011-03-18T16:06:29Z</time>
      </trkpt>
      <trkpt lat="47.0803" lon="5.46258">
        <ele>229</ele>
        <time>2011-03-18T16:06:32Z</time>
      </trkpt>
      <trkpt lat="47.08027" lon="5.46273">
        <ele>229</ele>
        <time>2011-03-18T16:06:35Z</time>
      </trkpt>
      <trkpt lat="47.08022" lon="5.46287">
        <ele>229</ele>
        <time>2011-03-18T16:06:38Z</time>
      </trkpt>
      <trkpt lat="47.08017" lon="5.463">
        <ele>229</ele>
        <time>2011-03-18T16:06:41Z</time>
      </trkpt>
      <trkpt lat="47.08008" lon="5.46309">
        <ele>229</ele>
        <time>2011-03-18T16:06:44Z</time>
      </trkpt>
      <trkpt lat="47.08" lon="5.46318">
        <ele>229</ele>
        <time>2011-03-18T16:06:47Z</time>
      </trkpt>
      <trkpt lat="47.07998" lon="5.46331">
        <ele>229</ele>
        <time>2011-03-18T16:06:50Z</time>
      </trkpt>
      <trkpt lat="47.08002" lon="5.46345">
        <ele>229</ele>
        <time>2011-03-18T16:06:53Z</time>
      </trkpt>
      <trkpt lat="47.08011" lon="5.46358">
        <ele>229</ele>
        <time>2011-03-18T16:06:56Z</time>
      </trkpt>
      <trkpt lat="47.08017" lon="5.46374">
        <ele>229</ele>
        <time>2011-03-18T16:06:59Z</time>
      </trkpt>
      <trkpt lat="47.08021" lon="5.46387">
        <ele>229</ele>
        <time>2011-03-18T16:07:01Z</time>
      </trkpt>
      <trkpt lat="47.08025" lon="5.46404">
        <ele>229</ele>
        <time>2011-03-18T16:07:04Z</time>
      </trkpt>
      <trkpt lat="47.08029" lon="5.46416">
        <ele>229</ele>
        <time>2011-03-18T16:07:06Z</time>
      </trkpt>
      <trkpt lat="47.08035" lon="5.46434">
        <ele>229</ele>
        <time>2011-03-18T16:07:09Z</time>
      </trkpt>
      <trkpt lat="47.08041" lon="5.46445">
        <ele>229</ele>
        <time>2011-03-18T16:07:11Z</time>
      </trkpt>
      <trkpt lat="47.08046" lon="5.46457">
        <ele>229</ele>
        <time>2011-03-18T16:07:13Z</time>
      </trkpt>
      <trkpt lat="47.08054" lon="5.46469">
        <ele>229</ele>
        <time>2011-03-18T16:07:15Z</time>
      </trkpt>
      <trkpt lat="47.0806" lon="5.46482">
        <ele>229</ele>
        <time>2011-03-18T16:07:17Z</time>
      </trkpt>
      <trkpt lat="47.08067" lon="5.46496">
        <ele>229</ele>
        <time>2011-03-18T16:07:19Z</time>
      </trkpt>
      <trkpt lat="47.08075" lon="5.46509">
        <ele>229</ele>
        <time>2011-03-18T16:07:21Z</time>
      </trkpt>
      <trkpt lat="47.08082" lon="5.46522">
        <ele>229</ele>
        <time>2011-03-18T16:07:23Z</time>
      </trkpt>
      <trkpt lat="47.08091" lon="5.46534">
        <ele>229</ele>
        <time>2011-03-18T16:07:25Z</time>
      </trkpt>
      <trkpt lat="47.08099" lon="5.46545">
        <ele>229</ele>
        <time>2011-03-18T16:07:27Z</time>
      </trkpt>
      <trkpt lat="47.08106" lon="5.46559">
        <ele>229</ele>
        <time>2011-03-18T16:07:29Z</time>
      </trkpt>
      <trkpt lat="47.08114" lon="5.46575">
        <ele>229</ele>
        <time>2011-03-18T16:07:31Z</time>
      </trkpt>
      <trkpt lat="47.08121" lon="5.46589">
        <ele>229</ele>
        <time>2011-03-18T16:07:33Z</time>
      </trkpt>
      <trkpt lat="47.08127" lon="5.46602">
        <ele>234</ele>
        <time>2011-03-18T16:07:35Z</time>
      </trkpt>
      <trkpt lat="47.08132" lon="5.46612">
        <ele>234</ele>
        <time>2011-03-18T16:07:37Z</time>
      </trkpt>
      <trkpt lat="47.0814" lon="5.46628">
        <ele>234</ele>
        <time>2011-03-18T16:07:40Z</time>
      </trkpt>
      <trkpt lat="47.08147" lon="5.46643">
        <ele>234</ele>
        <time>2011-03-18T16:07:43Z</time>
      </trkpt>
      <trkpt lat="47.08155" lon="5.46658">
        <ele>240</ele>
        <time>2011-03-18T16:07:46Z</time>
      </trkpt>
      <trkpt lat="47.08163" lon="5.46674">
        <ele>240</ele>
        <time>2011-03-18T16:07:49Z</time>
      </trkpt>
      <trkpt lat="47.0817" lon="5.4669">
        <ele>240</ele>
        <time>2011-03-18T16:07:52Z</time>
      </trkpt>
      <trkpt lat="47.08175" lon="5.46701">
        <ele>240</ele>
        <time>2011-03-18T16:07:54Z</time>
      </trkpt>
      <trkpt lat="47.08179" lon="5.46713">
        <ele>240</ele>
        <time>2011-03-18T16:07:56Z</time>
      </trkpt>
      <trkpt lat="47.08183" lon="5.46731">
        <ele>240</ele>
        <time>2011-03-18T16:07:59Z</time>
      </trkpt>
      <trkpt lat="47.08186" lon="5.46743">
        <ele>240</ele>
        <time>2011-03-18T16:08:01Z</time>
      </trkpt>
      <trkpt lat="47.08188" lon="5.46761">
        <ele>240</ele>
        <time>2011-03-18T16:08:04Z</time>
      </trkpt>
      <trkpt lat="47.08189" lon="5.46775">
        <ele>240</ele>
        <time>2011-03-18T16:08:06Z</time>
      </trkpt>
      <trkpt lat="47.08189" lon="5.46793">
        <ele>245</ele>
        <time>2011-03-18T16:08:09Z</time>
      </trkpt>
      <trkpt lat="47.08189" lon="5.46806">
        <ele>245</ele>
        <time>2011-03-18T16:08:11Z</time>
      </trkpt>
      <trkpt lat="47.08188" lon="5.46824">
        <ele>245</ele>
        <time>2011-03-18T16:08:14Z</time>
      </trkpt>
      <trkpt lat="47.08187" lon="5.46842">
        <ele>245</ele>
        <time>2011-03-18T16:08:17Z</time>
      </trkpt>
      <trkpt lat="47.08186" lon="5.4686">
        <ele>245</ele>
        <time>2011-03-18T16:08:20Z</time>
      </trkpt>
      <trkpt lat="47.08184" lon="5.46878">
        <ele>245</ele>
        <time>2011-03-18T16:08:23Z</time>
      </trkpt>
      <trkpt lat="47.08182" lon="5.46894">
        <ele>245</ele>
        <time>2011-03-18T16:08:26Z</time>
      </trkpt>
      <trkpt lat="47.08179" lon="5.46911">
        <ele>245</ele>
        <time>2011-03-18T16:08:29Z</time>
      </trkpt>
      <trkpt lat="47.08177" lon="5.46925">
        <ele>245</ele>
        <time>2011-03-18T16:08:33Z</time>
      </trkpt>
      <trkpt lat="47.08175" lon="5.4694">
        <ele>245</ele>
        <time>2011-03-18T16:08:45Z</time>
      </trkpt>
      <trkpt lat="47.08175" lon="5.46956">
        <ele>245</ele>
        <time>2011-03-18T16:08:48Z</time>
      </trkpt>
      <trkpt lat="47.08177" lon="5.46969">
        <ele>245</ele>
        <time>2011-03-18T16:08:50Z</time>
      </trkpt>
      <trkpt lat="47.08182" lon="5.46984">
        <ele>245</ele>
        <time>2011-03-18T16:08:53Z</time>
      </trkpt>
      <trkpt lat="47.08191" lon="5.46995">
        <ele>245</ele>
        <time>2011-03-18T16:08:56Z</time>
      </trkpt>
      <trkpt lat="47.08202" lon="5.47004">
        <ele>245</ele>
        <time>2011-03-18T16:08:59Z</time>
      </trkpt>
      <trkpt lat="47.08212" lon="5.47012">
        <ele>245</ele>
        <time>2011-03-18T16:09:02Z</time>
      </trkpt>
      <trkpt lat="47.08222" lon="5.47019">
        <ele>245</ele>
        <time>2011-03-18T16:09:05Z</time>
      </trkpt>
      <trkpt lat="47.08231" lon="5.47026">
        <ele>251</ele>
        <time>2011-03-18T16:09:08Z</time>
      </trkpt>
      <trkpt lat="47.0824" lon="5.47035">
        <ele>251</ele>
        <time>2011-03-18T16:09:11Z</time>
      </trkpt>
      <trkpt lat="47.08248" lon="5.47043">
        <ele>251</ele>
        <time>2011-03-18T16:09:14Z</time>
      </trkpt>
      <trkpt lat="47.08256" lon="5.47052">
        <ele>251</ele>
        <time>2011-03-18T16:09:17Z</time>
      </trkpt>
      <trkpt lat="47.08264" lon="5.47061">
        <ele>251</ele>
        <time>2011-03-18T16:09:20Z</time>
      </trkpt>
      <trkpt lat="47.08271" lon="5.4707">
        <ele>257</ele>
        <time>2011-03-18T16:09:23Z</time>
      </trkpt>
      <trkpt lat="47.08279" lon="5.47079">
        <ele>257</ele>
        <time>2011-03-18T16:09:26Z</time>
      </trkpt>
      <trkpt lat="47.08287" lon="5.47089">
        <ele>257</ele>
        <time>2011-03-18T16:09:30Z</time>
      </trkpt>
      <trkpt lat="47.08295" lon="5.47097">
        <ele>257</ele>
        <time>2011-03-18T16:09:37Z</time>
      </trkpt>
      <trkpt lat="47.08303" lon="5.47106">
        <ele>257</ele>
        <time>2011-03-18T16:09:41Z</time>
      </trkpt>
      <trkpt lat="47.0831" lon="5.47115">
        <ele>257</ele>
        <time>2011-03-18T16:09:44Z</time>
      </trkpt>
      <trkpt lat="47.08317" lon="5.47123">
        <ele>262</ele>
        <time>2011-03-18T16:09:47Z</time>
      </trkpt>
      <trkpt lat="47.08325" lon="5.47132">
        <ele>262</ele>
        <time>2011-03-18T16:09:50Z</time>
      </trkpt>
      <trkpt lat="47.08333" lon="5.47141">
        <ele>262</ele>
        <time>2011-03-18T16:09:53Z</time>
      </trkpt>
      <trkpt lat="47.0834" lon="5.47151">
        <ele>262</ele>
        <time>2011-03-18T16:09:56Z</time>
      </trkpt>
      <trkpt lat="47.08347" lon="5.47163">
        <ele>262</ele>
        <time>2011-03-18T16:09:59Z</time>
      </trkpt>
      <trkpt lat="47.08354" lon="5.47176">
        <ele>262</ele>
        <time>2011-03-18T16:10:03Z</time>
      </trkpt>
      <trkpt lat="47.08358" lon="5.47187">
        <ele>262</ele>
        <time>2011-03-18T16:10:10Z</time>
      </trkpt>
      <trkpt lat="47.08361" lon="5.472">
        <ele>262</ele>
        <time>2011-03-18T16:10:37Z</time>
      </trkpt>
      <trkpt lat="47.08365" lon="5.47217">
        <ele>262</ele>
        <time>2011-03-18T16:10:41Z</time>
      </trkpt>
      <trkpt lat="47.08367" lon="5.47232">
        <ele>262</ele>
        <time>2011-03-18T16:10:44Z</time>
      </trkpt>
      <trkpt lat="47.08368" lon="5.47249">
        <ele>262</ele>
        <time>2011-03-18T16:10:47Z</time>
      </trkpt>
      <trkpt lat="47.08368" lon="5.47263">
        <ele>262</ele>
        <time>2011-03-18T16:10:49Z</time>
      </trkpt>
      <trkpt lat="47.0837" lon="5.47276">
        <ele>262</ele>
        <time>2011-03-18T16:10:51Z</time>
      </trkpt>
      <trkpt lat="47.0837" lon="5.4729">
        <ele>262</ele>
        <time>2011-03-18T16:10:53Z</time>
      </trkpt>
      <trkpt lat="47.08371" lon="5.47305">
        <ele>262</ele>
        <time>2011-03-18T16:10:55Z</time>
      </trkpt>
      <trkpt lat="47.08373" lon="5.47319">
        <ele>262</ele>
        <time>2011-03-18T16:10:57Z</time>
      </trkpt>
      <trkpt lat="47.08375" lon="5.47335">
        <ele>262</ele>
        <time>2011-03-18T16:10:59Z</time>
      </trkpt>
      <trkpt lat="47.08378" lon="5.47353">
        <ele>262</ele>
        <time>2011-03-18T16:11:01Z</time>
      </trkpt>
      <trkpt lat="47.08381" lon="5.4737">
        <ele>262</ele>
        <time>2011-03-18T16:11:03Z</time>
      </trkpt>
      <trkpt lat="47.08386" lon="5.47388">
        <ele>262</ele>
        <time>2011-03-18T16:11:05Z</time>
      </trkpt>
      <trkpt lat="47.08391" lon="5.47406">
        <ele>262</ele>
        <time>2011-03-18T16:11:07Z</time>
      </trkpt>
      <trkpt lat="47.08395" lon="5.47425">
        <ele>257</ele>
        <time>2011-03-18T16:11:09Z</time>
      </trkpt>
      <trkpt lat="47.084" lon="5.47446">
        <ele>257</ele>
        <time>2011-03-18T16:11:11Z</time>
      </trkpt>
      <trkpt lat="47.08405" lon="5.47467">
        <ele>257</ele>
        <time>2011-03-18T16:11:13Z</time>
      </trkpt>
      <trkpt lat="47.08411" lon="5.47488">
        <ele>257</ele>
        <time>2011-03-18T16:11:15Z</time>
      </trkpt>
      <trkpt lat="47.08416" lon="5.47511">
        <ele>257</ele>
        <time>2011-03-18T16:11:17Z</time>
      </trkpt>
      <trkpt lat="47.08422" lon="5.47533">
        <ele>257</ele>
        <time>2011-03-18T16:11:19Z</time>
      </trkpt>
      <trkpt lat="47.08427" lon="5.47556">
        <ele>257</ele>
        <time>2011-03-18T16:11:21Z</time>
      </trkpt>
      <trkpt lat="47.08433" lon="5.4758">
        <ele>257</ele>
        <time>2011-03-18T16:11:23Z</time>
      </trkpt>
      <trkpt lat="47.0844" lon="5.47604">
        <ele>257</ele>
        <time>2011-03-18T16:11:25Z</time>
      </trkpt>
      <trkpt lat="47.08445" lon="5.47628">
        <ele>257</ele>
        <time>2011-03-18T16:11:27Z</time>
      </trkpt>
      <trkpt lat="47.08451" lon="5.47653">
        <ele>252</ele>
        <time>2011-03-18T16:11:29Z</time>
      </trkpt>
      <trkpt lat="47.08455" lon="5.47665">
        <ele>252</ele>
        <time>2011-03-18T16:11:30Z</time>
      </trkpt>
      <trkpt lat="47.08461" lon="5.47689">
        <ele>252</ele>
        <time>2011-03-18T16:11:32Z</time>
      </trkpt>
      <trkpt lat="47.08464" lon="5.47702">
        <ele>252</ele>
        <time>2011-03-18T16:11:33Z</time>
      </trkpt>
      <trkpt lat="47.08467" lon="5.47715">
        <ele>252</ele>
        <time>2011-03-18T16:11:34Z</time>
      </trkpt>
      <trkpt lat="47.0847" lon="5.47727">
        <ele>252</ele>
        <time>2011-03-18T16:11:35Z</time>
      </trkpt>
      <trkpt lat="47.08474" lon="5.4774">
        <ele>252</ele>
        <time>2011-03-18T16:11:36Z</time>
      </trkpt>
      <trkpt lat="47.08477" lon="5.47752">
        <ele>252</ele>
        <time>2011-03-18T16:11:37Z</time>
      </trkpt>
      <trkpt lat="47.08481" lon="5.47766">
        <ele>252</ele>
        <time>2011-03-18T16:11:38Z</time>
      </trkpt>
      <trkpt lat="47.08484" lon="5.47779">
        <ele>252</ele>
        <time>2011-03-18T16:11:39Z</time>
      </trkpt>
      <trkpt lat="47.08488" lon="5.47793">
        <ele>246</ele>
        <time>2011-03-18T16:11:40Z</time>
      </trkpt>
      <trkpt lat="47.08493" lon="5.47806">
        <ele>246</ele>
        <time>2011-03-18T16:11:41Z</time>
      </trkpt>
      <trkpt lat="47.08499" lon="5.4782">
        <ele>246</ele>
        <time>2011-03-18T16:11:42Z</time>
      </trkpt>
      <trkpt lat="47.08506" lon="5.47832">
        <ele>246</ele>
        <time>2011-03-18T16:11:43Z</time>
      </trkpt>
      <trkpt lat="47.08514" lon="5.47845">
        <ele>246</ele>
        <time>2011-03-18T16:11:44Z</time>
      </trkpt>
      <trkpt lat="47.08522" lon="5.47856">
        <ele>246</ele>
        <time>2011-03-18T16:11:45Z</time>
      </trkpt>
      <trkpt lat="47.08532" lon="5.47867">
        <ele>241</ele>
        <time>2011-03-18T16:11:46Z</time>
      </trkpt>
      <trkpt lat="47.08543" lon="5.47878">
        <ele>241</ele>
        <time>2011-03-18T16:11:47Z</time>
      </trkpt>
      <trkpt lat="47.08554" lon="5.47889">
        <ele>241</ele>
        <time>2011-03-18T16:11:48Z</time>
      </trkpt>
      <trkpt lat="47.08565" lon="5.47899">
        <ele>241</ele>
        <time>2011-03-18T16:11:49Z</time>
      </trkpt>
      <trkpt lat="47.08577" lon="5.47909">
        <ele>241</ele>
        <time>2011-03-18T16:11:50Z</time>
      </trkpt>
      <trkpt lat="47.08589" lon="5.4792">
        <ele>241</ele>
        <time>2011-03-18T16:11:51Z</time>
      </trkpt>
      <trkpt lat="47.08602" lon="5.47931">
        <ele>235</ele>
        <time>2011-03-18T16:11:52Z</time>
      </trkpt>
      <trkpt lat="47.08614" lon="5.47941">
        <ele>235</ele>
        <time>2011-03-18T16:11:53Z</time>
      </trkpt>
      <trkpt lat="47.08627" lon="5.47951">
        <ele>235</ele>
        <time>2011-03-18T16:11:54Z</time>
      </trkpt>
      <trkpt lat="47.0864" lon="5.47959">
        <ele>235</ele>
        <time>2011-03-18T16:11:55Z</time>
      </trkpt>
      <trkpt lat="47.08653" lon="5.47964">
        <ele>235</ele>
        <time>2011-03-18T16:11:56Z</time>
      </trkpt>
      <trkpt lat="47.08665" lon="5.47969">
        <ele>235</ele>
        <time>2011-03-18T16:11:57Z</time>
      </trkpt>
      <trkpt lat="47.08678" lon="5.47972">
        <ele>235</ele>
        <time>2011-03-18T16:11:58Z</time>
      </trkpt>
      <trkpt lat="47.08689" lon="5.47975">
        <ele>235</ele>
        <time>2011-03-18T16:11:59Z</time>
      </trkpt>
      <trkpt lat="47.08701" lon="5.47978">
        <ele>235</ele>
        <time>2011-03-18T16:12:00Z</time>
      </trkpt>
      <trkpt lat="47.08712" lon="5.4798">
        <ele>235</ele>
        <time>2011-03-18T16:12:01Z</time>
      </trkpt>
      <trkpt lat="47.08722" lon="5.47984">
        <ele>235</ele>
        <time>2011-03-18T16:12:02Z</time>
      </trkpt>
      <trkpt lat="47.08733" lon="5.47988">
        <ele>235</ele>
        <time>2011-03-18T16:12:03Z</time>
      </trkpt>
      <trkpt lat="47.08743" lon="5.47992">
        <ele>235</ele>
        <time>2011-03-18T16:12:04Z</time>
      </trkpt>
      <trkpt lat="47.08752" lon="5.47997">
        <ele>235</ele>
        <time>2011-03-18T16:12:05Z</time>
      </trkpt>
      <trkpt lat="47.08761" lon="5.48002">
        <ele>235</ele>
        <time>2011-03-18T16:12:06Z</time>
      </trkpt>
      <trkpt lat="47.0877" lon="5.48007">
        <ele>235</ele>
        <time>2011-03-18T16:12:07Z</time>
      </trkpt>
      <trkpt lat="47.08778" lon="5.48013">
        <ele>235</ele>
        <time>2011-03-18T16:12:08Z</time>
      </trkpt>
      <trkpt lat="47.08794" lon="5.48024">
        <ele>235</ele>
        <time>2011-03-18T16:12:10Z</time>
      </trkpt>
      <trkpt lat="47.08808" lon="5.48038">
        <ele>235</ele>
        <time>2011-03-18T16:12:12Z</time>
      </trkpt>
      <trkpt lat="47.08821" lon="5.48051">
        <ele>235</ele>
        <time>2011-03-18T16:12:14Z</time>
      </trkpt>
      <trkpt lat="47.08834" lon="5.48066">
        <ele>235</ele>
        <time>2011-03-18T16:12:16Z</time>
      </trkpt>
      <trkpt lat="47.08846" lon="5.48081">
        <ele>235</ele>
        <time>2011-03-18T16:12:18Z</time>
      </trkpt>
      <trkpt lat="47.08859" lon="5.48095">
        <ele>235</ele>
        <time>2011-03-18T16:12:20Z</time>
      </trkpt>
      <trkpt lat="47.0887" lon="5.4811">
        <ele>235</ele>
        <time>2011-03-18T16:12:22Z</time>
      </trkpt>
      <trkpt lat="47.08882" lon="5.48123">
        <ele>235</ele>
        <time>2011-03-18T16:12:24Z</time>
      </trkpt>
      <trkpt lat="47.08893" lon="5.48137">
        <ele>235</ele>
        <time>2011-03-18T16:12:26Z</time>
      </trkpt>
      <trkpt lat="47.08903" lon="5.48148">
        <ele>235</ele>
        <time>2011-03-18T16:12:28Z</time>
      </trkpt>
      <trkpt lat="47.08911" lon="5.48157">
        <ele>235</ele>
        <time>2011-03-18T16:12:30Z</time>
      </trkpt>
    </trkseg>
  </trk>
</gpx>